GFSMW_prec_precacc24_027.txt.gz
Total_Precipitation_Accumulation
0.00 0.00 0.00 0.00 0.00 0.00 0.00 0.00 0.00 0.00 0.00 0.00 0.00 0.04 0.02 0.01 0.01 0.00 0.00 0.00 0.00 0.00 0.00 0.00 0.00 0.00 0.00 0.00 0.00 0.00 0.00 0.00 0.00 0.00 0.00 0.00 0.00 0.00 0.00 0.00 0.00 0.00 0.00
0.00 0.00 0.00 0.00 0.00 0.00 0.00 0.00 0.00 0.00 0.00 0.00 0.01 0.09 0.07 0.02 0.00 0.00 0.01 0.00 0.00 0.00 0.00 0.00 0.00 0.00 0.00 0.00 0.00 0.00 0.00 0.00 0.00 0.00 0.00 0.00 0.00 0.00 0.00 0.00 0.00 0.00 0.00
0.00 0.00 0.00 0.00 0.00 0.00 0.00 0.00 0.00 0.00 0.00 0.00 0.01 0.05 0.05 0.02 0.00 0.00 0.00 0.00 0.00 0.00 0.00 0.00 0.00 0.00 0.00 0.00 0.00 0.00 0.00 0.00 0.00 0.00 0.00 0.00 0.00 0.00 0.00 0.00 0.00 0.00 0.00
0.00 0.00 0.00 0.00 0.00 0.00 0.00 0.00 0.00 0.00 0.00 0.00 0.00 0.04 0.04 0.02 0.00 0.00 0.00 0.00 0.00 0.00 0.00 0.00 0.00 0.00 0.00 0.00 0.00 0.00 0.00 0.00 0.00 0.00 0.00 0.00 0.00 0.00 0.00 0.00 0.00 0.00 0.00
0.00 0.00 0.00 0.00 0.00 0.00 0.00 0.00 0.00 0.00 0.00 0.00 0.00 0.02 0.04 0.01 0.00 0.00 0.00 0.00 0.00 0.00 0.00 0.00 0.00 0.00 0.00 0.00 0.00 0.00 0.00 0.00 0.00 0.00 0.00 0.00 0.00 0.00 0.00 0.00 0.00 0.00 0.00
0.00 0.00 0.00 0.00 0.00 0.00 0.00 0.00 0.00 0.00 0.00 0.00 0.00 0.00 0.02 0.00 0.00 0.00 0.00 0.00 0.00 0.00 0.00 0.00 0.00 0.00 0.00 0.00 0.00 0.00 0.00 0.00 0.00 0.00 0.00 0.00 0.00 0.00 0.00 0.00 0.00 0.00 0.00
0.00 0.00 0.00 0.00 0.00 0.00 0.00 0.00 0.00 0.00 0.00 0.00 0.00 0.00 0.00 0.00 0.00 0.00 0.00 0.00 0.00 0.00 0.00 0.00 0.00 0.00 0.00 0.00 0.00 0.00 0.00 0.00 0.00 0.00 0.00 0.00 0.00 0.00 0.00 0.00 0.00 0.00 0.00
0.00 0.00 0.00 0.00 0.00 0.00 0.00 0.00 0.00 0.00 0.00 0.00 0.00 0.00 0.00 0.00 0.00 0.00 0.00 0.00 0.00 0.00 0.00 0.00 0.00 0.00 0.00 0.00 0.00 0.00 0.00 0.00 0.00 0.00 0.00 0.00 0.00 0.00 0.00 0.00 0.00 0.01 0.00
0.00 0.00 0.00 0.00 0.00 0.00 0.00 0.00 0.00 0.00 0.00 0.00 0.00 0.00 0.00 0.00 0.00 0.00 0.00 0.00 0.00 0.00 0.00 0.00 0.00 0.00 0.00 0.00 0.00 0.00 0.00 0.00 0.00 0.00 0.00 0.00 0.00 0.00 0.00 0.00 0.01 0.01 0.01
0.00 0.00 0.00 0.00 0.00 0.00 0.00 0.00 0.00 0.00 0.00 0.00 0.00 0.00 0.00 0.00 0.00 0.00 0.00 0.00 0.00 0.00 0.00 0.00 0.00 0.00 0.00 0.00 0.00 0.00 0.00 0.00 0.00 0.00 0.00 0.00 0.00 0.00 0.00 0.00 0.00 0.00 0.00
0.00 0.00 0.00 0.00 0.00 0.00 0.00 0.00 0.00 0.00 0.00 0.00 0.00 0.00 0.00 0.00 0.00 0.00 0.00 0.00 0.00 0.00 0.00 0.00 0.00 0.00 0.00 0.00 0.00 0.00 0.00 0.00 0.00 0.00 0.00 0.00 0.00 0.00 0.00 0.00 0.00 0.00 0.00
0.00 0.00 0.00 0.00 0.00 0.00 0.00 0.00 0.00 0.00 0.00 0.00 0.00 0.00 0.00 0.00 0.00 0.00 0.00 0.00 0.00 0.00 0.00 0.00 0.00 0.00 0.00 0.00 0.00 0.00 0.00 0.00 0.00 0.00 0.00 0.00 0.00 0.00 0.00 0.00 0.00 0.00 0.00
0.00 0.00 0.00 0.00 0.00 0.00 0.00 0.00 0.00 0.00 0.00 0.00 0.00 0.00 0.00 0.00 0.00 0.00 0.00 0.00 0.00 0.00 0.00 0.00 0.00 0.00 0.00 0.00 0.00 0.00 0.00 0.00 0.00 0.00 0.00 0.00 0.00 0.00 0.00 0.00 0.00 0.00 0.01
0.01 0.00 0.00 0.00 0.00 0.00 0.00 0.00 0.00 0.00 0.00 0.00 0.00 0.00 0.00 0.00 0.00 0.00 0.00 0.00 0.00 0.00 0.00 0.00 0.00 0.00 0.00 0.00 0.00 0.00 0.00 0.00 0.00 0.00 0.00 0.00 0.00 0.00 0.00 0.00 0.01 0.02 0.02
0.00 0.00 0.00 0.00 0.00 0.00 0.00 0.00 0.00 0.00 0.00 0.00 0.00 0.00 0.00 0.00 0.00 0.00 0.00 0.00 0.00 0.00 0.00 0.00 0.00 0.00 0.00 0.00 0.00 0.00 0.00 0.00 0.00 0.00 0.00 0.00 0.00 0.00 0.00 0.02 0.03 0.04 0.05
0.00 0.00 0.00 0.00 0.00 0.00 0.00 0.00 0.00 0.00 0.00 0.00 0.00 0.00 0.00 0.00 0.00 0.00 0.00 0.00 0.00 0.00 0.00 0.00 0.00 0.00 0.00 0.00 0.00 0.00 0.00 0.00 0.00 0.00 0.00 0.00 0.00 0.00 0.00 0.02 0.04 0.08 0.23
0.00 0.00 0.00 0.00 0.00 0.00 0.00 0.00 0.00 0.00 0.00 0.00 0.00 0.00 0.00 0.00 0.00 0.00 0.00 0.00 0.00 0.00 0.00 0.00 0.00 0.00 0.00 0.00 0.00 0.00 0.00 0.00 0.00 0.00 0.00 0.00 0.00 0.00 0.01 0.01 0.06 0.23 0.28
0.00 0.00 0.00 0.00 0.00 0.00 0.00 0.00 0.00 0.00 0.00 0.00 0.00 0.00 0.00 0.00 0.00 0.00 0.00 0.00 0.00 0.00 0.00 0.00 0.00 0.00 0.00 0.00 0.00 0.00 0.00 0.00 0.00 0.00 0.00 0.00 0.00 0.01 0.03 0.08 0.28 0.17 0.04
0.00 0.00 0.00 0.00 0.00 0.00 0.00 0.00 0.00 0.00 0.00 0.00 0.00 0.00 0.00 0.00 0.00 0.00 0.00 0.00 0.00 0.00 0.00 0.00 0.00 0.00 0.00 0.00 0.00 0.00 0.00 0.00 0.00 0.00 0.00 0.02 0.02 0.02 0.13 0.21 0.17 0.02 0.00
0.00 0.00 0.00 0.00 0.00 0.00 0.00 0.00 0.00 0.00 0.00 0.00 0.00 0.00 0.00 0.00 0.00 0.00 0.00 0.00 0.00 0.00 0.00 0.00 0.00 0.00 0.00 0.00 0.00 0.00 0.00 0.00 0.00 0.00 0.01 0.01 0.02 0.08 0.30 0.10 0.02 0.02 0.01
0.00 0.00 0.00 0.00 0.00 0.00 0.00 0.00 0.00 0.00 0.00 0.00 0.00 0.00 0.00 0.00 0.00 0.00 0.00 0.00 0.00 0.00 0.00 0.00 0.00 0.00 0.00 0.00 0.00 0.00 0.01 0.01 0.03 0.03 0.01 0.00 0.08 0.22 0.09 0.02 0.01 0.02 0.05
0.00 0.00 0.00 0.00 0.00 0.00 0.00 0.00 0.00 0.00 0.00 0.00 0.00 0.00 0.00 0.00 0.00 0.00 0.00 0.00 0.00 0.00 0.00 0.00 0.00 0.00 0.00 0.00 0.00 0.00 0.01 0.03 0.04 0.02 0.02 0.07 0.13 0.03 0.00 0.00 0.01 0.03 0.02
0.00 0.00 0.00 0.00 0.00 0.00 0.00 0.00 0.00 0.00 0.00 0.00 0.00 0.00 0.00 0.00 0.00 0.00 0.00 0.00 0.00 0.00 0.00 0.00 0.00 0.00 0.00 0.00 0.00 0.00 0.02 0.03 0.03 0.04 0.12 0.08 0.01 0.00 0.00 0.00 0.01 0.01 0.00
0.00 0.00 0.00 0.00 0.00 0.00 0.00 0.00 0.00 0.00 0.00 0.00 0.00 0.00 0.00 0.00 0.00 0.00 0.00 0.00 0.00 0.00 0.00 0.00 0.00 0.00 0.00 0.00 0.00 0.01 0.02 0.02 0.05 0.09 0.07 0.00 0.00 0.00 0.00 0.00 0.00 0.00 0.01
0.00 0.00 0.00 0.00 0.00 0.00 0.00 0.00 0.00 0.00 0.00 0.00 0.00 0.00 0.00 0.00 0.00 0.00 0.00 0.00 0.00 0.00 0.00 0.00 0.00 0.00 0.00 0.00 0.01 0.02 0.02 0.04 0.07 0.03 0.00 0.00 0.00 0.00 0.00 0.00 0.00 0.00 0.01
0.00 0.00 0.00 0.00 0.00 0.00 0.00 0.00 0.00 0.00 0.00 0.00 0.00 0.00 0.00 0.00 0.00 0.00 0.00 0.00 0.00 0.00 0.00 0.00 0.00 0.00 0.00 0.01 0.01 0.01 0.04 0.06 0.02 0.00 0.00 0.00 0.01 0.02 0.01 0.01 0.01 0.01 0.02

GFSMW_prec_precacc24_030.txt.gz
Total_Precipitation_Accumulation
0.00 0.00 0.00 0.00 0.00 0.00 0.00 0.00 0.00 0.00 0.00 0.00 0.00 0.04 0.07 0.06 0.04 0.05 0.06 0.01 0.01 0.01 0.00 0.00 0.00 0.00 0.00 0.00 0.00 0.00 0.00 0.00 0.00 0.00 0.00 0.00 0.00 0.00 0.00 0.00 0.00 0.00 0.00
0.00 0.00 0.00 0.00 0.00 0.00 0.00 0.00 0.00 0.00 0.00 0.00 0.01 0.09 0.10 0.07 0.07 0.04 0.04 0.03 0.01 0.00 0.00 0.00 0.00 0.00 0.00 0.00 0.00 0.00 0.00 0.00 0.00 0.00 0.00 0.00 0.00 0.00 0.00 0.00 0.00 0.00 0.00
0.00 0.00 0.00 0.00 0.00 0.00 0.00 0.00 0.00 0.00 0.00 0.00 0.01 0.05 0.05 0.04 0.03 0.02 0.03 0.03 0.02 0.00 0.00 0.00 0.00 0.00 0.00 0.00 0.00 0.00 0.00 0.00 0.00 0.00 0.00 0.00 0.00 0.00 0.00 0.00 0.00 0.00 0.00
0.00 0.00 0.00 0.00 0.00 0.00 0.00 0.00 0.00 0.00 0.00 0.00 0.00 0.04 0.05 0.06 0.03 0.02 0.02 0.02 0.01 0.01 0.00 0.00 0.00 0.00 0.00 0.00 0.00 0.00 0.00 0.00 0.00 0.00 0.00 0.00 0.00 0.00 0.00 0.00 0.00 0.00 0.00
0.00 0.00 0.00 0.00 0.00 0.00 0.00 0.00 0.00 0.00 0.00 0.00 0.00 0.03 0.07 0.05 0.04 0.02 0.01 0.00 0.00 0.00 0.00 0.00 0.00 0.00 0.00 0.00 0.00 0.00 0.00 0.00 0.00 0.00 0.00 0.00 0.00 0.00 0.00 0.00 0.00 0.00 0.00
0.00 0.00 0.00 0.00 0.00 0.00 0.00 0.00 0.00 0.00 0.00 0.00 0.01 0.01 0.07 0.05 0.01 0.00 0.01 0.01 0.00 0.00 0.00 0.00 0.00 0.00 0.00 0.00 0.00 0.00 0.00 0.00 0.00 0.00 0.00 0.00 0.00 0.00 0.00 0.00 0.00 0.00 0.00
0.00 0.00 0.00 0.00 0.00 0.00 0.00 0.00 0.00 0.00 0.00 0.00 0.00 0.00 0.02 0.05 0.01 0.00 0.00 0.00 0.00 0.00 0.00 0.00 0.00 0.00 0.00 0.00 0.00 0.00 0.00 0.00 0.00 0.00 0.00 0.00 0.00 0.00 0.00 0.00 0.00 0.00 0.00
0.00 0.00 0.00 0.00 0.00 0.00 0.00 0.00 0.00 0.00 0.00 0.00 0.00 0.00 0.00 0.02 0.00 0.00 0.00 0.00 0.00 0.00 0.00 0.00 0.00 0.00 0.00 0.00 0.00 0.00 0.00 0.00 0.00 0.00 0.00 0.00 0.00 0.00 0.00 0.00 0.00 0.00 0.00
0.00 0.00 0.00 0.00 0.00 0.00 0.00 0.00 0.00 0.00 0.00 0.00 0.00 0.00 0.00 0.01 0.01 0.00 0.00 0.00 0.00 0.00 0.00 0.00 0.00 0.00 0.00 0.00 0.00 0.00 0.00 0.00 0.00 0.00 0.00 0.00 0.00 0.00 0.00 0.00 0.00 0.00 0.00
0.00 0.00 0.00 0.00 0.00 0.00 0.00 0.00 0.00 0.00 0.00 0.00 0.00 0.00 0.00 0.01 0.01 0.00 0.00 0.00 0.00 0.00 0.00 0.00 0.00 0.00 0.00 0.00 0.00 0.00 0.00 0.00 0.00 0.00 0.00 0.00 0.00 0.00 0.00 0.00 0.00 0.00 0.00
0.00 0.00 0.00 0.00 0.00 0.00 0.00 0.00 0.00 0.00 0.00 0.00 0.00 0.00 0.00 0.00 0.00 0.00 0.00 0.00 0.00 0.00 0.00 0.00 0.00 0.00 0.00 0.00 0.00 0.00 0.00 0.00 0.00 0.00 0.00 0.00 0.00 0.00 0.00 0.00 0.00 0.00 0.00
0.00 0.00 0.00 0.00 0.00 0.00 0.00 0.00 0.00 0.00 0.00 0.00 0.00 0.00 0.00 0.00 0.00 0.00 0.00 0.00 0.00 0.00 0.00 0.00 0.00 0.00 0.00 0.00 0.00 0.00 0.00 0.00 0.00 0.00 0.00 0.00 0.00 0.00 0.00 0.00 0.00 0.00 0.00
0.00 0.00 0.00 0.00 0.00 0.00 0.00 0.00 0.00 0.00 0.00 0.00 0.00 0.00 0.00 0.00 0.00 0.00 0.00 0.00 0.00 0.00 0.00 0.00 0.00 0.00 0.00 0.00 0.00 0.00 0.00 0.00 0.00 0.00 0.00 0.00 0.00 0.00 0.00 0.00 0.00 0.00 0.00
0.01 0.00 0.00 0.00 0.00 0.00 0.00 0.00 0.01 0.01 0.01 0.00 0.00 0.00 0.00 0.00 0.00 0.00 0.00 0.00 0.00 0.00 0.00 0.00 0.00 0.00 0.00 0.00 0.00 0.00 0.00 0.00 0.00 0.00 0.00 0.00 0.00 0.00 0.00 0.00 0.00 0.01 0.01
0.00 0.00 0.00 0.00 0.00 0.00 0.00 0.00 0.01 0.00 0.00 0.00 0.00 0.00 0.00 0.00 0.00 0.00 0.00 0.00 0.00 0.00 0.00 0.00 0.00 0.00 0.00 0.00 0.00 0.00 0.00 0.00 0.00 0.00 0.00 0.00 0.00 0.00 0.00 0.01 0.01 0.02 0.04
0.00 0.00 0.00 0.00 0.00 0.00 0.00 0.00 0.00 0.00 0.02 0.01 0.00 0.00 0.00 0.00 0.00 0.00 0.00 0.00 0.00 0.00 0.00 0.00 0.00 0.00 0.00 0.00 0.00 0.00 0.00 0.00 0.00 0.00 0.00 0.00 0.00 0.00 0.00 0.01 0.03 0.06 0.20
0.00 0.00 0.00 0.00 0.00 0.00 0.00 0.00 0.01 0.01 0.01 0.00 0.00 0.00 0.00 0.00 0.00 0.00 0.00 0.00 0.00 0.00 0.00 0.00 0.00 0.00 0.00 0.00 0.00 0.00 0.00 0.00 0.00 0.00 0.00 0.00 0.00 0.00 0.00 0.00 0.05 0.21 0.28
0.00 0.00 0.00 0.00 0.00 0.00 0.00 0.00 0.00 0.00 0.00 0.00 0.00 0.00 0.00 0.00 0.00 0.00 0.00 0.00 0.00 0.00 0.00 0.00 0.00 0.00 0.00 0.00 0.00 0.00 0.00 0.00 0.00 0.00 0.00 0.00 0.00 0.01 0.02 0.06 0.24 0.17 0.04
0.01 0.00 0.00 0.00 0.00 0.00 0.00 0.00 0.00 0.00 0.00 0.00 0.00 0.00 0.00 0.00 0.00 0.00 0.00 0.00 0.00 0.00 0.00 0.00 0.00 0.00 0.00 0.00 0.00 0.00 0.00 0.00 0.00 0.00 0.00 0.01 0.02 0.02 0.11 0.16 0.17 0.03 0.00
0.00 0.00 0.00 0.00 0.00 0.00 0.00 0.00 0.00 0.00 0.00 0.00 0.00 0.00 0.00 0.00 0.00 0.00 0.00 0.00 0.00 0.00 0.00 0.00 0.00 0.00 0.00 0.00 0.00 0.00 0.00 0.00 0.00 0.00 0.00 0.01 0.02 0.06 0.23 0.08 0.02 0.02 0.01
0.00 0.00 0.00 0.00 0.00 0.00 0.00 0.00 0.00 0.00 0.00 0.00 0.00 0.00 0.00 0.00 0.00 0.00 0.00 0.00 0.00 0.00 0.00 0.00 0.00 0.00 0.00 0.00 0.00 0.00 0.00 0.00 0.02 0.02 0.00 0.00 0.06 0.15 0.08 0.02 0.01 0.02 0.05
0.00 0.00 0.00 0.00 0.00 0.00 0.00 0.00 0.00 0.00 0.00 0.00 0.00 0.00 0.00 0.00 0.00 0.00 0.00 0.00 0.00 0.00 0.00 0.00 0.00 0.00 0.00 0.00 0.00 0.00 0.00 0.02 0.02 0.01 0.01 0.04 0.11 0.03 0.00 0.00 0.01 0.03 0.02
0.00 0.00 0.00 0.00 0.00 0.00 0.00 0.00 0.00 0.00 0.00 0.00 0.00 0.00 0.00 0.00 0.00 0.00 0.00 0.00 0.00 0.00 0.00 0.00 0.00 0.00 0.00 0.00 0.00 0.00 0.01 0.02 0.03 0.02 0.08 0.07 0.01 0.00 0.00 0.00 0.01 0.00 0.00
0.00 0.00 0.00 0.00 0.00 0.00 0.00 0.00 0.00 0.00 0.00 0.00 0.00 0.00 0.00 0.00 0.00 0.00 0.00 0.00 0.00 0.00 0.00 0.00 0.00 0.00 0.00 0.00 0.00 0.00 0.01 0.01 0.03 0.05 0.06 0.00 0.00 0.00 0.00 0.00 0.00 0.00 0.00
0.00 0.00 0.00 0.00 0.00 0.00 0.00 0.00 0.00 0.00 0.00 0.00 0.00 0.00 0.00 0.00 0.00 0.00 0.00 0.00 0.00 0.00 0.00 0.00 0.00 0.00 0.00 0.00 0.01 0.01 0.02 0.03 0.05 0.03 0.00 0.00 0.00 0.00 0.00 0.00 0.00 0.00 0.01
0.00 0.00 0.00 0.00 0.00 0.00 0.00 0.00 0.00 0.00 0.00 0.00 0.00 0.00 0.00 0.00 0.00 0.00 0.00 0.00 0.00 0.00 0.00 0.00 0.00 0.00 0.00 0.00 0.00 0.01 0.03 0.05 0.02 0.00 0.00 0.00 0.00 0.01 0.00 0.01 0.01 0.01 0.02

GFSMW_prec_precacc24_033.txt.gz
Total_Precipitation_Accumulation
0.00 0.00 0.00 0.00 0.00 0.00 0.00 0.00 0.00 0.00 0.00 0.00 0.00 0.04 0.07 0.10 0.09 0.10 0.09 0.02 0.01 0.01 0.00 0.00 0.00 0.00 0.00 0.00 0.00 0.00 0.00 0.00 0.00 0.00 0.00 0.00 0.00 0.00 0.00 0.00 0.00 0.00 0.00
0.00 0.00 0.00 0.00 0.00 0.00 0.00 0.00 0.00 0.00 0.00 0.00 0.01 0.09 0.10 0.09 0.10 0.10 0.10 0.08 0.05 0.01 0.00 0.00 0.00 0.00 0.00 0.00 0.00 0.00 0.00 0.00 0.00 0.00 0.00 0.00 0.00 0.00 0.00 0.00 0.00 0.00 0.00
0.00 0.00 0.00 0.00 0.00 0.00 0.00 0.00 0.00 0.00 0.00 0.00 0.01 0.05 0.05 0.04 0.04 0.05 0.09 0.10 0.08 0.04 0.00 0.00 0.00 0.00 0.00 0.00 0.00 0.00 0.00 0.00 0.00 0.00 0.00 0.00 0.00 0.00 0.00 0.00 0.00 0.00 0.00
0.00 0.00 0.00 0.00 0.00 0.00 0.00 0.00 0.00 0.00 0.00 0.00 0.00 0.04 0.05 0.06 0.06 0.07 0.07 0.07 0.06 0.03 0.01 0.01 0.00 0.00 0.00 0.00 0.00 0.00 0.00 0.00 0.00 0.00 0.00 0.00 0.00 0.00 0.00 0.00 0.00 0.00 0.00
0.00 0.00 0.00 0.00 0.00 0.00 0.00 0.00 0.00 0.00 0.00 0.00 0.00 0.03 0.07 0.05 0.04 0.05 0.05 0.03 0.01 0.01 0.00 0.01 0.00 0.00 0.00 0.00 0.00 0.00 0.00 0.00 0.00 0.00 0.00 0.00 0.00 0.00 0.00 0.00 0.00 0.00 0.00
0.00 0.00 0.00 0.00 0.00 0.00 0.00 0.00 0.00 0.00 0.00 0.00 0.01 0.01 0.07 0.06 0.02 0.01 0.02 0.02 0.01 0.00 0.00 0.00 0.00 0.00 0.00 0.00 0.00 0.00 0.00 0.00 0.00 0.00 0.00 0.00 0.00 0.00 0.00 0.00 0.00 0.00 0.00
0.00 0.00 0.00 0.00 0.00 0.00 0.00 0.00 0.00 0.00 0.00 0.00 0.00 0.00 0.02 0.07 0.03 0.02 0.03 0.03 0.02 0.00 0.00 0.00 0.00 0.00 0.00 0.00 0.00 0.00 0.00 0.00 0.00 0.00 0.00 0.00 0.00 0.00 0.00 0.00 0.00 0.00 0.00
0.00 0.00 0.00 0.00 0.00 0.00 0.00 0.00 0.00 0.00 0.00 0.00 0.00 0.00 0.00 0.02 0.01 0.01 0.01 0.01 0.01 0.00 0.00 0.00 0.00 0.00 0.00 0.00 0.00 0.00 0.00 0.00 0.00 0.00 0.00 0.00 0.00 0.00 0.00 0.00 0.00 0.00 0.00
0.00 0.00 0.00 0.00 0.00 0.00 0.00 0.00 0.00 0.00 0.00 0.00 0.00 0.00 0.00 0.01 0.01 0.01 0.01 0.00 0.00 0.00 0.00 0.00 0.00 0.00 0.00 0.00 0.00 0.00 0.00 0.00 0.00 0.00 0.00 0.00 0.00 0.00 0.00 0.00 0.00 0.00 0.00
0.00 0.00 0.00 0.00 0.00 0.00 0.00 0.00 0.00 0.00 0.00 0.00 0.00 0.00 0.00 0.01 0.01 0.01 0.01 0.00 0.00 0.00 0.00 0.00 0.00 0.00 0.00 0.00 0.00 0.00 0.00 0.00 0.00 0.00 0.00 0.00 0.00 0.00 0.00 0.00 0.00 0.00 0.00
0.00 0.00 0.00 0.00 0.00 0.00 0.00 0.00 0.00 0.00 0.00 0.00 0.00 0.00 0.00 0.00 0.00 0.01 0.00 0.00 0.00 0.00 0.00 0.00 0.00 0.00 0.00 0.00 0.00 0.00 0.00 0.00 0.00 0.00 0.00 0.00 0.00 0.00 0.00 0.00 0.00 0.00 0.00
0.00 0.00 0.00 0.00 0.00 0.00 0.00 0.00 0.00 0.00 0.00 0.00 0.00 0.00 0.00 0.00 0.00 0.00 0.00 0.00 0.00 0.00 0.00 0.00 0.00 0.00 0.00 0.00 0.00 0.00 0.00 0.00 0.00 0.00 0.00 0.00 0.00 0.00 0.00 0.00 0.00 0.00 0.00
0.00 0.00 0.00 0.00 0.00 0.00 0.00 0.00 0.00 0.00 0.00 0.00 0.00 0.00 0.00 0.00 0.00 0.00 0.00 0.00 0.00 0.00 0.00 0.00 0.00 0.00 0.00 0.00 0.00 0.00 0.00 0.00 0.00 0.00 0.00 0.00 0.00 0.00 0.00 0.00 0.00 0.00 0.00
0.01 0.00 0.00 0.00 0.00 0.00 0.00 0.00 0.01 0.02 0.01 0.00 0.00 0.01 0.00 0.00 0.00 0.00 0.00 0.00 0.00 0.00 0.00 0.00 0.00 0.00 0.00 0.00 0.00 0.00 0.00 0.00 0.00 0.00 0.00 0.00 0.00 0.00 0.00 0.00 0.00 0.01 0.01
0.00 0.00 0.00 0.00 0.00 0.00 0.00 0.00 0.01 0.02 0.01 0.00 0.00 0.00 0.00 0.00 0.00 0.00 0.00 0.00 0.00 0.00 0.00 0.00 0.00 0.00 0.00 0.00 0.00 0.00 0.00 0.00 0.00 0.00 0.00 0.00 0.00 0.00 0.00 0.01 0.01 0.01 0.03
0.00 0.00 0.00 0.00 0.00 0.00 0.00 0.00 0.00 0.01 0.02 0.02 0.01 0.00 0.00 0.00 0.00 0.00 0.00 0.00 0.00 0.00 0.00 0.00 0.00 0.00 0.00 0.00 0.00 0.00 0.00 0.00 0.00 0.00 0.00 0.00 0.00 0.00 0.00 0.01 0.02 0.05 0.19
0.00 0.00 0.00 0.00 0.00 0.00 0.00 0.00 0.01 0.02 0.02 0.02 0.01 0.00 0.00 0.00 0.01 0.00 0.00 0.00 0.00 0.00 0.00 0.00 0.00 0.00 0.00 0.00 0.00 0.00 0.00 0.00 0.00 0.00 0.00 0.00 0.00 0.00 0.00 0.00 0.05 0.20 0.26
0.00 0.00 0.00 0.00 0.00 0.00 0.00 0.01 0.02 0.02 0.02 0.03 0.08 0.03 0.00 0.01 0.00 0.00 0.00 0.00 0.00 0.00 0.00 0.00 0.00 0.00 0.00 0.00 0.00 0.00 0.00 0.00 0.00 0.00 0.00 0.00 0.00 0.01 0.02 0.06 0.22 0.15 0.04
0.01 0.00 0.00 0.00 0.00 0.00 0.00 0.00 0.01 0.02 0.02 0.01 0.06 0.05 0.00 0.00 0.00 0.00 0.00 0.00 0.00 0.00 0.00 0.00 0.00 0.00 0.00 0.00 0.00 0.00 0.00 0.00 0.00 0.00 0.00 0.01 0.01 0.01 0.09 0.14 0.15 0.02 0.00
0.01 0.01 0.00 0.00 0.00 0.00 0.02 0.04 0.02 0.03 0.04 0.02 0.00 0.00 0.00 0.00 0.00 0.00 0.00 0.00 0.00 0.00 0.00 0.00 0.00 0.00 0.00 0.00 0.00 0.00 0.00 0.00 0.00 0.00 0.00 0.01 0.01 0.05 0.19 0.08 0.02 0.02 0.01
0.01 0.01 0.01 0.01 0.02 0.02 0.05 0.09 0.03 0.01 0.02 0.00 0.00 0.00 0.00 0.00 0.00 0.00 0.00 0.00 0.00 0.00 0.00 0.00 0.00 0.00 0.00 0.00 0.00 0.00 0.00 0.00 0.01 0.01 0.00 0.00 0.04 0.13 0.08 0.02 0.00 0.01 0.05
0.00 0.01 0.01 0.00 0.00 0.00 0.00 0.00 0.00 0.00 0.00 0.00 0.00 0.00 0.00 0.00 0.00 0.00 0.00 0.00 0.00 0.00 0.00 0.00 0.00 0.00 0.00 0.00 0.00 0.00 0.00 0.02 0.02 0.01 0.00 0.02 0.09 0.03 0.00 0.00 0.01 0.03 0.02
0.00 0.00 0.00 0.00 0.00 0.00 0.00 0.00 0.00 0.00 0.00 0.00 0.00 0.00 0.00 0.00 0.00 0.00 0.00 0.00 0.00 0.00 0.00 0.00 0.00 0.00 0.00 0.00 0.00 0.00 0.01 0.02 0.03 0.02 0.05 0.05 0.01 0.00 0.00 0.00 0.01 0.00 0.00
0.00 0.00 0.00 0.00 0.00 0.00 0.00 0.00 0.00 0.00 0.00 0.00 0.00 0.00 0.00 0.00 0.00 0.00 0.00 0.00 0.00 0.00 0.00 0.00 0.00 0.00 0.00 0.00 0.00 0.00 0.00 0.01 0.02 0.03 0.05 0.00 0.00 0.00 0.00 0.00 0.00 0.00 0.00
0.00 0.00 0.00 0.00 0.00 0.00 0.00 0.00 0.00 0.00 0.00 0.00 0.00 0.00 0.00 0.00 0.00 0.00 0.00 0.00 0.00 0.00 0.00 0.00 0.00 0.00 0.00 0.00 0.01 0.01 0.01 0.02 0.03 0.02 0.00 0.00 0.00 0.00 0.00 0.00 0.00 0.00 0.01
0.00 0.00 0.00 0.00 0.00 0.00 0.00 0.00 0.00 0.00 0.00 0.00 0.00 0.00 0.00 0.00 0.00 0.00 0.00 0.00 0.00 0.00 0.00 0.00 0.00 0.00 0.00 0.00 0.00 0.01 0.03 0.03 0.02 0.00 0.00 0.00 0.00 0.00 0.00 0.00 0.01 0.01 0.02

GFSMW_prec_precacc24_036.txt.gz
Total_Precipitation_Accumulation
0.00 0.00 0.00 0.00 0.00 0.00 0.00 0.00 0.00 0.00 0.00 0.00 0.00 0.04 0.08 0.10 0.10 0.11 0.10 0.04 0.02 0.01 0.00 0.00 0.00 0.00 0.00 0.00 0.00 0.00 0.00 0.00 0.00 0.00 0.00 0.00 0.00 0.00 0.00 0.00 0.00 0.00 0.00
0.00 0.00 0.00 0.00 0.00 0.00 0.00 0.00 0.00 0.00 0.00 0.00 0.01 0.09 0.12 0.14 0.10 0.12 0.12 0.10 0.07 0.02 0.00 0.00 0.00 0.00 0.00 0.00 0.00 0.00 0.00 0.00 0.00 0.00 0.00 0.00 0.00 0.00 0.00 0.00 0.00 0.00 0.00
0.00 0.00 0.00 0.00 0.00 0.00 0.00 0.00 0.00 0.00 0.00 0.00 0.01 0.05 0.06 0.06 0.04 0.06 0.10 0.13 0.13 0.07 0.03 0.02 0.01 0.00 0.00 0.00 0.00 0.00 0.00 0.00 0.00 0.00 0.00 0.00 0.00 0.00 0.00 0.00 0.00 0.00 0.00
0.00 0.00 0.00 0.00 0.00 0.00 0.00 0.00 0.00 0.00 0.00 0.00 0.00 0.04 0.05 0.07 0.07 0.08 0.08 0.09 0.10 0.05 0.03 0.03 0.02 0.00 0.00 0.00 0.00 0.00 0.00 0.00 0.00 0.00 0.00 0.00 0.00 0.00 0.00 0.00 0.00 0.00 0.00
0.00 0.00 0.00 0.00 0.00 0.00 0.00 0.00 0.00 0.00 0.00 0.00 0.00 0.03 0.08 0.06 0.05 0.05 0.06 0.05 0.05 0.02 0.01 0.02 0.01 0.00 0.00 0.00 0.00 0.00 0.00 0.00 0.00 0.00 0.00 0.00 0.00 0.00 0.00 0.00 0.00 0.00 0.00
0.00 0.00 0.00 0.00 0.00 0.00 0.00 0.00 0.00 0.00 0.00 0.00 0.01 0.01 0.08 0.06 0.03 0.01 0.02 0.04 0.04 0.02 0.01 0.01 0.00 0.00 0.00 0.00 0.00 0.00 0.00 0.00 0.00 0.00 0.00 0.00 0.00 0.00 0.00 0.00 0.00 0.00 0.00
0.00 0.00 0.00 0.00 0.00 0.00 0.00 0.00 0.00 0.00 0.00 0.00 0.00 0.00 0.02 0.07 0.03 0.02 0.03 0.03 0.03 0.02 0.01 0.01 0.00 0.00 0.00 0.00 0.00 0.00 0.00 0.00 0.00 0.00 0.00 0.00 0.00 0.00 0.00 0.00 0.00 0.00 0.00
0.00 0.00 0.00 0.00 0.00 0.00 0.00 0.00 0.00 0.00 0.00 0.00 0.00 0.00 0.00 0.02 0.01 0.02 0.03 0.03 0.03 0.02 0.01 0.00 0.00 0.00 0.00 0.00 0.00 0.00 0.00 0.00 0.00 0.00 0.00 0.00 0.00 0.00 0.00 0.00 0.00 0.00 0.00
0.00 0.00 0.00 0.00 0.00 0.00 0.00 0.00 0.00 0.00 0.00 0.00 0.00 0.00 0.00 0.01 0.01 0.01 0.01 0.01 0.01 0.01 0.00 0.00 0.00 0.00 0.00 0.00 0.00 0.00 0.00 0.00 0.00 0.00 0.00 0.00 0.00 0.00 0.00 0.00 0.00 0.00 0.00
0.00 0.00 0.00 0.00 0.00 0.00 0.00 0.00 0.00 0.00 0.00 0.00 0.00 0.00 0.00 0.01 0.01 0.01 0.01 0.01 0.01 0.00 0.00 0.00 0.00 0.00 0.00 0.00 0.00 0.00 0.00 0.00 0.00 0.00 0.00 0.00 0.00 0.00 0.00 0.00 0.00 0.00 0.00
0.00 0.00 0.00 0.00 0.00 0.00 0.00 0.00 0.00 0.00 0.00 0.00 0.00 0.00 0.00 0.01 0.01 0.01 0.00 0.00 0.00 0.00 0.00 0.00 0.00 0.00 0.00 0.00 0.00 0.00 0.00 0.00 0.00 0.00 0.00 0.00 0.00 0.00 0.00 0.00 0.00 0.00 0.00
0.00 0.00 0.00 0.00 0.00 0.00 0.00 0.00 0.00 0.00 0.00 0.00 0.00 0.00 0.00 0.00 0.00 0.00 0.01 0.01 0.01 0.00 0.00 0.00 0.00 0.00 0.00 0.00 0.00 0.00 0.00 0.00 0.00 0.00 0.00 0.00 0.00 0.00 0.00 0.00 0.00 0.00 0.00
0.00 0.00 0.00 0.00 0.00 0.00 0.01 0.00 0.00 0.00 0.00 0.00 0.00 0.00 0.00 0.00 0.00 0.00 0.00 0.00 0.01 0.00 0.00 0.00 0.00 0.00 0.00 0.00 0.00 0.00 0.00 0.00 0.00 0.00 0.00 0.00 0.00 0.00 0.00 0.00 0.00 0.00 0.00
0.01 0.00 0.00 0.00 0.00 0.00 0.02 0.01 0.01 0.02 0.01 0.00 0.00 0.01 0.00 0.00 0.00 0.00 0.00 0.00 0.01 0.00 0.00 0.00 0.00 0.00 0.00 0.00 0.00 0.00 0.00 0.00 0.00 0.00 0.00 0.00 0.00 0.00 0.00 0.00 0.00 0.00 0.00
0.00 0.00 0.00 0.00 0.00 0.00 0.01 0.00 0.01 0.02 0.01 0.00 0.00 0.00 0.00 0.00 0.00 0.01 0.01 0.00 0.00 0.00 0.00 0.00 0.00 0.00 0.00 0.00 0.00 0.00 0.00 0.00 0.00 0.00 0.00 0.00 0.00 0.00 0.00 0.01 0.01 0.01 0.02
0.00 0.00 0.00 0.00 0.00 0.00 0.00 0.00 0.00 0.01 0.02 0.02 0.01 0.00 0.00 0.00 0.00 0.01 0.01 0.01 0.00 0.00 0.00 0.00 0.00 0.00 0.00 0.00 0.00 0.00 0.00 0.00 0.00 0.00 0.00 0.00 0.00 0.00 0.00 0.01 0.02 0.04 0.16
0.00 0.00 0.00 0.00 0.00 0.00 0.00 0.00 0.01 0.02 0.02 0.02 0.01 0.00 0.00 0.01 0.02 0.01 0.00 0.00 0.00 0.00 0.00 0.00 0.00 0.00 0.00 0.00 0.00 0.00 0.00 0.00 0.00 0.00 0.00 0.00 0.00 0.00 0.00 0.00 0.04 0.16 0.22
0.00 0.00 0.00 0.00 0.00 0.00 0.00 0.01 0.02 0.02 0.03 0.03 0.09 0.07 0.05 0.05 0.04 0.03 0.03 0.01 0.00 0.00 0.00 0.00 0.00 0.00 0.00 0.00 0.00 0.00 0.00 0.00 0.00 0.00 0.00 0.00 0.00 0.00 0.02 0.05 0.19 0.14 0.03
0.01 0.00 0.00 0.00 0.00 0.00 0.00 0.01 0.02 0.02 0.04 0.03 0.13 0.29 0.31 0.23 0.12 0.02 0.00 0.00 0.00 0.00 0.00 0.00 0.00 0.00 0.00 0.00 0.00 0.00 0.00 0.00 0.00 0.00 0.00 0.01 0.01 0.01 0.06 0.12 0.13 0.02 0.00
0.01 0.01 0.00 0.00 0.00 0.00 0.02 0.05 0.04 0.05 0.10 0.11 0.09 0.08 0.09 0.06 0.02 0.00 0.00 0.00 0.00 0.00 0.00 0.00 0.00 0.00 0.00 0.00 0.00 0.00 0.00 0.00 0.00 0.00 0.00 0.01 0.01 0.04 0.14 0.06 0.02 0.02 0.01
0.01 0.01 0.01 0.02 0.04 0.05 0.10 0.23 0.17 0.14 0.13 0.16 0.18 0.07 0.01 0.00 0.00 0.00 0.00 0.00 0.00 0.00 0.00 0.00 0.00 0.00 0.00 0.00 0.00 0.00 0.00 0.00 0.01 0.00 0.00 0.00 0.03 0.11 0.06 0.02 0.00 0.01 0.04
0.18 0.22 0.16 0.12 0.15 0.16 0.20 0.41 0.24 0.14 0.08 0.03 0.01 0.00 0.00 0.00 0.00 0.00 0.00 0.00 0.00 0.00 0.00 0.00 0.00 0.00 0.00 0.00 0.00 0.00 0.00 0.02 0.01 0.01 0.00 0.02 0.08 0.02 0.00 0.00 0.01 0.03 0.02
0.05 0.15 0.14 0.12 0.16 0.10 0.07 0.09 0.04 0.00 0.00 0.00 0.00 0.00 0.00 0.00 0.00 0.00 0.00 0.00 0.00 0.00 0.00 0.00 0.00 0.00 0.00 0.00 0.00 0.00 0.01 0.01 0.02 0.01 0.04 0.03 0.00 0.00 0.00 0.00 0.00 0.00 0.00
0.00 0.00 0.00 0.00 0.00 0.00 0.00 0.00 0.00 0.00 0.00 0.00 0.00 0.00 0.00 0.00 0.00 0.00 0.00 0.00 0.00 0.00 0.00 0.00 0.00 0.00 0.00 0.00 0.00 0.00 0.00 0.01 0.01 0.02 0.03 0.00 0.00 0.00 0.00 0.00 0.00 0.00 0.00
0.00 0.00 0.00 0.00 0.00 0.00 0.00 0.00 0.00 0.00 0.00 0.00 0.00 0.00 0.00 0.00 0.00 0.00 0.00 0.00 0.00 0.00 0.00 0.00 0.00 0.00 0.00 0.00 0.00 0.01 0.01 0.02 0.02 0.01 0.00 0.00 0.00 0.00 0.00 0.00 0.00 0.00 0.00
0.00 0.00 0.00 0.00 0.00 0.00 0.00 0.00 0.00 0.00 0.00 0.00 0.00 0.00 0.00 0.00 0.00 0.00 0.00 0.00 0.00 0.00 0.00 0.00 0.00 0.00 0.00 0.00 0.00 0.01 0.02 0.02 0.01 0.00 0.00 0.00 0.00 0.00 0.00 0.00 0.01 0.00 0.01

GFSMW_prec_precacc24_039.txt.gz
Total_Precipitation_Accumulation
0.00 0.00 0.00 0.00 0.00 0.00 0.00 0.00 0.00 0.00 0.00 0.01 0.01 0.07 0.13 0.11 0.10 0.12 0.11 0.04 0.02 0.01 0.00 0.00 0.00 0.00 0.00 0.00 0.00 0.00 0.00 0.00 0.00 0.00 0.00 0.00 0.00 0.00 0.00 0.00 0.00 0.00 0.00
0.00 0.00 0.00 0.00 0.00 0.00 0.00 0.00 0.00 0.00 0.00 0.00 0.01 0.15 0.23 0.21 0.13 0.14 0.13 0.11 0.09 0.06 0.01 0.00 0.00 0.00 0.00 0.00 0.00 0.00 0.00 0.00 0.00 0.00 0.00 0.00 0.00 0.00 0.00 0.00 0.00 0.00 0.00
0.00 0.00 0.00 0.00 0.00 0.00 0.00 0.00 0.00 0.00 0.00 0.00 0.01 0.07 0.13 0.16 0.14 0.08 0.11 0.14 0.16 0.15 0.09 0.02 0.01 0.00 0.00 0.00 0.00 0.00 0.00 0.00 0.00 0.00 0.00 0.00 0.00 0.00 0.00 0.00 0.00 0.00 0.00
0.00 0.00 0.00 0.00 0.00 0.00 0.00 0.00 0.00 0.00 0.00 0.00 0.00 0.04 0.06 0.12 0.10 0.13 0.12 0.13 0.17 0.12 0.09 0.04 0.03 0.03 0.01 0.00 0.00 0.00 0.00 0.00 0.00 0.00 0.00 0.00 0.00 0.00 0.00 0.00 0.00 0.00 0.00
0.00 0.00 0.00 0.00 0.00 0.00 0.00 0.00 0.00 0.00 0.00 0.00 0.00 0.03 0.09 0.08 0.09 0.10 0.10 0.09 0.10 0.07 0.04 0.03 0.02 0.01 0.01 0.01 0.00 0.00 0.00 0.00 0.00 0.00 0.00 0.00 0.00 0.00 0.00 0.00 0.00 0.00 0.00
0.00 0.00 0.00 0.00 0.00 0.00 0.00 0.00 0.00 0.00 0.00 0.00 0.01 0.01 0.08 0.07 0.05 0.03 0.04 0.07 0.08 0.05 0.03 0.02 0.02 0.01 0.01 0.01 0.00 0.00 0.00 0.00 0.00 0.00 0.00 0.00 0.00 0.00 0.00 0.00 0.00 0.00 0.00
0.00 0.00 0.00 0.00 0.00 0.00 0.00 0.00 0.00 0.00 0.00 0.00 0.00 0.00 0.02 0.08 0.05 0.04 0.05 0.05 0.04 0.03 0.02 0.02 0.02 0.02 0.01 0.00 0.00 0.00 0.00 0.00 0.00 0.00 0.00 0.00 0.00 0.00 0.00 0.00 0.00 0.00 0.00
0.00 0.00 0.00 0.00 0.00 0.00 0.00 0.00 0.00 0.00 0.00 0.00 0.00 0.00 0.00 0.04 0.04 0.04 0.05 0.05 0.04 0.03 0.01 0.01 0.01 0.01 0.00 0.00 0.00 0.00 0.00 0.00 0.00 0.00 0.00 0.00 0.00 0.00 0.00 0.00 0.00 0.00 0.00
0.00 0.00 0.00 0.00 0.00 0.00 0.00 0.00 0.00 0.00 0.00 0.00 0.00 0.00 0.00 0.04 0.03 0.03 0.03 0.02 0.02 0.01 0.01 0.01 0.01 0.01 0.00 0.00 0.00 0.00 0.00 0.00 0.00 0.00 0.00 0.00 0.00 0.00 0.00 0.00 0.00 0.00 0.00
0.00 0.00 0.00 0.00 0.00 0.00 0.00 0.00 0.00 0.00 0.00 0.02 0.02 0.01 0.02 0.03 0.02 0.02 0.01 0.01 0.01 0.00 0.00 0.01 0.01 0.01 0.00 0.00 0.00 0.00 0.00 0.00 0.00 0.00 0.00 0.00 0.00 0.00 0.00 0.00 0.00 0.00 0.00
0.00 0.00 0.00 0.00 0.00 0.00 0.00 0.00 0.00 0.00 0.00 0.01 0.00 0.01 0.01 0.02 0.01 0.01 0.00 0.00 0.01 0.01 0.00 0.00 0.00 0.00 0.00 0.00 0.00 0.00 0.00 0.00 0.00 0.00 0.00 0.00 0.00 0.00 0.00 0.00 0.00 0.00 0.00
0.00 0.00 0.00 0.00 0.00 0.00 0.00 0.00 0.00 0.00 0.01 0.00 0.00 0.00 0.00 0.00 0.00 0.00 0.01 0.01 0.01 0.01 0.01 0.01 0.00 0.00 0.00 0.00 0.00 0.00 0.00 0.00 0.00 0.00 0.00 0.00 0.00 0.00 0.00 0.00 0.00 0.00 0.00
0.00 0.00 0.00 0.00 0.00 0.00 0.02 0.04 0.04 0.01 0.01 0.00 0.00 0.00 0.00 0.00 0.00 0.00 0.00 0.01 0.01 0.02 0.00 0.00 0.00 0.00 0.00 0.00 0.00 0.00 0.00 0.00 0.00 0.00 0.00 0.00 0.00 0.00 0.00 0.00 0.00 0.00 0.00
0.01 0.00 0.00 0.00 0.00 0.00 0.05 0.05 0.04 0.02 0.02 0.00 0.00 0.01 0.00 0.00 0.00 0.00 0.00 0.01 0.02 0.01 0.01 0.01 0.01 0.00 0.00 0.00 0.00 0.00 0.00 0.00 0.00 0.00 0.00 0.00 0.00 0.00 0.00 0.00 0.00 0.00 0.00
0.00 0.00 0.00 0.00 0.00 0.00 0.03 0.04 0.07 0.06 0.03 0.01 0.01 0.00 0.00 0.00 0.00 0.01 0.01 0.01 0.01 0.01 0.00 0.02 0.04 0.02 0.00 0.00 0.00 0.00 0.00 0.00 0.00 0.00 0.00 0.00 0.00 0.00 0.00 0.01 0.01 0.01 0.02
0.00 0.00 0.00 0.00 0.00 0.00 0.01 0.02 0.05 0.04 0.04 0.03 0.01 0.00 0.00 0.00 0.00 0.01 0.01 0.03 0.03 0.04 0.05 0.05 0.01 0.00 0.00 0.00 0.00 0.00 0.00 0.00 0.00 0.00 0.00 0.00 0.00 0.00 0.00 0.01 0.02 0.03 0.13
0.00 0.00 0.00 0.00 0.00 0.00 0.01 0.01 0.02 0.03 0.03 0.02 0.01 0.00 0.00 0.02 0.02 0.02 0.01 0.03 0.06 0.10 0.12 0.08 0.02 0.00 0.00 0.00 0.00 0.00 0.00 0.00 0.00 0.00 0.00 0.00 0.00 0.00 0.00 0.00 0.03 0.12 0.17
0.00 0.00 0.00 0.00 0.00 0.00 0.00 0.01 0.02 0.02 0.03 0.03 0.09 0.07 0.05 0.08 0.15 0.14 0.16 0.15 0.10 0.07 0.03 0.00 0.00 0.00 0.00 0.00 0.00 0.00 0.00 0.00 0.00 0.00 0.00 0.00 0.00 0.00 0.01 0.04 0.18 0.12 0.03
0.01 0.00 0.00 0.00 0.00 0.00 0.00 0.01 0.02 0.02 0.05 0.04 0.14 0.33 0.36 0.37 0.41 0.35 0.25 0.20 0.13 0.03 0.00 0.00 0.00 0.00 0.00 0.00 0.00 0.00 0.00 0.00 0.00 0.00 0.00 0.01 0.01 0.01 0.05 0.10 0.09 0.01 0.00
0.01 0.01 0.00 0.00 0.00 0.00 0.03 0.05 0.04 0.08 0.16 0.22 0.16 0.33 0.46 0.43 0.28 0.18 0.09 0.02 0.00 0.00 0.00 0.00 0.00 0.00 0.00 0.00 0.00 0.00 0.00 0.00 0.00 0.00 0.00 0.00 0.01 0.03 0.10 0.04 0.01 0.00 0.01
0.01 0.01 0.01 0.02 0.04 0.05 0.12 0.24 0.21 0.31 0.31 0.57 0.42 0.22 0.27 0.17 0.02 0.00 0.00 0.00 0.00 0.00 0.00 0.00 0.00 0.00 0.00 0.00 0.00 0.00 0.00 0.00 0.01 0.00 0.00 0.00 0.03 0.06 0.03 0.02 0.00 0.01 0.04
0.22 0.25 0.18 0.14 0.18 0.20 0.33 0.68 0.46 0.33 0.23 0.18 0.12 0.07 0.05 0.01 0.00 0.00 0.00 0.00 0.00 0.00 0.00 0.00 0.00 0.00 0.00 0.00 0.00 0.00 0.00 0.01 0.01 0.00 0.00 0.01 0.05 0.01 0.00 0.00 0.01 0.02 0.01
0.25 0.50 0.45 0.41 0.52 0.38 0.31 0.42 0.26 0.15 0.05 0.03 0.00 0.00 0.00 0.00 0.00 0.00 0.00 0.00 0.00 0.00 0.00 0.00 0.00 0.00 0.00 0.00 0.00 0.00 0.00 0.00 0.02 0.01 0.02 0.01 0.00 0.00 0.00 0.00 0.00 0.00 0.00
0.00 0.01 0.01 0.02 0.06 0.08 0.03 0.04 0.02 0.01 0.00 0.00 0.00 0.00 0.00 0.00 0.00 0.00 0.00 0.00 0.00 0.00 0.00 0.00 0.00 0.00 0.00 0.00 0.00 0.00 0.00 0.01 0.01 0.01 0.01 0.00 0.00 0.00 0.00 0.00 0.00 0.00 0.00
0.00 0.00 0.00 0.00 0.00 0.00 0.00 0.00 0.00 0.00 0.00 0.00 0.00 0.00 0.00 0.00 0.00 0.00 0.00 0.00 0.00 0.00 0.00 0.00 0.00 0.00 0.00 0.00 0.00 0.00 0.01 0.01 0.01 0.01 0.00 0.00 0.00 0.00 0.00 0.00 0.00 0.00 0.00
0.00 0.00 0.00 0.00 0.00 0.00 0.00 0.00 0.00 0.00 0.00 0.00 0.00 0.00 0.00 0.00 0.00 0.00 0.00 0.00 0.00 0.00 0.00 0.00 0.00 0.00 0.00 0.00 0.00 0.01 0.01 0.02 0.01 0.00 0.00 0.00 0.00 0.00 0.00 0.00 0.00 0.00 0.00

GFSMW_prec_precacc24_042.txt.gz
Total_Precipitation_Accumulation
0.00 0.00 0.00 0.00 0.00 0.00 0.00 0.00 0.00 0.00 0.03 0.04 0.04 0.11 0.19 0.16 0.11 0.12 0.11 0.04 0.02 0.02 0.01 0.00 0.00 0.00 0.00 0.00 0.00 0.00 0.00 0.00 0.00 0.00 0.00 0.00 0.00 0.00 0.00 0.00 0.00 0.00 0.00
0.00 0.00 0.00 0.00 0.00 0.00 0.00 0.00 0.00 0.00 0.00 0.01 0.02 0.17 0.28 0.28 0.20 0.18 0.14 0.11 0.11 0.11 0.07 0.00 0.00 0.00 0.00 0.00 0.00 0.00 0.00 0.00 0.00 0.00 0.00 0.00 0.00 0.00 0.00 0.00 0.00 0.00 0.00
0.00 0.00 0.00 0.00 0.00 0.00 0.00 0.00 0.00 0.00 0.00 0.02 0.06 0.14 0.20 0.23 0.22 0.13 0.12 0.16 0.18 0.31 0.17 0.04 0.03 0.01 0.00 0.00 0.00 0.00 0.00 0.00 0.00 0.00 0.00 0.00 0.00 0.00 0.00 0.00 0.00 0.00 0.00
0.00 0.00 0.00 0.00 0.00 0.00 0.00 0.00 0.00 0.00 0.00 0.00 0.01 0.06 0.07 0.12 0.11 0.14 0.21 0.24 0.24 0.24 0.18 0.09 0.06 0.06 0.02 0.00 0.00 0.00 0.00 0.00 0.00 0.00 0.00 0.00 0.00 0.00 0.00 0.00 0.00 0.00 0.00
0.00 0.00 0.00 0.00 0.00 0.00 0.00 0.00 0.00 0.00 0.00 0.00 0.00 0.03 0.09 0.09 0.10 0.14 0.16 0.18 0.23 0.19 0.14 0.09 0.07 0.04 0.02 0.02 0.01 0.01 0.00 0.00 0.00 0.00 0.00 0.00 0.00 0.00 0.00 0.00 0.00 0.00 0.00
0.00 0.00 0.00 0.00 0.00 0.00 0.00 0.00 0.00 0.00 0.00 0.00 0.01 0.01 0.08 0.07 0.06 0.05 0.07 0.11 0.14 0.12 0.08 0.06 0.05 0.04 0.02 0.02 0.01 0.01 0.01 0.00 0.00 0.00 0.00 0.00 0.00 0.00 0.00 0.00 0.00 0.00 0.00
0.00 0.00 0.00 0.00 0.00 0.00 0.00 0.00 0.00 0.00 0.00 0.00 0.00 0.00 0.02 0.08 0.05 0.05 0.06 0.07 0.07 0.06 0.05 0.04 0.04 0.04 0.02 0.01 0.01 0.01 0.00 0.00 0.00 0.00 0.00 0.00 0.00 0.00 0.00 0.00 0.00 0.00 0.00
0.00 0.00 0.00 0.00 0.00 0.00 0.00 0.00 0.00 0.00 0.00 0.00 0.00 0.00 0.00 0.04 0.05 0.05 0.06 0.06 0.07 0.06 0.04 0.03 0.03 0.02 0.01 0.01 0.01 0.01 0.00 0.00 0.00 0.00 0.00 0.00 0.00 0.00 0.00 0.00 0.00 0.00 0.00
0.00 0.00 0.00 0.00 0.00 0.00 0.00 0.00 0.00 0.00 0.00 0.00 0.00 0.00 0.00 0.05 0.05 0.04 0.04 0.05 0.05 0.04 0.03 0.03 0.02 0.02 0.01 0.00 0.01 0.01 0.00 0.00 0.00 0.00 0.00 0.00 0.00 0.00 0.00 0.00 0.00 0.00 0.00
0.00 0.00 0.00 0.00 0.00 0.00 0.00 0.00 0.00 0.00 0.00 0.02 0.02 0.01 0.04 0.04 0.04 0.03 0.03 0.04 0.03 0.03 0.03 0.02 0.01 0.01 0.01 0.01 0.01 0.00 0.00 0.00 0.00 0.00 0.00 0.00 0.00 0.00 0.00 0.00 0.00 0.00 0.00
0.00 0.00 0.00 0.00 0.00 0.00 0.00 0.00 0.00 0.00 0.00 0.01 0.00 0.01 0.03 0.03 0.03 0.03 0.02 0.02 0.02 0.02 0.02 0.01 0.00 0.01 0.01 0.01 0.01 0.00 0.00 0.00 0.00 0.00 0.00 0.00 0.00 0.00 0.00 0.00 0.00 0.00 0.00
0.00 0.00 0.00 0.00 0.00 0.00 0.00 0.00 0.00 0.00 0.01 0.01 0.00 0.01 0.02 0.04 0.04 0.03 0.02 0.02 0.02 0.02 0.01 0.01 0.00 0.00 0.01 0.01 0.00 0.01 0.01 0.00 0.00 0.00 0.00 0.00 0.00 0.00 0.00 0.00 0.00 0.00 0.00
0.00 0.00 0.00 0.00 0.00 0.00 0.02 0.04 0.04 0.01 0.01 0.00 0.01 0.02 0.04 0.05 0.04 0.03 0.01 0.01 0.02 0.02 0.00 0.01 0.01 0.01 0.01 0.01 0.01 0.00 0.00 0.00 0.00 0.00 0.00 0.00 0.00 0.00 0.00 0.00 0.00 0.00 0.00
0.01 0.00 0.00 0.00 0.00 0.00 0.05 0.05 0.04 0.02 0.05 0.05 0.05 0.05 0.04 0.04 0.03 0.01 0.00 0.01 0.02 0.02 0.02 0.02 0.02 0.02 0.02 0.04 0.02 0.01 0.01 0.02 0.01 0.00 0.00 0.00 0.00 0.00 0.00 0.00 0.00 0.00 0.00
0.01 0.00 0.01 0.01 0.00 0.00 0.03 0.04 0.07 0.08 0.08 0.08 0.06 0.03 0.01 0.01 0.01 0.01 0.01 0.01 0.01 0.01 0.02 0.05 0.07 0.08 0.10 0.10 0.09 0.08 0.05 0.02 0.00 0.00 0.00 0.00 0.00 0.00 0.00 0.00 0.00 0.01 0.01
0.02 0.01 0.01 0.00 0.00 0.00 0.01 0.02 0.06 0.10 0.15 0.11 0.06 0.03 0.03 0.02 0.01 0.01 0.02 0.03 0.04 0.06 0.09 0.09 0.06 0.03 0.02 0.02 0.02 0.02 0.01 0.00 0.00 0.00 0.00 0.00 0.00 0.00 0.00 0.00 0.01 0.02 0.11
0.01 0.00 0.00 0.00 0.00 0.00 0.01 0.01 0.03 0.06 0.06 0.05 0.03 0.03 0.01 0.02 0.02 0.02 0.02 0.05 0.13 0.19 0.20 0.21 0.26 0.25 0.18 0.10 0.04 0.01 0.00 0.00 0.00 0.00 0.00 0.00 0.00 0.00 0.00 0.00 0.02 0.11 0.12
0.00 0.00 0.00 0.00 0.00 0.00 0.00 0.01 0.02 0.04 0.11 0.14 0.13 0.10 0.05 0.09 0.16 0.19 0.26 0.28 0.21 0.17 0.17 0.10 0.04 0.03 0.01 0.01 0.00 0.00 0.00 0.00 0.00 0.00 0.00 0.00 0.00 0.00 0.01 0.04 0.16 0.07 0.01
0.01 0.00 0.00 0.00 0.00 0.00 0.00 0.01 0.02 0.02 0.08 0.07 0.15 0.34 0.38 0.42 0.56 0.74 0.63 0.48 0.44 0.31 0.17 0.07 0.02 0.01 0.00 0.00 0.00 0.00 0.00 0.00 0.00 0.00 0.00 0.00 0.01 0.01 0.04 0.07 0.04 0.00 0.00
0.01 0.01 0.00 0.00 0.00 0.00 0.03 0.05 0.04 0.08 0.18 0.25 0.19 0.56 0.72 0.59 0.47 0.41 0.38 0.22 0.10 0.03 0.01 0.00 0.00 0.00 0.00 0.00 0.00 0.00 0.00 0.00 0.00 0.00 0.00 0.00 0.01 0.02 0.07 0.03 0.01 0.00 0.00
0.01 0.01 0.01 0.02 0.04 0.06 0.13 0.25 0.23 0.40 0.51 0.81 0.57 0.46 0.50 0.40 0.22 0.13 0.04 0.01 0.00 0.00 0.00 0.00 0.00 0.00 0.00 0.00 0.00 0.00 0.00 0.00 0.00 0.00 0.00 0.00 0.02 0.03 0.02 0.02 0.00 0.01 0.03
0.23 0.25 0.18 0.14 0.18 0.22 0.37 0.72 0.62 0.57 0.51 0.43 0.44 0.19 0.10 0.08 0.06 0.01 0.00 0.00 0.00 0.00 0.00 0.00 0.00 0.00 0.00 0.00 0.00 0.00 0.00 0.00 0.00 0.00 0.00 0.00 0.03 0.01 0.00 0.00 0.01 0.02 0.01
0.28 0.54 0.49 0.45 0.55 0.41 0.41 0.56 0.43 0.25 0.09 0.08 0.02 0.01 0.00 0.00 0.00 0.00 0.00 0.00 0.00 0.00 0.00 0.00 0.00 0.00 0.00 0.00 0.00 0.00 0.00 0.00 0.01 0.01 0.01 0.01 0.00 0.00 0.00 0.00 0.00 0.00 0.00
0.01 0.02 0.02 0.06 0.14 0.13 0.11 0.15 0.10 0.05 0.01 0.00 0.00 0.00 0.00 0.00 0.00 0.00 0.00 0.00 0.00 0.00 0.00 0.00 0.00 0.00 0.00 0.00 0.00 0.00 0.00 0.01 0.01 0.00 0.00 0.00 0.00 0.00 0.00 0.00 0.00 0.00 0.00
0.00 0.00 0.00 0.00 0.00 0.00 0.00 0.00 0.00 0.00 0.00 0.00 0.00 0.00 0.00 0.00 0.00 0.00 0.00 0.00 0.00 0.00 0.00 0.00 0.00 0.00 0.00 0.00 0.00 0.00 0.01 0.01 0.01 0.01 0.00 0.00 0.00 0.00 0.00 0.00 0.00 0.00 0.00
0.00 0.00 0.00 0.00 0.00 0.00 0.00 0.00 0.00 0.00 0.00 0.00 0.00 0.00 0.00 0.00 0.00 0.00 0.00 0.00 0.00 0.00 0.00 0.00 0.00 0.00 0.00 0.00 0.00 0.01 0.01 0.01 0.01 0.00 0.00 0.00 0.00 0.00 0.00 0.00 0.00 0.00 0.00

GFSMW_prec_precacc24_045.txt.gz
Total_Precipitation_Accumulation
0.00 0.00 0.00 0.00 0.00 0.00 0.00 0.00 0.00 0.00 0.03 0.06 0.06 0.12 0.21 0.20 0.12 0.13 0.12 0.04 0.03 0.06 0.05 0.00 0.00 0.00 0.00 0.00 0.00 0.00 0.00 0.00 0.00 0.00 0.00 0.00 0.00 0.00 0.00 0.00 0.00 0.00 0.00
0.00 0.00 0.00 0.00 0.00 0.00 0.00 0.00 0.00 0.00 0.00 0.01 0.02 0.17 0.28 0.30 0.23 0.21 0.15 0.12 0.13 0.19 0.16 0.02 0.00 0.00 0.00 0.00 0.00 0.00 0.00 0.00 0.00 0.00 0.00 0.00 0.00 0.00 0.00 0.00 0.00 0.00 0.00
0.00 0.00 0.00 0.00 0.00 0.00 0.00 0.00 0.00 0.00 0.00 0.02 0.06 0.16 0.22 0.27 0.26 0.16 0.12 0.16 0.23 0.45 0.28 0.07 0.03 0.01 0.00 0.00 0.00 0.00 0.00 0.00 0.00 0.00 0.00 0.00 0.00 0.00 0.00 0.00 0.00 0.00 0.00
0.00 0.00 0.00 0.00 0.00 0.00 0.00 0.00 0.00 0.00 0.00 0.00 0.01 0.07 0.07 0.13 0.11 0.14 0.23 0.28 0.30 0.40 0.33 0.18 0.08 0.11 0.09 0.06 0.06 0.02 0.01 0.00 0.00 0.00 0.00 0.00 0.00 0.00 0.00 0.00 0.00 0.00 0.00
0.00 0.00 0.00 0.00 0.00 0.00 0.00 0.00 0.00 0.00 0.00 0.00 0.00 0.04 0.10 0.09 0.10 0.14 0.17 0.21 0.27 0.27 0.25 0.20 0.16 0.11 0.10 0.09 0.06 0.04 0.02 0.01 0.00 0.00 0.00 0.00 0.00 0.00 0.00 0.00 0.00 0.00 0.00
0.00 0.00 0.00 0.00 0.00 0.00 0.00 0.00 0.00 0.00 0.00 0.00 0.01 0.01 0.08 0.07 0.06 0.07 0.11 0.14 0.16 0.14 0.13 0.12 0.13 0.10 0.08 0.06 0.04 0.02 0.01 0.01 0.00 0.00 0.00 0.00 0.00 0.00 0.00 0.00 0.00 0.00 0.00
0.00 0.00 0.00 0.00 0.00 0.00 0.00 0.00 0.00 0.00 0.00 0.00 0.00 0.00 0.02 0.08 0.06 0.08 0.12 0.10 0.08 0.07 0.07 0.09 0.09 0.10 0.08 0.05 0.03 0.02 0.01 0.01 0.00 0.00 0.00 0.00 0.00 0.00 0.00 0.00 0.00 0.00 0.00
0.00 0.00 0.00 0.00 0.00 0.00 0.00 0.00 0.00 0.00 0.00 0.00 0.00 0.00 0.00 0.04 0.05 0.06 0.07 0.08 0.10 0.09 0.07 0.07 0.08 0.07 0.05 0.03 0.02 0.01 0.01 0.01 0.00 0.00 0.00 0.00 0.00 0.00 0.00 0.00 0.00 0.00 0.00
0.00 0.00 0.00 0.00 0.00 0.00 0.00 0.00 0.00 0.00 0.00 0.00 0.00 0.00 0.00 0.05 0.05 0.04 0.04 0.06 0.06 0.06 0.06 0.06 0.05 0.04 0.03 0.01 0.01 0.01 0.01 0.00 0.00 0.00 0.00 0.00 0.00 0.00 0.00 0.00 0.00 0.00 0.00
0.00 0.00 0.00 0.00 0.00 0.00 0.00 0.00 0.00 0.00 0.00 0.02 0.02 0.01 0.04 0.04 0.04 0.03 0.03 0.05 0.06 0.06 0.06 0.05 0.04 0.02 0.01 0.01 0.01 0.01 0.00 0.00 0.00 0.00 0.00 0.00 0.00 0.00 0.00 0.00 0.00 0.00 0.00
0.00 0.00 0.00 0.00 0.00 0.00 0.00 0.00 0.00 0.00 0.00 0.01 0.00 0.01 0.03 0.03 0.04 0.04 0.04 0.04 0.04 0.05 0.04 0.03 0.02 0.01 0.01 0.01 0.01 0.00 0.00 0.00 0.00 0.00 0.00 0.00 0.00 0.00 0.00 0.00 0.00 0.00 0.00
0.00 0.00 0.00 0.00 0.00 0.00 0.00 0.00 0.00 0.00 0.01 0.01 0.00 0.01 0.02 0.04 0.05 0.05 0.05 0.06 0.05 0.04 0.03 0.02 0.01 0.00 0.01 0.01 0.01 0.01 0.01 0.02 0.02 0.01 0.01 0.00 0.00 0.00 0.00 0.00 0.00 0.00 0.00
0.00 0.00 0.00 0.00 0.00 0.00 0.02 0.04 0.04 0.01 0.01 0.00 0.01 0.03 0.04 0.06 0.07 0.06 0.06 0.06 0.05 0.04 0.02 0.01 0.01 0.01 0.01 0.01 0.01 0.01 0.02 0.02 0.01 0.01 0.01 0.02 0.02 0.02 0.01 0.00 0.00 0.00 0.00
0.01 0.00 0.00 0.00 0.00 0.01 0.05 0.05 0.04 0.02 0.05 0.05 0.05 0.06 0.06 0.07 0.08 0.07 0.06 0.06 0.06 0.04 0.03 0.02 0.02 0.02 0.04 0.06 0.06 0.06 0.06 0.07 0.08 0.06 0.04 0.03 0.02 0.01 0.00 0.00 0.00 0.00 0.00
0.01 0.00 0.01 0.01 0.01 0.01 0.03 0.04 0.07 0.08 0.08 0.11 0.11 0.09 0.07 0.04 0.03 0.04 0.03 0.02 0.02 0.02 0.02 0.05 0.07 0.09 0.12 0.15 0.17 0.20 0.22 0.17 0.12 0.06 0.03 0.01 0.00 0.00 0.00 0.00 0.00 0.01 0.01
0.02 0.01 0.01 0.00 0.00 0.00 0.01 0.02 0.06 0.10 0.16 0.15 0.10 0.07 0.05 0.05 0.05 0.04 0.03 0.03 0.04 0.06 0.09 0.09 0.07 0.08 0.10 0.13 0.13 0.11 0.09 0.06 0.03 0.02 0.01 0.00 0.00 0.00 0.00 0.00 0.01 0.02 0.10
0.01 0.00 0.00 0.00 0.00 0.00 0.01 0.01 0.03 0.06 0.07 0.06 0.04 0.04 0.06 0.10 0.08 0.05 0.03 0.06 0.14 0.20 0.22 0.25 0.30 0.34 0.36 0.34 0.24 0.14 0.05 0.02 0.01 0.00 0.00 0.00 0.00 0.00 0.00 0.00 0.02 0.09 0.08
0.00 0.00 0.00 0.00 0.00 0.00 0.00 0.01 0.02 0.07 0.16 0.22 0.24 0.19 0.33 0.33 0.20 0.26 0.30 0.32 0.28 0.28 0.29 0.24 0.21 0.20 0.13 0.05 0.01 0.00 0.00 0.00 0.00 0.00 0.00 0.00 0.00 0.00 0.01 0.02 0.11 0.04 0.00
0.01 0.00 0.00 0.00 0.00 0.00 0.00 0.01 0.02 0.04 0.15 0.30 0.52 0.50 0.53 0.46 0.58 0.77 0.69 0.55 0.60 0.51 0.37 0.25 0.15 0.09 0.05 0.01 0.00 0.00 0.00 0.00 0.00 0.00 0.00 0.00 0.00 0.00 0.02 0.05 0.03 0.00 0.00
0.01 0.01 0.00 0.00 0.00 0.00 0.03 0.05 0.04 0.08 0.18 0.26 0.20 0.57 0.75 0.61 0.54 0.51 0.53 0.46 0.27 0.23 0.13 0.07 0.04 0.01 0.00 0.00 0.00 0.00 0.00 0.00 0.00 0.00 0.00 0.00 0.01 0.01 0.05 0.03 0.01 0.00 0.00
0.01 0.01 0.02 0.02 0.04 0.07 0.13 0.25 0.23 0.41 0.53 0.83 0.59 0.61 0.77 0.51 0.30 0.22 0.10 0.07 0.06 0.03 0.02 0.01 0.00 0.00 0.00 0.00 0.00 0.00 0.00 0.00 0.00 0.00 0.00 0.00 0.01 0.02 0.02 0.02 0.00 0.00 0.02
0.23 0.25 0.18 0.14 0.18 0.22 0.37 0.72 0.66 0.65 0.66 0.62 0.60 0.29 0.23 0.15 0.10 0.04 0.03 0.02 0.01 0.00 0.00 0.00 0.00 0.00 0.00 0.00 0.00 0.00 0.00 0.00 0.00 0.00 0.00 0.00 0.02 0.01 0.00 0.00 0.00 0.01 0.01
0.28 0.54 0.49 0.45 0.55 0.41 0.43 0.59 0.46 0.28 0.12 0.13 0.07 0.03 0.00 0.00 0.00 0.00 0.00 0.00 0.00 0.00 0.00 0.00 0.00 0.00 0.00 0.00 0.00 0.00 0.00 0.00 0.01 0.00 0.00 0.00 0.00 0.00 0.00 0.00 0.00 0.00 0.00
0.01 0.02 0.02 0.06 0.14 0.14 0.14 0.18 0.12 0.05 0.01 0.00 0.00 0.00 0.00 0.00 0.00 0.00 0.00 0.00 0.00 0.00 0.00 0.00 0.00 0.00 0.00 0.00 0.00 0.00 0.00 0.00 0.00 0.00 0.00 0.00 0.00 0.00 0.00 0.00 0.00 0.00 0.00
0.00 0.00 0.00 0.00 0.00 0.00 0.00 0.00 0.00 0.00 0.00 0.00 0.00 0.00 0.00 0.00 0.00 0.00 0.00 0.00 0.00 0.00 0.00 0.00 0.00 0.00 0.00 0.00 0.00 0.00 0.00 0.01 0.01 0.01 0.00 0.00 0.00 0.00 0.00 0.00 0.00 0.00 0.00
0.00 0.00 0.00 0.00 0.00 0.00 0.00 0.00 0.00 0.00 0.00 0.00 0.00 0.00 0.00 0.00 0.00 0.00 0.00 0.00 0.00 0.00 0.00 0.00 0.00 0.00 0.00 0.00 0.00 0.00 0.01 0.01 0.00 0.00 0.00 0.00 0.00 0.00 0.00 0.00 0.00 0.00 0.00

GFSMW_prec_precacc24_048.txt.gz
Total_Precipitation_Accumulation
0.00 0.00 0.00 0.00 0.00 0.00 0.00 0.00 0.00 0.00 0.04 0.06 0.06 0.12 0.21 0.21 0.13 0.16 0.19 0.05 0.04 0.07 0.07 0.02 0.00 0.00 0.00 0.00 0.00 0.00 0.00 0.00 0.00 0.00 0.00 0.00 0.00 0.00 0.00 0.00 0.00 0.00 0.00
0.00 0.00 0.00 0.00 0.00 0.00 0.00 0.00 0.00 0.00 0.00 0.01 0.02 0.15 0.28 0.30 0.23 0.23 0.19 0.13 0.15 0.22 0.21 0.04 0.02 0.01 0.00 0.00 0.00 0.00 0.00 0.00 0.00 0.00 0.00 0.00 0.00 0.00 0.00 0.00 0.00 0.00 0.00
0.00 0.00 0.00 0.00 0.00 0.00 0.00 0.00 0.00 0.00 0.00 0.02 0.06 0.15 0.22 0.27 0.27 0.16 0.12 0.17 0.26 0.55 0.41 0.16 0.09 0.04 0.01 0.01 0.01 0.01 0.02 0.01 0.00 0.00 0.00 0.00 0.00 0.00 0.00 0.00 0.00 0.00 0.00
0.00 0.00 0.00 0.00 0.00 0.00 0.00 0.00 0.00 0.00 0.00 0.00 0.01 0.07 0.07 0.13 0.11 0.14 0.23 0.28 0.32 0.50 0.46 0.28 0.17 0.15 0.12 0.11 0.11 0.09 0.08 0.05 0.02 0.00 0.00 0.00 0.00 0.00 0.00 0.00 0.00 0.00 0.00
0.00 0.00 0.00 0.00 0.00 0.00 0.00 0.00 0.00 0.00 0.00 0.00 0.00 0.04 0.10 0.09 0.10 0.15 0.17 0.22 0.29 0.32 0.33 0.25 0.22 0.15 0.13 0.13 0.10 0.08 0.06 0.04 0.03 0.01 0.01 0.00 0.00 0.00 0.00 0.00 0.00 0.00 0.00
0.00 0.00 0.00 0.00 0.00 0.00 0.00 0.00 0.00 0.00 0.00 0.00 0.01 0.01 0.08 0.08 0.06 0.08 0.14 0.16 0.18 0.16 0.16 0.16 0.16 0.14 0.12 0.11 0.10 0.06 0.04 0.02 0.02 0.01 0.01 0.00 0.00 0.00 0.00 0.00 0.00 0.00 0.00
0.00 0.00 0.00 0.00 0.00 0.00 0.00 0.00 0.00 0.00 0.00 0.00 0.00 0.00 0.02 0.09 0.07 0.10 0.14 0.14 0.10 0.08 0.08 0.10 0.11 0.13 0.12 0.10 0.08 0.06 0.04 0.02 0.01 0.01 0.01 0.00 0.00 0.00 0.00 0.00 0.00 0.00 0.00
0.00 0.00 0.00 0.00 0.00 0.00 0.00 0.00 0.00 0.00 0.00 0.00 0.00 0.00 0.00 0.04 0.05 0.06 0.07 0.08 0.10 0.11 0.12 0.12 0.12 0.11 0.09 0.07 0.06 0.05 0.03 0.01 0.01 0.00 0.00 0.00 0.00 0.00 0.00 0.00 0.00 0.00 0.00
0.00 0.00 0.00 0.00 0.00 0.00 0.00 0.00 0.00 0.00 0.00 0.00 0.00 0.00 0.00 0.05 0.05 0.04 0.04 0.06 0.06 0.07 0.09 0.12 0.14 0.14 0.10 0.06 0.04 0.02 0.01 0.01 0.00 0.00 0.00 0.00 0.00 0.00 0.00 0.00 0.00 0.00 0.00
0.00 0.00 0.00 0.00 0.00 0.00 0.00 0.00 0.00 0.00 0.00 0.02 0.02 0.01 0.04 0.04 0.04 0.03 0.03 0.05 0.06 0.06 0.07 0.07 0.08 0.07 0.06 0.04 0.03 0.01 0.01 0.00 0.00 0.00 0.00 0.00 0.00 0.00 0.00 0.00 0.00 0.00 0.00
0.00 0.00 0.00 0.00 0.00 0.00 0.00 0.00 0.00 0.00 0.00 0.01 0.00 0.01 0.03 0.03 0.04 0.04 0.04 0.04 0.04 0.05 0.05 0.05 0.04 0.03 0.03 0.01 0.01 0.00 0.00 0.00 0.00 0.00 0.00 0.00 0.00 0.01 0.01 0.02 0.02 0.01 0.00
0.00 0.00 0.00 0.00 0.00 0.00 0.00 0.00 0.00 0.00 0.01 0.01 0.00 0.01 0.02 0.04 0.05 0.05 0.05 0.06 0.05 0.05 0.04 0.05 0.03 0.02 0.02 0.02 0.01 0.01 0.01 0.02 0.02 0.02 0.02 0.02 0.02 0.02 0.02 0.02 0.01 0.01 0.01
0.00 0.00 0.00 0.00 0.00 0.00 0.02 0.04 0.04 0.01 0.01 0.00 0.01 0.03 0.04 0.06 0.07 0.06 0.06 0.06 0.05 0.04 0.02 0.03 0.03 0.02 0.02 0.02 0.01 0.01 0.02 0.02 0.02 0.02 0.02 0.03 0.04 0.07 0.09 0.06 0.03 0.02 0.01
0.00 0.00 0.00 0.00 0.00 0.01 0.05 0.05 0.04 0.02 0.05 0.05 0.05 0.06 0.06 0.07 0.08 0.07 0.06 0.06 0.06 0.05 0.04 0.02 0.03 0.03 0.04 0.06 0.07 0.08 0.08 0.08 0.10 0.10 0.10 0.11 0.13 0.11 0.07 0.03 0.02 0.01 0.01
0.00 0.00 0.01 0.01 0.01 0.01 0.03 0.04 0.07 0.08 0.08 0.11 0.11 0.09 0.07 0.04 0.04 0.04 0.04 0.04 0.04 0.04 0.04 0.05 0.08 0.09 0.12 0.16 0.19 0.23 0.27 0.23 0.18 0.14 0.12 0.08 0.03 0.01 0.01 0.01 0.00 0.00 0.01
0.02 0.01 0.01 0.00 0.00 0.00 0.01 0.02 0.06 0.10 0.16 0.15 0.10 0.07 0.05 0.05 0.05 0.05 0.05 0.07 0.07 0.09 0.12 0.13 0.10 0.09 0.10 0.19 0.18 0.16 0.17 0.18 0.20 0.18 0.13 0.07 0.03 0.01 0.00 0.00 0.00 0.01 0.05
0.01 0.00 0.00 0.00 0.00 0.00 0.01 0.01 0.03 0.06 0.07 0.06 0.04 0.04 0.06 0.10 0.09 0.06 0.04 0.07 0.17 0.22 0.24 0.27 0.34 0.39 0.40 0.43 0.34 0.27 0.20 0.15 0.09 0.05 0.03 0.01 0.00 0.00 0.00 0.00 0.01 0.04 0.05
0.00 0.00 0.00 0.00 0.00 0.00 0.00 0.01 0.02 0.07 0.16 0.23 0.24 0.20 0.38 0.52 0.33 0.36 0.44 0.48 0.32 0.31 0.32 0.29 0.26 0.30 0.30 0.21 0.10 0.03 0.02 0.02 0.01 0.01 0.00 0.00 0.00 0.00 0.00 0.01 0.05 0.03 0.00
0.01 0.00 0.00 0.00 0.00 0.00 0.00 0.01 0.02 0.04 0.15 0.33 0.58 0.60 0.64 0.66 0.68 0.97 0.87 0.89 0.76 0.61 0.48 0.36 0.29 0.19 0.12 0.07 0.04 0.05 0.05 0.03 0.01 0.00 0.00 0.00 0.00 0.00 0.01 0.03 0.03 0.00 0.00
0.01 0.01 0.00 0.00 0.00 0.00 0.03 0.05 0.04 0.08 0.18 0.26 0.22 0.61 0.77 0.62 0.55 0.57 0.57 0.52 0.30 0.30 0.29 0.21 0.12 0.08 0.04 0.02 0.01 0.01 0.00 0.00 0.00 0.00 0.00 0.00 0.00 0.01 0.03 0.02 0.01 0.00 0.00
0.01 0.01 0.02 0.02 0.04 0.07 0.13 0.25 0.23 0.41 0.53 0.83 0.60 0.64 0.79 0.57 0.41 0.44 0.26 0.21 0.18 0.10 0.07 0.05 0.03 0.01 0.00 0.00 0.00 0.00 0.00 0.00 0.00 0.00 0.00 0.00 0.00 0.01 0.02 0.02 0.00 0.00 0.02
0.23 0.25 0.18 0.14 0.18 0.22 0.37 0.72 0.66 0.65 0.70 0.64 0.67 0.41 0.37 0.26 0.19 0.12 0.09 0.06 0.03 0.02 0.01 0.01 0.00 0.00 0.00 0.00 0.00 0.00 0.00 0.00 0.00 0.00 0.00 0.00 0.01 0.01 0.00 0.00 0.00 0.01 0.01
0.28 0.54 0.49 0.45 0.55 0.41 0.43 0.59 0.46 0.28 0.14 0.17 0.12 0.05 0.02 0.01 0.01 0.01 0.00 0.00 0.00 0.00 0.00 0.00 0.00 0.00 0.00 0.00 0.00 0.00 0.00 0.00 0.00 0.00 0.00 0.00 0.00 0.00 0.00 0.00 0.00 0.00 0.00
0.01 0.02 0.02 0.06 0.14 0.14 0.14 0.18 0.12 0.05 0.01 0.00 0.00 0.00 0.00 0.00 0.00 0.00 0.00 0.00 0.00 0.00 0.00 0.00 0.00 0.00 0.00 0.00 0.00 0.00 0.00 0.00 0.00 0.00 0.00 0.00 0.00 0.00 0.00 0.00 0.00 0.00 0.00
0.00 0.00 0.00 0.00 0.00 0.00 0.00 0.00 0.00 0.00 0.00 0.00 0.00 0.00 0.00 0.00 0.00 0.00 0.00 0.00 0.00 0.00 0.00 0.00 0.00 0.00 0.00 0.00 0.00 0.00 0.00 0.01 0.01 0.01 0.00 0.00 0.00 0.00 0.00 0.00 0.00 0.00 0.00
0.00 0.00 0.00 0.00 0.00 0.00 0.00 0.00 0.00 0.00 0.00 0.00 0.00 0.00 0.00 0.00 0.00 0.00 0.00 0.00 0.00 0.00 0.00 0.00 0.00 0.00 0.00 0.00 0.00 0.00 0.00 0.01 0.00 0.00 0.00 0.00 0.00 0.00 0.00 0.00 0.00 0.00 0.00

GFSMW_prec_precacc24_051.txt.gz
Total_Precipitation_Accumulation
0.00 0.00 0.00 0.00 0.00 0.00 0.00 0.00 0.00 0.00 0.04 0.06 0.06 0.09 0.20 0.22 0.13 0.16 0.23 0.06 0.06 0.12 0.09 0.02 0.00 0.00 0.00 0.00 0.00 0.00 0.00 0.00 0.00 0.00 0.00 0.00 0.00 0.00 0.00 0.00 0.00 0.00 0.00
0.00 0.00 0.00 0.00 0.00 0.00 0.00 0.00 0.00 0.00 0.00 0.01 0.01 0.08 0.21 0.29 0.24 0.26 0.20 0.13 0.18 0.27 0.25 0.06 0.05 0.01 0.00 0.00 0.00 0.00 0.00 0.00 0.00 0.00 0.00 0.00 0.00 0.00 0.00 0.00 0.00 0.00 0.00
0.00 0.00 0.00 0.00 0.00 0.00 0.00 0.00 0.00 0.00 0.00 0.02 0.05 0.10 0.18 0.24 0.27 0.16 0.12 0.17 0.26 0.58 0.47 0.19 0.15 0.06 0.01 0.02 0.01 0.01 0.02 0.02 0.01 0.00 0.00 0.00 0.00 0.00 0.00 0.00 0.00 0.00 0.00
0.00 0.00 0.00 0.00 0.00 0.00 0.00 0.00 0.00 0.00 0.00 0.00 0.01 0.02 0.03 0.12 0.11 0.14 0.23 0.28 0.33 0.52 0.53 0.33 0.21 0.21 0.16 0.13 0.14 0.10 0.08 0.06 0.04 0.02 0.01 0.00 0.00 0.00 0.00 0.00 0.00 0.00 0.00
0.00 0.00 0.00 0.00 0.00 0.00 0.00 0.00 0.00 0.00 0.00 0.00 0.00 0.01 0.05 0.07 0.10 0.15 0.17 0.22 0.29 0.33 0.38 0.31 0.27 0.18 0.16 0.15 0.12 0.10 0.07 0.05 0.04 0.03 0.02 0.01 0.00 0.00 0.00 0.00 0.00 0.00 0.00
0.00 0.00 0.00 0.00 0.00 0.00 0.00 0.00 0.00 0.00 0.00 0.00 0.00 0.01 0.06 0.08 0.06 0.09 0.15 0.17 0.19 0.17 0.20 0.22 0.19 0.18 0.15 0.13 0.13 0.10 0.08 0.05 0.04 0.02 0.01 0.01 0.00 0.00 0.00 0.00 0.00 0.00 0.00
0.00 0.00 0.00 0.00 0.00 0.00 0.00 0.00 0.00 0.00 0.00 0.00 0.00 0.00 0.02 0.09 0.07 0.10 0.15 0.14 0.10 0.08 0.09 0.15 0.17 0.16 0.17 0.16 0.14 0.11 0.08 0.06 0.04 0.02 0.01 0.01 0.00 0.00 0.00 0.00 0.00 0.00 0.00
0.00 0.00 0.00 0.00 0.00 0.00 0.00 0.00 0.00 0.00 0.00 0.00 0.00 0.00 0.00 0.04 0.05 0.06 0.07 0.08 0.10 0.11 0.12 0.14 0.17 0.19 0.19 0.16 0.13 0.10 0.07 0.04 0.03 0.02 0.01 0.00 0.00 0.00 0.00 0.00 0.00 0.00 0.00
0.00 0.00 0.00 0.00 0.00 0.00 0.00 0.00 0.00 0.00 0.00 0.00 0.00 0.00 0.00 0.05 0.05 0.04 0.04 0.06 0.06 0.07 0.09 0.12 0.14 0.17 0.19 0.19 0.18 0.11 0.06 0.04 0.02 0.00 0.00 0.00 0.00 0.00 0.00 0.00 0.00 0.00 0.00
0.00 0.00 0.00 0.00 0.00 0.00 0.00 0.00 0.00 0.00 0.00 0.02 0.02 0.01 0.04 0.04 0.04 0.03 0.03 0.05 0.06 0.06 0.07 0.07 0.08 0.08 0.09 0.12 0.15 0.15 0.14 0.10 0.02 0.00 0.00 0.00 0.00 0.00 0.00 0.01 0.01 0.00 0.01
0.00 0.00 0.00 0.00 0.00 0.00 0.00 0.00 0.00 0.00 0.00 0.01 0.00 0.01 0.03 0.03 0.04 0.04 0.04 0.04 0.04 0.05 0.05 0.05 0.04 0.03 0.03 0.02 0.02 0.03 0.02 0.01 0.01 0.00 0.00 0.00 0.01 0.01 0.02 0.02 0.03 0.04 0.05
0.00 0.00 0.00 0.00 0.00 0.00 0.00 0.00 0.00 0.00 0.01 0.01 0.00 0.01 0.02 0.04 0.05 0.05 0.05 0.06 0.05 0.05 0.04 0.05 0.03 0.02 0.02 0.02 0.01 0.02 0.02 0.02 0.02 0.02 0.02 0.02 0.02 0.03 0.03 0.04 0.06 0.08 0.07
0.00 0.00 0.00 0.00 0.00 0.00 0.02 0.04 0.04 0.01 0.01 0.00 0.01 0.03 0.04 0.06 0.07 0.06 0.06 0.06 0.05 0.04 0.02 0.03 0.03 0.02 0.02 0.02 0.02 0.02 0.02 0.02 0.02 0.03 0.04 0.06 0.07 0.11 0.15 0.14 0.12 0.10 0.06
0.00 0.00 0.00 0.00 0.00 0.01 0.05 0.05 0.04 0.02 0.05 0.05 0.05 0.06 0.06 0.07 0.08 0.08 0.06 0.06 0.06 0.05 0.04 0.02 0.03 0.03 0.04 0.06 0.07 0.08 0.09 0.10 0.12 0.13 0.15 0.18 0.22 0.24 0.18 0.10 0.06 0.03 0.02
0.00 0.00 0.01 0.01 0.01 0.01 0.03 0.04 0.07 0.08 0.08 0.11 0.11 0.09 0.07 0.05 0.05 0.05 0.05 0.04 0.04 0.04 0.04 0.06 0.08 0.10 0.13 0.17 0.20 0.24 0.31 0.30 0.26 0.23 0.22 0.21 0.17 0.14 0.10 0.07 0.04 0.02 0.01
0.02 0.01 0.01 0.00 0.00 0.00 0.01 0.02 0.06 0.10 0.16 0.15 0.10 0.07 0.06 0.06 0.06 0.06 0.06 0.07 0.08 0.10 0.14 0.16 0.12 0.11 0.12 0.22 0.21 0.18 0.21 0.24 0.28 0.29 0.22 0.17 0.12 0.07 0.04 0.02 0.00 0.01 0.02
0.01 0.00 0.00 0.00 0.00 0.00 0.01 0.01 0.03 0.06 0.07 0.06 0.04 0.04 0.07 0.10 0.09 0.07 0.05 0.08 0.21 0.37 0.31 0.34 0.42 0.52 0.56 0.59 0.42 0.31 0.22 0.18 0.15 0.10 0.07 0.05 0.02 0.01 0.00 0.00 0.00 0.02 0.03
0.00 0.00 0.00 0.00 0.00 0.00 0.00 0.01 0.02 0.07 0.16 0.23 0.24 0.20 0.38 0.53 0.36 0.40 0.47 0.50 0.34 0.39 0.47 0.35 0.37 0.39 0.40 0.32 0.19 0.10 0.07 0.06 0.05 0.04 0.03 0.02 0.01 0.00 0.00 0.00 0.02 0.02 0.00
0.01 0.00 0.00 0.00 0.00 0.00 0.00 0.01 0.02 0.04 0.15 0.33 0.58 0.60 0.65 0.67 0.72 1.06 0.99 1.11 0.99 0.76 0.62 0.50 0.45 0.30 0.21 0.14 0.09 0.09 0.09 0.07 0.05 0.02 0.00 0.00 0.00 0.00 0.00 0.01 0.02 0.00 0.00
0.01 0.01 0.00 0.00 0.00 0.00 0.03 0.05 0.04 0.08 0.18 0.26 0.22 0.61 0.77 0.63 0.57 0.61 0.62 0.64 0.42 0.43 0.46 0.36 0.23 0.17 0.12 0.09 0.07 0.06 0.04 0.02 0.00 0.00 0.00 0.00 0.00 0.00 0.01 0.02 0.01 0.00 0.00
0.01 0.01 0.02 0.02 0.04 0.07 0.13 0.25 0.23 0.41 0.53 0.84 0.62 0.65 0.80 0.63 0.46 0.53 0.34 0.32 0.33 0.25 0.16 0.12 0.09 0.05 0.02 0.01 0.00 0.00 0.00 0.00 0.00 0.00 0.00 0.00 0.00 0.01 0.02 0.01 0.00 0.00 0.01
0.23 0.25 0.18 0.14 0.18 0.22 0.37 0.72 0.66 0.65 0.70 0.64 0.69 0.44 0.40 0.30 0.21 0.14 0.13 0.10 0.05 0.03 0.02 0.01 0.00 0.00 0.00 0.00 0.00 0.00 0.00 0.00 0.00 0.00 0.00 0.00 0.01 0.01 0.00 0.00 0.00 0.00 0.00
0.28 0.54 0.49 0.45 0.55 0.41 0.43 0.59 0.46 0.28 0.14 0.17 0.12 0.05 0.02 0.02 0.01 0.01 0.00 0.00 0.00 0.00 0.00 0.00 0.00 0.00 0.00 0.00 0.00 0.00 0.00 0.00 0.00 0.00 0.00 0.00 0.00 0.00 0.00 0.00 0.00 0.00 0.00
0.01 0.02 0.02 0.06 0.14 0.14 0.14 0.18 0.12 0.05 0.01 0.00 0.00 0.00 0.00 0.00 0.00 0.00 0.00 0.00 0.00 0.00 0.00 0.00 0.00 0.00 0.00 0.00 0.00 0.00 0.00 0.00 0.00 0.00 0.00 0.00 0.00 0.00 0.00 0.00 0.00 0.00 0.00
0.00 0.00 0.00 0.00 0.00 0.00 0.00 0.00 0.00 0.00 0.00 0.00 0.00 0.00 0.00 0.00 0.00 0.00 0.00 0.00 0.00 0.00 0.00 0.00 0.00 0.00 0.00 0.00 0.00 0.00 0.00 0.00 0.00 0.01 0.00 0.00 0.00 0.00 0.00 0.00 0.00 0.00 0.00
0.00 0.00 0.00 0.00 0.00 0.00 0.00 0.00 0.00 0.00 0.00 0.00 0.00 0.00 0.00 0.00 0.00 0.00 0.00 0.00 0.00 0.00 0.00 0.00 0.00 0.00 0.00 0.00 0.00 0.00 0.00 0.01 0.00 0.00 0.00 0.00 0.00 0.00 0.00 0.00 0.00 0.00 0.00

GFSMW_prec_precacc24_057.txt.gz
Total_Precipitation_Accumulation
0.00 0.00 0.00 0.00 0.00 0.00 0.00 0.00 0.00 0.00 0.04 0.07 0.07 0.10 0.15 0.16 0.05 0.06 0.17 0.07 0.10 0.13 0.11 0.04 0.01 0.00 0.00 0.00 0.00 0.00 0.00 0.00 0.00 0.00 0.00 0.00 0.00 0.00 0.00 0.00 0.00 0.00 0.00
0.00 0.00 0.00 0.00 0.00 0.00 0.00 0.00 0.00 0.00 0.00 0.01 0.01 0.08 0.18 0.22 0.15 0.18 0.12 0.07 0.15 0.27 0.25 0.08 0.07 0.03 0.01 0.00 0.00 0.00 0.00 0.00 0.00 0.00 0.00 0.00 0.00 0.00 0.00 0.00 0.00 0.00 0.00
0.00 0.00 0.00 0.00 0.00 0.00 0.00 0.00 0.00 0.00 0.00 0.02 0.05 0.10 0.17 0.22 0.23 0.11 0.03 0.08 0.18 0.55 0.48 0.24 0.17 0.14 0.04 0.02 0.01 0.01 0.03 0.02 0.01 0.00 0.00 0.00 0.00 0.00 0.00 0.00 0.00 0.00 0.00
0.00 0.00 0.00 0.00 0.00 0.00 0.00 0.00 0.00 0.00 0.00 0.00 0.01 0.02 0.02 0.07 0.06 0.07 0.16 0.21 0.28 0.52 0.61 0.41 0.26 0.27 0.23 0.16 0.16 0.11 0.11 0.07 0.04 0.02 0.01 0.00 0.00 0.00 0.00 0.00 0.00 0.00 0.00
0.00 0.00 0.00 0.00 0.00 0.00 0.00 0.00 0.00 0.00 0.00 0.00 0.00 0.00 0.02 0.03 0.05 0.10 0.13 0.18 0.28 0.32 0.41 0.35 0.35 0.25 0.22 0.23 0.18 0.14 0.12 0.10 0.06 0.05 0.04 0.01 0.00 0.00 0.00 0.00 0.00 0.00 0.00
0.00 0.00 0.00 0.00 0.00 0.00 0.00 0.00 0.00 0.00 0.00 0.00 0.00 0.00 0.01 0.02 0.04 0.08 0.13 0.15 0.18 0.17 0.22 0.24 0.22 0.22 0.19 0.17 0.21 0.21 0.20 0.14 0.10 0.06 0.04 0.03 0.02 0.01 0.01 0.01 0.00 0.00 0.00
0.00 0.00 0.00 0.00 0.00 0.00 0.00 0.00 0.00 0.00 0.00 0.00 0.00 0.00 0.00 0.02 0.04 0.08 0.12 0.12 0.09 0.08 0.09 0.17 0.19 0.19 0.21 0.25 0.24 0.21 0.16 0.16 0.14 0.09 0.06 0.04 0.03 0.02 0.02 0.02 0.01 0.00 0.00
0.00 0.00 0.00 0.00 0.00 0.00 0.00 0.00 0.00 0.00 0.00 0.00 0.00 0.00 0.00 0.02 0.04 0.04 0.06 0.07 0.10 0.11 0.12 0.14 0.17 0.21 0.21 0.20 0.19 0.18 0.16 0.14 0.13 0.12 0.09 0.07 0.07 0.05 0.04 0.04 0.06 0.07 0.03
0.00 0.00 0.00 0.00 0.00 0.00 0.00 0.00 0.00 0.00 0.00 0.00 0.00 0.00 0.00 0.03 0.03 0.02 0.03 0.06 0.06 0.07 0.09 0.12 0.14 0.17 0.20 0.22 0.23 0.20 0.16 0.15 0.12 0.09 0.07 0.05 0.05 0.05 0.05 0.07 0.10 0.19 0.22
0.00 0.00 0.00 0.00 0.00 0.00 0.00 0.00 0.00 0.00 0.00 0.02 0.02 0.01 0.03 0.03 0.02 0.02 0.02 0.04 0.06 0.06 0.07 0.07 0.08 0.08 0.10 0.14 0.19 0.20 0.23 0.25 0.26 0.26 0.24 0.23 0.24 0.24 0.26 0.30 0.32 0.30 0.27
0.00 0.00 0.00 0.00 0.00 0.00 0.00 0.00 0.00 0.00 0.00 0.01 0.00 0.01 0.03 0.03 0.03 0.03 0.03 0.03 0.04 0.05 0.05 0.05 0.04 0.04 0.03 0.03 0.04 0.04 0.05 0.07 0.07 0.07 0.08 0.11 0.15 0.18 0.21 0.20 0.17 0.15 0.15
0.00 0.00 0.00 0.00 0.00 0.00 0.00 0.00 0.00 0.00 0.01 0.01 0.00 0.01 0.02 0.04 0.05 0.05 0.05 0.06 0.05 0.05 0.04 0.05 0.03 0.02 0.02 0.03 0.02 0.03 0.04 0.04 0.06 0.05 0.05 0.04 0.05 0.06 0.06 0.08 0.13 0.16 0.18
0.00 0.00 0.00 0.00 0.00 0.00 0.02 0.04 0.03 0.01 0.01 0.00 0.01 0.02 0.04 0.05 0.06 0.06 0.06 0.05 0.05 0.04 0.02 0.03 0.03 0.02 0.02 0.03 0.02 0.03 0.03 0.03 0.04 0.05 0.06 0.08 0.10 0.15 0.21 0.25 0.29 0.31 0.29
0.00 0.00 0.00 0.00 0.00 0.01 0.05 0.05 0.03 0.01 0.03 0.05 0.05 0.05 0.05 0.07 0.08 0.08 0.06 0.06 0.07 0.06 0.05 0.04 0.04 0.04 0.05 0.07 0.08 0.09 0.10 0.13 0.15 0.17 0.19 0.23 0.29 0.33 0.36 0.36 0.31 0.25 0.19
0.00 0.00 0.01 0.01 0.01 0.01 0.03 0.04 0.06 0.06 0.07 0.11 0.11 0.09 0.07 0.05 0.05 0.06 0.05 0.05 0.05 0.06 0.06 0.06 0.09 0.11 0.13 0.18 0.21 0.25 0.33 0.35 0.33 0.31 0.32 0.35 0.40 0.42 0.37 0.28 0.22 0.16 0.08
0.02 0.01 0.01 0.00 0.00 0.00 0.00 0.02 0.05 0.08 0.13 0.13 0.09 0.06 0.05 0.06 0.07 0.06 0.06 0.08 0.09 0.11 0.15 0.17 0.13 0.13 0.14 0.27 0.23 0.19 0.22 0.27 0.31 0.35 0.36 0.37 0.34 0.22 0.14 0.08 0.05 0.02 0.01
0.00 0.00 0.00 0.00 0.00 0.00 0.00 0.00 0.02 0.04 0.05 0.04 0.03 0.04 0.07 0.10 0.09 0.07 0.05 0.09 0.23 0.40 0.36 0.38 0.47 0.61 0.67 0.70 0.51 0.40 0.29 0.29 0.27 0.24 0.19 0.13 0.06 0.03 0.01 0.00 0.00 0.00 0.00
0.00 0.00 0.00 0.00 0.00 0.00 0.00 0.00 0.01 0.05 0.14 0.20 0.16 0.16 0.37 0.52 0.37 0.44 0.56 0.63 0.43 0.44 0.56 0.50 0.64 0.69 0.81 0.72 0.51 0.42 0.40 0.32 0.25 0.20 0.14 0.09 0.05 0.02 0.00 0.00 0.00 0.00 0.00
0.00 0.00 0.00 0.00 0.00 0.00 0.00 0.00 0.01 0.02 0.13 0.32 0.52 0.56 0.65 0.67 0.73 1.09 1.03 1.18 1.08 0.85 0.71 0.58 0.54 0.45 0.36 0.26 0.19 0.14 0.13 0.10 0.08 0.04 0.01 0.00 0.00 0.00 0.00 0.00 0.00 0.00 0.00
0.00 0.00 0.00 0.00 0.00 0.00 0.00 0.01 0.02 0.05 0.14 0.24 0.22 0.61 0.78 0.63 0.58 0.63 0.64 0.72 0.50 0.52 0.60 0.53 0.35 0.28 0.20 0.14 0.09 0.08 0.06 0.03 0.01 0.00 0.00 0.00 0.00 0.00 0.00 0.01 0.00 0.00 0.00
0.01 0.00 0.01 0.00 0.01 0.04 0.08 0.16 0.20 0.39 0.52 0.83 0.62 0.66 0.80 0.64 0.47 0.54 0.36 0.35 0.38 0.30 0.21 0.14 0.10 0.05 0.03 0.01 0.00 0.00 0.00 0.00 0.00 0.00 0.00 0.00 0.00 0.00 0.01 0.01 0.00 0.00 0.00
0.23 0.24 0.18 0.14 0.17 0.21 0.36 0.72 0.66 0.65 0.70 0.64 0.69 0.44 0.40 0.30 0.22 0.15 0.14 0.10 0.05 0.03 0.02 0.01 0.00 0.00 0.00 0.00 0.00 0.00 0.00 0.00 0.00 0.00 0.00 0.00 0.01 0.01 0.00 0.00 0.00 0.00 0.00
0.28 0.54 0.49 0.45 0.55 0.41 0.43 0.59 0.46 0.28 0.14 0.17 0.12 0.05 0.02 0.02 0.01 0.01 0.00 0.00 0.00 0.00 0.00 0.00 0.00 0.00 0.00 0.00 0.00 0.00 0.00 0.00 0.00 0.00 0.00 0.00 0.00 0.00 0.00 0.00 0.00 0.00 0.00
0.01 0.02 0.02 0.06 0.14 0.14 0.14 0.18 0.12 0.05 0.01 0.00 0.00 0.00 0.00 0.00 0.00 0.00 0.00 0.00 0.00 0.00 0.00 0.00 0.00 0.00 0.00 0.00 0.00 0.00 0.00 0.00 0.00 0.00 0.00 0.00 0.00 0.00 0.00 0.00 0.00 0.00 0.00
0.00 0.00 0.00 0.00 0.00 0.00 0.00 0.00 0.00 0.00 0.00 0.00 0.00 0.00 0.00 0.00 0.00 0.00 0.00 0.00 0.00 0.00 0.00 0.00 0.00 0.00 0.00 0.00 0.00 0.00 0.00 0.00 0.00 0.00 0.00 0.00 0.00 0.00 0.00 0.00 0.00 0.00 0.00
0.00 0.00 0.00 0.00 0.00 0.00 0.00 0.00 0.00 0.00 0.00 0.00 0.00 0.00 0.00 0.00 0.00 0.00 0.00 0.00 0.00 0.00 0.00 0.00 0.00 0.00 0.00 0.00 0.00 0.00 0.00 0.00 0.00 0.00 0.00 0.00 0.00 0.00 0.00 0.00 0.00 0.00 0.00

GFSMW_prec_precacc24_060.txt.gz
Total_Precipitation_Accumulation
0.00 0.00 0.00 0.00 0.00 0.00 0.00 0.00 0.00 0.00 0.04 0.07 0.08 0.12 0.15 0.16 0.05 0.06 0.16 0.06 0.10 0.15 0.14 0.05 0.02 0.00 0.00 0.00 0.00 0.00 0.00 0.00 0.00 0.00 0.00 0.00 0.00 0.00 0.00 0.00 0.00 0.00 0.00
0.00 0.00 0.00 0.00 0.00 0.00 0.00 0.00 0.00 0.00 0.00 0.01 0.01 0.09 0.17 0.17 0.15 0.17 0.10 0.09 0.15 0.27 0.27 0.12 0.11 0.07 0.03 0.01 0.00 0.01 0.02 0.00 0.00 0.00 0.00 0.00 0.00 0.00 0.00 0.00 0.00 0.00 0.00
0.00 0.00 0.00 0.00 0.00 0.00 0.00 0.00 0.00 0.00 0.00 0.02 0.05 0.10 0.17 0.21 0.23 0.11 0.02 0.05 0.17 0.56 0.48 0.24 0.20 0.17 0.06 0.06 0.03 0.06 0.10 0.04 0.02 0.00 0.00 0.00 0.00 0.00 0.00 0.00 0.00 0.00 0.00
0.00 0.00 0.00 0.00 0.00 0.00 0.00 0.00 0.00 0.00 0.00 0.00 0.01 0.02 0.02 0.06 0.04 0.06 0.15 0.19 0.24 0.51 0.63 0.44 0.27 0.29 0.24 0.17 0.18 0.13 0.21 0.15 0.06 0.04 0.02 0.01 0.00 0.00 0.00 0.00 0.00 0.00 0.00
0.00 0.00 0.00 0.00 0.00 0.00 0.00 0.00 0.00 0.00 0.00 0.00 0.00 0.00 0.01 0.03 0.05 0.09 0.12 0.16 0.24 0.31 0.40 0.35 0.35 0.25 0.23 0.26 0.20 0.16 0.16 0.18 0.15 0.09 0.09 0.05 0.01 0.00 0.00 0.00 0.00 0.00 0.00
0.00 0.00 0.00 0.00 0.00 0.00 0.00 0.00 0.00 0.00 0.00 0.00 0.00 0.00 0.00 0.02 0.03 0.08 0.13 0.13 0.16 0.16 0.22 0.23 0.22 0.23 0.20 0.18 0.23 0.23 0.23 0.19 0.18 0.12 0.08 0.08 0.07 0.03 0.03 0.02 0.01 0.00 0.00
0.00 0.00 0.00 0.00 0.00 0.00 0.00 0.00 0.00 0.00 0.00 0.00 0.00 0.00 0.00 0.02 0.04 0.08 0.12 0.11 0.08 0.06 0.09 0.19 0.21 0.20 0.22 0.26 0.25 0.22 0.18 0.21 0.22 0.17 0.12 0.11 0.10 0.08 0.07 0.06 0.03 0.01 0.00
0.00 0.00 0.00 0.00 0.00 0.00 0.00 0.00 0.00 0.00 0.00 0.00 0.00 0.00 0.00 0.02 0.04 0.04 0.04 0.05 0.07 0.09 0.12 0.16 0.20 0.24 0.22 0.21 0.21 0.20 0.18 0.17 0.18 0.19 0.19 0.14 0.12 0.11 0.10 0.10 0.11 0.11 0.10
0.00 0.00 0.00 0.00 0.00 0.00 0.00 0.00 0.00 0.00 0.00 0.00 0.00 0.00 0.00 0.03 0.03 0.02 0.03 0.05 0.05 0.06 0.08 0.12 0.15 0.17 0.21 0.23 0.26 0.22 0.19 0.19 0.17 0.16 0.18 0.14 0.10 0.08 0.10 0.11 0.14 0.24 0.33
0.00 0.00 0.00 0.00 0.00 0.00 0.00 0.00 0.00 0.00 0.00 0.02 0.02 0.01 0.03 0.03 0.02 0.02 0.02 0.04 0.05 0.06 0.07 0.07 0.08 0.08 0.10 0.14 0.21 0.22 0.26 0.29 0.31 0.33 0.33 0.32 0.30 0.29 0.29 0.32 0.39 0.49 0.59
0.00 0.00 0.00 0.00 0.00 0.00 0.00 0.00 0.00 0.00 0.00 0.01 0.00 0.01 0.03 0.02 0.03 0.03 0.03 0.03 0.04 0.04 0.05 0.05 0.04 0.04 0.03 0.03 0.04 0.05 0.06 0.08 0.09 0.11 0.13 0.16 0.19 0.23 0.26 0.26 0.29 0.33 0.37
0.00 0.00 0.00 0.00 0.00 0.00 0.00 0.00 0.00 0.00 0.01 0.01 0.00 0.01 0.02 0.04 0.05 0.05 0.04 0.05 0.04 0.05 0.04 0.05 0.03 0.02 0.02 0.03 0.02 0.04 0.04 0.05 0.07 0.06 0.07 0.08 0.07 0.09 0.10 0.14 0.20 0.27 0.31
0.00 0.00 0.00 0.00 0.00 0.00 0.00 0.04 0.03 0.01 0.01 0.00 0.01 0.02 0.04 0.05 0.06 0.06 0.06 0.05 0.04 0.04 0.02 0.03 0.03 0.02 0.02 0.03 0.02 0.03 0.03 0.04 0.05 0.06 0.07 0.10 0.12 0.17 0.22 0.27 0.31 0.33 0.31
0.00 0.00 0.00 0.00 0.00 0.00 0.02 0.04 0.02 0.01 0.03 0.05 0.05 0.05 0.05 0.07 0.08 0.08 0.06 0.06 0.06 0.05 0.05 0.04 0.04 0.04 0.05 0.07 0.08 0.09 0.10 0.13 0.16 0.17 0.20 0.24 0.30 0.34 0.37 0.37 0.34 0.29 0.24
0.00 0.00 0.01 0.01 0.01 0.01 0.02 0.04 0.06 0.06 0.07 0.11 0.11 0.09 0.07 0.05 0.05 0.05 0.04 0.04 0.05 0.06 0.06 0.06 0.09 0.11 0.13 0.18 0.21 0.25 0.33 0.36 0.36 0.35 0.36 0.37 0.43 0.44 0.40 0.33 0.27 0.20 0.14
0.02 0.01 0.01 0.00 0.00 0.00 0.00 0.02 0.05 0.08 0.13 0.13 0.09 0.06 0.05 0.06 0.06 0.05 0.05 0.06 0.08 0.11 0.15 0.17 0.13 0.13 0.14 0.29 0.23 0.20 0.23 0.28 0.33 0.37 0.41 0.44 0.39 0.25 0.18 0.13 0.08 0.04 0.02
0.00 0.00 0.00 0.00 0.00 0.00 0.00 0.00 0.02 0.04 0.05 0.04 0.03 0.04 0.06 0.09 0.08 0.06 0.05 0.08 0.23 0.40 0.36 0.38 0.47 0.61 0.68 0.72 0.55 0.42 0.30 0.31 0.31 0.27 0.23 0.16 0.09 0.05 0.02 0.01 0.00 0.00 0.00
0.00 0.00 0.00 0.00 0.00 0.00 0.00 0.00 0.01 0.05 0.14 0.20 0.15 0.12 0.33 0.49 0.32 0.41 0.53 0.62 0.42 0.44 0.56 0.50 0.64 0.70 0.83 0.75 0.58 0.56 0.54 0.47 0.39 0.27 0.18 0.14 0.08 0.03 0.01 0.00 0.00 0.00 0.00
0.00 0.00 0.00 0.00 0.00 0.00 0.00 0.00 0.00 0.01 0.11 0.30 0.45 0.31 0.34 0.44 0.61 1.06 1.03 1.18 1.08 0.85 0.71 0.58 0.54 0.45 0.36 0.26 0.20 0.15 0.14 0.12 0.09 0.05 0.01 0.00 0.00 0.00 0.00 0.00 0.00 0.00 0.00
0.00 0.00 0.00 0.00 0.00 0.00 0.00 0.00 0.00 0.02 0.09 0.15 0.14 0.54 0.68 0.58 0.56 0.63 0.64 0.72 0.50 0.52 0.60 0.53 0.35 0.28 0.20 0.14 0.09 0.08 0.06 0.03 0.01 0.00 0.00 0.00 0.00 0.00 0.00 0.01 0.00 0.00 0.00
0.00 0.00 0.00 0.00 0.00 0.02 0.03 0.02 0.06 0.27 0.41 0.68 0.44 0.59 0.79 0.64 0.47 0.54 0.36 0.35 0.38 0.30 0.21 0.14 0.10 0.05 0.03 0.01 0.00 0.00 0.00 0.00 0.00 0.00 0.00 0.00 0.00 0.00 0.01 0.01 0.00 0.00 0.00
0.05 0.03 0.02 0.02 0.03 0.06 0.17 0.32 0.42 0.51 0.62 0.61 0.68 0.44 0.40 0.30 0.22 0.15 0.14 0.10 0.05 0.03 0.02 0.01 0.00 0.00 0.00 0.00 0.00 0.00 0.00 0.00 0.00 0.00 0.00 0.00 0.00 0.01 0.00 0.00 0.00 0.00 0.00
0.24 0.39 0.36 0.33 0.39 0.31 0.36 0.49 0.42 0.28 0.14 0.17 0.12 0.05 0.02 0.02 0.01 0.01 0.00 0.00 0.00 0.00 0.00 0.00 0.00 0.00 0.00 0.00 0.00 0.00 0.00 0.00 0.00 0.00 0.00 0.00 0.00 0.00 0.00 0.00 0.00 0.00 0.00
0.01 0.02 0.02 0.06 0.14 0.14 0.14 0.18 0.12 0.05 0.01 0.00 0.00 0.00 0.00 0.00 0.00 0.00 0.00 0.00 0.00 0.00 0.00 0.00 0.00 0.00 0.00 0.00 0.00 0.00 0.00 0.00 0.00 0.00 0.00 0.00 0.00 0.00 0.00 0.00 0.00 0.00 0.00
0.00 0.00 0.00 0.00 0.00 0.00 0.00 0.00 0.00 0.00 0.00 0.00 0.00 0.00 0.00 0.00 0.00 0.00 0.00 0.00 0.00 0.00 0.00 0.00 0.00 0.00 0.00 0.00 0.00 0.00 0.00 0.00 0.00 0.00 0.00 0.00 0.00 0.00 0.00 0.00 0.00 0.00 0.00
0.00 0.00 0.00 0.00 0.00 0.00 0.00 0.00 0.00 0.00 0.00 0.00 0.00 0.00 0.00 0.00 0.00 0.00 0.00 0.00 0.00 0.00 0.00 0.00 0.00 0.00 0.00 0.00 0.00 0.00 0.00 0.00 0.00 0.00 0.00 0.00 0.00 0.00 0.00 0.00 0.00 0.00 0.00

GFSMW_prec_precacc24_066.txt.gz
Total_Precipitation_Accumulation
0.00 0.00 0.00 0.00 0.00 0.00 0.00 0.00 0.00 0.00 0.01 0.02 0.04 0.05 0.05 0.16 0.08 0.07 0.22 0.17 0.18 0.24 0.21 0.07 0.05 0.05 0.01 0.01 0.00 0.01 0.01 0.00 0.01 0.00 0.00 0.00 0.00 0.00 0.00 0.00 0.00 0.00 0.00
0.00 0.00 0.00 0.00 0.00 0.00 0.00 0.00 0.00 0.00 0.00 0.00 0.00 0.01 0.02 0.03 0.04 0.12 0.11 0.15 0.23 0.31 0.31 0.19 0.17 0.13 0.06 0.03 0.01 0.02 0.10 0.05 0.10 0.08 0.02 0.00 0.00 0.00 0.00 0.00 0.00 0.00 0.00
0.00 0.00 0.00 0.00 0.00 0.00 0.00 0.00 0.00 0.00 0.00 0.00 0.00 0.01 0.03 0.04 0.05 0.04 0.01 0.03 0.14 0.36 0.40 0.27 0.22 0.22 0.12 0.09 0.09 0.10 0.19 0.19 0.20 0.11 0.09 0.02 0.00 0.00 0.00 0.00 0.00 0.00 0.00
0.00 0.00 0.00 0.00 0.00 0.00 0.00 0.00 0.00 0.00 0.00 0.00 0.00 0.00 0.00 0.01 0.00 0.00 0.02 0.04 0.10 0.32 0.49 0.41 0.32 0.33 0.29 0.21 0.23 0.21 0.29 0.28 0.21 0.17 0.11 0.08 0.03 0.02 0.01 0.01 0.03 0.02 0.01
0.00 0.00 0.00 0.00 0.00 0.00 0.00 0.00 0.00 0.00 0.00 0.00 0.00 0.00 0.00 0.00 0.00 0.00 0.01 0.03 0.07 0.15 0.28 0.30 0.31 0.23 0.25 0.30 0.26 0.25 0.25 0.31 0.30 0.23 0.25 0.20 0.15 0.08 0.04 0.03 0.05 0.05 0.04
0.00 0.00 0.00 0.00 0.00 0.00 0.00 0.00 0.00 0.00 0.00 0.00 0.00 0.00 0.00 0.01 0.00 0.04 0.07 0.06 0.06 0.06 0.16 0.19 0.19 0.20 0.19 0.18 0.26 0.31 0.34 0.33 0.35 0.31 0.28 0.28 0.27 0.21 0.16 0.12 0.09 0.08 0.05
0.00 0.00 0.00 0.00 0.00 0.00 0.00 0.00 0.00 0.00 0.00 0.00 0.00 0.00 0.00 0.01 0.02 0.05 0.09 0.08 0.04 0.02 0.05 0.16 0.19 0.17 0.21 0.27 0.25 0.23 0.22 0.32 0.38 0.38 0.29 0.26 0.27 0.27 0.28 0.28 0.27 0.22 0.13
0.00 0.00 0.00 0.00 0.00 0.00 0.00 0.00 0.00 0.00 0.00 0.00 0.00 0.00 0.00 0.00 0.00 0.01 0.01 0.02 0.04 0.04 0.08 0.13 0.17 0.22 0.22 0.20 0.20 0.20 0.20 0.21 0.26 0.33 0.38 0.31 0.28 0.29 0.29 0.32 0.39 0.33 0.24
0.00 0.00 0.00 0.00 0.00 0.00 0.00 0.00 0.00 0.00 0.00 0.00 0.00 0.00 0.00 0.00 0.00 0.00 0.00 0.01 0.01 0.03 0.05 0.09 0.13 0.16 0.20 0.22 0.25 0.22 0.20 0.21 0.20 0.22 0.30 0.32 0.23 0.21 0.25 0.29 0.44 0.66 0.75
0.00 0.00 0.00 0.00 0.00 0.00 0.00 0.00 0.00 0.00 0.00 0.00 0.00 0.00 0.00 0.00 0.00 0.00 0.00 0.01 0.03 0.03 0.04 0.05 0.06 0.07 0.09 0.14 0.20 0.22 0.26 0.31 0.32 0.35 0.38 0.39 0.38 0.40 0.44 0.50 0.62 0.83 1.03
0.00 0.00 0.00 0.00 0.00 0.00 0.00 0.00 0.00 0.00 0.00 0.00 0.00 0.00 0.00 0.00 0.00 0.01 0.01 0.01 0.02 0.03 0.03 0.03 0.03 0.03 0.02 0.02 0.03 0.04 0.06 0.09 0.09 0.11 0.14 0.17 0.21 0.27 0.32 0.33 0.37 0.44 0.56
0.00 0.00 0.00 0.00 0.00 0.00 0.00 0.00 0.00 0.00 0.00 0.00 0.00 0.00 0.00 0.00 0.01 0.02 0.03 0.04 0.03 0.03 0.03 0.04 0.03 0.02 0.01 0.01 0.02 0.03 0.03 0.05 0.07 0.07 0.08 0.09 0.08 0.10 0.10 0.16 0.23 0.33 0.40
0.00 0.00 0.00 0.00 0.00 0.00 0.00 0.00 0.00 0.00 0.00 0.00 0.00 0.00 0.00 0.01 0.02 0.04 0.04 0.04 0.03 0.02 0.02 0.02 0.01 0.01 0.01 0.01 0.01 0.03 0.03 0.04 0.05 0.07 0.08 0.11 0.14 0.19 0.24 0.28 0.32 0.35 0.32
0.00 0.00 0.00 0.00 0.00 0.00 0.00 0.00 0.00 0.00 0.00 0.00 0.00 0.01 0.02 0.03 0.05 0.07 0.06 0.05 0.05 0.03 0.02 0.02 0.02 0.01 0.02 0.03 0.05 0.08 0.09 0.12 0.15 0.18 0.21 0.25 0.31 0.35 0.37 0.38 0.35 0.30 0.24
0.00 0.00 0.00 0.00 0.01 0.01 0.00 0.00 0.00 0.00 0.00 0.03 0.05 0.05 0.05 0.03 0.04 0.05 0.04 0.03 0.04 0.04 0.03 0.02 0.02 0.02 0.04 0.09 0.12 0.17 0.28 0.34 0.36 0.35 0.37 0.45 0.52 0.49 0.44 0.40 0.34 0.23 0.16
0.00 0.00 0.00 0.00 0.00 0.00 0.00 0.00 0.00 0.00 0.01 0.04 0.04 0.04 0.03 0.04 0.06 0.05 0.05 0.05 0.05 0.05 0.06 0.08 0.07 0.10 0.12 0.26 0.21 0.18 0.22 0.27 0.33 0.41 0.43 0.49 0.50 0.36 0.29 0.24 0.15 0.07 0.03
0.00 0.00 0.00 0.00 0.00 0.00 0.00 0.00 0.00 0.00 0.01 0.01 0.01 0.02 0.06 0.08 0.07 0.05 0.03 0.03 0.10 0.21 0.16 0.17 0.21 0.35 0.50 0.63 0.51 0.40 0.30 0.31 0.31 0.30 0.26 0.20 0.17 0.16 0.10 0.08 0.05 0.03 0.02
0.00 0.00 0.00 0.00 0.00 0.00 0.00 0.00 0.00 0.03 0.05 0.09 0.11 0.10 0.33 0.45 0.20 0.25 0.30 0.35 0.21 0.28 0.39 0.40 0.60 0.67 0.81 0.74 0.57 0.56 0.54 0.47 0.40 0.30 0.20 0.15 0.09 0.04 0.01 0.00 0.00 0.00 0.00
0.00 0.00 0.00 0.00 0.00 0.00 0.00 0.00 0.00 0.01 0.07 0.27 0.44 0.26 0.27 0.26 0.16 0.34 0.40 0.71 0.64 0.54 0.54 0.51 0.51 0.44 0.36 0.26 0.20 0.15 0.14 0.12 0.09 0.05 0.01 0.00 0.00 0.00 0.00 0.00 0.00 0.00 0.00
0.00 0.00 0.00 0.00 0.00 0.00 0.00 0.00 0.00 0.00 0.00 0.01 0.03 0.06 0.06 0.05 0.11 0.22 0.26 0.50 0.41 0.49 0.59 0.53 0.35 0.28 0.20 0.14 0.09 0.08 0.06 0.03 0.01 0.00 0.00 0.00 0.00 0.00 0.00 0.00 0.00 0.00 0.00
0.00 0.00 0.00 0.00 0.00 0.00 0.00 0.00 0.00 0.01 0.02 0.03 0.06 0.19 0.30 0.25 0.25 0.41 0.33 0.34 0.38 0.30 0.21 0.14 0.10 0.05 0.03 0.01 0.00 0.00 0.00 0.00 0.00 0.00 0.00 0.00 0.00 0.00 0.00 0.00 0.00 0.00 0.00
0.00 0.00 0.00 0.00 0.00 0.00 0.00 0.00 0.04 0.09 0.18 0.21 0.26 0.25 0.30 0.22 0.16 0.14 0.13 0.10 0.05 0.03 0.02 0.01 0.00 0.00 0.00 0.00 0.00 0.00 0.00 0.00 0.00 0.00 0.00 0.00 0.00 0.00 0.00 0.00 0.00 0.00 0.00
0.00 0.00 0.00 0.00 0.00 0.00 0.02 0.02 0.03 0.04 0.05 0.09 0.10 0.05 0.02 0.02 0.01 0.01 0.00 0.00 0.00 0.00 0.00 0.00 0.00 0.00 0.00 0.00 0.00 0.00 0.00 0.00 0.00 0.00 0.00 0.00 0.00 0.00 0.00 0.00 0.00 0.00 0.00
0.00 0.00 0.00 0.00 0.00 0.00 0.02 0.03 0.02 0.00 0.00 0.00 0.00 0.00 0.00 0.00 0.00 0.00 0.00 0.00 0.00 0.00 0.00 0.00 0.00 0.00 0.00 0.00 0.00 0.00 0.00 0.00 0.00 0.00 0.00 0.00 0.00 0.00 0.00 0.00 0.00 0.00 0.00
0.00 0.00 0.00 0.00 0.00 0.00 0.00 0.00 0.00 0.00 0.00 0.00 0.00 0.00 0.00 0.00 0.00 0.00 0.00 0.00 0.00 0.00 0.00 0.00 0.00 0.00 0.00 0.00 0.00 0.00 0.00 0.00 0.00 0.00 0.00 0.00 0.00 0.00 0.00 0.00 0.00 0.00 0.00
0.00 0.00 0.00 0.00 0.00 0.00 0.00 0.00 0.00 0.00 0.00 0.00 0.00 0.00 0.00 0.00 0.00 0.00 0.00 0.00 0.00 0.00 0.00 0.00 0.00 0.00 0.00 0.00 0.00 0.00 0.00 0.00 0.00 0.00 0.00 0.00 0.00 0.00 0.00 0.00 0.00 0.00 0.00

GFSMW_prec_precacc24_069.txt.gz
Total_Precipitation_Accumulation
0.00 0.00 0.00 0.00 0.00 0.00 0.00 0.00 0.00 0.00 0.00 0.01 0.02 0.04 0.02 0.12 0.09 0.07 0.24 0.21 0.22 0.23 0.19 0.09 0.07 0.07 0.02 0.02 0.01 0.01 0.01 0.00 0.01 0.00 0.00 0.00 0.00 0.00 0.00 0.00 0.00 0.00 0.01
0.00 0.00 0.00 0.00 0.00 0.00 0.00 0.00 0.00 0.00 0.00 0.00 0.00 0.01 0.01 0.01 0.02 0.09 0.09 0.16 0.24 0.27 0.28 0.23 0.21 0.14 0.07 0.04 0.02 0.03 0.11 0.06 0.13 0.11 0.03 0.01 0.00 0.00 0.00 0.00 0.00 0.00 0.00
0.00 0.00 0.00 0.00 0.00 0.00 0.00 0.00 0.00 0.00 0.00 0.00 0.00 0.00 0.00 0.00 0.01 0.01 0.00 0.03 0.09 0.23 0.30 0.24 0.22 0.22 0.12 0.08 0.09 0.11 0.21 0.21 0.22 0.15 0.16 0.04 0.00 0.00 0.00 0.00 0.00 0.00 0.01
0.00 0.00 0.00 0.00 0.00 0.00 0.00 0.00 0.00 0.00 0.00 0.00 0.00 0.00 0.00 0.00 0.00 0.00 0.00 0.00 0.04 0.16 0.34 0.31 0.29 0.27 0.22 0.16 0.17 0.19 0.28 0.29 0.22 0.19 0.15 0.12 0.05 0.04 0.01 0.01 0.03 0.03 0.02
0.00 0.00 0.00 0.00 0.00 0.00 0.00 0.00 0.00 0.00 0.00 0.00 0.00 0.00 0.00 0.00 0.00 0.00 0.00 0.01 0.03 0.07 0.17 0.19 0.23 0.17 0.18 0.22 0.21 0.23 0.24 0.31 0.31 0.23 0.27 0.23 0.17 0.11 0.07 0.05 0.05 0.06 0.06
0.00 0.00 0.00 0.00 0.00 0.00 0.00 0.00 0.00 0.00 0.00 0.00 0.00 0.00 0.00 0.01 0.00 0.02 0.04 0.03 0.03 0.04 0.11 0.13 0.11 0.14 0.14 0.14 0.24 0.31 0.34 0.33 0.36 0.32 0.30 0.30 0.30 0.24 0.20 0.15 0.10 0.10 0.07
0.00 0.00 0.00 0.00 0.00 0.00 0.00 0.00 0.00 0.00 0.00 0.00 0.00 0.00 0.00 0.01 0.01 0.02 0.03 0.04 0.03 0.02 0.04 0.12 0.14 0.11 0.16 0.23 0.23 0.22 0.21 0.31 0.38 0.39 0.29 0.26 0.28 0.29 0.31 0.31 0.29 0.24 0.14
0.00 0.00 0.00 0.00 0.00 0.00 0.00 0.00 0.00 0.00 0.00 0.00 0.00 0.00 0.00 0.00 0.00 0.00 0.00 0.00 0.01 0.02 0.05 0.09 0.13 0.17 0.18 0.18 0.19 0.19 0.19 0.20 0.26 0.32 0.38 0.31 0.28 0.30 0.31 0.35 0.43 0.36 0.26
0.00 0.00 0.00 0.00 0.00 0.00 0.00 0.00 0.00 0.00 0.00 0.00 0.00 0.00 0.00 0.00 0.00 0.00 0.00 0.00 0.00 0.00 0.02 0.07 0.10 0.13 0.18 0.22 0.25 0.22 0.20 0.20 0.20 0.22 0.30 0.32 0.23 0.21 0.26 0.30 0.46 0.72 0.81
0.00 0.00 0.00 0.00 0.00 0.00 0.00 0.00 0.00 0.00 0.00 0.00 0.00 0.00 0.00 0.00 0.00 0.00 0.00 0.00 0.00 0.00 0.01 0.03 0.04 0.06 0.09 0.14 0.20 0.22 0.26 0.30 0.32 0.35 0.38 0.39 0.38 0.40 0.44 0.51 0.63 0.87 1.08
0.00 0.00 0.00 0.00 0.00 0.00 0.00 0.00 0.00 0.00 0.00 0.00 0.00 0.00 0.00 0.00 0.00 0.00 0.00 0.00 0.00 0.00 0.01 0.01 0.02 0.03 0.02 0.02 0.03 0.04 0.06 0.08 0.09 0.11 0.14 0.17 0.21 0.27 0.32 0.33 0.37 0.47 0.60
0.00 0.00 0.00 0.00 0.00 0.00 0.00 0.00 0.00 0.00 0.00 0.00 0.00 0.00 0.00 0.00 0.00 0.00 0.00 0.00 0.00 0.01 0.01 0.02 0.03 0.02 0.01 0.01 0.02 0.02 0.03 0.03 0.05 0.05 0.07 0.08 0.08 0.10 0.10 0.16 0.23 0.33 0.40
0.00 0.00 0.00 0.00 0.00 0.00 0.00 0.00 0.00 0.00 0.00 0.00 0.00 0.00 0.00 0.00 0.00 0.00 0.00 0.00 0.00 0.00 0.01 0.01 0.01 0.01 0.01 0.01 0.01 0.01 0.01 0.02 0.04 0.06 0.07 0.09 0.12 0.17 0.23 0.29 0.32 0.35 0.33
0.00 0.00 0.00 0.00 0.00 0.00 0.00 0.00 0.00 0.00 0.00 0.00 0.00 0.00 0.00 0.00 0.00 0.00 0.00 0.01 0.01 0.01 0.02 0.02 0.02 0.01 0.01 0.01 0.01 0.03 0.04 0.07 0.08 0.13 0.17 0.21 0.29 0.34 0.37 0.38 0.35 0.30 0.25
0.00 0.00 0.00 0.00 0.00 0.00 0.00 0.00 0.00 0.00 0.00 0.00 0.00 0.00 0.00 0.00 0.02 0.02 0.02 0.02 0.03 0.03 0.03 0.02 0.02 0.01 0.01 0.03 0.04 0.05 0.11 0.19 0.24 0.29 0.34 0.44 0.52 0.49 0.44 0.40 0.34 0.23 0.16
0.00 0.00 0.00 0.00 0.00 0.00 0.00 0.00 0.00 0.00 0.00 0.00 0.00 0.00 0.00 0.01 0.02 0.02 0.04 0.05 0.05 0.05 0.06 0.08 0.06 0.04 0.05 0.16 0.10 0.09 0.14 0.22 0.30 0.39 0.42 0.48 0.50 0.36 0.30 0.24 0.15 0.07 0.03
0.00 0.00 0.00 0.00 0.00 0.00 0.00 0.00 0.00 0.00 0.00 0.00 0.00 0.00 0.01 0.01 0.01 0.02 0.02 0.03 0.10 0.19 0.14 0.13 0.16 0.27 0.32 0.39 0.31 0.28 0.25 0.28 0.30 0.29 0.26 0.20 0.17 0.16 0.10 0.08 0.05 0.03 0.02
0.00 0.00 0.00 0.00 0.00 0.00 0.00 0.00 0.00 0.00 0.01 0.01 0.00 0.00 0.05 0.21 0.17 0.18 0.26 0.31 0.15 0.16 0.27 0.27 0.43 0.49 0.70 0.69 0.56 0.56 0.54 0.47 0.40 0.30 0.20 0.15 0.09 0.04 0.01 0.00 0.00 0.00 0.00
0.00 0.00 0.00 0.00 0.00 0.00 0.00 0.00 0.00 0.00 0.00 0.04 0.06 0.10 0.12 0.21 0.15 0.32 0.35 0.63 0.48 0.34 0.34 0.33 0.39 0.35 0.30 0.24 0.20 0.15 0.14 0.12 0.09 0.05 0.01 0.00 0.00 0.00 0.00 0.00 0.00 0.00 0.00
0.00 0.00 0.00 0.00 0.00 0.00 0.00 0.00 0.00 0.00 0.00 0.01 0.02 0.04 0.02 0.02 0.04 0.12 0.11 0.26 0.23 0.30 0.47 0.46 0.31 0.27 0.20 0.13 0.09 0.08 0.06 0.03 0.01 0.00 0.00 0.00 0.00 0.00 0.00 0.00 0.00 0.00 0.00
0.00 0.00 0.00 0.00 0.00 0.00 0.00 0.00 0.00 0.00 0.01 0.00 0.03 0.05 0.03 0.14 0.17 0.31 0.26 0.28 0.32 0.27 0.19 0.13 0.09 0.05 0.03 0.01 0.00 0.00 0.00 0.00 0.00 0.00 0.00 0.00 0.00 0.00 0.00 0.00 0.00 0.00 0.00
0.00 0.00 0.00 0.00 0.00 0.00 0.00 0.00 0.00 0.01 0.03 0.02 0.10 0.15 0.16 0.15 0.12 0.11 0.11 0.09 0.04 0.02 0.02 0.01 0.00 0.00 0.00 0.00 0.00 0.00 0.00 0.00 0.00 0.00 0.00 0.00 0.00 0.00 0.00 0.00 0.00 0.00 0.00
0.00 0.00 0.00 0.00 0.00 0.00 0.00 0.00 0.00 0.00 0.02 0.04 0.05 0.03 0.02 0.02 0.01 0.00 0.00 0.00 0.00 0.00 0.00 0.00 0.00 0.00 0.00 0.00 0.00 0.00 0.00 0.00 0.00 0.00 0.00 0.00 0.00 0.00 0.00 0.00 0.00 0.00 0.00
0.00 0.00 0.00 0.00 0.00 0.00 0.00 0.00 0.00 0.00 0.00 0.00 0.00 0.00 0.00 0.00 0.00 0.00 0.00 0.00 0.00 0.00 0.00 0.00 0.00 0.00 0.00 0.00 0.00 0.00 0.00 0.00 0.00 0.00 0.00 0.00 0.00 0.00 0.00 0.00 0.00 0.00 0.00
0.00 0.00 0.00 0.00 0.00 0.00 0.00 0.00 0.00 0.00 0.00 0.00 0.00 0.00 0.00 0.00 0.00 0.00 0.00 0.00 0.00 0.00 0.00 0.00 0.00 0.00 0.00 0.00 0.00 0.00 0.00 0.00 0.00 0.00 0.00 0.00 0.00 0.00 0.00 0.00 0.00 0.00 0.00
0.00 0.00 0.00 0.00 0.00 0.00 0.00 0.00 0.00 0.00 0.00 0.00 0.00 0.00 0.00 0.00 0.00 0.00 0.00 0.00 0.00 0.00 0.00 0.00 0.00 0.00 0.00 0.00 0.00 0.00 0.00 0.00 0.00 0.00 0.00 0.00 0.00 0.00 0.00 0.00 0.00 0.00 0.00

GFSMW_prec_precacc24_072.txt.gz
Total_Precipitation_Accumulation
0.00 0.00 0.00 0.00 0.00 0.00 0.00 0.00 0.00 0.00 0.00 0.01 0.02 0.04 0.02 0.11 0.08 0.04 0.17 0.20 0.22 0.23 0.17 0.07 0.07 0.08 0.03 0.04 0.02 0.02 0.01 0.01 0.01 0.00 0.00 0.00 0.00 0.00 0.00 0.00 0.00 0.00 0.01
0.00 0.00 0.00 0.00 0.00 0.00 0.00 0.00 0.00 0.00 0.00 0.00 0.00 0.01 0.01 0.01 0.02 0.07 0.06 0.14 0.22 0.25 0.23 0.21 0.19 0.14 0.07 0.04 0.02 0.03 0.11 0.06 0.13 0.12 0.03 0.01 0.00 0.00 0.00 0.00 0.00 0.00 0.01
0.00 0.00 0.00 0.00 0.00 0.00 0.00 0.00 0.00 0.00 0.00 0.00 0.00 0.00 0.00 0.00 0.01 0.01 0.00 0.01 0.06 0.13 0.17 0.15 0.16 0.19 0.11 0.07 0.08 0.09 0.19 0.20 0.22 0.15 0.17 0.05 0.00 0.00 0.00 0.00 0.00 0.00 0.01
0.00 0.00 0.00 0.00 0.00 0.00 0.00 0.00 0.00 0.00 0.00 0.00 0.00 0.00 0.00 0.00 0.00 0.00 0.00 0.00 0.02 0.06 0.21 0.21 0.21 0.24 0.19 0.10 0.12 0.13 0.21 0.24 0.21 0.20 0.15 0.12 0.06 0.04 0.02 0.01 0.03 0.03 0.02
0.00 0.00 0.00 0.00 0.00 0.00 0.00 0.00 0.00 0.00 0.00 0.00 0.00 0.00 0.00 0.00 0.00 0.00 0.00 0.00 0.01 0.02 0.09 0.13 0.16 0.12 0.15 0.18 0.17 0.18 0.20 0.27 0.29 0.22 0.26 0.23 0.18 0.11 0.08 0.05 0.05 0.06 0.06
0.00 0.00 0.00 0.00 0.00 0.00 0.00 0.00 0.00 0.00 0.00 0.00 0.00 0.00 0.00 0.00 0.00 0.01 0.01 0.01 0.01 0.01 0.07 0.09 0.08 0.10 0.09 0.10 0.18 0.27 0.32 0.32 0.34 0.32 0.30 0.32 0.31 0.24 0.20 0.15 0.10 0.10 0.07
0.00 0.00 0.00 0.00 0.00 0.00 0.00 0.00 0.00 0.00 0.00 0.00 0.00 0.00 0.00 0.00 0.00 0.00 0.01 0.01 0.01 0.00 0.03 0.11 0.12 0.09 0.12 0.18 0.18 0.18 0.18 0.31 0.37 0.38 0.29 0.27 0.28 0.30 0.31 0.33 0.30 0.25 0.15
0.00 0.00 0.00 0.00 0.00 0.00 0.00 0.00 0.00 0.00 0.00 0.00 0.00 0.00 0.00 0.00 0.00 0.00 0.00 0.00 0.00 0.00 0.01 0.04 0.08 0.13 0.14 0.14 0.16 0.16 0.18 0.20 0.26 0.32 0.38 0.31 0.28 0.30 0.31 0.36 0.44 0.36 0.26
0.00 0.00 0.00 0.00 0.00 0.00 0.00 0.00 0.00 0.00 0.00 0.00 0.00 0.00 0.00 0.00 0.00 0.00 0.00 0.00 0.00 0.00 0.00 0.00 0.01 0.04 0.11 0.17 0.22 0.21 0.19 0.20 0.20 0.22 0.30 0.32 0.23 0.21 0.26 0.31 0.46 0.73 0.82
0.00 0.00 0.00 0.00 0.00 0.00 0.00 0.00 0.00 0.00 0.00 0.00 0.00 0.00 0.00 0.00 0.00 0.00 0.00 0.00 0.00 0.00 0.00 0.00 0.00 0.01 0.04 0.10 0.18 0.21 0.26 0.30 0.32 0.34 0.38 0.39 0.38 0.40 0.44 0.51 0.63 0.87 1.09
0.00 0.00 0.00 0.00 0.00 0.00 0.00 0.00 0.00 0.00 0.00 0.00 0.00 0.00 0.00 0.00 0.00 0.00 0.00 0.00 0.00 0.00 0.00 0.00 0.00 0.00 0.00 0.02 0.03 0.04 0.06 0.08 0.09 0.11 0.14 0.16 0.21 0.27 0.30 0.31 0.35 0.46 0.60
0.00 0.00 0.00 0.00 0.00 0.00 0.00 0.00 0.00 0.00 0.00 0.00 0.00 0.00 0.00 0.00 0.00 0.00 0.00 0.00 0.00 0.00 0.00 0.00 0.00 0.00 0.00 0.01 0.02 0.02 0.03 0.03 0.05 0.05 0.06 0.07 0.06 0.08 0.08 0.14 0.21 0.31 0.40
0.00 0.00 0.00 0.00 0.00 0.00 0.00 0.00 0.00 0.00 0.00 0.00 0.00 0.00 0.00 0.00 0.00 0.00 0.00 0.00 0.00 0.00 0.00 0.00 0.00 0.00 0.00 0.01 0.01 0.01 0.01 0.02 0.04 0.05 0.06 0.08 0.09 0.12 0.15 0.22 0.29 0.33 0.31
0.00 0.00 0.00 0.00 0.00 0.00 0.00 0.00 0.00 0.00 0.00 0.00 0.00 0.00 0.00 0.00 0.00 0.00 0.00 0.00 0.01 0.01 0.01 0.01 0.01 0.01 0.01 0.01 0.01 0.01 0.03 0.06 0.06 0.09 0.11 0.13 0.18 0.24 0.30 0.35 0.33 0.29 0.24
0.00 0.00 0.00 0.00 0.00 0.00 0.00 0.00 0.00 0.00 0.00 0.00 0.00 0.00 0.00 0.00 0.02 0.01 0.01 0.01 0.01 0.02 0.02 0.01 0.01 0.01 0.01 0.02 0.01 0.02 0.06 0.13 0.18 0.21 0.25 0.37 0.49 0.48 0.44 0.39 0.33 0.23 0.16
0.00 0.00 0.00 0.00 0.00 0.00 0.00 0.00 0.00 0.00 0.00 0.00 0.00 0.00 0.00 0.01 0.01 0.01 0.01 0.01 0.01 0.02 0.03 0.04 0.03 0.03 0.04 0.11 0.05 0.04 0.06 0.09 0.14 0.23 0.30 0.41 0.47 0.35 0.30 0.24 0.15 0.07 0.03
0.00 0.00 0.00 0.00 0.00 0.00 0.00 0.00 0.00 0.00 0.00 0.00 0.00 0.00 0.00 0.00 0.00 0.01 0.01 0.02 0.06 0.18 0.12 0.11 0.12 0.22 0.28 0.30 0.21 0.15 0.11 0.16 0.22 0.24 0.23 0.19 0.16 0.16 0.10 0.08 0.05 0.03 0.02
0.00 0.00 0.00 0.00 0.00 0.00 0.00 0.00 0.00 0.00 0.00 0.00 0.00 0.00 0.00 0.01 0.04 0.08 0.12 0.15 0.11 0.13 0.23 0.21 0.38 0.40 0.53 0.54 0.48 0.53 0.52 0.45 0.38 0.29 0.20 0.15 0.09 0.04 0.01 0.00 0.00 0.00 0.00
0.00 0.00 0.00 0.00 0.00 0.00 0.00 0.00 0.00 0.00 0.00 0.00 0.00 0.01 0.01 0.01 0.05 0.12 0.16 0.29 0.32 0.25 0.23 0.22 0.25 0.26 0.24 0.19 0.16 0.10 0.09 0.08 0.08 0.04 0.01 0.00 0.00 0.00 0.00 0.00 0.00 0.00 0.00
0.00 0.00 0.00 0.00 0.00 0.00 0.00 0.00 0.00 0.00 0.00 0.00 0.00 0.01 0.01 0.01 0.03 0.07 0.07 0.19 0.20 0.23 0.31 0.32 0.23 0.20 0.16 0.12 0.08 0.07 0.06 0.03 0.01 0.00 0.00 0.00 0.00 0.00 0.00 0.00 0.00 0.00 0.00
0.00 0.00 0.00 0.00 0.00 0.00 0.00 0.00 0.00 0.00 0.00 0.00 0.02 0.02 0.01 0.08 0.06 0.10 0.11 0.15 0.20 0.20 0.14 0.09 0.07 0.04 0.02 0.01 0.00 0.00 0.00 0.00 0.00 0.00 0.00 0.00 0.00 0.00 0.00 0.00 0.00 0.00 0.00
0.00 0.00 0.00 0.00 0.00 0.00 0.00 0.00 0.00 0.00 0.00 0.00 0.02 0.03 0.03 0.04 0.03 0.03 0.05 0.04 0.02 0.01 0.01 0.00 0.00 0.00 0.00 0.00 0.00 0.00 0.00 0.00 0.00 0.00 0.00 0.00 0.00 0.00 0.00 0.00 0.00 0.00 0.00
0.00 0.00 0.00 0.00 0.00 0.00 0.00 0.00 0.00 0.00 0.00 0.00 0.00 0.00 0.00 0.00 0.00 0.00 0.00 0.00 0.00 0.00 0.00 0.00 0.00 0.00 0.00 0.00 0.00 0.00 0.00 0.00 0.00 0.00 0.00 0.00 0.00 0.00 0.00 0.00 0.00 0.00 0.00
0.00 0.00 0.00 0.00 0.00 0.00 0.00 0.00 0.00 0.00 0.00 0.00 0.00 0.00 0.00 0.00 0.00 0.00 0.00 0.00 0.00 0.00 0.00 0.00 0.00 0.00 0.00 0.00 0.00 0.00 0.00 0.00 0.00 0.00 0.00 0.00 0.00 0.00 0.00 0.00 0.00 0.00 0.00
0.03 0.03 0.02 0.00 0.00 0.00 0.00 0.00 0.00 0.00 0.00 0.00 0.00 0.00 0.00 0.00 0.00 0.00 0.00 0.00 0.00 0.00 0.00 0.00 0.00 0.00 0.00 0.00 0.00 0.00 0.00 0.00 0.00 0.00 0.00 0.00 0.00 0.00 0.00 0.00 0.00 0.00 0.00
0.00 0.00 0.00 0.00 0.00 0.00 0.00 0.00 0.00 0.00 0.00 0.00 0.00 0.00 0.00 0.00 0.00 0.00 0.00 0.00 0.00 0.00 0.00 0.00 0.00 0.00 0.00 0.00 0.00 0.00 0.00 0.00 0.00 0.00 0.00 0.00 0.00 0.00 0.00 0.00 0.00 0.00 0.00

GFSMW_prec_precacc24_075.txt.gz
Total_Precipitation_Accumulation
0.00 0.00 0.00 0.00 0.00 0.00 0.00 0.00 0.00 0.00 0.00 0.01 0.01 0.03 0.01 0.09 0.07 0.04 0.13 0.20 0.20 0.18 0.15 0.07 0.07 0.08 0.03 0.04 0.02 0.02 0.02 0.01 0.01 0.00 0.00 0.00 0.00 0.00 0.00 0.00 0.00 0.00 0.01
0.00 0.00 0.00 0.00 0.00 0.00 0.00 0.00 0.00 0.00 0.00 0.00 0.00 0.01 0.01 0.00 0.01 0.03 0.04 0.14 0.19 0.20 0.19 0.20 0.16 0.13 0.07 0.04 0.02 0.03 0.11 0.06 0.13 0.12 0.03 0.01 0.00 0.00 0.00 0.00 0.00 0.00 0.01
0.00 0.00 0.00 0.00 0.00 0.00 0.00 0.00 0.00 0.00 0.00 0.00 0.00 0.00 0.00 0.00 0.00 0.00 0.00 0.01 0.06 0.09 0.10 0.12 0.11 0.16 0.11 0.07 0.08 0.09 0.18 0.19 0.21 0.15 0.17 0.06 0.01 0.00 0.00 0.00 0.00 0.00 0.01
0.00 0.00 0.00 0.00 0.00 0.00 0.00 0.00 0.00 0.00 0.00 0.00 0.00 0.00 0.00 0.00 0.00 0.00 0.00 0.00 0.01 0.04 0.14 0.16 0.17 0.18 0.15 0.09 0.09 0.12 0.21 0.23 0.19 0.18 0.14 0.12 0.06 0.04 0.02 0.01 0.03 0.03 0.02
0.00 0.00 0.00 0.00 0.00 0.00 0.00 0.00 0.00 0.00 0.00 0.00 0.00 0.00 0.00 0.00 0.00 0.00 0.00 0.00 0.00 0.01 0.04 0.08 0.12 0.10 0.11 0.17 0.15 0.16 0.18 0.26 0.28 0.20 0.25 0.22 0.17 0.11 0.08 0.06 0.05 0.06 0.06
0.00 0.00 0.00 0.00 0.00 0.00 0.00 0.00 0.00 0.00 0.00 0.00 0.00 0.00 0.00 0.00 0.00 0.00 0.00 0.00 0.00 0.00 0.04 0.03 0.05 0.06 0.07 0.08 0.16 0.23 0.28 0.30 0.33 0.31 0.30 0.31 0.31 0.24 0.20 0.15 0.10 0.10 0.07
0.00 0.00 0.00 0.00 0.00 0.00 0.00 0.00 0.00 0.00 0.00 0.00 0.00 0.00 0.00 0.00 0.00 0.00 0.00 0.00 0.00 0.00 0.02 0.05 0.06 0.05 0.07 0.12 0.13 0.14 0.14 0.27 0.34 0.37 0.29 0.27 0.28 0.30 0.31 0.33 0.30 0.25 0.15
0.00 0.00 0.00 0.00 0.00 0.00 0.00 0.00 0.00 0.00 0.00 0.00 0.00 0.00 0.00 0.00 0.00 0.00 0.00 0.00 0.00 0.00 0.01 0.03 0.04 0.05 0.04 0.05 0.08 0.11 0.14 0.17 0.25 0.32 0.38 0.32 0.28 0.30 0.31 0.37 0.44 0.37 0.26
0.00 0.00 0.00 0.00 0.00 0.00 0.00 0.00 0.00 0.00 0.00 0.00 0.00 0.00 0.00 0.00 0.00 0.00 0.00 0.00 0.00 0.00 0.00 0.00 0.01 0.00 0.02 0.04 0.08 0.12 0.14 0.17 0.18 0.22 0.30 0.32 0.24 0.21 0.26 0.30 0.46 0.73 0.82
0.00 0.00 0.00 0.00 0.00 0.00 0.00 0.00 0.00 0.00 0.00 0.00 0.00 0.00 0.00 0.00 0.00 0.00 0.00 0.00 0.00 0.00 0.00 0.00 0.00 0.00 0.01 0.02 0.05 0.08 0.13 0.21 0.30 0.34 0.38 0.39 0.38 0.40 0.44 0.50 0.63 0.87 1.09
0.00 0.00 0.00 0.00 0.00 0.00 0.00 0.00 0.00 0.00 0.00 0.00 0.00 0.00 0.00 0.00 0.00 0.00 0.00 0.00 0.00 0.00 0.00 0.00 0.00 0.00 0.00 0.01 0.01 0.02 0.04 0.07 0.08 0.11 0.14 0.16 0.20 0.26 0.30 0.31 0.34 0.42 0.55
0.00 0.00 0.00 0.00 0.00 0.00 0.00 0.00 0.00 0.00 0.00 0.00 0.00 0.00 0.00 0.00 0.00 0.00 0.00 0.00 0.00 0.00 0.00 0.00 0.00 0.00 0.00 0.00 0.01 0.01 0.02 0.03 0.05 0.05 0.06 0.07 0.06 0.07 0.07 0.12 0.17 0.25 0.33
0.00 0.00 0.00 0.00 0.00 0.00 0.00 0.00 0.00 0.00 0.00 0.00 0.00 0.00 0.00 0.00 0.00 0.00 0.00 0.00 0.00 0.00 0.00 0.00 0.00 0.00 0.00 0.00 0.00 0.01 0.01 0.02 0.03 0.04 0.04 0.05 0.06 0.08 0.09 0.15 0.20 0.25 0.27
0.00 0.00 0.00 0.00 0.00 0.00 0.00 0.00 0.00 0.00 0.00 0.00 0.00 0.00 0.00 0.00 0.00 0.00 0.00 0.00 0.01 0.01 0.01 0.01 0.01 0.01 0.01 0.01 0.00 0.01 0.01 0.04 0.04 0.05 0.06 0.07 0.08 0.11 0.19 0.28 0.29 0.26 0.23
0.00 0.00 0.00 0.00 0.00 0.00 0.00 0.00 0.00 0.00 0.00 0.00 0.00 0.00 0.00 0.00 0.00 0.00 0.00 0.01 0.01 0.01 0.01 0.01 0.01 0.01 0.00 0.01 0.01 0.01 0.03 0.07 0.11 0.13 0.15 0.24 0.35 0.36 0.35 0.33 0.30 0.22 0.16
0.00 0.00 0.00 0.00 0.00 0.00 0.00 0.00 0.00 0.00 0.00 0.00 0.00 0.00 0.00 0.00 0.00 0.00 0.00 0.00 0.00 0.00 0.01 0.01 0.01 0.02 0.03 0.08 0.03 0.01 0.02 0.03 0.05 0.12 0.21 0.32 0.38 0.30 0.26 0.22 0.14 0.07 0.03
0.00 0.00 0.00 0.00 0.00 0.00 0.00 0.00 0.00 0.00 0.00 0.00 0.00 0.00 0.00 0.00 0.00 0.00 0.00 0.01 0.02 0.03 0.05 0.04 0.05 0.09 0.12 0.15 0.13 0.10 0.08 0.12 0.16 0.19 0.18 0.16 0.14 0.15 0.10 0.08 0.05 0.03 0.02
0.00 0.00 0.00 0.00 0.00 0.00 0.00 0.00 0.00 0.00 0.00 0.00 0.00 0.00 0.00 0.00 0.00 0.04 0.09 0.13 0.08 0.05 0.09 0.16 0.27 0.31 0.43 0.43 0.38 0.46 0.47 0.42 0.35 0.26 0.17 0.13 0.08 0.03 0.01 0.00 0.00 0.00 0.00
0.00 0.00 0.00 0.00 0.00 0.00 0.00 0.00 0.00 0.00 0.00 0.00 0.00 0.00 0.00 0.00 0.00 0.02 0.05 0.07 0.09 0.09 0.09 0.08 0.09 0.15 0.15 0.12 0.11 0.06 0.04 0.05 0.04 0.02 0.01 0.00 0.00 0.00 0.00 0.00 0.00 0.00 0.00
0.00 0.00 0.00 0.00 0.00 0.00 0.00 0.00 0.00 0.00 0.00 0.00 0.00 0.01 0.00 0.00 0.01 0.02 0.01 0.07 0.08 0.09 0.15 0.17 0.12 0.12 0.08 0.04 0.02 0.01 0.02 0.01 0.00 0.00 0.00 0.00 0.00 0.00 0.00 0.00 0.00 0.00 0.00
0.00 0.00 0.00 0.00 0.00 0.00 0.00 0.00 0.00 0.00 0.00 0.00 0.00 0.00 0.00 0.01 0.01 0.01 0.02 0.04 0.05 0.05 0.04 0.02 0.01 0.00 0.00 0.00 0.00 0.00 0.00 0.00 0.00 0.00 0.00 0.00 0.00 0.00 0.00 0.00 0.00 0.00 0.00
0.00 0.00 0.00 0.00 0.00 0.00 0.00 0.00 0.00 0.00 0.00 0.00 0.00 0.00 0.00 0.00 0.01 0.01 0.01 0.00 0.00 0.00 0.00 0.00 0.00 0.00 0.00 0.00 0.00 0.00 0.00 0.00 0.00 0.00 0.00 0.00 0.00 0.00 0.00 0.00 0.00 0.00 0.00
0.00 0.00 0.00 0.00 0.00 0.00 0.00 0.00 0.00 0.00 0.00 0.00 0.00 0.00 0.00 0.00 0.00 0.00 0.00 0.00 0.00 0.00 0.00 0.00 0.00 0.00 0.00 0.00 0.00 0.00 0.00 0.00 0.00 0.00 0.00 0.00 0.00 0.00 0.00 0.00 0.00 0.00 0.00
0.00 0.00 0.00 0.00 0.00 0.00 0.00 0.00 0.00 0.00 0.00 0.00 0.00 0.00 0.00 0.00 0.00 0.00 0.00 0.00 0.00 0.00 0.00 0.00 0.00 0.00 0.00 0.00 0.00 0.00 0.00 0.00 0.00 0.00 0.00 0.00 0.00 0.00 0.00 0.00 0.00 0.00 0.00
0.04 0.03 0.04 0.03 0.01 0.00 0.00 0.00 0.00 0.00 0.00 0.00 0.00 0.00 0.00 0.00 0.00 0.00 0.00 0.00 0.00 0.00 0.00 0.00 0.00 0.00 0.00 0.00 0.00 0.00 0.00 0.00 0.00 0.00 0.00 0.00 0.00 0.00 0.00 0.00 0.00 0.00 0.00
0.00 0.00 0.01 0.01 0.03 0.03 0.01 0.00 0.00 0.00 0.00 0.00 0.00 0.00 0.00 0.00 0.00 0.00 0.00 0.00 0.00 0.00 0.00 0.00 0.00 0.00 0.00 0.00 0.00 0.00 0.00 0.00 0.00 0.00 0.00 0.00 0.00 0.00 0.00 0.00 0.00 0.00 0.00

GFSMW_prec_precacc24_078.txt.gz
Total_Precipitation_Accumulation
0.00 0.00 0.00 0.00 0.02 0.00 0.01 0.01 0.00 0.00 0.00 0.00 0.01 0.03 0.01 0.09 0.07 0.04 0.10 0.17 0.16 0.16 0.12 0.05 0.06 0.08 0.03 0.04 0.02 0.02 0.02 0.01 0.01 0.00 0.00 0.00 0.00 0.00 0.00 0.00 0.00 0.00 0.01
0.00 0.00 0.00 0.00 0.00 0.00 0.00 0.00 0.00 0.00 0.00 0.00 0.00 0.01 0.01 0.00 0.01 0.02 0.03 0.13 0.18 0.19 0.18 0.18 0.15 0.11 0.07 0.04 0.02 0.03 0.11 0.06 0.13 0.12 0.04 0.01 0.00 0.00 0.00 0.00 0.00 0.00 0.01
0.00 0.00 0.00 0.00 0.00 0.00 0.00 0.00 0.00 0.00 0.00 0.00 0.00 0.00 0.00 0.00 0.00 0.00 0.00 0.01 0.06 0.09 0.09 0.08 0.08 0.09 0.09 0.07 0.08 0.09 0.18 0.19 0.21 0.15 0.17 0.06 0.01 0.00 0.00 0.00 0.00 0.00 0.01
0.00 0.00 0.00 0.00 0.00 0.00 0.00 0.00 0.00 0.00 0.00 0.00 0.00 0.00 0.00 0.00 0.00 0.00 0.00 0.00 0.00 0.03 0.10 0.11 0.13 0.13 0.10 0.07 0.08 0.12 0.21 0.24 0.19 0.18 0.14 0.12 0.05 0.04 0.02 0.01 0.03 0.03 0.02
0.00 0.00 0.00 0.00 0.00 0.00 0.00 0.00 0.00 0.00 0.00 0.00 0.00 0.00 0.00 0.00 0.00 0.00 0.00 0.00 0.00 0.01 0.01 0.04 0.06 0.06 0.09 0.12 0.12 0.15 0.17 0.26 0.29 0.21 0.25 0.22 0.17 0.11 0.08 0.06 0.05 0.06 0.06
0.00 0.00 0.00 0.00 0.00 0.00 0.00 0.00 0.00 0.00 0.00 0.00 0.00 0.00 0.00 0.00 0.00 0.00 0.00 0.00 0.00 0.00 0.02 0.01 0.02 0.02 0.03 0.05 0.12 0.18 0.22 0.26 0.31 0.30 0.30 0.31 0.31 0.24 0.20 0.15 0.10 0.11 0.08
0.00 0.00 0.00 0.00 0.00 0.00 0.00 0.00 0.00 0.00 0.00 0.00 0.00 0.00 0.00 0.00 0.00 0.00 0.00 0.00 0.00 0.00 0.01 0.04 0.04 0.04 0.04 0.06 0.06 0.07 0.09 0.22 0.31 0.35 0.28 0.26 0.28 0.30 0.31 0.33 0.31 0.25 0.15
0.00 0.00 0.00 0.00 0.00 0.00 0.00 0.00 0.00 0.00 0.00 0.00 0.00 0.00 0.00 0.00 0.00 0.00 0.00 0.00 0.00 0.00 0.01 0.03 0.03 0.04 0.03 0.03 0.04 0.05 0.06 0.11 0.20 0.28 0.34 0.31 0.27 0.30 0.31 0.36 0.44 0.37 0.26
0.00 0.00 0.00 0.00 0.00 0.00 0.00 0.00 0.00 0.00 0.00 0.00 0.00 0.00 0.00 0.00 0.00 0.00 0.00 0.00 0.00 0.00 0.00 0.00 0.01 0.00 0.01 0.02 0.05 0.07 0.07 0.09 0.12 0.17 0.28 0.31 0.22 0.21 0.25 0.30 0.46 0.72 0.80
0.00 0.00 0.00 0.00 0.00 0.00 0.00 0.00 0.00 0.00 0.00 0.00 0.00 0.00 0.00 0.00 0.00 0.00 0.00 0.00 0.00 0.00 0.00 0.00 0.00 0.00 0.01 0.02 0.04 0.06 0.07 0.10 0.11 0.14 0.19 0.21 0.27 0.36 0.44 0.50 0.62 0.86 1.08
0.00 0.00 0.00 0.00 0.00 0.00 0.00 0.00 0.00 0.00 0.00 0.00 0.00 0.00 0.00 0.00 0.00 0.00 0.00 0.00 0.00 0.00 0.00 0.00 0.00 0.00 0.00 0.01 0.01 0.02 0.03 0.05 0.06 0.07 0.08 0.08 0.13 0.21 0.27 0.30 0.33 0.41 0.53
0.00 0.00 0.00 0.00 0.00 0.00 0.00 0.00 0.00 0.00 0.00 0.00 0.00 0.00 0.00 0.00 0.00 0.00 0.00 0.00 0.00 0.00 0.00 0.00 0.00 0.00 0.00 0.00 0.01 0.01 0.02 0.02 0.04 0.04 0.05 0.06 0.04 0.06 0.06 0.11 0.15 0.20 0.25
0.00 0.00 0.00 0.00 0.00 0.00 0.00 0.00 0.00 0.00 0.00 0.00 0.00 0.00 0.00 0.00 0.00 0.00 0.00 0.00 0.00 0.00 0.00 0.00 0.00 0.00 0.00 0.00 0.00 0.01 0.01 0.01 0.02 0.03 0.03 0.05 0.05 0.06 0.05 0.06 0.08 0.10 0.11
0.00 0.00 0.00 0.00 0.00 0.00 0.00 0.00 0.00 0.00 0.00 0.00 0.00 0.00 0.00 0.00 0.00 0.00 0.00 0.00 0.00 0.00 0.00 0.00 0.01 0.01 0.01 0.01 0.00 0.01 0.01 0.03 0.02 0.03 0.04 0.03 0.03 0.05 0.08 0.13 0.15 0.16 0.16
0.00 0.00 0.00 0.00 0.00 0.00 0.00 0.00 0.00 0.00 0.00 0.00 0.00 0.00 0.00 0.00 0.00 0.00 0.00 0.00 0.00 0.00 0.00 0.00 0.00 0.01 0.00 0.01 0.00 0.00 0.02 0.03 0.05 0.06 0.07 0.13 0.20 0.22 0.24 0.27 0.25 0.19 0.14
0.00 0.00 0.00 0.00 0.00 0.00 0.00 0.00 0.00 0.00 0.00 0.00 0.00 0.00 0.00 0.00 0.00 0.00 0.00 0.00 0.00 0.00 0.00 0.00 0.00 0.01 0.01 0.05 0.02 0.01 0.01 0.02 0.03 0.08 0.09 0.17 0.25 0.22 0.21 0.20 0.13 0.06 0.03
0.00 0.00 0.00 0.00 0.00 0.00 0.00 0.00 0.00 0.00 0.00 0.00 0.00 0.00 0.00 0.00 0.00 0.00 0.00 0.00 0.00 0.01 0.04 0.02 0.03 0.05 0.07 0.08 0.06 0.04 0.02 0.04 0.07 0.12 0.14 0.13 0.13 0.14 0.09 0.07 0.05 0.03 0.02
0.00 0.00 0.00 0.00 0.00 0.00 0.00 0.00 0.00 0.00 0.00 0.00 0.00 0.00 0.00 0.00 0.00 0.00 0.00 0.02 0.03 0.04 0.03 0.06 0.17 0.12 0.11 0.17 0.24 0.27 0.25 0.24 0.25 0.20 0.15 0.12 0.08 0.03 0.01 0.00 0.00 0.00 0.00
0.00 0.00 0.00 0.00 0.00 0.00 0.00 0.00 0.00 0.00 0.00 0.00 0.00 0.00 0.00 0.00 0.00 0.00 0.00 0.00 0.01 0.02 0.02 0.03 0.02 0.02 0.04 0.05 0.07 0.04 0.02 0.02 0.02 0.01 0.00 0.00 0.00 0.00 0.00 0.00 0.00 0.00 0.00
0.00 0.00 0.00 0.00 0.00 0.00 0.00 0.00 0.00 0.00 0.00 0.00 0.00 0.01 0.00 0.00 0.00 0.00 0.00 0.00 0.00 0.01 0.03 0.04 0.04 0.03 0.03 0.02 0.00 0.00 0.00 0.00 0.00 0.00 0.00 0.00 0.00 0.00 0.00 0.00 0.00 0.00 0.00
0.00 0.00 0.00 0.00 0.00 0.00 0.00 0.00 0.00 0.00 0.00 0.00 0.00 0.00 0.00 0.00 0.00 0.00 0.00 0.00 0.00 0.00 0.00 0.00 0.00 0.00 0.00 0.00 0.00 0.00 0.00 0.00 0.00 0.00 0.00 0.00 0.00 0.00 0.00 0.00 0.00 0.00 0.00
0.00 0.00 0.00 0.00 0.00 0.00 0.00 0.00 0.00 0.00 0.00 0.00 0.00 0.00 0.00 0.00 0.00 0.00 0.00 0.00 0.00 0.00 0.00 0.00 0.00 0.00 0.00 0.00 0.00 0.00 0.00 0.00 0.00 0.00 0.00 0.00 0.00 0.00 0.00 0.00 0.00 0.00 0.00
0.00 0.00 0.00 0.00 0.00 0.00 0.00 0.00 0.00 0.00 0.00 0.00 0.00 0.00 0.00 0.00 0.00 0.00 0.00 0.00 0.00 0.00 0.00 0.00 0.00 0.00 0.00 0.00 0.00 0.00 0.00 0.00 0.00 0.00 0.00 0.00 0.00 0.00 0.00 0.00 0.00 0.00 0.00
0.00 0.00 0.00 0.00 0.00 0.00 0.00 0.00 0.00 0.00 0.00 0.00 0.00 0.00 0.00 0.00 0.00 0.00 0.00 0.00 0.00 0.00 0.00 0.00 0.00 0.00 0.00 0.00 0.00 0.00 0.00 0.00 0.00 0.00 0.00 0.00 0.00 0.00 0.00 0.00 0.00 0.00 0.00
0.04 0.03 0.04 0.03 0.01 0.00 0.00 0.00 0.01 0.00 0.00 0.00 0.00 0.00 0.00 0.00 0.00 0.00 0.00 0.00 0.00 0.00 0.00 0.00 0.00 0.00 0.00 0.00 0.00 0.00 0.00 0.00 0.00 0.00 0.00 0.00 0.00 0.00 0.00 0.00 0.00 0.00 0.00
0.00 0.00 0.01 0.01 0.03 0.04 0.06 0.06 0.03 0.01 0.00 0.00 0.00 0.00 0.00 0.00 0.00 0.00 0.00 0.00 0.00 0.00 0.00 0.00 0.00 0.00 0.00 0.00 0.00 0.00 0.00 0.00 0.00 0.00 0.00 0.00 0.00 0.00 0.00 0.00 0.00 0.00 0.00

GFSMW_prec_precacc24_081.txt.gz
Total_Precipitation_Accumulation
0.00 0.00 0.00 0.00 0.02 0.01 0.03 0.01 0.00 0.00 0.00 0.01 0.01 0.02 0.01 0.08 0.06 0.04 0.10 0.17 0.16 0.16 0.12 0.05 0.06 0.08 0.03 0.04 0.03 0.03 0.02 0.01 0.02 0.01 0.00 0.00 0.00 0.00 0.00 0.00 0.00 0.00 0.01
0.00 0.00 0.00 0.00 0.00 0.00 0.01 0.00 0.00 0.00 0.00 0.00 0.00 0.01 0.01 0.00 0.01 0.01 0.03 0.13 0.18 0.19 0.18 0.18 0.15 0.11 0.07 0.04 0.02 0.04 0.11 0.06 0.13 0.12 0.05 0.01 0.00 0.00 0.00 0.00 0.00 0.00 0.01
0.00 0.00 0.00 0.00 0.00 0.00 0.00 0.00 0.00 0.00 0.00 0.00 0.00 0.00 0.00 0.00 0.00 0.00 0.00 0.01 0.06 0.09 0.09 0.08 0.08 0.09 0.09 0.07 0.08 0.10 0.19 0.20 0.21 0.16 0.18 0.07 0.01 0.00 0.00 0.00 0.00 0.00 0.01
0.00 0.00 0.00 0.00 0.00 0.00 0.00 0.00 0.00 0.00 0.00 0.00 0.00 0.00 0.00 0.00 0.00 0.00 0.00 0.00 0.00 0.01 0.05 0.08 0.11 0.12 0.09 0.06 0.08 0.12 0.19 0.24 0.19 0.19 0.15 0.13 0.06 0.05 0.02 0.01 0.03 0.03 0.02
0.00 0.00 0.00 0.00 0.00 0.00 0.00 0.00 0.00 0.00 0.00 0.00 0.00 0.00 0.00 0.00 0.00 0.00 0.00 0.00 0.00 0.01 0.01 0.02 0.03 0.03 0.05 0.09 0.09 0.13 0.15 0.23 0.27 0.20 0.24 0.22 0.18 0.11 0.09 0.06 0.06 0.07 0.06
0.00 0.00 0.00 0.00 0.00 0.00 0.00 0.00 0.00 0.00 0.00 0.00 0.00 0.00 0.00 0.00 0.00 0.00 0.00 0.00 0.00 0.00 0.02 0.01 0.02 0.02 0.02 0.04 0.08 0.12 0.16 0.22 0.28 0.29 0.30 0.31 0.31 0.24 0.19 0.15 0.11 0.11 0.08
0.00 0.00 0.00 0.00 0.00 0.00 0.00 0.00 0.00 0.00 0.00 0.00 0.00 0.00 0.00 0.00 0.00 0.00 0.00 0.00 0.00 0.00 0.01 0.04 0.04 0.03 0.02 0.03 0.03 0.04 0.07 0.17 0.26 0.32 0.27 0.25 0.27 0.30 0.31 0.32 0.30 0.25 0.15
0.00 0.00 0.00 0.00 0.00 0.00 0.00 0.00 0.00 0.00 0.00 0.00 0.00 0.00 0.00 0.00 0.00 0.00 0.00 0.00 0.00 0.00 0.00 0.02 0.03 0.03 0.02 0.02 0.02 0.03 0.04 0.08 0.15 0.23 0.30 0.26 0.22 0.27 0.30 0.33 0.38 0.30 0.23
0.00 0.00 0.00 0.00 0.00 0.00 0.00 0.00 0.00 0.00 0.00 0.00 0.00 0.00 0.00 0.00 0.00 0.00 0.00 0.00 0.00 0.00 0.00 0.00 0.01 0.00 0.01 0.01 0.03 0.03 0.04 0.06 0.08 0.14 0.23 0.27 0.19 0.16 0.21 0.24 0.36 0.54 0.61
0.00 0.00 0.00 0.00 0.00 0.00 0.00 0.00 0.00 0.00 0.00 0.00 0.00 0.00 0.00 0.00 0.00 0.00 0.00 0.00 0.00 0.00 0.00 0.00 0.00 0.00 0.00 0.01 0.01 0.03 0.03 0.06 0.06 0.09 0.14 0.16 0.15 0.16 0.18 0.22 0.31 0.57 0.83
0.00 0.00 0.00 0.00 0.00 0.00 0.00 0.00 0.00 0.00 0.00 0.00 0.00 0.00 0.00 0.00 0.00 0.00 0.00 0.00 0.00 0.00 0.00 0.00 0.00 0.00 0.00 0.00 0.00 0.00 0.01 0.02 0.03 0.04 0.06 0.06 0.06 0.09 0.11 0.14 0.20 0.32 0.45
0.00 0.00 0.00 0.00 0.00 0.00 0.00 0.00 0.00 0.00 0.00 0.00 0.00 0.00 0.00 0.00 0.00 0.00 0.00 0.00 0.00 0.00 0.00 0.00 0.00 0.00 0.00 0.00 0.00 0.00 0.00 0.01 0.02 0.02 0.03 0.04 0.03 0.04 0.04 0.07 0.10 0.17 0.22
0.00 0.00 0.00 0.00 0.00 0.00 0.00 0.00 0.00 0.00 0.00 0.00 0.00 0.00 0.00 0.00 0.00 0.00 0.00 0.00 0.00 0.00 0.00 0.00 0.00 0.00 0.00 0.00 0.00 0.00 0.00 0.01 0.01 0.01 0.02 0.03 0.03 0.04 0.03 0.04 0.03 0.04 0.03
0.00 0.00 0.00 0.00 0.00 0.00 0.00 0.00 0.00 0.00 0.00 0.00 0.00 0.00 0.00 0.00 0.00 0.00 0.00 0.00 0.00 0.00 0.00 0.00 0.00 0.00 0.00 0.00 0.00 0.00 0.00 0.01 0.01 0.02 0.02 0.02 0.02 0.02 0.02 0.02 0.04 0.05 0.06
0.00 0.00 0.00 0.00 0.00 0.00 0.00 0.00 0.00 0.00 0.00 0.00 0.00 0.00 0.00 0.00 0.00 0.00 0.00 0.00 0.00 0.00 0.00 0.00 0.00 0.00 0.00 0.00 0.00 0.00 0.00 0.01 0.04 0.05 0.05 0.10 0.12 0.08 0.08 0.12 0.12 0.08 0.09
0.00 0.00 0.00 0.00 0.00 0.00 0.00 0.00 0.00 0.00 0.00 0.00 0.00 0.00 0.00 0.00 0.00 0.00 0.00 0.00 0.00 0.00 0.00 0.00 0.00 0.00 0.01 0.03 0.02 0.00 0.00 0.01 0.02 0.06 0.07 0.11 0.16 0.15 0.16 0.16 0.10 0.05 0.02
0.00 0.00 0.00 0.00 0.00 0.00 0.00 0.00 0.00 0.00 0.00 0.00 0.00 0.00 0.00 0.00 0.00 0.00 0.00 0.00 0.00 0.00 0.00 0.00 0.00 0.00 0.01 0.04 0.03 0.02 0.01 0.02 0.04 0.06 0.06 0.08 0.11 0.12 0.09 0.07 0.05 0.03 0.02
0.00 0.00 0.00 0.00 0.00 0.00 0.00 0.00 0.00 0.00 0.00 0.00 0.00 0.00 0.00 0.00 0.00 0.00 0.00 0.00 0.00 0.00 0.00 0.00 0.00 0.01 0.01 0.03 0.07 0.14 0.14 0.16 0.15 0.10 0.06 0.05 0.04 0.01 0.00 0.00 0.00 0.00 0.00
0.00 0.00 0.00 0.00 0.00 0.00 0.00 0.00 0.00 0.00 0.00 0.00 0.00 0.00 0.00 0.00 0.00 0.00 0.00 0.00 0.00 0.00 0.00 0.00 0.00 0.00 0.00 0.00 0.01 0.01 0.01 0.01 0.01 0.00 0.00 0.00 0.00 0.00 0.00 0.00 0.00 0.00 0.00
0.00 0.00 0.00 0.00 0.00 0.00 0.00 0.00 0.00 0.00 0.00 0.00 0.00 0.00 0.00 0.00 0.00 0.00 0.00 0.00 0.00 0.00 0.00 0.00 0.00 0.00 0.00 0.00 0.00 0.00 0.00 0.00 0.00 0.00 0.00 0.00 0.00 0.00 0.00 0.00 0.00 0.00 0.00
0.00 0.00 0.00 0.00 0.00 0.00 0.00 0.00 0.00 0.00 0.00 0.00 0.00 0.00 0.00 0.00 0.00 0.00 0.00 0.00 0.00 0.00 0.00 0.00 0.00 0.00 0.00 0.00 0.00 0.00 0.00 0.00 0.00 0.00 0.00 0.00 0.00 0.00 0.00 0.00 0.00 0.00 0.00
0.00 0.00 0.00 0.00 0.00 0.00 0.00 0.00 0.00 0.00 0.00 0.00 0.00 0.00 0.00 0.00 0.00 0.00 0.00 0.00 0.00 0.00 0.00 0.00 0.00 0.00 0.00 0.00 0.00 0.00 0.00 0.00 0.00 0.00 0.00 0.00 0.00 0.00 0.00 0.00 0.00 0.00 0.00
0.00 0.00 0.00 0.00 0.00 0.00 0.00 0.00 0.00 0.00 0.00 0.00 0.00 0.00 0.00 0.00 0.00 0.00 0.00 0.00 0.00 0.00 0.00 0.00 0.00 0.00 0.00 0.00 0.00 0.00 0.00 0.00 0.00 0.00 0.00 0.00 0.00 0.00 0.00 0.00 0.00 0.00 0.00
0.00 0.00 0.00 0.00 0.00 0.00 0.00 0.00 0.00 0.00 0.01 0.01 0.00 0.00 0.00 0.00 0.00 0.00 0.00 0.00 0.00 0.00 0.00 0.00 0.00 0.00 0.00 0.00 0.00 0.00 0.00 0.00 0.00 0.00 0.00 0.00 0.00 0.00 0.00 0.00 0.00 0.00 0.00
0.04 0.03 0.04 0.03 0.01 0.00 0.00 0.00 0.01 0.01 0.02 0.01 0.01 0.00 0.00 0.00 0.00 0.00 0.00 0.00 0.00 0.00 0.00 0.00 0.00 0.00 0.00 0.00 0.00 0.00 0.00 0.00 0.00 0.00 0.00 0.00 0.00 0.00 0.00 0.00 0.00 0.00 0.00
0.00 0.00 0.01 0.01 0.03 0.04 0.06 0.06 0.04 0.02 0.02 0.02 0.01 0.00 0.00 0.00 0.00 0.00 0.00 0.00 0.00 0.00 0.00 0.00 0.00 0.00 0.00 0.00 0.00 0.00 0.00 0.00 0.00 0.00 0.00 0.00 0.00 0.00 0.00 0.00 0.00 0.00 0.00

GFSMW_prec_precacc24_084.txt.gz
Total_Precipitation_Accumulation
0.00 0.00 0.00 0.01 0.07 0.05 0.10 0.10 0.08 0.04 0.03 0.02 0.02 0.02 0.01 0.07 0.07 0.04 0.10 0.16 0.15 0.13 0.09 0.04 0.05 0.08 0.03 0.03 0.03 0.04 0.03 0.01 0.02 0.02 0.00 0.00 0.00 0.00 0.00 0.00 0.00 0.00 0.01
0.00 0.00 0.00 0.00 0.00 0.05 0.10 0.14 0.07 0.07 0.09 0.04 0.05 0.04 0.02 0.02 0.01 0.02 0.03 0.09 0.16 0.18 0.16 0.14 0.10 0.08 0.05 0.03 0.03 0.04 0.10 0.06 0.13 0.13 0.05 0.02 0.00 0.00 0.00 0.00 0.00 0.00 0.01
0.00 0.00 0.00 0.00 0.00 0.00 0.00 0.02 0.08 0.08 0.19 0.12 0.07 0.12 0.09 0.04 0.02 0.01 0.00 0.01 0.03 0.05 0.07 0.06 0.04 0.06 0.08 0.04 0.06 0.06 0.13 0.18 0.21 0.16 0.19 0.08 0.01 0.00 0.00 0.00 0.00 0.00 0.01
0.00 0.00 0.00 0.00 0.00 0.00 0.00 0.00 0.00 0.03 0.04 0.05 0.10 0.06 0.03 0.02 0.00 0.00 0.00 0.00 0.00 0.00 0.00 0.03 0.08 0.10 0.08 0.05 0.05 0.10 0.10 0.17 0.18 0.17 0.14 0.13 0.07 0.06 0.03 0.01 0.03 0.03 0.02
0.00 0.00 0.00 0.00 0.00 0.00 0.00 0.00 0.00 0.00 0.00 0.00 0.00 0.00 0.00 0.00 0.00 0.00 0.00 0.00 0.00 0.01 0.00 0.01 0.02 0.02 0.04 0.06 0.07 0.10 0.11 0.15 0.19 0.16 0.20 0.19 0.17 0.13 0.11 0.07 0.06 0.07 0.06
0.00 0.00 0.00 0.00 0.00 0.00 0.00 0.00 0.00 0.00 0.00 0.00 0.00 0.00 0.00 0.00 0.00 0.00 0.00 0.00 0.00 0.00 0.00 0.01 0.01 0.01 0.01 0.02 0.06 0.10 0.13 0.16 0.20 0.24 0.26 0.28 0.28 0.23 0.19 0.15 0.11 0.12 0.08
0.00 0.00 0.00 0.00 0.00 0.00 0.00 0.00 0.00 0.00 0.00 0.00 0.00 0.00 0.00 0.00 0.00 0.00 0.00 0.00 0.00 0.00 0.00 0.01 0.02 0.02 0.01 0.02 0.02 0.02 0.05 0.12 0.18 0.24 0.21 0.20 0.23 0.26 0.28 0.30 0.29 0.25 0.14
0.00 0.00 0.00 0.00 0.00 0.00 0.00 0.00 0.00 0.00 0.00 0.00 0.00 0.00 0.00 0.00 0.00 0.00 0.00 0.00 0.00 0.00 0.00 0.00 0.00 0.00 0.01 0.00 0.00 0.01 0.02 0.04 0.10 0.16 0.21 0.20 0.17 0.21 0.24 0.28 0.34 0.27 0.16
0.00 0.00 0.00 0.00 0.00 0.00 0.00 0.00 0.00 0.00 0.00 0.00 0.00 0.00 0.00 0.00 0.00 0.00 0.00 0.00 0.00 0.00 0.00 0.00 0.00 0.00 0.00 0.00 0.00 0.01 0.01 0.02 0.03 0.06 0.13 0.18 0.14 0.14 0.16 0.19 0.33 0.49 0.50
0.00 0.00 0.00 0.00 0.00 0.00 0.00 0.00 0.00 0.00 0.00 0.00 0.00 0.00 0.00 0.00 0.00 0.00 0.00 0.00 0.00 0.00 0.00 0.00 0.00 0.00 0.00 0.00 0.00 0.00 0.01 0.01 0.01 0.02 0.05 0.07 0.09 0.11 0.16 0.19 0.24 0.38 0.51
0.00 0.00 0.00 0.00 0.00 0.00 0.00 0.00 0.00 0.00 0.00 0.00 0.00 0.00 0.00 0.00 0.00 0.00 0.00 0.00 0.00 0.00 0.00 0.00 0.00 0.00 0.00 0.00 0.00 0.00 0.00 0.00 0.00 0.00 0.01 0.01 0.02 0.04 0.05 0.07 0.09 0.13 0.23
0.00 0.00 0.00 0.00 0.00 0.00 0.00 0.00 0.00 0.00 0.00 0.00 0.00 0.00 0.00 0.00 0.00 0.00 0.00 0.00 0.00 0.00 0.00 0.00 0.00 0.00 0.00 0.00 0.00 0.00 0.00 0.00 0.00 0.00 0.01 0.01 0.01 0.01 0.01 0.02 0.03 0.06 0.09
0.00 0.00 0.00 0.00 0.00 0.00 0.00 0.00 0.00 0.00 0.00 0.00 0.00 0.00 0.00 0.00 0.00 0.00 0.00 0.00 0.00 0.00 0.00 0.00 0.00 0.00 0.00 0.00 0.00 0.00 0.00 0.00 0.00 0.01 0.01 0.01 0.01 0.02 0.02 0.01 0.01 0.02 0.02
0.00 0.00 0.00 0.00 0.00 0.00 0.00 0.00 0.00 0.00 0.00 0.00 0.00 0.00 0.00 0.00 0.00 0.00 0.00 0.00 0.00 0.00 0.00 0.00 0.00 0.00 0.00 0.00 0.00 0.00 0.00 0.01 0.00 0.01 0.01 0.01 0.01 0.01 0.01 0.01 0.01 0.01 0.01
0.00 0.00 0.00 0.00 0.00 0.00 0.00 0.00 0.00 0.00 0.00 0.00 0.00 0.00 0.00 0.00 0.00 0.00 0.00 0.00 0.00 0.00 0.00 0.00 0.00 0.00 0.00 0.00 0.00 0.00 0.00 0.00 0.00 0.01 0.01 0.08 0.10 0.06 0.05 0.07 0.07 0.03 0.03
0.00 0.00 0.00 0.00 0.00 0.00 0.00 0.00 0.00 0.00 0.00 0.00 0.00 0.00 0.00 0.00 0.00 0.00 0.00 0.00 0.00 0.00 0.00 0.00 0.00 0.00 0.00 0.02 0.01 0.00 0.00 0.00 0.00 0.04 0.02 0.04 0.11 0.11 0.12 0.12 0.07 0.03 0.01
0.00 0.00 0.00 0.00 0.00 0.00 0.00 0.00 0.00 0.00 0.00 0.00 0.00 0.00 0.00 0.00 0.00 0.00 0.00 0.00 0.00 0.00 0.00 0.00 0.00 0.00 0.00 0.01 0.00 0.00 0.00 0.00 0.00 0.02 0.03 0.04 0.08 0.10 0.08 0.07 0.05 0.03 0.02
0.00 0.00 0.00 0.00 0.00 0.00 0.00 0.00 0.00 0.00 0.00 0.00 0.00 0.00 0.00 0.00 0.00 0.00 0.00 0.00 0.00 0.00 0.00 0.00 0.00 0.00 0.00 0.00 0.00 0.00 0.00 0.00 0.01 0.03 0.01 0.01 0.01 0.01 0.00 0.00 0.00 0.00 0.00
0.00 0.00 0.00 0.00 0.00 0.00 0.00 0.00 0.00 0.00 0.00 0.00 0.00 0.00 0.00 0.00 0.00 0.00 0.00 0.00 0.00 0.00 0.00 0.00 0.00 0.00 0.00 0.00 0.00 0.00 0.00 0.00 0.00 0.00 0.00 0.00 0.00 0.00 0.00 0.00 0.00 0.00 0.00
0.00 0.00 0.00 0.00 0.00 0.00 0.00 0.00 0.00 0.00 0.00 0.00 0.00 0.00 0.00 0.00 0.00 0.00 0.00 0.00 0.00 0.00 0.00 0.00 0.00 0.00 0.00 0.00 0.00 0.00 0.00 0.00 0.00 0.00 0.00 0.00 0.00 0.00 0.00 0.00 0.00 0.00 0.00
0.00 0.00 0.00 0.00 0.00 0.00 0.00 0.00 0.00 0.00 0.00 0.00 0.00 0.00 0.00 0.00 0.00 0.00 0.00 0.00 0.00 0.00 0.00 0.00 0.00 0.00 0.00 0.00 0.00 0.00 0.00 0.00 0.00 0.00 0.00 0.00 0.00 0.00 0.00 0.00 0.00 0.00 0.00
0.00 0.00 0.00 0.00 0.00 0.00 0.00 0.00 0.00 0.00 0.00 0.00 0.00 0.00 0.00 0.00 0.00 0.00 0.00 0.00 0.00 0.00 0.00 0.00 0.00 0.00 0.00 0.00 0.00 0.00 0.00 0.00 0.00 0.00 0.00 0.00 0.00 0.00 0.00 0.00 0.00 0.00 0.00
0.00 0.00 0.00 0.00 0.00 0.00 0.00 0.00 0.00 0.00 0.00 0.00 0.00 0.00 0.00 0.00 0.00 0.00 0.00 0.00 0.00 0.00 0.00 0.00 0.00 0.00 0.00 0.00 0.00 0.00 0.00 0.00 0.00 0.00 0.00 0.00 0.00 0.00 0.00 0.00 0.00 0.00 0.00
0.00 0.00 0.00 0.00 0.00 0.00 0.00 0.00 0.00 0.00 0.01 0.01 0.00 0.00 0.00 0.00 0.00 0.00 0.00 0.00 0.00 0.00 0.00 0.00 0.00 0.00 0.00 0.00 0.00 0.00 0.00 0.00 0.00 0.00 0.00 0.00 0.00 0.00 0.00 0.00 0.00 0.00 0.00
0.04 0.03 0.04 0.03 0.01 0.00 0.00 0.00 0.01 0.01 0.02 0.01 0.01 0.01 0.00 0.00 0.00 0.00 0.00 0.00 0.00 0.00 0.00 0.00 0.00 0.00 0.00 0.00 0.00 0.00 0.00 0.00 0.00 0.00 0.00 0.00 0.00 0.00 0.00 0.00 0.00 0.00 0.00
0.01 0.00 0.01 0.01 0.03 0.04 0.06 0.06 0.04 0.02 0.02 0.02 0.02 0.02 0.02 0.01 0.01 0.00 0.00 0.00 0.00 0.00 0.00 0.00 0.00 0.00 0.00 0.00 0.00 0.00 0.00 0.00 0.00 0.00 0.00 0.00 0.00 0.00 0.00 0.00 0.00 0.00 0.00

GFSMW_prec_precacc24_087.txt.gz
Total_Precipitation_Accumulation
0.00 0.00 0.01 0.05 0.13 0.11 0.10 0.10 0.13 0.09 0.03 0.04 0.05 0.07 0.04 0.03 0.04 0.05 0.12 0.12 0.11 0.07 0.06 0.03 0.04 0.07 0.03 0.03 0.03 0.03 0.02 0.01 0.02 0.02 0.00 0.00 0.00 0.00 0.00 0.00 0.00 0.00 0.01
0.00 0.00 0.00 0.00 0.00 0.10 0.19 0.18 0.09 0.22 0.20 0.07 0.10 0.14 0.16 0.11 0.08 0.12 0.09 0.07 0.12 0.13 0.13 0.10 0.06 0.04 0.04 0.03 0.03 0.04 0.02 0.02 0.10 0.12 0.06 0.02 0.00 0.00 0.00 0.00 0.00 0.00 0.01
0.00 0.00 0.00 0.00 0.00 0.01 0.03 0.07 0.12 0.24 0.31 0.30 0.14 0.28 0.23 0.18 0.12 0.08 0.04 0.02 0.02 0.02 0.03 0.02 0.01 0.02 0.02 0.02 0.03 0.04 0.05 0.08 0.14 0.14 0.19 0.08 0.01 0.00 0.00 0.00 0.00 0.00 0.01
0.00 0.00 0.00 0.00 0.00 0.00 0.00 0.00 0.00 0.10 0.11 0.08 0.26 0.22 0.14 0.12 0.11 0.08 0.10 0.07 0.01 0.00 0.00 0.00 0.01 0.02 0.02 0.02 0.03 0.06 0.08 0.10 0.09 0.10 0.10 0.10 0.07 0.07 0.04 0.00 0.02 0.02 0.02
0.00 0.00 0.00 0.00 0.00 0.00 0.00 0.00 0.00 0.05 0.09 0.03 0.07 0.00 0.02 0.01 0.01 0.03 0.04 0.00 0.00 0.00 0.00 0.01 0.02 0.01 0.01 0.01 0.01 0.03 0.04 0.08 0.11 0.10 0.12 0.11 0.11 0.11 0.11 0.06 0.03 0.05 0.05
0.00 0.00 0.00 0.00 0.00 0.00 0.01 0.01 0.00 0.01 0.05 0.03 0.01 0.00 0.00 0.00 0.00 0.00 0.00 0.00 0.00 0.00 0.00 0.00 0.00 0.00 0.01 0.01 0.02 0.03 0.05 0.07 0.09 0.13 0.17 0.19 0.17 0.15 0.14 0.12 0.09 0.08 0.06
0.00 0.00 0.00 0.00 0.00 0.00 0.00 0.00 0.02 0.02 0.02 0.01 0.00 0.00 0.00 0.00 0.00 0.00 0.00 0.00 0.00 0.00 0.00 0.00 0.00 0.00 0.00 0.00 0.00 0.01 0.02 0.04 0.07 0.11 0.10 0.12 0.13 0.16 0.20 0.24 0.26 0.22 0.13
0.00 0.00 0.00 0.00 0.00 0.00 0.00 0.00 0.00 0.00 0.00 0.00 0.00 0.00 0.00 0.00 0.00 0.00 0.00 0.00 0.00 0.00 0.00 0.00 0.00 0.00 0.00 0.00 0.00 0.00 0.00 0.02 0.03 0.03 0.05 0.06 0.06 0.09 0.15 0.20 0.26 0.23 0.13
0.00 0.00 0.00 0.00 0.00 0.00 0.00 0.00 0.00 0.00 0.00 0.00 0.00 0.00 0.00 0.00 0.00 0.00 0.00 0.00 0.00 0.00 0.00 0.00 0.00 0.00 0.00 0.00 0.00 0.00 0.00 0.00 0.00 0.01 0.01 0.03 0.01 0.02 0.03 0.05 0.20 0.41 0.43
0.00 0.00 0.00 0.00 0.00 0.00 0.00 0.00 0.00 0.00 0.00 0.00 0.00 0.00 0.00 0.00 0.00 0.00 0.00 0.00 0.00 0.00 0.00 0.00 0.00 0.00 0.00 0.00 0.00 0.00 0.00 0.00 0.00 0.00 0.00 0.00 0.02 0.03 0.04 0.06 0.09 0.17 0.29
0.00 0.00 0.00 0.00 0.00 0.00 0.00 0.00 0.00 0.00 0.00 0.00 0.00 0.00 0.00 0.00 0.00 0.00 0.00 0.00 0.00 0.00 0.00 0.00 0.00 0.00 0.00 0.00 0.00 0.00 0.00 0.00 0.00 0.00 0.00 0.00 0.00 0.01 0.02 0.04 0.05 0.06 0.08
0.00 0.00 0.00 0.00 0.00 0.00 0.00 0.00 0.00 0.00 0.00 0.00 0.00 0.00 0.00 0.00 0.00 0.00 0.00 0.00 0.00 0.00 0.00 0.00 0.00 0.00 0.00 0.00 0.00 0.00 0.00 0.00 0.00 0.00 0.00 0.00 0.00 0.00 0.00 0.00 0.01 0.01 0.02
0.00 0.00 0.00 0.00 0.00 0.00 0.00 0.00 0.00 0.00 0.00 0.00 0.00 0.00 0.01 0.00 0.00 0.00 0.00 0.00 0.00 0.00 0.00 0.00 0.00 0.00 0.00 0.00 0.00 0.00 0.00 0.00 0.00 0.00 0.00 0.00 0.01 0.01 0.01 0.01 0.00 0.01 0.01
0.00 0.00 0.00 0.00 0.00 0.00 0.00 0.00 0.00 0.00 0.00 0.00 0.00 0.00 0.00 0.00 0.00 0.00 0.00 0.00 0.00 0.00 0.00 0.00 0.00 0.00 0.00 0.00 0.00 0.00 0.00 0.00 0.00 0.00 0.00 0.00 0.00 0.00 0.00 0.00 0.01 0.00 0.01
0.00 0.00 0.00 0.00 0.00 0.00 0.00 0.00 0.00 0.00 0.00 0.00 0.00 0.00 0.00 0.00 0.00 0.00 0.00 0.00 0.00 0.00 0.00 0.00 0.00 0.00 0.00 0.00 0.00 0.00 0.00 0.00 0.00 0.00 0.00 0.00 0.01 0.02 0.02 0.03 0.06 0.02 0.01
0.00 0.00 0.00 0.00 0.00 0.00 0.00 0.00 0.00 0.00 0.00 0.00 0.00 0.00 0.00 0.00 0.00 0.00 0.00 0.00 0.00 0.00 0.00 0.00 0.00 0.00 0.00 0.02 0.02 0.00 0.00 0.00 0.00 0.00 0.00 0.00 0.00 0.01 0.03 0.04 0.04 0.01 0.01
0.00 0.00 0.00 0.00 0.00 0.00 0.00 0.00 0.00 0.00 0.00 0.00 0.00 0.00 0.00 0.00 0.00 0.00 0.00 0.00 0.00 0.00 0.00 0.00 0.00 0.00 0.00 0.01 0.00 0.00 0.00 0.00 0.00 0.00 0.00 0.00 0.00 0.01 0.01 0.01 0.02 0.03 0.02
0.00 0.00 0.00 0.00 0.00 0.00 0.00 0.00 0.00 0.00 0.00 0.00 0.00 0.00 0.00 0.00 0.00 0.00 0.00 0.00 0.00 0.00 0.00 0.00 0.00 0.00 0.00 0.00 0.00 0.00 0.00 0.00 0.00 0.00 0.00 0.00 0.00 0.00 0.00 0.00 0.00 0.00 0.00
0.00 0.00 0.00 0.00 0.00 0.00 0.00 0.00 0.00 0.00 0.00 0.00 0.00 0.00 0.00 0.00 0.00 0.00 0.00 0.00 0.00 0.00 0.00 0.00 0.00 0.00 0.00 0.00 0.00 0.00 0.00 0.00 0.00 0.00 0.00 0.00 0.00 0.00 0.00 0.00 0.00 0.00 0.00
0.00 0.00 0.00 0.00 0.00 0.00 0.00 0.00 0.00 0.00 0.00 0.00 0.00 0.00 0.00 0.00 0.00 0.00 0.00 0.00 0.00 0.00 0.00 0.00 0.00 0.00 0.00 0.00 0.00 0.00 0.00 0.00 0.00 0.00 0.00 0.00 0.00 0.00 0.00 0.00 0.00 0.00 0.00
0.00 0.00 0.00 0.00 0.00 0.00 0.00 0.00 0.00 0.00 0.00 0.00 0.00 0.00 0.00 0.00 0.00 0.00 0.00 0.00 0.00 0.00 0.00 0.00 0.00 0.00 0.00 0.00 0.00 0.00 0.00 0.00 0.00 0.00 0.00 0.00 0.00 0.00 0.00 0.00 0.00 0.00 0.00
0.00 0.00 0.00 0.00 0.00 0.00 0.00 0.00 0.00 0.00 0.00 0.00 0.00 0.00 0.00 0.00 0.00 0.00 0.00 0.00 0.00 0.00 0.00 0.00 0.00 0.00 0.00 0.00 0.00 0.00 0.00 0.00 0.00 0.00 0.00 0.00 0.00 0.00 0.00 0.00 0.00 0.00 0.00
0.00 0.00 0.00 0.00 0.00 0.00 0.00 0.00 0.00 0.00 0.00 0.00 0.00 0.00 0.00 0.00 0.00 0.00 0.00 0.00 0.00 0.00 0.00 0.00 0.00 0.00 0.00 0.00 0.00 0.00 0.00 0.00 0.00 0.00 0.00 0.00 0.00 0.00 0.00 0.00 0.00 0.00 0.00
0.00 0.00 0.00 0.00 0.00 0.00 0.00 0.00 0.00 0.00 0.01 0.01 0.00 0.00 0.00 0.00 0.00 0.00 0.00 0.00 0.00 0.00 0.00 0.00 0.00 0.00 0.00 0.00 0.00 0.00 0.00 0.00 0.00 0.00 0.00 0.00 0.00 0.00 0.00 0.00 0.00 0.00 0.00
0.04 0.03 0.04 0.03 0.01 0.00 0.00 0.00 0.01 0.01 0.02 0.01 0.01 0.01 0.00 0.00 0.00 0.00 0.00 0.00 0.00 0.00 0.00 0.00 0.00 0.00 0.00 0.00 0.00 0.00 0.00 0.00 0.00 0.00 0.00 0.00 0.00 0.00 0.00 0.00 0.00 0.00 0.00
0.01 0.01 0.01 0.02 0.03 0.04 0.06 0.06 0.04 0.02 0.02 0.02 0.02 0.03 0.02 0.01 0.01 0.01 0.02 0.02 0.01 0.00 0.00 0.00 0.00 0.00 0.00 0.00 0.00 0.00 0.00 0.00 0.00 0.00 0.00 0.00 0.00 0.00 0.00 0.00 0.00 0.00 0.00

GFSMW_prec_precacc24_090.txt.gz
Total_Precipitation_Accumulation
0.00 0.00 0.03 0.14 0.21 0.15 0.13 0.14 0.16 0.10 0.03 0.04 0.08 0.10 0.05 0.03 0.04 0.04 0.07 0.06 0.06 0.04 0.02 0.02 0.01 0.04 0.02 0.02 0.02 0.03 0.02 0.01 0.01 0.02 0.01 0.00 0.00 0.00 0.00 0.00 0.00 0.00 0.01
0.00 0.00 0.00 0.01 0.05 0.15 0.23 0.23 0.12 0.27 0.20 0.07 0.12 0.17 0.24 0.24 0.19 0.20 0.16 0.05 0.08 0.07 0.06 0.06 0.04 0.02 0.02 0.01 0.02 0.03 0.02 0.02 0.03 0.06 0.05 0.02 0.00 0.00 0.00 0.00 0.00 0.00 0.01
0.00 0.00 0.00 0.00 0.00 0.02 0.04 0.10 0.20 0.33 0.31 0.31 0.15 0.29 0.28 0.27 0.23 0.12 0.06 0.08 0.08 0.05 0.02 0.01 0.00 0.01 0.01 0.01 0.01 0.02 0.03 0.04 0.03 0.06 0.13 0.07 0.01 0.00 0.00 0.00 0.00 0.00 0.01
0.00 0.00 0.00 0.00 0.00 0.00 0.00 0.04 0.04 0.13 0.13 0.11 0.28 0.31 0.22 0.19 0.22 0.25 0.24 0.19 0.10 0.05 0.01 0.00 0.00 0.00 0.00 0.00 0.00 0.01 0.02 0.04 0.03 0.04 0.05 0.07 0.05 0.07 0.03 0.00 0.00 0.01 0.01
0.00 0.00 0.00 0.00 0.00 0.00 0.00 0.01 0.03 0.16 0.17 0.11 0.19 0.10 0.15 0.04 0.05 0.11 0.11 0.06 0.04 0.02 0.00 0.00 0.00 0.00 0.00 0.00 0.00 0.01 0.01 0.02 0.04 0.02 0.03 0.03 0.04 0.06 0.09 0.05 0.02 0.02 0.02
0.00 0.00 0.00 0.00 0.00 0.00 0.01 0.01 0.02 0.06 0.13 0.08 0.13 0.05 0.05 0.03 0.02 0.02 0.02 0.01 0.00 0.00 0.00 0.00 0.00 0.00 0.00 0.00 0.01 0.01 0.01 0.02 0.03 0.04 0.06 0.08 0.08 0.06 0.06 0.07 0.03 0.05 0.04
0.00 0.00 0.00 0.00 0.00 0.00 0.00 0.00 0.02 0.05 0.14 0.13 0.17 0.15 0.12 0.09 0.07 0.05 0.04 0.03 0.01 0.00 0.00 0.00 0.00 0.00 0.00 0.00 0.00 0.00 0.01 0.01 0.02 0.04 0.04 0.06 0.07 0.07 0.08 0.10 0.07 0.05 0.02
0.00 0.00 0.00 0.00 0.00 0.00 0.00 0.00 0.00 0.00 0.02 0.05 0.06 0.07 0.05 0.04 0.03 0.03 0.02 0.01 0.00 0.00 0.00 0.00 0.00 0.00 0.00 0.00 0.00 0.00 0.00 0.01 0.01 0.02 0.02 0.03 0.02 0.03 0.05 0.08 0.08 0.06 0.04
0.00 0.00 0.00 0.00 0.00 0.00 0.00 0.00 0.00 0.00 0.00 0.00 0.01 0.01 0.00 0.00 0.00 0.00 0.00 0.00 0.00 0.00 0.00 0.00 0.00 0.00 0.00 0.00 0.00 0.00 0.00 0.00 0.00 0.00 0.00 0.00 0.00 0.01 0.01 0.02 0.03 0.08 0.08
0.00 0.00 0.00 0.00 0.00 0.00 0.00 0.00 0.00 0.00 0.00 0.00 0.00 0.00 0.00 0.00 0.00 0.00 0.00 0.00 0.00 0.00 0.00 0.00 0.00 0.00 0.00 0.00 0.00 0.00 0.00 0.00 0.00 0.00 0.00 0.00 0.00 0.00 0.00 0.01 0.02 0.04 0.07
0.00 0.00 0.00 0.00 0.00 0.00 0.00 0.00 0.00 0.00 0.00 0.00 0.00 0.00 0.00 0.00 0.00 0.00 0.00 0.00 0.00 0.00 0.00 0.00 0.00 0.00 0.00 0.00 0.00 0.00 0.00 0.00 0.00 0.00 0.00 0.00 0.00 0.00 0.00 0.00 0.00 0.02 0.04
0.00 0.00 0.00 0.00 0.00 0.00 0.00 0.00 0.00 0.00 0.00 0.00 0.00 0.00 0.00 0.00 0.00 0.00 0.00 0.00 0.00 0.00 0.00 0.00 0.00 0.00 0.00 0.00 0.00 0.00 0.00 0.00 0.00 0.00 0.00 0.00 0.00 0.00 0.00 0.00 0.00 0.00 0.01
0.00 0.00 0.00 0.00 0.00 0.00 0.00 0.00 0.00 0.00 0.00 0.00 0.00 0.00 0.01 0.00 0.00 0.00 0.00 0.00 0.00 0.00 0.00 0.00 0.00 0.00 0.00 0.00 0.00 0.00 0.00 0.00 0.00 0.00 0.00 0.00 0.00 0.00 0.00 0.00 0.00 0.00 0.00
0.00 0.00 0.00 0.00 0.00 0.00 0.00 0.00 0.00 0.00 0.00 0.00 0.00 0.00 0.00 0.00 0.00 0.00 0.00 0.00 0.00 0.00 0.00 0.00 0.00 0.00 0.00 0.00 0.00 0.00 0.00 0.00 0.00 0.00 0.00 0.00 0.00 0.00 0.00 0.00 0.00 0.00 0.00
0.00 0.00 0.00 0.00 0.00 0.00 0.00 0.00 0.00 0.00 0.00 0.00 0.00 0.00 0.00 0.00 0.00 0.00 0.00 0.00 0.00 0.00 0.00 0.00 0.00 0.00 0.00 0.00 0.00 0.00 0.00 0.00 0.00 0.00 0.00 0.00 0.01 0.02 0.01 0.00 0.00 0.00 0.00
0.00 0.00 0.00 0.00 0.00 0.00 0.00 0.00 0.00 0.00 0.00 0.00 0.00 0.00 0.00 0.00 0.00 0.00 0.00 0.00 0.00 0.00 0.00 0.00 0.00 0.00 0.00 0.02 0.02 0.00 0.00 0.00 0.00 0.00 0.00 0.00 0.00 0.00 0.00 0.00 0.00 0.00 0.00
0.00 0.00 0.00 0.00 0.00 0.00 0.00 0.00 0.00 0.00 0.00 0.00 0.00 0.00 0.00 0.00 0.00 0.00 0.00 0.00 0.00 0.00 0.00 0.00 0.00 0.00 0.00 0.02 0.01 0.00 0.00 0.00 0.00 0.00 0.00 0.00 0.00 0.00 0.00 0.00 0.00 0.00 0.00
0.00 0.00 0.00 0.00 0.00 0.00 0.00 0.00 0.00 0.00 0.00 0.00 0.00 0.00 0.00 0.00 0.00 0.00 0.00 0.00 0.00 0.00 0.00 0.00 0.00 0.00 0.00 0.00 0.00 0.00 0.00 0.00 0.00 0.00 0.00 0.00 0.00 0.00 0.00 0.00 0.00 0.00 0.00
0.00 0.00 0.00 0.00 0.00 0.00 0.00 0.00 0.00 0.00 0.00 0.00 0.00 0.00 0.00 0.00 0.00 0.00 0.00 0.00 0.00 0.00 0.00 0.00 0.00 0.00 0.00 0.00 0.00 0.00 0.00 0.00 0.00 0.00 0.00 0.00 0.00 0.00 0.00 0.00 0.00 0.00 0.00
0.00 0.00 0.00 0.00 0.00 0.00 0.00 0.00 0.00 0.00 0.00 0.00 0.00 0.00 0.00 0.00 0.00 0.00 0.00 0.00 0.00 0.00 0.00 0.00 0.00 0.00 0.00 0.00 0.00 0.00 0.00 0.00 0.00 0.00 0.00 0.00 0.00 0.00 0.00 0.00 0.00 0.00 0.00
0.00 0.00 0.00 0.00 0.00 0.00 0.00 0.00 0.00 0.00 0.00 0.00 0.00 0.00 0.00 0.00 0.00 0.00 0.00 0.00 0.00 0.00 0.00 0.00 0.00 0.00 0.00 0.00 0.00 0.00 0.00 0.00 0.00 0.00 0.00 0.00 0.00 0.00 0.00 0.00 0.00 0.00 0.00
0.00 0.00 0.00 0.00 0.00 0.00 0.00 0.00 0.00 0.00 0.00 0.00 0.00 0.00 0.00 0.00 0.00 0.00 0.00 0.00 0.00 0.00 0.00 0.00 0.00 0.00 0.00 0.00 0.00 0.00 0.00 0.00 0.00 0.00 0.00 0.00 0.00 0.00 0.00 0.00 0.00 0.00 0.00
0.00 0.00 0.00 0.00 0.00 0.00 0.00 0.00 0.00 0.00 0.00 0.00 0.00 0.00 0.00 0.00 0.00 0.00 0.00 0.00 0.00 0.00 0.00 0.00 0.00 0.00 0.00 0.00 0.00 0.00 0.00 0.00 0.00 0.00 0.00 0.00 0.00 0.00 0.00 0.00 0.00 0.00 0.00
0.00 0.00 0.00 0.00 0.00 0.00 0.00 0.00 0.00 0.00 0.01 0.01 0.00 0.00 0.00 0.00 0.00 0.00 0.00 0.00 0.00 0.00 0.00 0.00 0.00 0.00 0.00 0.00 0.00 0.00 0.00 0.00 0.00 0.00 0.00 0.00 0.00 0.00 0.00 0.00 0.00 0.00 0.00
0.04 0.03 0.04 0.03 0.01 0.00 0.00 0.00 0.01 0.01 0.02 0.01 0.01 0.01 0.00 0.00 0.00 0.00 0.01 0.00 0.00 0.00 0.00 0.00 0.00 0.00 0.00 0.00 0.00 0.00 0.00 0.00 0.00 0.00 0.00 0.00 0.00 0.00 0.00 0.00 0.00 0.00 0.00
0.02 0.01 0.01 0.02 0.03 0.04 0.06 0.06 0.04 0.02 0.02 0.02 0.02 0.03 0.02 0.02 0.02 0.02 0.03 0.05 0.03 0.01 0.00 0.00 0.00 0.00 0.00 0.00 0.00 0.00 0.00 0.00 0.00 0.00 0.00 0.00 0.00 0.00 0.00 0.00 0.00 0.00 0.00

GFSMW_prec_precacc24_093.txt.gz
Total_Precipitation_Accumulation
0.01 0.03 0.06 0.29 0.35 0.25 0.27 0.32 0.27 0.19 0.11 0.05 0.09 0.12 0.09 0.06 0.05 0.05 0.05 0.02 0.02 0.01 0.00 0.00 0.00 0.01 0.01 0.01 0.02 0.03 0.03 0.02 0.02 0.03 0.01 0.00 0.00 0.00 0.00 0.00 0.00 0.00 0.00
0.00 0.00 0.00 0.06 0.05 0.20 0.33 0.31 0.15 0.30 0.26 0.15 0.16 0.18 0.25 0.32 0.26 0.22 0.17 0.04 0.06 0.03 0.01 0.01 0.01 0.01 0.01 0.01 0.02 0.03 0.02 0.01 0.01 0.02 0.04 0.02 0.00 0.00 0.00 0.00 0.00 0.00 0.00
0.00 0.00 0.00 0.00 0.00 0.04 0.11 0.20 0.38 0.49 0.44 0.38 0.29 0.39 0.36 0.35 0.33 0.13 0.07 0.11 0.23 0.18 0.16 0.13 0.08 0.03 0.02 0.01 0.01 0.01 0.02 0.02 0.01 0.02 0.07 0.05 0.01 0.00 0.00 0.00 0.00 0.00 0.00
0.00 0.00 0.00 0.00 0.00 0.00 0.04 0.11 0.15 0.27 0.27 0.35 0.42 0.38 0.32 0.24 0.26 0.27 0.27 0.25 0.23 0.25 0.20 0.14 0.10 0.05 0.04 0.01 0.00 0.01 0.02 0.02 0.02 0.02 0.01 0.03 0.04 0.06 0.03 0.00 0.00 0.00 0.00
0.00 0.00 0.00 0.00 0.00 0.00 0.00 0.08 0.17 0.29 0.29 0.26 0.34 0.36 0.35 0.18 0.17 0.23 0.18 0.11 0.08 0.06 0.03 0.01 0.03 0.04 0.03 0.01 0.00 0.00 0.01 0.02 0.02 0.02 0.01 0.01 0.01 0.04 0.06 0.03 0.01 0.01 0.00
0.00 0.00 0.00 0.00 0.00 0.00 0.01 0.02 0.04 0.16 0.26 0.21 0.27 0.31 0.33 0.28 0.24 0.20 0.21 0.15 0.08 0.04 0.02 0.03 0.02 0.01 0.00 0.00 0.00 0.00 0.01 0.01 0.02 0.03 0.04 0.06 0.05 0.03 0.03 0.05 0.03 0.02 0.01
0.00 0.00 0.00 0.00 0.00 0.00 0.00 0.00 0.02 0.08 0.19 0.21 0.32 0.37 0.36 0.33 0.30 0.25 0.22 0.18 0.13 0.08 0.05 0.03 0.01 0.00 0.00 0.00 0.00 0.00 0.01 0.01 0.02 0.03 0.04 0.05 0.05 0.05 0.05 0.07 0.05 0.04 0.01
0.00 0.00 0.00 0.00 0.00 0.00 0.00 0.00 0.00 0.00 0.03 0.08 0.12 0.16 0.15 0.17 0.17 0.15 0.13 0.14 0.08 0.02 0.00 0.00 0.00 0.00 0.00 0.00 0.00 0.00 0.00 0.01 0.01 0.02 0.02 0.03 0.02 0.02 0.03 0.05 0.05 0.04 0.02
0.00 0.00 0.00 0.00 0.00 0.00 0.00 0.00 0.00 0.00 0.00 0.00 0.01 0.04 0.07 0.07 0.06 0.03 0.05 0.05 0.04 0.01 0.00 0.00 0.00 0.00 0.00 0.00 0.00 0.00 0.00 0.00 0.00 0.00 0.00 0.00 0.00 0.00 0.01 0.01 0.01 0.03 0.02
0.00 0.00 0.00 0.00 0.00 0.00 0.00 0.00 0.00 0.00 0.00 0.00 0.00 0.00 0.00 0.02 0.02 0.00 0.00 0.00 0.00 0.00 0.00 0.00 0.00 0.00 0.00 0.00 0.00 0.00 0.00 0.00 0.00 0.00 0.00 0.00 0.00 0.00 0.00 0.00 0.00 0.01 0.02
0.00 0.00 0.00 0.00 0.00 0.00 0.00 0.00 0.00 0.00 0.00 0.00 0.00 0.00 0.00 0.00 0.00 0.00 0.00 0.00 0.00 0.00 0.00 0.00 0.00 0.00 0.00 0.00 0.00 0.00 0.00 0.00 0.00 0.00 0.00 0.00 0.00 0.00 0.00 0.00 0.00 0.00 0.00
0.00 0.00 0.00 0.00 0.00 0.00 0.00 0.00 0.00 0.00 0.00 0.00 0.00 0.00 0.00 0.00 0.00 0.00 0.00 0.00 0.00 0.00 0.00 0.00 0.00 0.00 0.00 0.00 0.00 0.00 0.00 0.00 0.00 0.00 0.00 0.00 0.00 0.00 0.00 0.00 0.00 0.00 0.00
0.00 0.00 0.00 0.00 0.00 0.00 0.00 0.00 0.00 0.00 0.00 0.00 0.00 0.00 0.01 0.00 0.00 0.00 0.00 0.00 0.00 0.00 0.00 0.00 0.00 0.00 0.00 0.00 0.00 0.00 0.00 0.00 0.00 0.00 0.00 0.00 0.00 0.00 0.00 0.00 0.00 0.00 0.00
0.00 0.00 0.00 0.00 0.00 0.00 0.00 0.00 0.00 0.00 0.00 0.00 0.00 0.00 0.00 0.00 0.00 0.00 0.00 0.00 0.00 0.00 0.00 0.00 0.00 0.00 0.00 0.00 0.00 0.00 0.00 0.00 0.00 0.00 0.00 0.00 0.00 0.00 0.00 0.00 0.00 0.00 0.00
0.00 0.00 0.00 0.00 0.00 0.00 0.00 0.00 0.00 0.00 0.00 0.00 0.00 0.00 0.00 0.00 0.00 0.00 0.00 0.00 0.00 0.00 0.00 0.00 0.00 0.00 0.00 0.00 0.00 0.00 0.00 0.00 0.00 0.00 0.00 0.00 0.01 0.01 0.01 0.00 0.00 0.00 0.00
0.00 0.00 0.00 0.00 0.00 0.00 0.00 0.00 0.00 0.00 0.00 0.00 0.00 0.00 0.00 0.00 0.00 0.00 0.00 0.00 0.00 0.00 0.00 0.00 0.00 0.00 0.00 0.02 0.02 0.00 0.00 0.00 0.00 0.00 0.00 0.00 0.00 0.00 0.00 0.00 0.00 0.00 0.00
0.00 0.00 0.00 0.00 0.00 0.00 0.00 0.00 0.00 0.00 0.00 0.00 0.00 0.00 0.00 0.00 0.00 0.00 0.00 0.00 0.00 0.00 0.00 0.00 0.00 0.00 0.00 0.02 0.01 0.01 0.00 0.00 0.00 0.00 0.00 0.00 0.00 0.00 0.00 0.00 0.00 0.00 0.00
0.00 0.00 0.00 0.00 0.00 0.00 0.00 0.00 0.00 0.00 0.00 0.00 0.00 0.00 0.00 0.00 0.00 0.00 0.00 0.00 0.00 0.00 0.00 0.00 0.00 0.00 0.00 0.01 0.01 0.01 0.00 0.00 0.00 0.00 0.00 0.00 0.00 0.00 0.00 0.00 0.00 0.00 0.00
0.00 0.00 0.00 0.00 0.00 0.00 0.00 0.00 0.00 0.00 0.00 0.00 0.00 0.00 0.00 0.00 0.00 0.00 0.00 0.00 0.00 0.00 0.00 0.00 0.00 0.00 0.00 0.00 0.00 0.00 0.00 0.00 0.00 0.00 0.00 0.00 0.00 0.00 0.00 0.00 0.00 0.00 0.00
0.00 0.00 0.00 0.00 0.00 0.00 0.00 0.00 0.00 0.00 0.00 0.00 0.00 0.00 0.00 0.00 0.00 0.00 0.00 0.00 0.00 0.00 0.00 0.00 0.00 0.00 0.00 0.00 0.00 0.00 0.00 0.00 0.00 0.00 0.00 0.00 0.00 0.00 0.00 0.00 0.00 0.00 0.00
0.00 0.00 0.00 0.00 0.00 0.00 0.00 0.00 0.00 0.00 0.00 0.00 0.00 0.00 0.00 0.00 0.00 0.00 0.00 0.00 0.00 0.00 0.00 0.00 0.00 0.00 0.00 0.00 0.00 0.00 0.00 0.00 0.00 0.00 0.00 0.00 0.00 0.00 0.00 0.00 0.00 0.00 0.00
0.00 0.00 0.00 0.00 0.00 0.00 0.00 0.00 0.00 0.00 0.00 0.00 0.00 0.00 0.00 0.00 0.00 0.00 0.00 0.00 0.00 0.00 0.00 0.00 0.00 0.00 0.00 0.00 0.00 0.00 0.00 0.00 0.00 0.00 0.00 0.00 0.00 0.00 0.00 0.00 0.00 0.00 0.00
0.00 0.00 0.00 0.00 0.00 0.00 0.00 0.00 0.00 0.00 0.00 0.00 0.00 0.00 0.00 0.00 0.00 0.00 0.00 0.00 0.00 0.00 0.00 0.00 0.00 0.00 0.00 0.00 0.00 0.00 0.00 0.00 0.00 0.00 0.00 0.00 0.00 0.00 0.00 0.00 0.00 0.00 0.00
0.00 0.00 0.00 0.00 0.00 0.00 0.00 0.00 0.00 0.00 0.01 0.01 0.01 0.01 0.00 0.01 0.00 0.00 0.00 0.00 0.00 0.00 0.00 0.00 0.00 0.00 0.00 0.00 0.00 0.00 0.00 0.00 0.00 0.00 0.00 0.00 0.00 0.00 0.00 0.00 0.00 0.00 0.00
0.04 0.03 0.04 0.03 0.01 0.00 0.00 0.00 0.01 0.01 0.02 0.02 0.03 0.04 0.03 0.02 0.00 0.00 0.01 0.00 0.00 0.01 0.00 0.00 0.00 0.00 0.00 0.00 0.00 0.00 0.00 0.00 0.00 0.00 0.00 0.00 0.00 0.00 0.00 0.00 0.00 0.00 0.00
0.04 0.02 0.02 0.02 0.04 0.05 0.06 0.06 0.04 0.02 0.02 0.02 0.02 0.04 0.04 0.04 0.03 0.02 0.03 0.06 0.04 0.02 0.00 0.00 0.00 0.00 0.00 0.00 0.00 0.00 0.00 0.00 0.00 0.00 0.00 0.00 0.00 0.00 0.00 0.00 0.00 0.00 0.00

GFSMW_prec_precacc24_096.txt.gz
Total_Precipitation_Accumulation
0.03 0.09 0.19 0.41 0.52 0.31 0.30 0.33 0.29 0.19 0.10 0.05 0.14 0.15 0.11 0.06 0.05 0.05 0.05 0.02 0.01 0.00 0.00 0.00 0.00 0.01 0.00 0.00 0.00 0.01 0.02 0.02 0.01 0.04 0.01 0.00 0.00 0.00 0.00 0.00 0.00 0.00 0.00
0.00 0.00 0.03 0.29 0.29 0.34 0.36 0.34 0.16 0.33 0.34 0.19 0.18 0.19 0.29 0.37 0.28 0.22 0.17 0.05 0.06 0.03 0.01 0.00 0.00 0.01 0.01 0.01 0.02 0.03 0.03 0.02 0.01 0.02 0.04 0.01 0.00 0.00 0.00 0.00 0.00 0.00 0.00
0.00 0.00 0.00 0.04 0.11 0.20 0.22 0.33 0.62 0.63 0.55 0.53 0.50 0.57 0.63 0.47 0.39 0.16 0.08 0.14 0.26 0.21 0.20 0.21 0.21 0.19 0.12 0.08 0.06 0.03 0.02 0.02 0.01 0.02 0.05 0.04 0.01 0.00 0.00 0.00 0.00 0.00 0.00
0.00 0.00 0.00 0.00 0.02 0.09 0.20 0.25 0.31 0.42 0.49 0.66 0.78 0.66 0.55 0.49 0.39 0.39 0.41 0.40 0.38 0.44 0.40 0.32 0.23 0.13 0.11 0.10 0.05 0.02 0.02 0.02 0.01 0.01 0.01 0.02 0.03 0.05 0.02 0.00 0.00 0.00 0.00
0.00 0.00 0.00 0.00 0.00 0.00 0.01 0.13 0.28 0.41 0.37 0.43 0.52 0.56 0.58 0.38 0.47 0.55 0.51 0.38 0.32 0.31 0.24 0.20 0.15 0.12 0.10 0.09 0.06 0.01 0.01 0.02 0.02 0.02 0.01 0.01 0.01 0.03 0.05 0.03 0.01 0.01 0.00
0.00 0.00 0.00 0.00 0.00 0.00 0.01 0.02 0.04 0.19 0.29 0.28 0.36 0.50 0.54 0.49 0.44 0.45 0.48 0.46 0.36 0.30 0.24 0.17 0.12 0.07 0.03 0.01 0.01 0.00 0.01 0.01 0.02 0.03 0.04 0.04 0.04 0.03 0.03 0.04 0.03 0.02 0.01
0.00 0.00 0.00 0.00 0.00 0.00 0.00 0.00 0.02 0.09 0.20 0.22 0.35 0.42 0.45 0.39 0.40 0.41 0.40 0.43 0.47 0.45 0.35 0.20 0.07 0.02 0.00 0.00 0.00 0.00 0.01 0.01 0.02 0.03 0.03 0.05 0.05 0.04 0.04 0.05 0.04 0.03 0.01
0.00 0.00 0.00 0.00 0.00 0.00 0.00 0.00 0.00 0.00 0.03 0.09 0.13 0.19 0.19 0.19 0.24 0.26 0.26 0.28 0.36 0.44 0.33 0.15 0.05 0.01 0.00 0.00 0.00 0.00 0.00 0.00 0.01 0.02 0.02 0.02 0.02 0.02 0.03 0.04 0.05 0.04 0.02
0.00 0.00 0.00 0.00 0.00 0.00 0.00 0.00 0.00 0.00 0.00 0.01 0.02 0.04 0.08 0.09 0.11 0.10 0.11 0.14 0.14 0.11 0.07 0.05 0.04 0.02 0.00 0.00 0.00 0.00 0.00 0.00 0.00 0.00 0.00 0.00 0.00 0.00 0.00 0.01 0.01 0.03 0.02
0.00 0.00 0.00 0.00 0.00 0.00 0.00 0.00 0.00 0.00 0.00 0.00 0.00 0.00 0.00 0.02 0.04 0.03 0.01 0.01 0.00 0.00 0.00 0.00 0.00 0.00 0.00 0.00 0.00 0.00 0.00 0.00 0.00 0.00 0.00 0.00 0.00 0.00 0.00 0.00 0.00 0.00 0.02
0.00 0.00 0.00 0.00 0.00 0.00 0.00 0.00 0.00 0.00 0.00 0.00 0.00 0.00 0.00 0.00 0.00 0.00 0.00 0.00 0.00 0.00 0.00 0.00 0.00 0.00 0.00 0.00 0.00 0.00 0.00 0.00 0.00 0.00 0.00 0.00 0.00 0.00 0.00 0.00 0.00 0.00 0.00
0.00 0.00 0.00 0.00 0.00 0.00 0.00 0.00 0.00 0.00 0.00 0.00 0.00 0.00 0.00 0.00 0.00 0.00 0.00 0.00 0.00 0.00 0.00 0.00 0.00 0.00 0.00 0.00 0.00 0.00 0.00 0.00 0.00 0.00 0.00 0.00 0.00 0.00 0.00 0.00 0.00 0.00 0.00
0.00 0.00 0.00 0.00 0.00 0.00 0.00 0.00 0.00 0.00 0.00 0.00 0.00 0.00 0.01 0.00 0.00 0.00 0.00 0.00 0.00 0.00 0.00 0.00 0.00 0.00 0.00 0.00 0.00 0.00 0.00 0.00 0.00 0.00 0.00 0.00 0.00 0.00 0.00 0.00 0.00 0.00 0.00
0.00 0.00 0.00 0.00 0.00 0.00 0.00 0.00 0.00 0.00 0.00 0.00 0.00 0.00 0.00 0.00 0.00 0.00 0.00 0.00 0.00 0.00 0.00 0.00 0.00 0.00 0.00 0.00 0.00 0.00 0.00 0.00 0.00 0.00 0.00 0.00 0.00 0.00 0.00 0.00 0.00 0.00 0.00
0.00 0.00 0.00 0.00 0.00 0.00 0.00 0.00 0.00 0.00 0.00 0.00 0.00 0.00 0.00 0.00 0.00 0.00 0.00 0.00 0.00 0.00 0.00 0.00 0.00 0.00 0.00 0.00 0.00 0.00 0.00 0.00 0.00 0.00 0.00 0.00 0.01 0.01 0.00 0.00 0.00 0.00 0.00
0.00 0.00 0.00 0.00 0.00 0.00 0.00 0.00 0.00 0.00 0.00 0.00 0.00 0.00 0.00 0.00 0.00 0.00 0.00 0.00 0.00 0.00 0.00 0.00 0.00 0.00 0.00 0.01 0.01 0.00 0.00 0.00 0.00 0.00 0.00 0.00 0.00 0.00 0.00 0.00 0.00 0.00 0.00
0.00 0.00 0.00 0.00 0.00 0.00 0.00 0.00 0.00 0.00 0.00 0.00 0.00 0.00 0.00 0.00 0.00 0.00 0.00 0.00 0.00 0.00 0.00 0.00 0.00 0.00 0.00 0.01 0.01 0.01 0.00 0.00 0.00 0.00 0.00 0.00 0.00 0.00 0.00 0.00 0.00 0.00 0.00
0.00 0.00 0.00 0.00 0.00 0.00 0.00 0.00 0.00 0.00 0.00 0.00 0.00 0.00 0.00 0.00 0.00 0.00 0.00 0.00 0.00 0.00 0.00 0.00 0.00 0.00 0.00 0.01 0.01 0.01 0.00 0.00 0.00 0.00 0.00 0.00 0.00 0.00 0.00 0.00 0.00 0.00 0.00
0.00 0.00 0.00 0.00 0.00 0.00 0.00 0.00 0.00 0.00 0.00 0.00 0.00 0.00 0.00 0.00 0.00 0.00 0.00 0.00 0.00 0.00 0.00 0.00 0.00 0.00 0.00 0.00 0.00 0.00 0.00 0.00 0.00 0.00 0.00 0.00 0.00 0.00 0.00 0.00 0.00 0.00 0.00
0.00 0.00 0.00 0.00 0.00 0.00 0.00 0.00 0.00 0.00 0.00 0.00 0.00 0.00 0.00 0.00 0.00 0.00 0.00 0.00 0.00 0.00 0.00 0.00 0.00 0.00 0.00 0.00 0.00 0.00 0.00 0.00 0.00 0.00 0.00 0.00 0.00 0.00 0.00 0.00 0.00 0.00 0.00
0.00 0.00 0.00 0.00 0.00 0.00 0.00 0.00 0.00 0.00 0.00 0.00 0.00 0.00 0.00 0.00 0.00 0.00 0.00 0.00 0.00 0.00 0.00 0.00 0.00 0.00 0.00 0.00 0.00 0.00 0.00 0.00 0.00 0.00 0.00 0.00 0.00 0.00 0.00 0.00 0.00 0.00 0.00
0.00 0.00 0.00 0.00 0.00 0.00 0.00 0.00 0.00 0.00 0.00 0.00 0.00 0.00 0.00 0.00 0.00 0.00 0.00 0.00 0.00 0.00 0.00 0.00 0.00 0.00 0.00 0.00 0.00 0.00 0.00 0.00 0.00 0.00 0.00 0.00 0.00 0.00 0.00 0.00 0.00 0.00 0.00
0.00 0.00 0.00 0.00 0.00 0.00 0.00 0.00 0.00 0.00 0.00 0.00 0.00 0.00 0.00 0.00 0.00 0.00 0.00 0.00 0.00 0.00 0.00 0.00 0.00 0.00 0.00 0.00 0.00 0.00 0.00 0.00 0.00 0.00 0.00 0.00 0.00 0.00 0.00 0.00 0.00 0.00 0.00
0.00 0.00 0.00 0.00 0.00 0.00 0.00 0.00 0.00 0.00 0.01 0.01 0.01 0.01 0.01 0.01 0.00 0.00 0.00 0.00 0.00 0.00 0.00 0.00 0.00 0.00 0.00 0.00 0.00 0.00 0.00 0.00 0.00 0.00 0.00 0.00 0.00 0.00 0.00 0.00 0.00 0.00 0.00
0.01 0.00 0.02 0.03 0.01 0.00 0.00 0.00 0.01 0.01 0.02 0.03 0.04 0.05 0.07 0.05 0.02 0.02 0.03 0.02 0.00 0.01 0.00 0.00 0.00 0.00 0.00 0.00 0.00 0.00 0.00 0.00 0.00 0.00 0.00 0.00 0.00 0.00 0.00 0.00 0.00 0.00 0.00
0.06 0.04 0.03 0.03 0.06 0.07 0.06 0.06 0.04 0.02 0.02 0.03 0.05 0.09 0.10 0.15 0.18 0.17 0.15 0.12 0.06 0.02 0.00 0.00 0.00 0.00 0.00 0.00 0.00 0.00 0.00 0.00 0.00 0.00 0.00 0.00 0.00 0.00 0.00 0.00 0.00 0.00 0.00

GFSMW_prec_precacc24_099.txt.gz
Total_Precipitation_Accumulation
0.11 0.39 0.54 0.81 0.86 0.47 0.44 0.38 0.30 0.20 0.10 0.05 0.16 0.20 0.16 0.10 0.11 0.09 0.08 0.02 0.01 0.01 0.00 0.00 0.00 0.01 0.00 0.00 0.00 0.01 0.02 0.02 0.01 0.04 0.01 0.00 0.00 0.00 0.00 0.00 0.00 0.00 0.00
0.08 0.11 0.14 0.54 0.61 0.56 0.53 0.46 0.25 0.36 0.35 0.20 0.18 0.22 0.37 0.41 0.29 0.23 0.19 0.13 0.11 0.04 0.02 0.02 0.01 0.01 0.01 0.01 0.02 0.03 0.03 0.02 0.01 0.02 0.04 0.01 0.00 0.00 0.00 0.00 0.00 0.00 0.00
0.03 0.05 0.04 0.13 0.30 0.46 0.34 0.41 0.72 0.69 0.56 0.54 0.52 0.58 0.70 0.57 0.44 0.20 0.17 0.32 0.48 0.39 0.34 0.32 0.30 0.22 0.17 0.15 0.13 0.11 0.06 0.03 0.01 0.02 0.05 0.04 0.01 0.00 0.00 0.00 0.00 0.00 0.00
0.02 0.02 0.03 0.05 0.11 0.21 0.41 0.38 0.56 0.57 0.67 0.90 0.90 0.72 0.68 0.65 0.46 0.40 0.46 0.56 0.56 0.66 0.65 0.57 0.47 0.35 0.33 0.26 0.19 0.11 0.05 0.05 0.02 0.01 0.01 0.02 0.03 0.05 0.02 0.00 0.00 0.00 0.00
0.00 0.00 0.01 0.01 0.03 0.03 0.06 0.29 0.46 0.58 0.51 0.60 0.71 0.70 0.77 0.55 0.65 0.75 0.68 0.55 0.54 0.59 0.62 0.68 0.54 0.58 0.42 0.25 0.14 0.10 0.07 0.04 0.02 0.02 0.01 0.01 0.01 0.03 0.05 0.02 0.01 0.01 0.00
0.00 0.00 0.00 0.00 0.00 0.00 0.01 0.04 0.09 0.25 0.35 0.35 0.43 0.60 0.75 0.70 0.66 0.65 0.64 0.59 0.57 0.56 0.52 0.54 0.61 0.52 0.42 0.23 0.08 0.02 0.00 0.01 0.02 0.02 0.03 0.04 0.04 0.02 0.02 0.04 0.03 0.02 0.01
0.00 0.00 0.00 0.00 0.00 0.00 0.00 0.00 0.02 0.09 0.20 0.24 0.36 0.44 0.51 0.46 0.48 0.48 0.51 0.52 0.57 0.60 0.66 0.69 0.64 0.46 0.24 0.12 0.01 0.00 0.00 0.00 0.01 0.02 0.03 0.04 0.05 0.04 0.04 0.05 0.04 0.03 0.01
0.00 0.00 0.00 0.00 0.00 0.00 0.00 0.00 0.00 0.00 0.03 0.09 0.14 0.21 0.21 0.21 0.25 0.28 0.29 0.31 0.40 0.50 0.53 0.45 0.35 0.20 0.13 0.08 0.05 0.05 0.02 0.01 0.00 0.01 0.01 0.02 0.01 0.02 0.03 0.04 0.04 0.04 0.02
0.00 0.00 0.00 0.00 0.00 0.00 0.00 0.00 0.00 0.00 0.00 0.01 0.02 0.04 0.08 0.09 0.11 0.10 0.11 0.14 0.15 0.15 0.11 0.08 0.07 0.06 0.04 0.02 0.01 0.00 0.00 0.00 0.00 0.00 0.00 0.00 0.00 0.00 0.00 0.01 0.01 0.03 0.02
0.00 0.00 0.00 0.00 0.00 0.00 0.00 0.00 0.00 0.00 0.00 0.00 0.00 0.00 0.00 0.02 0.04 0.03 0.01 0.01 0.00 0.00 0.00 0.00 0.00 0.00 0.00 0.00 0.00 0.00 0.00 0.00 0.00 0.00 0.00 0.00 0.00 0.00 0.00 0.00 0.00 0.00 0.01
0.00 0.00 0.00 0.00 0.00 0.00 0.00 0.00 0.00 0.00 0.00 0.00 0.00 0.00 0.00 0.00 0.00 0.00 0.00 0.00 0.00 0.00 0.00 0.00 0.00 0.00 0.00 0.00 0.00 0.00 0.00 0.00 0.00 0.00 0.00 0.00 0.00 0.00 0.00 0.00 0.00 0.00 0.00
0.00 0.00 0.00 0.00 0.00 0.00 0.00 0.00 0.00 0.00 0.00 0.00 0.00 0.00 0.00 0.00 0.00 0.00 0.00 0.00 0.00 0.00 0.00 0.00 0.00 0.00 0.00 0.00 0.00 0.00 0.00 0.00 0.00 0.00 0.00 0.00 0.00 0.00 0.00 0.00 0.00 0.00 0.00
0.00 0.00 0.00 0.00 0.00 0.00 0.00 0.00 0.00 0.00 0.00 0.00 0.00 0.00 0.01 0.00 0.00 0.00 0.00 0.00 0.00 0.00 0.00 0.00 0.00 0.00 0.00 0.00 0.00 0.00 0.00 0.00 0.00 0.00 0.00 0.00 0.00 0.00 0.00 0.00 0.00 0.00 0.00
0.00 0.00 0.00 0.00 0.00 0.00 0.00 0.00 0.00 0.00 0.00 0.00 0.00 0.00 0.00 0.00 0.00 0.00 0.00 0.00 0.00 0.00 0.00 0.00 0.00 0.00 0.00 0.00 0.00 0.00 0.00 0.00 0.00 0.00 0.00 0.00 0.00 0.00 0.00 0.00 0.00 0.00 0.00
0.00 0.00 0.00 0.00 0.00 0.00 0.00 0.00 0.00 0.00 0.00 0.00 0.00 0.00 0.00 0.00 0.00 0.00 0.00 0.00 0.00 0.00 0.00 0.00 0.00 0.00 0.00 0.00 0.00 0.00 0.00 0.00 0.00 0.00 0.00 0.00 0.01 0.01 0.00 0.00 0.00 0.00 0.00
0.00 0.00 0.00 0.00 0.00 0.00 0.00 0.00 0.00 0.00 0.00 0.00 0.00 0.00 0.00 0.00 0.00 0.00 0.00 0.00 0.00 0.00 0.00 0.00 0.00 0.00 0.00 0.01 0.01 0.00 0.00 0.00 0.00 0.00 0.00 0.00 0.00 0.00 0.00 0.00 0.00 0.00 0.00
0.00 0.00 0.00 0.00 0.00 0.00 0.00 0.00 0.00 0.00 0.00 0.00 0.00 0.00 0.00 0.00 0.00 0.00 0.00 0.00 0.00 0.00 0.00 0.00 0.00 0.00 0.00 0.01 0.01 0.01 0.00 0.00 0.00 0.00 0.00 0.00 0.00 0.00 0.00 0.00 0.00 0.00 0.00
0.00 0.00 0.00 0.00 0.00 0.00 0.00 0.00 0.00 0.00 0.00 0.00 0.00 0.00 0.00 0.00 0.00 0.00 0.00 0.00 0.00 0.00 0.00 0.00 0.00 0.00 0.00 0.01 0.01 0.01 0.00 0.00 0.00 0.00 0.00 0.00 0.00 0.00 0.00 0.00 0.00 0.00 0.00
0.00 0.00 0.00 0.00 0.00 0.00 0.00 0.00 0.00 0.00 0.00 0.00 0.00 0.00 0.00 0.00 0.00 0.00 0.00 0.00 0.00 0.00 0.00 0.00 0.00 0.00 0.00 0.00 0.00 0.00 0.00 0.00 0.00 0.00 0.00 0.00 0.00 0.00 0.00 0.00 0.00 0.00 0.00
0.00 0.00 0.00 0.00 0.00 0.00 0.00 0.00 0.00 0.00 0.00 0.00 0.00 0.00 0.00 0.00 0.00 0.00 0.00 0.00 0.00 0.00 0.00 0.00 0.00 0.00 0.00 0.00 0.00 0.00 0.00 0.00 0.00 0.00 0.00 0.00 0.00 0.00 0.00 0.00 0.00 0.00 0.00
0.00 0.00 0.00 0.00 0.00 0.00 0.00 0.00 0.00 0.00 0.00 0.00 0.00 0.00 0.00 0.00 0.00 0.00 0.00 0.00 0.00 0.00 0.00 0.00 0.00 0.00 0.00 0.00 0.00 0.00 0.00 0.00 0.00 0.00 0.00 0.00 0.00 0.00 0.00 0.00 0.00 0.00 0.00
0.00 0.00 0.00 0.00 0.00 0.00 0.00 0.00 0.00 0.00 0.00 0.00 0.00 0.00 0.00 0.00 0.00 0.00 0.00 0.00 0.00 0.00 0.00 0.00 0.00 0.00 0.00 0.00 0.00 0.00 0.00 0.00 0.00 0.00 0.00 0.00 0.00 0.00 0.00 0.00 0.00 0.00 0.00
0.00 0.00 0.00 0.00 0.00 0.00 0.00 0.00 0.00 0.00 0.00 0.00 0.00 0.00 0.00 0.00 0.00 0.00 0.00 0.00 0.00 0.00 0.00 0.00 0.00 0.00 0.00 0.00 0.00 0.00 0.00 0.00 0.00 0.00 0.00 0.00 0.00 0.00 0.00 0.00 0.00 0.00 0.00
0.00 0.00 0.00 0.00 0.00 0.00 0.00 0.00 0.00 0.00 0.01 0.01 0.01 0.01 0.01 0.01 0.00 0.00 0.00 0.00 0.00 0.00 0.00 0.00 0.00 0.00 0.00 0.00 0.00 0.00 0.00 0.00 0.00 0.00 0.00 0.00 0.00 0.00 0.00 0.00 0.00 0.00 0.00
0.00 0.00 0.01 0.01 0.00 0.00 0.00 0.00 0.01 0.01 0.02 0.03 0.04 0.05 0.07 0.07 0.04 0.02 0.03 0.02 0.01 0.02 0.01 0.00 0.00 0.00 0.00 0.00 0.00 0.00 0.00 0.00 0.00 0.00 0.00 0.00 0.00 0.00 0.00 0.00 0.00 0.00 0.00
0.07 0.06 0.05 0.05 0.05 0.04 0.06 0.06 0.04 0.02 0.02 0.04 0.05 0.09 0.10 0.15 0.22 0.26 0.20 0.19 0.13 0.08 0.04 0.03 0.01 0.00 0.00 0.00 0.00 0.00 0.00 0.00 0.00 0.00 0.00 0.00 0.00 0.00 0.00 0.00 0.00 0.00 0.00

GFSMW_prec_precacc24_102.txt.gz
Total_Precipitation_Accumulation
0.32 0.83 1.22 1.56 1.20 0.58 0.45 0.41 0.33 0.21 0.11 0.05 0.16 0.20 0.16 0.10 0.12 0.12 0.14 0.07 0.07 0.03 0.00 0.00 0.00 0.00 0.00 0.00 0.00 0.01 0.02 0.02 0.02 0.05 0.01 0.00 0.00 0.00 0.00 0.00 0.00 0.00 0.00
0.37 0.25 0.51 1.29 1.62 1.01 0.63 0.53 0.31 0.40 0.35 0.20 0.18 0.23 0.38 0.41 0.29 0.23 0.21 0.20 0.21 0.15 0.08 0.04 0.04 0.02 0.01 0.01 0.02 0.03 0.05 0.03 0.01 0.02 0.03 0.01 0.00 0.00 0.00 0.00 0.00 0.00 0.00
0.25 0.20 0.13 0.33 0.68 0.90 0.60 0.54 0.84 0.80 0.59 0.55 0.57 0.64 0.75 0.61 0.45 0.20 0.18 0.38 0.62 0.57 0.52 0.50 0.43 0.28 0.17 0.16 0.17 0.20 0.19 0.09 0.04 0.02 0.05 0.03 0.00 0.00 0.00 0.00 0.00 0.00 0.00
0.07 0.20 0.22 0.25 0.27 0.35 0.55 0.48 0.61 0.65 0.81 0.98 1.04 0.92 0.78 0.71 0.49 0.41 0.47 0.60 0.64 0.78 0.80 0.74 0.62 0.50 0.42 0.37 0.28 0.23 0.15 0.11 0.11 0.06 0.01 0.02 0.03 0.05 0.02 0.00 0.00 0.00 0.00
0.03 0.06 0.13 0.18 0.28 0.21 0.12 0.31 0.50 0.60 0.63 0.91 0.92 0.89 0.96 0.67 0.70 0.77 0.69 0.56 0.55 0.61 0.66 0.87 0.93 0.99 1.20 1.33 0.87 0.35 0.15 0.10 0.07 0.04 0.01 0.01 0.01 0.03 0.05 0.02 0.01 0.01 0.00
0.01 0.01 0.00 0.00 0.02 0.11 0.16 0.15 0.16 0.31 0.50 0.55 0.62 0.71 0.90 0.93 0.86 0.77 0.71 0.64 0.63 0.62 0.57 0.63 0.86 1.04 1.09 0.96 0.81 0.45 0.16 0.05 0.02 0.01 0.02 0.03 0.03 0.02 0.02 0.04 0.02 0.02 0.01
0.00 0.00 0.00 0.00 0.00 0.00 0.01 0.02 0.05 0.12 0.23 0.26 0.46 0.50 0.65 0.66 0.60 0.55 0.59 0.61 0.64 0.66 0.73 0.74 0.69 0.63 0.42 0.27 0.20 0.14 0.09 0.03 0.02 0.02 0.02 0.04 0.04 0.03 0.03 0.04 0.03 0.03 0.01
0.00 0.00 0.00 0.00 0.00 0.00 0.00 0.00 0.00 0.00 0.03 0.09 0.16 0.26 0.25 0.25 0.26 0.29 0.31 0.35 0.44 0.54 0.56 0.49 0.42 0.29 0.19 0.15 0.11 0.09 0.07 0.05 0.01 0.00 0.00 0.01 0.01 0.01 0.02 0.03 0.04 0.04 0.02
0.00 0.00 0.00 0.00 0.00 0.00 0.00 0.00 0.00 0.00 0.00 0.01 0.02 0.04 0.10 0.10 0.11 0.10 0.12 0.15 0.16 0.16 0.12 0.09 0.10 0.08 0.05 0.02 0.01 0.00 0.00 0.00 0.00 0.00 0.00 0.00 0.00 0.00 0.00 0.01 0.01 0.03 0.02
0.00 0.00 0.00 0.00 0.00 0.00 0.00 0.00 0.00 0.00 0.00 0.00 0.00 0.00 0.00 0.02 0.04 0.03 0.01 0.01 0.00 0.00 0.00 0.01 0.01 0.00 0.00 0.00 0.00 0.00 0.00 0.00 0.00 0.00 0.00 0.00 0.00 0.00 0.00 0.00 0.00 0.00 0.02
0.00 0.00 0.00 0.00 0.00 0.00 0.00 0.00 0.00 0.00 0.00 0.00 0.00 0.00 0.00 0.00 0.00 0.00 0.00 0.00 0.00 0.00 0.00 0.00 0.00 0.00 0.00 0.00 0.00 0.00 0.00 0.00 0.00 0.00 0.00 0.00 0.00 0.00 0.00 0.00 0.00 0.00 0.00
0.00 0.00 0.00 0.00 0.00 0.00 0.00 0.00 0.00 0.00 0.00 0.00 0.00 0.00 0.00 0.00 0.00 0.00 0.00 0.00 0.01 0.01 0.00 0.00 0.00 0.00 0.00 0.00 0.00 0.00 0.00 0.00 0.00 0.00 0.00 0.00 0.00 0.00 0.00 0.00 0.00 0.00 0.00
0.00 0.00 0.00 0.00 0.00 0.00 0.00 0.00 0.00 0.00 0.00 0.00 0.00 0.00 0.01 0.00 0.00 0.00 0.00 0.00 0.00 0.00 0.00 0.00 0.00 0.00 0.00 0.00 0.00 0.00 0.00 0.00 0.00 0.00 0.00 0.00 0.00 0.00 0.00 0.00 0.00 0.00 0.00
0.00 0.00 0.00 0.00 0.00 0.00 0.00 0.00 0.00 0.00 0.00 0.00 0.00 0.00 0.00 0.00 0.00 0.00 0.00 0.00 0.00 0.00 0.00 0.00 0.00 0.00 0.00 0.00 0.00 0.00 0.00 0.00 0.00 0.00 0.00 0.00 0.00 0.00 0.00 0.00 0.00 0.00 0.00
0.00 0.00 0.00 0.00 0.00 0.00 0.00 0.00 0.00 0.00 0.00 0.00 0.00 0.00 0.00 0.00 0.00 0.00 0.00 0.00 0.00 0.00 0.00 0.00 0.00 0.00 0.00 0.00 0.00 0.00 0.00 0.00 0.00 0.00 0.00 0.00 0.01 0.01 0.00 0.00 0.00 0.00 0.00
0.00 0.00 0.00 0.00 0.00 0.00 0.00 0.00 0.00 0.00 0.00 0.00 0.00 0.00 0.00 0.00 0.00 0.00 0.00 0.00 0.00 0.00 0.00 0.00 0.00 0.00 0.00 0.01 0.01 0.00 0.00 0.00 0.00 0.00 0.00 0.00 0.00 0.00 0.00 0.00 0.00 0.00 0.00
0.00 0.00 0.00 0.00 0.00 0.00 0.00 0.00 0.00 0.00 0.00 0.00 0.00 0.00 0.00 0.00 0.00 0.00 0.00 0.00 0.00 0.00 0.00 0.00 0.00 0.00 0.00 0.01 0.01 0.01 0.00 0.00 0.00 0.00 0.00 0.00 0.00 0.00 0.00 0.00 0.00 0.00 0.00
0.00 0.00 0.00 0.00 0.00 0.00 0.00 0.00 0.00 0.00 0.00 0.00 0.00 0.00 0.00 0.00 0.00 0.00 0.00 0.00 0.00 0.00 0.00 0.00 0.00 0.00 0.00 0.01 0.01 0.01 0.00 0.00 0.00 0.00 0.00 0.00 0.00 0.00 0.00 0.00 0.00 0.00 0.00
0.00 0.00 0.00 0.00 0.00 0.00 0.00 0.00 0.00 0.00 0.00 0.00 0.00 0.00 0.00 0.00 0.00 0.00 0.00 0.00 0.00 0.00 0.00 0.00 0.00 0.00 0.00 0.00 0.00 0.00 0.00 0.00 0.00 0.00 0.00 0.00 0.00 0.00 0.00 0.00 0.00 0.00 0.00
0.00 0.00 0.00 0.00 0.00 0.00 0.00 0.00 0.00 0.00 0.00 0.00 0.00 0.00 0.00 0.00 0.00 0.00 0.00 0.00 0.00 0.00 0.00 0.00 0.00 0.00 0.00 0.00 0.00 0.00 0.00 0.00 0.00 0.00 0.00 0.00 0.00 0.00 0.00 0.00 0.00 0.00 0.00
0.00 0.00 0.00 0.00 0.00 0.00 0.00 0.00 0.00 0.00 0.00 0.00 0.00 0.00 0.00 0.00 0.00 0.00 0.00 0.00 0.00 0.00 0.00 0.00 0.00 0.00 0.00 0.00 0.00 0.00 0.00 0.00 0.00 0.00 0.00 0.00 0.00 0.00 0.00 0.00 0.00 0.00 0.00
0.00 0.00 0.00 0.00 0.00 0.00 0.00 0.00 0.00 0.00 0.00 0.00 0.00 0.00 0.00 0.00 0.00 0.00 0.00 0.00 0.00 0.00 0.00 0.00 0.00 0.00 0.00 0.00 0.00 0.00 0.00 0.00 0.00 0.00 0.00 0.00 0.00 0.00 0.00 0.00 0.00 0.00 0.00
0.00 0.00 0.00 0.00 0.00 0.00 0.00 0.00 0.00 0.00 0.00 0.00 0.00 0.00 0.00 0.00 0.00 0.00 0.00 0.00 0.00 0.00 0.00 0.00 0.00 0.00 0.00 0.00 0.00 0.00 0.00 0.00 0.00 0.00 0.00 0.00 0.00 0.00 0.00 0.00 0.00 0.00 0.00
0.00 0.00 0.00 0.00 0.00 0.00 0.00 0.00 0.00 0.00 0.01 0.01 0.01 0.01 0.01 0.01 0.00 0.00 0.00 0.00 0.00 0.00 0.00 0.00 0.00 0.00 0.00 0.00 0.00 0.00 0.00 0.00 0.00 0.00 0.00 0.00 0.00 0.00 0.00 0.00 0.00 0.00 0.00
0.00 0.00 0.01 0.01 0.01 0.00 0.01 0.00 0.00 0.01 0.02 0.03 0.04 0.06 0.07 0.07 0.04 0.02 0.03 0.02 0.01 0.02 0.01 0.00 0.00 0.00 0.00 0.00 0.00 0.00 0.00 0.00 0.00 0.00 0.00 0.00 0.00 0.00 0.00 0.00 0.00 0.00 0.00
0.07 0.06 0.06 0.06 0.08 0.09 0.05 0.02 0.01 0.02 0.02 0.04 0.05 0.10 0.11 0.16 0.23 0.30 0.27 0.20 0.14 0.10 0.07 0.06 0.03 0.02 0.01 0.00 0.00 0.00 0.00 0.00 0.00 0.00 0.00 0.00 0.00 0.00 0.00 0.00 0.00 0.00 0.00

GFSMW_prec_precacc24_108.txt.gz
Total_Precipitation_Accumulation
0.39 1.12 1.61 2.02 1.51 0.81 0.73 0.75 0.92 0.65 0.40 0.31 0.19 0.18 0.15 0.10 0.12 0.12 0.13 0.07 0.07 0.03 0.00 0.01 0.02 0.02 0.00 0.00 0.00 0.00 0.00 0.02 0.01 0.04 0.01 0.00 0.00 0.00 0.00 0.00 0.00 0.00 0.00
0.55 0.83 1.06 2.05 2.69 1.66 0.96 0.93 0.78 0.58 0.46 0.43 0.45 0.35 0.40 0.45 0.29 0.23 0.20 0.20 0.21 0.15 0.08 0.05 0.12 0.12 0.10 0.07 0.02 0.01 0.05 0.07 0.04 0.03 0.05 0.01 0.00 0.00 0.00 0.00 0.00 0.00 0.00
0.45 0.86 0.77 0.95 1.35 2.05 1.29 1.01 1.35 1.01 0.57 0.62 0.70 0.82 1.03 0.88 0.62 0.29 0.22 0.42 0.63 0.57 0.54 0.59 0.58 0.44 0.38 0.36 0.33 0.31 0.30 0.20 0.19 0.21 0.13 0.03 0.00 0.00 0.00 0.00 0.00 0.00 0.00
0.27 0.62 0.89 0.74 0.70 0.86 1.28 0.94 1.14 1.00 1.01 1.04 1.10 1.08 1.06 0.93 0.75 0.79 0.80 0.98 1.00 1.05 1.06 0.97 0.78 0.62 0.53 0.54 0.58 0.59 0.48 0.42 0.38 0.27 0.10 0.06 0.04 0.03 0.01 0.00 0.00 0.00 0.00
0.23 0.25 0.47 0.73 0.75 0.57 1.14 1.16 1.10 0.96 0.95 1.07 1.04 1.06 1.19 0.84 0.81 0.90 0.80 0.65 0.64 0.72 0.77 0.98 1.10 1.17 1.34 1.52 1.35 1.15 0.90 0.64 0.47 0.33 0.20 0.12 0.08 0.05 0.06 0.03 0.00 0.00 0.00
0.16 0.13 0.15 0.18 0.25 0.37 0.63 0.96 0.63 0.54 0.65 0.80 0.79 0.86 1.09 1.16 1.04 0.93 0.84 0.71 0.67 0.64 0.59 0.65 0.94 1.18 1.22 1.07 0.96 0.75 0.54 0.44 0.30 0.18 0.18 0.14 0.07 0.04 0.02 0.02 0.01 0.00 0.01
0.06 0.05 0.02 0.00 0.01 0.05 0.19 0.33 0.31 0.32 0.39 0.53 0.72 0.61 0.79 0.89 0.87 0.86 0.93 0.83 0.75 0.73 0.80 0.82 0.74 0.71 0.55 0.39 0.33 0.28 0.23 0.14 0.06 0.02 0.01 0.01 0.01 0.00 0.01 0.03 0.02 0.02 0.01
0.06 0.03 0.00 0.00 0.00 0.00 0.05 0.12 0.16 0.15 0.13 0.20 0.42 0.49 0.47 0.48 0.45 0.55 0.56 0.64 0.70 0.75 0.69 0.64 0.61 0.44 0.30 0.29 0.26 0.22 0.15 0.06 0.01 0.00 0.00 0.00 0.00 0.00 0.01 0.02 0.03 0.03 0.02
0.03 0.00 0.00 0.00 0.00 0.00 0.00 0.00 0.02 0.05 0.06 0.08 0.15 0.12 0.24 0.22 0.23 0.32 0.34 0.36 0.31 0.35 0.31 0.27 0.28 0.20 0.14 0.07 0.06 0.04 0.01 0.00 0.00 0.00 0.00 0.00 0.00 0.00 0.00 0.01 0.01 0.03 0.02
0.00 0.00 0.00 0.00 0.00 0.00 0.00 0.00 0.00 0.00 0.00 0.00 0.00 0.01 0.07 0.07 0.10 0.14 0.11 0.10 0.05 0.05 0.07 0.07 0.08 0.07 0.04 0.01 0.01 0.00 0.00 0.00 0.00 0.00 0.00 0.00 0.00 0.00 0.00 0.00 0.00 0.00 0.02
0.00 0.00 0.00 0.00 0.00 0.00 0.00 0.00 0.00 0.00 0.00 0.00 0.00 0.00 0.00 0.00 0.00 0.01 0.04 0.03 0.02 0.03 0.03 0.02 0.01 0.00 0.00 0.00 0.00 0.00 0.00 0.00 0.00 0.00 0.00 0.00 0.00 0.00 0.00 0.00 0.00 0.00 0.01
0.00 0.00 0.00 0.00 0.00 0.00 0.00 0.00 0.00 0.00 0.00 0.00 0.00 0.00 0.00 0.00 0.00 0.00 0.01 0.01 0.01 0.02 0.02 0.02 0.01 0.01 0.01 0.00 0.00 0.00 0.00 0.00 0.00 0.00 0.00 0.00 0.00 0.00 0.00 0.00 0.00 0.00 0.00
0.00 0.00 0.00 0.00 0.00 0.00 0.00 0.00 0.00 0.00 0.00 0.00 0.00 0.00 0.01 0.00 0.00 0.00 0.00 0.00 0.00 0.01 0.00 0.01 0.02 0.01 0.01 0.01 0.01 0.00 0.00 0.00 0.00 0.00 0.00 0.00 0.00 0.00 0.00 0.00 0.00 0.00 0.00
0.00 0.00 0.00 0.00 0.00 0.00 0.00 0.00 0.00 0.00 0.00 0.00 0.00 0.00 0.00 0.00 0.00 0.00 0.00 0.00 0.00 0.01 0.01 0.01 0.01 0.02 0.02 0.02 0.01 0.00 0.00 0.00 0.00 0.00 0.00 0.00 0.00 0.00 0.00 0.00 0.00 0.00 0.00
0.00 0.00 0.00 0.00 0.00 0.00 0.00 0.00 0.00 0.00 0.00 0.00 0.00 0.00 0.00 0.00 0.00 0.00 0.00 0.00 0.00 0.01 0.01 0.02 0.02 0.03 0.03 0.03 0.01 0.00 0.00 0.00 0.00 0.00 0.00 0.00 0.01 0.01 0.00 0.00 0.00 0.00 0.00
0.00 0.00 0.00 0.00 0.00 0.00 0.00 0.00 0.00 0.00 0.00 0.00 0.00 0.00 0.00 0.00 0.00 0.00 0.00 0.00 0.00 0.00 0.00 0.01 0.01 0.02 0.03 0.04 0.01 0.00 0.00 0.00 0.00 0.00 0.00 0.00 0.00 0.00 0.00 0.00 0.00 0.00 0.00
0.00 0.00 0.00 0.00 0.00 0.00 0.00 0.00 0.00 0.00 0.00 0.00 0.00 0.00 0.00 0.00 0.00 0.00 0.00 0.00 0.00 0.00 0.00 0.00 0.00 0.00 0.01 0.03 0.02 0.01 0.00 0.00 0.00 0.00 0.00 0.00 0.00 0.00 0.00 0.00 0.00 0.00 0.00
0.00 0.00 0.00 0.00 0.00 0.00 0.00 0.00 0.00 0.00 0.00 0.00 0.00 0.00 0.00 0.00 0.00 0.00 0.00 0.00 0.00 0.00 0.00 0.00 0.00 0.00 0.00 0.01 0.01 0.01 0.00 0.00 0.00 0.00 0.00 0.00 0.00 0.00 0.00 0.00 0.00 0.00 0.00
0.00 0.00 0.00 0.00 0.00 0.00 0.00 0.00 0.00 0.00 0.00 0.00 0.00 0.00 0.00 0.00 0.00 0.00 0.00 0.00 0.00 0.00 0.00 0.00 0.00 0.00 0.00 0.00 0.00 0.00 0.00 0.00 0.00 0.00 0.00 0.00 0.00 0.00 0.00 0.00 0.00 0.00 0.00
0.00 0.00 0.00 0.00 0.00 0.00 0.00 0.00 0.00 0.00 0.00 0.00 0.00 0.00 0.00 0.00 0.00 0.00 0.00 0.00 0.00 0.00 0.00 0.00 0.00 0.00 0.00 0.00 0.00 0.00 0.00 0.00 0.00 0.00 0.00 0.00 0.00 0.00 0.00 0.00 0.00 0.00 0.00
0.00 0.00 0.00 0.00 0.00 0.00 0.00 0.00 0.00 0.00 0.00 0.00 0.00 0.00 0.00 0.00 0.00 0.00 0.00 0.00 0.00 0.00 0.00 0.00 0.00 0.00 0.00 0.00 0.00 0.00 0.00 0.00 0.00 0.00 0.00 0.00 0.00 0.00 0.00 0.00 0.00 0.00 0.00
0.00 0.00 0.00 0.00 0.00 0.00 0.00 0.00 0.00 0.00 0.00 0.00 0.00 0.00 0.00 0.00 0.00 0.00 0.00 0.00 0.00 0.00 0.00 0.00 0.00 0.00 0.00 0.00 0.00 0.01 0.00 0.00 0.00 0.00 0.00 0.00 0.00 0.00 0.00 0.00 0.00 0.00 0.00
0.00 0.00 0.00 0.00 0.00 0.00 0.00 0.01 0.00 0.00 0.00 0.01 0.01 0.01 0.00 0.00 0.00 0.00 0.00 0.00 0.00 0.00 0.00 0.00 0.00 0.00 0.00 0.00 0.00 0.00 0.01 0.00 0.00 0.00 0.00 0.00 0.00 0.00 0.00 0.00 0.00 0.00 0.00
0.00 0.00 0.00 0.00 0.01 0.01 0.00 0.00 0.00 0.00 0.01 0.01 0.01 0.01 0.01 0.03 0.01 0.01 0.01 0.01 0.01 0.01 0.01 0.00 0.00 0.00 0.00 0.00 0.00 0.00 0.00 0.00 0.00 0.00 0.00 0.00 0.00 0.00 0.00 0.00 0.00 0.00 0.00
0.00 0.00 0.01 0.01 0.01 0.00 0.01 0.00 0.00 0.01 0.03 0.05 0.06 0.08 0.10 0.10 0.07 0.04 0.05 0.04 0.02 0.04 0.03 0.02 0.01 0.00 0.00 0.00 0.00 0.01 0.01 0.00 0.00 0.00 0.00 0.00 0.00 0.00 0.00 0.00 0.00 0.00 0.00
0.06 0.06 0.06 0.06 0.08 0.09 0.05 0.02 0.03 0.05 0.07 0.07 0.07 0.13 0.16 0.22 0.29 0.36 0.31 0.26 0.18 0.16 0.11 0.12 0.09 0.06 0.05 0.05 0.06 0.07 0.06 0.04 0.02 0.00 0.00 0.00 0.00 0.00 0.00 0.00 0.00 0.00 0.00

GFSMW_prec_precacc24_111.txt.gz
Total_Precipitation_Accumulation
0.39 1.12 1.61 2.00 1.49 0.78 0.75 0.77 1.05 1.24 0.92 0.75 0.59 0.45 0.26 0.18 0.14 0.12 0.12 0.07 0.07 0.03 0.00 0.01 0.02 0.02 0.00 0.00 0.00 0.00 0.00 0.02 0.01 0.03 0.00 0.00 0.00 0.00 0.00 0.00 0.00 0.00 0.00
0.55 0.84 1.07 2.09 2.75 1.71 1.00 0.99 0.87 0.59 0.78 0.70 0.60 0.47 0.44 0.47 0.32 0.19 0.17 0.22 0.21 0.15 0.08 0.05 0.12 0.12 0.10 0.07 0.02 0.01 0.05 0.07 0.04 0.03 0.04 0.01 0.00 0.00 0.00 0.00 0.00 0.00 0.00
0.46 0.87 0.80 1.00 1.39 2.17 1.58 1.27 1.70 0.97 0.63 0.61 0.73 0.78 1.09 0.93 0.63 0.29 0.24 0.46 0.64 0.57 0.54 0.59 0.59 0.46 0.40 0.39 0.35 0.32 0.32 0.21 0.21 0.27 0.20 0.04 0.00 0.00 0.00 0.00 0.00 0.00 0.00
0.32 0.66 0.94 0.78 0.76 0.95 1.45 1.17 1.59 1.28 1.06 1.16 1.07 1.01 1.03 0.97 0.88 0.92 0.80 0.98 1.09 1.14 1.19 1.17 1.01 0.86 0.72 0.70 0.70 0.71 0.61 0.50 0.46 0.39 0.23 0.15 0.06 0.02 0.00 0.00 0.00 0.00 0.00
0.30 0.32 0.56 0.80 0.81 0.63 1.22 1.31 1.34 1.25 0.98 1.15 1.05 1.13 1.23 0.92 0.88 0.98 0.88 0.74 0.69 0.78 0.83 1.08 1.21 1.30 1.49 1.58 1.38 1.18 0.90 0.64 0.48 0.36 0.30 0.27 0.25 0.15 0.07 0.03 0.00 0.00 0.00
0.27 0.23 0.21 0.27 0.31 0.41 0.71 1.23 0.91 0.91 0.76 0.93 0.84 0.90 1.14 1.25 1.11 1.00 0.92 0.80 0.81 0.74 0.65 0.68 0.95 1.21 1.28 1.11 0.96 0.75 0.54 0.44 0.30 0.20 0.21 0.24 0.18 0.09 0.02 0.01 0.00 0.00 0.00
0.27 0.16 0.12 0.10 0.10 0.11 0.30 0.70 0.65 0.63 0.54 0.68 0.85 0.65 0.86 0.99 0.97 0.94 1.04 0.95 0.88 0.92 0.94 0.93 0.82 0.74 0.57 0.42 0.34 0.28 0.23 0.15 0.07 0.03 0.01 0.02 0.03 0.03 0.01 0.02 0.01 0.02 0.00
0.22 0.23 0.18 0.07 0.03 0.04 0.15 0.24 0.25 0.29 0.26 0.25 0.48 0.54 0.50 0.56 0.53 0.60 0.60 0.68 0.75 0.80 0.78 0.75 0.66 0.46 0.31 0.31 0.27 0.24 0.19 0.13 0.06 0.04 0.03 0.00 0.00 0.00 0.01 0.03 0.03 0.02 0.02
0.15 0.11 0.05 0.00 0.00 0.00 0.01 0.02 0.05 0.08 0.08 0.11 0.17 0.16 0.28 0.25 0.27 0.39 0.42 0.43 0.37 0.38 0.36 0.31 0.31 0.25 0.19 0.12 0.12 0.11 0.08 0.06 0.03 0.02 0.01 0.00 0.00 0.00 0.00 0.00 0.01 0.02 0.02
0.03 0.01 0.00 0.00 0.00 0.00 0.00 0.00 0.00 0.01 0.01 0.01 0.01 0.03 0.12 0.18 0.26 0.30 0.22 0.19 0.13 0.11 0.13 0.14 0.15 0.13 0.14 0.10 0.09 0.08 0.03 0.03 0.03 0.02 0.01 0.00 0.00 0.00 0.00 0.00 0.00 0.00 0.02
0.00 0.00 0.00 0.00 0.00 0.00 0.00 0.00 0.00 0.00 0.00 0.00 0.00 0.00 0.00 0.01 0.05 0.10 0.12 0.12 0.09 0.17 0.16 0.11 0.09 0.04 0.02 0.03 0.03 0.03 0.02 0.01 0.02 0.01 0.00 0.00 0.00 0.00 0.00 0.00 0.00 0.00 0.01
0.00 0.00 0.00 0.00 0.00 0.00 0.00 0.00 0.00 0.00 0.00 0.00 0.00 0.00 0.00 0.00 0.00 0.00 0.01 0.02 0.02 0.03 0.03 0.04 0.02 0.01 0.01 0.01 0.01 0.01 0.02 0.01 0.00 0.00 0.00 0.00 0.00 0.00 0.00 0.00 0.00 0.00 0.00
0.00 0.00 0.00 0.00 0.00 0.00 0.00 0.00 0.00 0.00 0.00 0.00 0.00 0.00 0.00 0.00 0.00 0.00 0.00 0.00 0.00 0.01 0.00 0.01 0.02 0.02 0.02 0.01 0.01 0.01 0.01 0.00 0.00 0.00 0.00 0.00 0.00 0.00 0.00 0.00 0.00 0.00 0.00
0.00 0.00 0.00 0.00 0.00 0.00 0.00 0.00 0.00 0.00 0.00 0.00 0.00 0.00 0.00 0.00 0.00 0.00 0.00 0.00 0.00 0.01 0.01 0.01 0.01 0.02 0.02 0.02 0.03 0.02 0.02 0.02 0.00 0.00 0.00 0.00 0.00 0.00 0.00 0.00 0.00 0.00 0.00
0.00 0.00 0.00 0.00 0.00 0.00 0.00 0.00 0.00 0.00 0.00 0.00 0.00 0.00 0.00 0.00 0.00 0.00 0.00 0.00 0.00 0.01 0.01 0.02 0.02 0.03 0.03 0.05 0.05 0.03 0.03 0.02 0.00 0.00 0.00 0.00 0.01 0.01 0.00 0.00 0.00 0.00 0.00
0.00 0.00 0.00 0.00 0.00 0.00 0.00 0.00 0.00 0.00 0.00 0.00 0.00 0.00 0.00 0.00 0.00 0.00 0.00 0.00 0.00 0.00 0.00 0.01 0.01 0.02 0.03 0.07 0.06 0.04 0.02 0.01 0.00 0.00 0.00 0.00 0.00 0.00 0.00 0.00 0.00 0.00 0.00
0.00 0.00 0.00 0.00 0.00 0.00 0.00 0.00 0.00 0.00 0.00 0.00 0.00 0.00 0.00 0.00 0.00 0.00 0.00 0.00 0.00 0.00 0.00 0.00 0.00 0.00 0.01 0.04 0.05 0.07 0.07 0.08 0.02 0.00 0.00 0.00 0.00 0.00 0.00 0.00 0.00 0.00 0.00
0.00 0.00 0.00 0.00 0.00 0.00 0.00 0.00 0.00 0.00 0.00 0.00 0.00 0.00 0.00 0.00 0.00 0.00 0.00 0.00 0.00 0.00 0.00 0.00 0.00 0.00 0.00 0.01 0.03 0.02 0.01 0.05 0.07 0.01 0.00 0.00 0.00 0.00 0.00 0.00 0.00 0.00 0.00
0.00 0.00 0.00 0.00 0.00 0.00 0.00 0.00 0.00 0.00 0.00 0.00 0.00 0.00 0.00 0.00 0.00 0.00 0.00 0.00 0.00 0.00 0.00 0.00 0.00 0.00 0.00 0.00 0.01 0.01 0.00 0.00 0.00 0.00 0.00 0.00 0.00 0.00 0.00 0.00 0.00 0.00 0.00
0.00 0.00 0.00 0.00 0.00 0.00 0.00 0.00 0.00 0.00 0.00 0.00 0.00 0.00 0.00 0.00 0.00 0.00 0.00 0.00 0.00 0.00 0.00 0.00 0.00 0.00 0.00 0.00 0.01 0.01 0.00 0.00 0.00 0.00 0.00 0.00 0.00 0.00 0.00 0.00 0.00 0.00 0.00
0.00 0.00 0.00 0.00 0.00 0.00 0.00 0.00 0.00 0.00 0.00 0.00 0.00 0.00 0.00 0.00 0.00 0.00 0.00 0.00 0.00 0.00 0.00 0.00 0.00 0.00 0.00 0.00 0.00 0.00 0.00 0.00 0.00 0.00 0.00 0.00 0.00 0.00 0.00 0.00 0.00 0.00 0.00
0.00 0.00 0.00 0.00 0.00 0.00 0.00 0.00 0.00 0.01 0.01 0.00 0.00 0.00 0.00 0.00 0.00 0.00 0.00 0.00 0.01 0.01 0.00 0.00 0.00 0.00 0.00 0.00 0.00 0.01 0.00 0.00 0.00 0.00 0.00 0.00 0.00 0.00 0.00 0.00 0.00 0.00 0.00
0.00 0.00 0.00 0.00 0.00 0.00 0.00 0.01 0.00 0.00 0.01 0.01 0.01 0.01 0.01 0.00 0.00 0.00 0.00 0.00 0.00 0.01 0.01 0.01 0.00 0.00 0.00 0.00 0.00 0.01 0.02 0.01 0.00 0.00 0.00 0.01 0.00 0.00 0.00 0.00 0.00 0.00 0.00
0.00 0.00 0.00 0.00 0.01 0.01 0.00 0.00 0.00 0.00 0.01 0.01 0.01 0.01 0.02 0.04 0.01 0.01 0.02 0.02 0.02 0.03 0.03 0.03 0.02 0.01 0.00 0.00 0.00 0.01 0.02 0.01 0.00 0.00 0.00 0.00 0.00 0.00 0.00 0.00 0.00 0.00 0.00
0.00 0.00 0.01 0.01 0.01 0.00 0.01 0.00 0.00 0.01 0.03 0.05 0.06 0.08 0.10 0.11 0.07 0.05 0.06 0.06 0.05 0.07 0.06 0.04 0.03 0.03 0.01 0.01 0.02 0.03 0.03 0.02 0.01 0.00 0.00 0.00 0.00 0.00 0.00 0.00 0.00 0.00 0.00
0.06 0.05 0.05 0.06 0.07 0.08 0.05 0.02 0.03 0.05 0.07 0.07 0.07 0.13 0.16 0.22 0.29 0.35 0.30 0.26 0.19 0.18 0.14 0.15 0.12 0.09 0.09 0.08 0.11 0.14 0.15 0.13 0.10 0.03 0.01 0.00 0.00 0.00 0.00 0.00 0.00 0.00 0.00

GFSMW_prec_precacc24_114.txt.gz
Total_Precipitation_Accumulation
0.39 1.12 1.60 1.91 1.41 0.75 0.73 0.74 1.04 1.34 1.23 0.84 0.62 0.50 0.34 0.24 0.14 0.11 0.11 0.07 0.07 0.03 0.00 0.01 0.02 0.02 0.00 0.00 0.00 0.00 0.00 0.01 0.01 0.03 0.00 0.00 0.00 0.00 0.00 0.00 0.00 0.00 0.00
0.55 0.84 1.07 2.08 2.70 1.66 0.96 0.95 0.87 0.60 1.05 1.31 0.76 0.61 0.46 0.44 0.28 0.13 0.09 0.19 0.18 0.13 0.08 0.04 0.12 0.12 0.10 0.07 0.01 0.01 0.04 0.06 0.04 0.03 0.04 0.01 0.00 0.00 0.00 0.00 0.00 0.00 0.00
0.46 0.87 0.80 1.00 1.40 2.17 1.57 1.27 1.72 0.98 0.73 1.33 1.33 1.00 1.29 1.09 0.70 0.42 0.30 0.40 0.57 0.53 0.53 0.60 0.59 0.46 0.40 0.41 0.37 0.37 0.35 0.22 0.22 0.28 0.19 0.04 0.00 0.00 0.00 0.00 0.00 0.00 0.00
0.32 0.67 0.94 0.78 0.77 0.96 1.46 1.15 1.63 1.47 1.26 1.44 1.71 1.28 1.20 1.16 0.97 0.95 0.85 1.01 1.09 1.17 1.23 1.22 1.04 0.88 0.77 0.80 0.84 0.91 0.84 0.66 0.54 0.44 0.26 0.16 0.10 0.05 0.02 0.00 0.00 0.00 0.00
0.31 0.37 0.61 0.86 0.81 0.63 1.22 1.33 1.38 1.30 1.14 1.28 1.24 1.39 1.34 1.11 0.96 1.00 0.97 0.88 0.86 0.92 1.01 1.30 1.39 1.46 1.65 1.73 1.59 1.40 1.10 0.80 0.61 0.43 0.33 0.31 0.29 0.21 0.11 0.04 0.01 0.00 0.00
0.31 0.33 0.31 0.32 0.34 0.43 0.75 1.25 1.00 1.02 0.86 1.11 0.89 1.03 1.31 1.39 1.18 1.00 0.93 0.85 0.91 0.92 0.86 0.84 1.10 1.39 1.47 1.31 1.13 0.85 0.58 0.46 0.33 0.22 0.22 0.24 0.18 0.11 0.04 0.01 0.00 0.00 0.00
0.53 0.52 0.25 0.23 0.26 0.18 0.47 0.88 0.89 0.96 0.74 0.90 0.96 0.73 0.89 1.01 1.00 0.95 1.04 0.95 0.91 0.98 1.12 1.17 1.01 0.87 0.70 0.54 0.42 0.32 0.25 0.16 0.07 0.03 0.01 0.02 0.04 0.05 0.09 0.09 0.03 0.01 0.00
0.78 0.63 0.47 0.41 0.35 0.24 0.37 0.52 0.64 0.79 0.86 0.71 0.74 0.77 0.65 0.62 0.58 0.63 0.65 0.74 0.78 0.83 0.84 0.97 0.94 0.67 0.45 0.41 0.33 0.26 0.20 0.14 0.07 0.05 0.04 0.02 0.01 0.01 0.01 0.07 0.11 0.08 0.03
0.38 0.43 0.29 0.09 0.04 0.03 0.08 0.13 0.20 0.32 0.29 0.27 0.31 0.28 0.44 0.35 0.36 0.49 0.52 0.49 0.42 0.41 0.40 0.36 0.38 0.32 0.27 0.19 0.18 0.18 0.14 0.11 0.08 0.06 0.03 0.01 0.01 0.01 0.01 0.00 0.00 0.03 0.02
0.17 0.09 0.04 0.02 0.00 0.00 0.00 0.00 0.01 0.03 0.04 0.06 0.05 0.10 0.17 0.22 0.31 0.35 0.28 0.25 0.19 0.16 0.19 0.19 0.20 0.18 0.19 0.15 0.14 0.14 0.16 0.20 0.21 0.15 0.09 0.03 0.01 0.00 0.00 0.00 0.00 0.00 0.02
0.03 0.01 0.00 0.00 0.00 0.00 0.00 0.00 0.00 0.00 0.00 0.00 0.00 0.01 0.02 0.04 0.09 0.18 0.21 0.20 0.16 0.24 0.22 0.18 0.16 0.13 0.13 0.13 0.11 0.06 0.03 0.03 0.07 0.13 0.09 0.03 0.02 0.01 0.01 0.00 0.00 0.00 0.00
0.00 0.00 0.00 0.00 0.00 0.00 0.00 0.00 0.00 0.00 0.00 0.00 0.00 0.00 0.00 0.00 0.00 0.00 0.01 0.03 0.03 0.07 0.08 0.12 0.09 0.07 0.07 0.08 0.07 0.06 0.05 0.04 0.04 0.04 0.05 0.05 0.04 0.02 0.02 0.00 0.00 0.00 0.00
0.00 0.00 0.00 0.00 0.00 0.00 0.00 0.00 0.00 0.00 0.00 0.00 0.00 0.00 0.00 0.00 0.00 0.00 0.00 0.00 0.00 0.01 0.00 0.01 0.02 0.02 0.02 0.02 0.02 0.02 0.02 0.02 0.02 0.02 0.03 0.03 0.03 0.01 0.00 0.00 0.00 0.00 0.00
0.00 0.00 0.00 0.00 0.00 0.00 0.00 0.00 0.00 0.00 0.00 0.00 0.00 0.00 0.00 0.00 0.00 0.00 0.00 0.00 0.00 0.01 0.01 0.01 0.01 0.02 0.02 0.02 0.03 0.03 0.04 0.04 0.03 0.03 0.03 0.02 0.01 0.00 0.00 0.00 0.00 0.00 0.00
0.00 0.00 0.00 0.00 0.00 0.00 0.00 0.00 0.00 0.00 0.00 0.00 0.00 0.00 0.00 0.00 0.00 0.00 0.00 0.00 0.00 0.01 0.01 0.02 0.02 0.03 0.03 0.05 0.05 0.03 0.05 0.04 0.04 0.03 0.02 0.01 0.01 0.00 0.00 0.00 0.00 0.00 0.00
0.00 0.00 0.00 0.00 0.00 0.00 0.00 0.00 0.00 0.00 0.00 0.00 0.00 0.00 0.00 0.00 0.00 0.00 0.00 0.00 0.00 0.00 0.00 0.01 0.01 0.02 0.04 0.08 0.07 0.05 0.02 0.02 0.02 0.02 0.01 0.01 0.01 0.00 0.00 0.00 0.00 0.00 0.00
0.00 0.00 0.00 0.00 0.00 0.00 0.00 0.00 0.00 0.00 0.00 0.00 0.00 0.00 0.00 0.00 0.00 0.00 0.00 0.00 0.00 0.00 0.00 0.00 0.00 0.00 0.02 0.04 0.05 0.08 0.08 0.09 0.06 0.04 0.02 0.01 0.00 0.00 0.00 0.00 0.00 0.00 0.00
0.00 0.00 0.00 0.00 0.00 0.00 0.00 0.00 0.00 0.00 0.00 0.00 0.00 0.00 0.00 0.00 0.00 0.00 0.00 0.00 0.00 0.00 0.00 0.00 0.00 0.00 0.00 0.02 0.03 0.05 0.03 0.08 0.14 0.13 0.09 0.06 0.03 0.01 0.00 0.00 0.00 0.00 0.00
0.00 0.00 0.00 0.00 0.00 0.00 0.00 0.00 0.00 0.00 0.00 0.00 0.00 0.00 0.00 0.00 0.00 0.00 0.00 0.00 0.00 0.00 0.00 0.00 0.00 0.00 0.00 0.00 0.01 0.02 0.01 0.04 0.05 0.07 0.08 0.06 0.07 0.08 0.04 0.00 0.00 0.00 0.00
0.00 0.00 0.00 0.00 0.00 0.00 0.00 0.00 0.00 0.00 0.00 0.00 0.00 0.00 0.00 0.00 0.00 0.00 0.00 0.00 0.00 0.00 0.00 0.00 0.00 0.00 0.00 0.00 0.01 0.01 0.01 0.03 0.03 0.04 0.05 0.04 0.02 0.02 0.03 0.00 0.00 0.00 0.00
0.00 0.00 0.00 0.00 0.00 0.00 0.00 0.00 0.00 0.00 0.00 0.00 0.00 0.00 0.00 0.00 0.00 0.00 0.00 0.00 0.00 0.00 0.00 0.00 0.00 0.00 0.00 0.00 0.00 0.00 0.00 0.01 0.02 0.02 0.03 0.04 0.05 0.02 0.03 0.02 0.00 0.00 0.00
0.00 0.00 0.00 0.00 0.00 0.00 0.00 0.00 0.00 0.01 0.01 0.00 0.00 0.00 0.00 0.00 0.00 0.00 0.00 0.00 0.01 0.01 0.00 0.00 0.00 0.00 0.00 0.00 0.00 0.01 0.01 0.01 0.01 0.01 0.02 0.03 0.08 0.06 0.03 0.01 0.00 0.00 0.00
0.00 0.00 0.00 0.00 0.00 0.00 0.00 0.01 0.00 0.00 0.01 0.01 0.01 0.01 0.01 0.00 0.00 0.00 0.00 0.00 0.01 0.01 0.02 0.02 0.01 0.00 0.00 0.00 0.01 0.01 0.03 0.02 0.01 0.01 0.02 0.06 0.11 0.08 0.08 0.06 0.01 0.00 0.00
0.00 0.00 0.00 0.00 0.01 0.01 0.00 0.00 0.00 0.00 0.01 0.01 0.01 0.01 0.02 0.04 0.01 0.02 0.02 0.02 0.02 0.03 0.03 0.04 0.03 0.02 0.01 0.00 0.00 0.01 0.02 0.02 0.02 0.02 0.04 0.05 0.08 0.08 0.05 0.04 0.03 0.00 0.00
0.00 0.00 0.01 0.01 0.01 0.00 0.01 0.00 0.00 0.01 0.03 0.05 0.07 0.08 0.10 0.11 0.07 0.05 0.05 0.07 0.06 0.08 0.07 0.05 0.05 0.05 0.04 0.02 0.03 0.05 0.06 0.04 0.03 0.03 0.03 0.13 0.11 0.03 0.02 0.02 0.03 0.01 0.00
0.05 0.05 0.05 0.06 0.07 0.08 0.05 0.02 0.03 0.05 0.07 0.07 0.07 0.13 0.16 0.21 0.28 0.34 0.29 0.24 0.19 0.19 0.16 0.17 0.15 0.11 0.13 0.11 0.12 0.16 0.19 0.18 0.17 0.12 0.09 0.07 0.07 0.04 0.01 0.02 0.03 0.02 0.00

GFSMW_prec_precacc24_117.txt.gz
Total_Precipitation_Accumulation
0.38 1.09 1.56 1.76 1.27 0.65 0.59 0.55 0.93 1.25 1.16 0.83 0.63 0.50 0.31 0.20 0.12 0.11 0.11 0.07 0.23 0.22 0.09 0.01 0.02 0.02 0.00 0.00 0.00 0.00 0.00 0.01 0.00 0.02 0.00 0.00 0.00 0.00 0.00 0.00 0.00 0.00 0.00
0.55 0.84 1.07 2.03 2.69 1.62 0.87 0.87 0.84 0.57 1.00 1.23 0.74 0.63 0.46 0.36 0.22 0.13 0.09 0.20 0.19 0.24 0.24 0.07 0.12 0.12 0.10 0.07 0.01 0.01 0.04 0.05 0.04 0.03 0.04 0.01 0.00 0.00 0.00 0.00 0.00 0.00 0.00
0.46 0.87 0.81 1.00 1.40 2.15 1.51 1.19 1.54 0.83 0.60 1.25 1.28 0.94 1.23 1.04 0.66 0.46 0.33 0.40 0.46 0.43 0.42 0.51 0.53 0.44 0.40 0.41 0.37 0.37 0.35 0.21 0.22 0.28 0.19 0.04 0.00 0.00 0.00 0.00 0.00 0.00 0.00
0.32 0.67 0.95 0.79 0.77 0.96 1.42 1.08 1.53 1.33 1.12 1.20 1.76 1.51 1.18 1.17 0.96 0.97 0.88 1.02 1.06 1.04 1.09 1.13 0.96 0.83 0.73 0.80 0.85 0.94 0.87 0.69 0.56 0.47 0.27 0.17 0.10 0.05 0.01 0.00 0.00 0.00 0.00
0.31 0.37 0.61 0.88 0.82 0.63 1.22 1.26 1.24 1.16 1.02 1.14 1.29 1.85 1.65 1.18 0.93 0.93 0.97 0.94 0.94 1.00 1.09 1.34 1.39 1.42 1.63 1.73 1.62 1.47 1.22 0.94 0.74 0.58 0.47 0.44 0.37 0.24 0.11 0.04 0.01 0.00 0.00
0.31 0.35 0.40 0.43 0.42 0.44 0.76 1.24 0.98 0.94 0.73 1.00 0.87 1.22 1.73 1.52 1.23 1.02 0.86 0.80 0.93 1.01 1.02 1.04 1.26 1.52 1.59 1.44 1.28 1.03 0.74 0.60 0.45 0.32 0.33 0.34 0.23 0.14 0.06 0.00 0.00 0.00 0.00
0.57 0.66 0.45 0.37 0.33 0.24 0.63 1.00 0.92 0.97 0.70 0.88 0.92 0.69 1.03 1.19 1.12 1.02 1.07 0.88 0.86 0.95 1.13 1.27 1.20 1.06 0.90 0.73 0.61 0.50 0.36 0.24 0.15 0.11 0.09 0.08 0.07 0.07 0.11 0.09 0.04 0.01 0.00
1.01 1.19 0.95 0.70 0.68 0.50 0.67 0.76 0.71 0.99 1.02 0.89 0.92 0.96 0.86 0.76 0.68 0.73 0.73 0.78 0.81 0.91 0.88 1.00 1.01 0.80 0.62 0.62 0.51 0.40 0.29 0.20 0.11 0.08 0.08 0.05 0.03 0.02 0.02 0.07 0.13 0.11 0.04
0.72 0.72 0.53 0.32 0.25 0.29 0.35 0.35 0.47 0.74 0.76 0.65 0.59 0.51 0.72 0.52 0.52 0.65 0.64 0.59 0.50 0.51 0.48 0.42 0.43 0.40 0.38 0.38 0.38 0.37 0.27 0.21 0.16 0.11 0.07 0.05 0.03 0.03 0.02 0.01 0.01 0.04 0.04
0.42 0.25 0.15 0.09 0.03 0.03 0.03 0.06 0.10 0.13 0.19 0.22 0.14 0.26 0.31 0.38 0.43 0.48 0.40 0.35 0.30 0.26 0.26 0.23 0.22 0.21 0.25 0.22 0.25 0.27 0.26 0.28 0.26 0.19 0.14 0.11 0.08 0.07 0.06 0.04 0.03 0.02 0.04
0.08 0.04 0.01 0.00 0.00 0.00 0.00 0.00 0.00 0.00 0.00 0.00 0.00 0.03 0.10 0.10 0.13 0.22 0.27 0.25 0.19 0.27 0.25 0.21 0.19 0.16 0.16 0.17 0.18 0.15 0.10 0.09 0.11 0.16 0.22 0.22 0.18 0.14 0.12 0.10 0.04 0.04 0.06
0.00 0.00 0.00 0.00 0.00 0.00 0.00 0.00 0.00 0.00 0.00 0.00 0.00 0.00 0.00 0.00 0.00 0.00 0.00 0.02 0.03 0.08 0.10 0.14 0.11 0.09 0.09 0.11 0.15 0.17 0.18 0.18 0.10 0.08 0.10 0.12 0.15 0.17 0.17 0.10 0.05 0.03 0.03
0.00 0.00 0.00 0.00 0.00 0.00 0.00 0.00 0.00 0.00 0.00 0.00 0.00 0.00 0.00 0.00 0.00 0.00 0.00 0.00 0.00 0.01 0.00 0.02 0.03 0.03 0.03 0.02 0.03 0.05 0.06 0.07 0.07 0.06 0.05 0.06 0.08 0.11 0.12 0.09 0.06 0.09 0.07
0.00 0.00 0.00 0.00 0.00 0.00 0.00 0.00 0.00 0.00 0.00 0.00 0.00 0.00 0.00 0.00 0.00 0.00 0.00 0.00 0.00 0.01 0.01 0.01 0.02 0.02 0.02 0.03 0.04 0.04 0.05 0.05 0.04 0.05 0.05 0.04 0.05 0.05 0.07 0.14 0.19 0.14 0.03
0.00 0.00 0.00 0.00 0.00 0.00 0.00 0.00 0.00 0.00 0.00 0.00 0.00 0.00 0.00 0.00 0.00 0.00 0.00 0.00 0.00 0.01 0.01 0.02 0.02 0.03 0.03 0.05 0.05 0.04 0.05 0.05 0.05 0.05 0.04 0.02 0.04 0.05 0.04 0.03 0.06 0.11 0.06
0.00 0.00 0.00 0.00 0.00 0.00 0.00 0.00 0.00 0.00 0.00 0.00 0.00 0.00 0.00 0.00 0.00 0.00 0.00 0.00 0.00 0.00 0.00 0.01 0.01 0.02 0.04 0.08 0.07 0.05 0.03 0.03 0.03 0.04 0.04 0.05 0.06 0.04 0.03 0.01 0.01 0.02 0.01
0.00 0.00 0.00 0.00 0.00 0.00 0.00 0.00 0.00 0.00 0.00 0.00 0.00 0.00 0.00 0.00 0.00 0.00 0.00 0.00 0.00 0.00 0.00 0.00 0.00 0.00 0.02 0.04 0.05 0.07 0.08 0.09 0.06 0.05 0.05 0.06 0.06 0.08 0.06 0.05 0.03 0.00 0.00
0.00 0.00 0.00 0.00 0.00 0.00 0.00 0.00 0.00 0.00 0.00 0.00 0.00 0.00 0.00 0.00 0.00 0.00 0.00 0.00 0.00 0.00 0.00 0.00 0.00 0.00 0.00 0.01 0.02 0.04 0.03 0.08 0.15 0.15 0.13 0.12 0.10 0.09 0.07 0.05 0.03 0.01 0.00
0.00 0.00 0.00 0.00 0.00 0.00 0.00 0.00 0.00 0.00 0.00 0.00 0.00 0.00 0.00 0.00 0.00 0.00 0.00 0.00 0.00 0.00 0.00 0.00 0.00 0.00 0.00 0.00 0.01 0.02 0.01 0.04 0.05 0.09 0.12 0.14 0.16 0.22 0.22 0.13 0.08 0.05 0.04
0.00 0.00 0.00 0.00 0.00 0.00 0.00 0.00 0.00 0.00 0.00 0.00 0.00 0.00 0.00 0.00 0.00 0.00 0.00 0.00 0.00 0.00 0.00 0.00 0.00 0.00 0.00 0.00 0.01 0.01 0.01 0.03 0.03 0.05 0.06 0.10 0.08 0.12 0.19 0.23 0.21 0.14 0.09
0.00 0.00 0.00 0.00 0.00 0.00 0.00 0.00 0.00 0.00 0.00 0.00 0.00 0.00 0.00 0.00 0.00 0.00 0.00 0.00 0.00 0.00 0.00 0.00 0.00 0.00 0.00 0.00 0.00 0.00 0.00 0.01 0.02 0.02 0.03 0.06 0.09 0.09 0.12 0.16 0.18 0.16 0.15
0.00 0.00 0.00 0.00 0.00 0.00 0.00 0.00 0.00 0.01 0.01 0.00 0.00 0.00 0.00 0.00 0.00 0.00 0.00 0.00 0.01 0.01 0.00 0.00 0.00 0.00 0.00 0.00 0.00 0.01 0.01 0.01 0.01 0.01 0.02 0.04 0.12 0.13 0.13 0.10 0.13 0.19 0.16
0.00 0.00 0.00 0.00 0.00 0.00 0.00 0.01 0.00 0.00 0.01 0.01 0.01 0.01 0.01 0.00 0.00 0.00 0.00 0.00 0.01 0.01 0.02 0.02 0.01 0.01 0.01 0.01 0.01 0.01 0.03 0.02 0.02 0.01 0.02 0.07 0.14 0.13 0.14 0.16 0.16 0.12 0.11
0.00 0.00 0.00 0.00 0.01 0.01 0.00 0.00 0.00 0.00 0.01 0.01 0.01 0.01 0.01 0.03 0.01 0.02 0.02 0.02 0.02 0.03 0.03 0.04 0.04 0.03 0.02 0.01 0.01 0.02 0.02 0.02 0.02 0.03 0.05 0.07 0.14 0.20 0.19 0.17 0.18 0.18 0.07
0.00 0.00 0.01 0.01 0.01 0.00 0.01 0.00 0.00 0.01 0.02 0.03 0.04 0.05 0.07 0.09 0.07 0.05 0.05 0.07 0.06 0.08 0.08 0.06 0.06 0.06 0.05 0.04 0.05 0.07 0.08 0.06 0.04 0.06 0.04 0.16 0.16 0.13 0.15 0.16 0.15 0.11 0.09
0.03 0.04 0.04 0.05 0.07 0.08 0.05 0.02 0.03 0.05 0.07 0.07 0.07 0.12 0.14 0.20 0.28 0.34 0.29 0.22 0.18 0.18 0.16 0.18 0.17 0.13 0.15 0.13 0.15 0.18 0.22 0.21 0.23 0.18 0.12 0.09 0.09 0.11 0.08 0.05 0.09 0.12 0.10

GFSMW_prec_precacc24_120.txt.gz
Total_Precipitation_Accumulation
0.35 1.03 1.43 1.64 1.10 0.58 0.56 0.55 0.91 1.25 1.16 0.83 0.58 0.47 0.28 0.20 0.12 0.11 0.11 0.08 0.23 0.23 0.19 0.23 0.28 0.20 0.06 0.01 0.00 0.00 0.00 0.00 0.00 0.01 0.00 0.00 0.00 0.00 0.00 0.00 0.00 0.00 0.00
0.55 0.84 1.04 1.80 2.46 1.47 0.83 0.84 0.82 0.53 0.92 1.19 0.72 0.61 0.42 0.31 0.20 0.12 0.09 0.20 0.19 0.25 0.28 0.15 0.22 0.23 0.13 0.07 0.01 0.00 0.03 0.05 0.03 0.02 0.04 0.01 0.00 0.00 0.00 0.00 0.00 0.00 0.00
0.46 0.87 0.80 0.96 1.29 1.99 1.40 1.05 1.30 0.69 0.49 1.11 1.06 0.76 0.96 0.92 0.61 0.44 0.35 0.39 0.44 0.42 0.42 0.54 0.45 0.31 0.32 0.37 0.32 0.35 0.35 0.21 0.22 0.28 0.19 0.04 0.00 0.00 0.00 0.00 0.00 0.00 0.00
0.32 0.67 0.95 0.79 0.75 0.88 1.27 0.95 1.37 1.18 0.90 0.89 1.40 1.23 0.95 0.92 0.85 0.86 0.76 0.91 0.99 0.94 0.94 1.06 1.00 0.83 0.70 0.72 0.81 0.93 0.87 0.69 0.56 0.47 0.27 0.17 0.10 0.05 0.01 0.00 0.00 0.00 0.00
0.33 0.37 0.61 0.91 0.87 0.66 1.23 1.22 1.13 1.04 0.94 0.97 1.11 1.65 1.44 1.01 0.64 0.62 0.67 0.74 0.78 0.97 1.17 1.34 1.51 1.57 1.68 1.69 1.58 1.46 1.22 0.94 0.75 0.59 0.49 0.45 0.39 0.25 0.12 0.05 0.01 0.01 0.01
0.38 0.44 0.49 0.48 0.45 0.46 0.77 1.24 0.98 0.90 0.69 0.93 0.78 1.04 1.58 1.54 1.13 0.81 0.65 0.61 0.83 0.93 1.14 1.35 1.52 1.77 1.74 1.53 1.33 1.07 0.80 0.66 0.53 0.40 0.39 0.39 0.29 0.19 0.10 0.02 0.00 0.00 0.01
0.64 0.73 0.52 0.44 0.38 0.26 0.65 1.01 0.92 0.97 0.69 0.88 0.89 0.63 1.00 1.54 1.57 1.28 1.14 0.94 0.77 0.82 1.01 1.35 1.43 1.33 1.16 0.92 0.77 0.68 0.55 0.40 0.28 0.22 0.18 0.18 0.17 0.12 0.14 0.13 0.05 0.01 0.00
1.03 1.27 1.30 0.99 0.78 0.60 0.83 0.87 0.73 1.05 1.04 0.96 0.98 1.00 0.98 0.92 0.88 0.94 0.88 0.92 0.85 0.72 0.69 0.93 1.09 0.96 0.80 0.78 0.65 0.53 0.42 0.33 0.21 0.15 0.13 0.10 0.07 0.05 0.05 0.10 0.16 0.13 0.04
0.88 0.96 0.90 0.56 0.41 0.66 0.93 0.73 0.69 0.97 0.89 0.84 0.78 0.84 0.95 0.66 0.55 0.69 0.67 0.64 0.61 0.66 0.65 0.52 0.51 0.50 0.53 0.53 0.54 0.53 0.43 0.36 0.28 0.21 0.14 0.08 0.05 0.04 0.05 0.04 0.04 0.07 0.07
0.75 0.56 0.38 0.20 0.19 0.40 0.39 0.34 0.27 0.32 0.35 0.31 0.22 0.40 0.46 0.51 0.49 0.53 0.51 0.47 0.42 0.40 0.41 0.36 0.34 0.33 0.35 0.32 0.36 0.40 0.40 0.53 0.55 0.43 0.32 0.24 0.15 0.10 0.09 0.07 0.07 0.08 0.13
0.14 0.06 0.01 0.00 0.01 0.01 0.00 0.01 0.01 0.04 0.03 0.01 0.02 0.06 0.15 0.14 0.18 0.25 0.32 0.32 0.26 0.31 0.30 0.26 0.21 0.19 0.19 0.20 0.23 0.22 0.17 0.18 0.19 0.26 0.36 0.36 0.28 0.24 0.21 0.19 0.18 0.19 0.24
0.00 0.00 0.00 0.00 0.00 0.00 0.00 0.00 0.00 0.00 0.00 0.00 0.00 0.00 0.00 0.00 0.00 0.00 0.00 0.02 0.03 0.09 0.13 0.21 0.18 0.16 0.15 0.15 0.19 0.22 0.24 0.26 0.25 0.22 0.29 0.31 0.29 0.33 0.30 0.28 0.22 0.15 0.13
0.00 0.00 0.00 0.00 0.00 0.00 0.00 0.00 0.00 0.00 0.00 0.00 0.00 0.00 0.00 0.00 0.00 0.00 0.00 0.00 0.00 0.01 0.00 0.02 0.03 0.04 0.05 0.05 0.10 0.14 0.17 0.19 0.17 0.15 0.17 0.17 0.21 0.26 0.22 0.21 0.20 0.21 0.23
0.00 0.00 0.00 0.00 0.00 0.00 0.00 0.00 0.00 0.00 0.00 0.00 0.00 0.00 0.00 0.00 0.00 0.00 0.00 0.00 0.00 0.01 0.01 0.01 0.02 0.02 0.02 0.03 0.04 0.04 0.06 0.07 0.10 0.14 0.18 0.17 0.16 0.11 0.12 0.22 0.29 0.29 0.29
0.00 0.00 0.00 0.00 0.00 0.00 0.00 0.00 0.00 0.00 0.00 0.00 0.00 0.00 0.00 0.00 0.00 0.00 0.00 0.00 0.00 0.01 0.01 0.02 0.02 0.03 0.04 0.05 0.05 0.04 0.06 0.06 0.06 0.05 0.04 0.04 0.11 0.16 0.12 0.08 0.10 0.20 0.28
0.00 0.00 0.00 0.00 0.00 0.00 0.00 0.00 0.00 0.00 0.00 0.00 0.00 0.00 0.00 0.00 0.00 0.00 0.00 0.00 0.00 0.00 0.00 0.01 0.01 0.02 0.04 0.08 0.07 0.05 0.03 0.03 0.04 0.04 0.04 0.05 0.09 0.07 0.10 0.11 0.11 0.10 0.13
0.00 0.00 0.00 0.00 0.00 0.00 0.00 0.00 0.00 0.00 0.00 0.00 0.00 0.00 0.00 0.00 0.00 0.00 0.00 0.00 0.00 0.00 0.00 0.00 0.00 0.00 0.02 0.04 0.05 0.07 0.08 0.09 0.06 0.05 0.05 0.06 0.08 0.13 0.09 0.14 0.16 0.12 0.11
0.00 0.00 0.00 0.00 0.00 0.00 0.00 0.00 0.00 0.00 0.00 0.00 0.00 0.00 0.00 0.00 0.00 0.00 0.00 0.00 0.00 0.00 0.00 0.00 0.00 0.00 0.00 0.01 0.02 0.04 0.03 0.08 0.15 0.15 0.13 0.13 0.11 0.11 0.13 0.14 0.17 0.15 0.19
0.00 0.00 0.00 0.00 0.00 0.00 0.00 0.00 0.00 0.00 0.00 0.00 0.00 0.00 0.00 0.00 0.00 0.00 0.00 0.00 0.00 0.00 0.00 0.00 0.00 0.00 0.00 0.00 0.01 0.02 0.01 0.04 0.05 0.09 0.12 0.14 0.17 0.24 0.28 0.22 0.19 0.23 0.29
0.00 0.00 0.00 0.00 0.00 0.00 0.00 0.00 0.00 0.00 0.00 0.00 0.00 0.00 0.00 0.00 0.00 0.00 0.00 0.00 0.00 0.00 0.00 0.00 0.00 0.00 0.00 0.00 0.00 0.01 0.01 0.03 0.04 0.05 0.06 0.11 0.09 0.14 0.23 0.27 0.29 0.28 0.25
0.00 0.00 0.00 0.00 0.00 0.00 0.00 0.00 0.00 0.00 0.00 0.00 0.00 0.00 0.00 0.00 0.00 0.00 0.00 0.00 0.00 0.00 0.00 0.00 0.00 0.00 0.00 0.00 0.00 0.00 0.00 0.01 0.02 0.02 0.03 0.06 0.10 0.11 0.15 0.20 0.20 0.24 0.31
0.00 0.00 0.00 0.00 0.00 0.00 0.00 0.00 0.00 0.01 0.01 0.00 0.00 0.00 0.00 0.00 0.00 0.00 0.00 0.00 0.01 0.01 0.00 0.00 0.00 0.00 0.00 0.01 0.01 0.01 0.01 0.02 0.02 0.02 0.03 0.05 0.13 0.14 0.16 0.14 0.16 0.22 0.24
0.00 0.00 0.00 0.00 0.00 0.00 0.00 0.01 0.00 0.00 0.01 0.01 0.01 0.01 0.01 0.00 0.00 0.00 0.00 0.00 0.01 0.01 0.02 0.02 0.02 0.01 0.01 0.01 0.01 0.01 0.03 0.03 0.03 0.02 0.04 0.08 0.14 0.15 0.19 0.23 0.23 0.17 0.14
0.00 0.00 0.00 0.00 0.01 0.01 0.00 0.00 0.00 0.00 0.01 0.01 0.01 0.01 0.01 0.03 0.01 0.01 0.02 0.02 0.02 0.03 0.04 0.04 0.04 0.03 0.02 0.02 0.01 0.02 0.03 0.04 0.04 0.05 0.08 0.10 0.15 0.22 0.25 0.31 0.31 0.24 0.13
0.00 0.00 0.01 0.01 0.01 0.00 0.01 0.00 0.00 0.01 0.02 0.03 0.03 0.04 0.04 0.06 0.05 0.03 0.03 0.05 0.05 0.08 0.08 0.08 0.10 0.10 0.08 0.05 0.06 0.08 0.08 0.07 0.07 0.11 0.09 0.19 0.18 0.16 0.21 0.22 0.21 0.16 0.19
0.01 0.02 0.04 0.04 0.05 0.06 0.05 0.02 0.03 0.05 0.06 0.06 0.04 0.07 0.08 0.09 0.13 0.19 0.18 0.17 0.16 0.18 0.16 0.18 0.17 0.15 0.17 0.16 0.19 0.21 0.23 0.22 0.26 0.26 0.17 0.13 0.13 0.15 0.12 0.08 0.15 0.18 0.18

GFSMW_prec_precacc24_126.txt.gz
Total_Precipitation_Accumulation
0.06 0.29 0.40 0.49 0.39 0.31 0.40 0.46 0.87 1.23 1.16 0.83 0.56 0.42 0.24 0.16 0.06 0.04 0.02 0.02 0.16 0.20 0.18 0.24 0.30 0.33 0.35 0.34 0.28 0.27 0.31 0.31 0.16 0.07 0.01 0.00 0.00 0.00 0.00 0.00 0.00 0.00 0.00
0.18 0.59 0.56 0.80 1.13 0.81 0.56 0.65 0.68 0.47 0.90 1.18 0.72 0.58 0.33 0.27 0.19 0.11 0.05 0.04 0.03 0.12 0.21 0.13 0.19 0.24 0.22 0.21 0.25 0.25 0.18 0.16 0.15 0.13 0.08 0.03 0.00 0.00 0.00 0.00 0.00 0.00 0.00
0.21 0.67 0.68 0.67 0.72 1.29 1.03 0.85 1.08 0.52 0.45 1.09 1.00 0.68 0.84 0.78 0.55 0.40 0.25 0.15 0.08 0.07 0.10 0.26 0.24 0.24 0.32 0.35 0.28 0.27 0.31 0.29 0.33 0.41 0.28 0.07 0.01 0.00 0.00 0.00 0.00 0.00 0.00
0.24 0.47 0.73 0.55 0.50 0.62 0.92 0.72 1.07 0.95 0.57 0.58 1.15 0.97 0.72 0.72 0.76 0.83 0.70 0.70 0.72 0.61 0.56 0.66 0.64 0.50 0.42 0.49 0.63 0.77 0.80 0.66 0.52 0.48 0.33 0.22 0.12 0.05 0.02 0.00 0.00 0.00 0.00
0.33 0.34 0.50 0.75 0.62 0.47 1.13 1.04 0.92 0.86 0.67 0.50 0.72 1.33 1.07 0.72 0.41 0.40 0.49 0.56 0.56 0.69 0.78 0.73 0.78 0.76 0.66 0.52 0.83 1.18 1.12 0.91 0.74 0.59 0.52 0.50 0.46 0.29 0.13 0.05 0.01 0.01 0.02
0.43 0.50 0.63 0.62 0.51 0.37 0.62 1.12 0.87 0.78 0.49 0.66 0.52 0.83 1.23 1.11 0.72 0.50 0.43 0.44 0.58 0.63 0.85 1.00 0.93 0.97 0.83 0.72 0.67 0.79 0.81 0.71 0.58 0.47 0.47 0.46 0.35 0.24 0.19 0.10 0.05 0.07 0.06
0.80 0.95 0.72 0.54 0.43 0.29 0.65 0.99 0.88 0.94 0.66 0.84 0.78 0.56 0.80 1.28 1.40 1.25 1.09 0.90 0.76 0.80 0.80 1.03 1.19 1.10 1.10 0.95 0.83 0.80 0.71 0.63 0.49 0.40 0.35 0.35 0.38 0.33 0.38 0.41 0.25 0.18 0.14
1.29 1.46 1.73 1.30 0.93 0.73 0.90 0.89 0.74 1.08 1.06 0.96 0.95 0.94 0.94 0.90 0.92 1.05 1.09 1.12 1.01 0.88 0.77 0.98 1.20 1.33 1.25 1.22 0.96 0.76 0.61 0.51 0.43 0.38 0.36 0.33 0.31 0.30 0.31 0.37 0.44 0.39 0.23
1.03 1.27 1.41 1.02 0.75 1.23 1.42 1.04 0.85 1.05 0.94 0.89 0.81 0.94 1.08 0.82 0.64 0.79 0.75 0.72 0.67 0.73 0.80 0.72 0.73 0.79 0.87 1.06 1.10 0.97 0.74 0.63 0.49 0.39 0.31 0.28 0.23 0.22 0.23 0.24 0.29 0.34 0.36
1.04 0.78 0.54 0.34 0.41 0.60 0.58 0.82 0.74 0.48 0.45 0.54 0.35 0.59 0.70 0.76 0.68 0.67 0.58 0.49 0.47 0.48 0.54 0.58 0.64 0.68 0.72 0.71 0.72 0.72 0.67 0.81 0.83 0.71 0.63 0.53 0.37 0.31 0.29 0.26 0.27 0.31 0.41
0.17 0.08 0.03 0.02 0.03 0.02 0.04 0.10 0.21 0.21 0.26 0.29 0.24 0.32 0.43 0.31 0.28 0.28 0.34 0.34 0.29 0.36 0.33 0.30 0.27 0.26 0.25 0.30 0.37 0.37 0.31 0.32 0.30 0.36 0.48 0.49 0.39 0.40 0.38 0.36 0.36 0.41 0.50
0.00 0.01 0.01 0.00 0.00 0.01 0.00 0.00 0.00 0.00 0.00 0.01 0.03 0.06 0.06 0.02 0.01 0.00 0.01 0.02 0.03 0.09 0.13 0.22 0.20 0.19 0.20 0.21 0.26 0.29 0.31 0.36 0.34 0.30 0.36 0.39 0.36 0.46 0.44 0.44 0.39 0.30 0.30
0.00 0.00 0.00 0.00 0.00 0.00 0.00 0.00 0.00 0.00 0.00 0.00 0.00 0.00 0.00 0.00 0.00 0.00 0.00 0.00 0.00 0.00 0.00 0.02 0.03 0.04 0.06 0.07 0.13 0.20 0.26 0.32 0.33 0.33 0.34 0.31 0.36 0.43 0.38 0.41 0.46 0.45 0.43
0.00 0.00 0.00 0.00 0.00 0.00 0.00 0.00 0.00 0.00 0.00 0.00 0.00 0.00 0.00 0.00 0.00 0.00 0.00 0.00 0.00 0.01 0.01 0.01 0.02 0.02 0.02 0.03 0.04 0.04 0.06 0.07 0.11 0.17 0.25 0.30 0.36 0.35 0.36 0.51 0.61 0.64 0.70
0.00 0.00 0.00 0.00 0.00 0.00 0.00 0.00 0.00 0.00 0.00 0.00 0.00 0.00 0.00 0.00 0.00 0.00 0.00 0.00 0.00 0.01 0.01 0.02 0.02 0.03 0.04 0.05 0.05 0.04 0.06 0.06 0.06 0.05 0.05 0.04 0.12 0.19 0.19 0.22 0.26 0.43 0.61
0.00 0.00 0.00 0.00 0.00 0.00 0.00 0.00 0.00 0.00 0.00 0.00 0.00 0.00 0.00 0.00 0.00 0.00 0.00 0.00 0.00 0.00 0.00 0.01 0.01 0.02 0.04 0.08 0.07 0.05 0.03 0.03 0.04 0.04 0.04 0.05 0.09 0.07 0.11 0.14 0.17 0.19 0.28
0.00 0.00 0.00 0.00 0.00 0.00 0.00 0.00 0.00 0.00 0.00 0.00 0.00 0.00 0.00 0.00 0.00 0.00 0.00 0.00 0.00 0.00 0.00 0.00 0.00 0.00 0.02 0.04 0.05 0.07 0.08 0.09 0.06 0.05 0.05 0.06 0.08 0.14 0.10 0.15 0.17 0.15 0.17
0.00 0.00 0.00 0.00 0.00 0.00 0.00 0.00 0.00 0.00 0.00 0.00 0.00 0.00 0.00 0.00 0.00 0.00 0.00 0.00 0.00 0.00 0.00 0.00 0.00 0.00 0.00 0.01 0.02 0.04 0.03 0.08 0.15 0.15 0.13 0.13 0.11 0.12 0.14 0.15 0.18 0.16 0.21
0.00 0.00 0.00 0.00 0.00 0.00 0.00 0.00 0.00 0.00 0.00 0.00 0.00 0.00 0.00 0.00 0.00 0.00 0.00 0.00 0.00 0.00 0.00 0.00 0.00 0.00 0.00 0.00 0.01 0.02 0.01 0.04 0.05 0.09 0.12 0.15 0.17 0.25 0.30 0.24 0.21 0.25 0.31
0.00 0.00 0.00 0.00 0.00 0.00 0.00 0.00 0.00 0.00 0.00 0.00 0.00 0.00 0.00 0.00 0.00 0.00 0.00 0.00 0.00 0.00 0.00 0.00 0.00 0.00 0.00 0.00 0.00 0.01 0.01 0.03 0.04 0.05 0.07 0.12 0.10 0.16 0.25 0.30 0.31 0.32 0.27
0.00 0.00 0.00 0.00 0.00 0.00 0.00 0.00 0.00 0.00 0.00 0.00 0.00 0.00 0.00 0.00 0.00 0.00 0.00 0.00 0.00 0.00 0.00 0.00 0.00 0.00 0.00 0.00 0.00 0.00 0.00 0.01 0.02 0.03 0.04 0.07 0.13 0.13 0.17 0.23 0.25 0.30 0.38
0.00 0.00 0.00 0.00 0.00 0.00 0.00 0.00 0.00 0.01 0.01 0.00 0.00 0.00 0.00 0.00 0.00 0.00 0.00 0.00 0.01 0.01 0.00 0.00 0.00 0.00 0.00 0.01 0.01 0.01 0.01 0.02 0.02 0.02 0.04 0.06 0.17 0.17 0.18 0.16 0.19 0.32 0.36
0.00 0.00 0.00 0.00 0.00 0.00 0.00 0.01 0.00 0.00 0.01 0.01 0.01 0.01 0.01 0.00 0.00 0.00 0.00 0.00 0.01 0.01 0.02 0.02 0.02 0.01 0.01 0.01 0.01 0.01 0.03 0.04 0.04 0.03 0.06 0.11 0.18 0.18 0.22 0.25 0.27 0.28 0.24
0.00 0.00 0.00 0.00 0.00 0.00 0.00 0.00 0.00 0.00 0.01 0.01 0.01 0.01 0.01 0.03 0.01 0.01 0.02 0.02 0.02 0.03 0.04 0.04 0.04 0.03 0.02 0.02 0.02 0.03 0.04 0.05 0.05 0.07 0.10 0.14 0.18 0.25 0.27 0.33 0.36 0.32 0.21
0.00 0.00 0.00 0.00 0.00 0.00 0.00 0.00 0.00 0.01 0.02 0.03 0.03 0.03 0.03 0.04 0.03 0.03 0.03 0.05 0.05 0.07 0.07 0.07 0.10 0.11 0.10 0.05 0.08 0.10 0.11 0.09 0.09 0.13 0.10 0.21 0.22 0.18 0.22 0.24 0.25 0.22 0.30
0.00 0.00 0.00 0.00 0.00 0.00 0.00 0.01 0.02 0.05 0.06 0.06 0.04 0.06 0.07 0.07 0.08 0.07 0.06 0.09 0.08 0.09 0.10 0.13 0.14 0.13 0.16 0.17 0.21 0.23 0.25 0.25 0.29 0.28 0.18 0.14 0.15 0.17 0.13 0.10 0.18 0.25 0.35

GFSMW_prec_precacc24_129.txt.gz
Total_Precipitation_Accumulation
0.00 0.02 0.05 0.14 0.16 0.13 0.13 0.20 0.63 1.07 1.08 0.68 0.53 0.42 0.24 0.16 0.06 0.04 0.02 0.02 0.16 0.20 0.18 0.23 0.28 0.31 0.35 0.34 0.29 0.28 0.33 0.35 0.30 0.31 0.23 0.10 0.03 0.00 0.00 0.00 0.00 0.00 0.00
0.01 0.09 0.07 0.22 0.37 0.38 0.31 0.47 0.53 0.37 0.85 1.05 0.60 0.54 0.31 0.22 0.18 0.11 0.05 0.04 0.03 0.12 0.21 0.12 0.14 0.17 0.16 0.18 0.25 0.26 0.20 0.15 0.15 0.16 0.15 0.09 0.02 0.01 0.00 0.00 0.00 0.00 0.00
0.07 0.12 0.15 0.36 0.34 0.52 0.62 0.71 0.97 0.43 0.41 1.01 0.88 0.58 0.74 0.64 0.51 0.38 0.25 0.12 0.07 0.07 0.09 0.20 0.15 0.16 0.21 0.28 0.23 0.24 0.26 0.23 0.27 0.36 0.30 0.09 0.03 0.00 0.00 0.00 0.00 0.00 0.00
0.13 0.16 0.24 0.34 0.32 0.30 0.38 0.45 0.89 0.78 0.48 0.53 1.10 0.90 0.65 0.64 0.67 0.69 0.59 0.56 0.61 0.57 0.52 0.62 0.58 0.42 0.32 0.35 0.39 0.57 0.66 0.56 0.46 0.43 0.31 0.18 0.11 0.07 0.03 0.01 0.00 0.00 0.00
0.28 0.27 0.26 0.39 0.32 0.25 0.68 0.67 0.69 0.72 0.53 0.42 0.67 1.28 1.00 0.68 0.38 0.33 0.42 0.53 0.52 0.65 0.76 0.68 0.67 0.60 0.53 0.37 0.39 0.43 0.51 0.66 0.69 0.58 0.48 0.47 0.46 0.31 0.16 0.07 0.02 0.01 0.02
0.44 0.50 0.56 0.50 0.36 0.20 0.47 1.00 0.77 0.72 0.45 0.52 0.41 0.75 1.17 1.04 0.62 0.38 0.35 0.41 0.56 0.62 0.84 0.99 0.87 0.85 0.71 0.64 0.57 0.55 0.52 0.45 0.42 0.42 0.44 0.44 0.32 0.22 0.20 0.11 0.05 0.08 0.06
0.86 1.00 0.80 0.63 0.50 0.29 0.54 0.86 0.76 0.85 0.59 0.64 0.59 0.52 0.76 1.17 1.22 0.98 0.81 0.73 0.67 0.78 0.76 0.97 1.14 1.04 1.01 0.88 0.80 0.81 0.76 0.72 0.66 0.68 0.65 0.59 0.51 0.37 0.42 0.45 0.28 0.19 0.15
1.31 1.52 1.83 1.43 1.05 0.78 0.91 0.89 0.73 1.05 1.03 0.93 0.80 0.84 0.84 0.80 0.87 0.88 0.90 0.88 0.80 0.75 0.71 0.88 1.06 1.28 1.26 1.25 0.99 0.80 0.66 0.57 0.48 0.43 0.43 0.41 0.38 0.34 0.34 0.40 0.48 0.47 0.30
1.04 1.27 1.43 1.08 0.83 1.25 1.45 1.06 0.86 1.07 0.96 0.90 0.82 0.93 1.06 0.78 0.62 0.72 0.66 0.64 0.68 0.69 0.74 0.67 0.70 0.79 0.87 1.07 1.11 1.04 0.83 0.70 0.56 0.43 0.35 0.30 0.25 0.25 0.28 0.30 0.36 0.48 0.52
1.04 0.78 0.54 0.36 0.47 0.61 0.60 0.85 0.75 0.49 0.46 0.55 0.36 0.59 0.70 0.76 0.68 0.71 0.62 0.51 0.48 0.48 0.53 0.58 0.64 0.68 0.74 0.74 0.76 0.78 0.72 0.84 0.85 0.75 0.68 0.57 0.41 0.33 0.31 0.31 0.33 0.41 0.52
0.17 0.08 0.03 0.03 0.03 0.03 0.06 0.15 0.26 0.25 0.29 0.31 0.25 0.33 0.46 0.35 0.34 0.42 0.47 0.46 0.36 0.36 0.32 0.30 0.27 0.26 0.25 0.30 0.37 0.37 0.33 0.36 0.33 0.39 0.51 0.52 0.42 0.43 0.40 0.38 0.38 0.43 0.53
0.00 0.01 0.01 0.01 0.01 0.01 0.01 0.01 0.01 0.01 0.01 0.02 0.07 0.13 0.20 0.21 0.15 0.14 0.10 0.06 0.05 0.09 0.13 0.21 0.19 0.18 0.20 0.21 0.26 0.29 0.31 0.36 0.34 0.30 0.37 0.41 0.38 0.48 0.48 0.49 0.45 0.38 0.36
0.00 0.00 0.00 0.00 0.00 0.00 0.00 0.00 0.00 0.00 0.00 0.00 0.01 0.01 0.01 0.01 0.00 0.01 0.00 0.00 0.00 0.00 0.00 0.01 0.02 0.03 0.06 0.07 0.13 0.20 0.26 0.32 0.33 0.33 0.35 0.31 0.37 0.44 0.40 0.44 0.51 0.54 0.56
0.00 0.00 0.00 0.00 0.00 0.00 0.00 0.00 0.00 0.00 0.00 0.00 0.00 0.00 0.00 0.00 0.00 0.00 0.00 0.00 0.00 0.00 0.00 0.00 0.01 0.02 0.02 0.03 0.04 0.04 0.06 0.07 0.11 0.17 0.25 0.30 0.36 0.35 0.36 0.52 0.62 0.68 0.77
0.00 0.00 0.00 0.00 0.00 0.00 0.00 0.00 0.00 0.00 0.00 0.00 0.00 0.00 0.00 0.00 0.00 0.00 0.00 0.00 0.00 0.00 0.00 0.00 0.01 0.03 0.04 0.05 0.05 0.04 0.06 0.06 0.06 0.05 0.05 0.04 0.12 0.19 0.19 0.22 0.26 0.43 0.63
0.00 0.00 0.00 0.00 0.00 0.00 0.00 0.00 0.00 0.00 0.00 0.00 0.00 0.00 0.00 0.00 0.00 0.00 0.00 0.00 0.00 0.00 0.00 0.01 0.01 0.02 0.04 0.08 0.07 0.05 0.03 0.03 0.04 0.04 0.04 0.05 0.09 0.07 0.11 0.14 0.17 0.19 0.28
0.00 0.00 0.00 0.00 0.00 0.00 0.00 0.00 0.00 0.00 0.00 0.00 0.00 0.00 0.00 0.00 0.00 0.00 0.00 0.00 0.00 0.00 0.00 0.00 0.00 0.00 0.02 0.04 0.05 0.07 0.08 0.09 0.06 0.05 0.05 0.06 0.08 0.14 0.10 0.15 0.17 0.15 0.17
0.00 0.00 0.00 0.00 0.00 0.00 0.00 0.00 0.00 0.00 0.00 0.00 0.00 0.00 0.00 0.00 0.00 0.00 0.00 0.00 0.00 0.00 0.00 0.00 0.00 0.00 0.00 0.01 0.02 0.04 0.03 0.08 0.15 0.15 0.13 0.13 0.11 0.12 0.14 0.15 0.18 0.16 0.21
0.00 0.00 0.00 0.00 0.00 0.00 0.00 0.00 0.00 0.00 0.00 0.00 0.00 0.00 0.00 0.00 0.00 0.00 0.00 0.00 0.00 0.00 0.00 0.00 0.00 0.00 0.00 0.00 0.01 0.02 0.01 0.04 0.05 0.09 0.12 0.15 0.17 0.25 0.30 0.24 0.21 0.25 0.31
0.00 0.00 0.00 0.00 0.00 0.00 0.00 0.00 0.00 0.00 0.00 0.00 0.00 0.00 0.00 0.00 0.00 0.00 0.00 0.00 0.00 0.00 0.00 0.00 0.00 0.00 0.00 0.00 0.00 0.01 0.01 0.03 0.04 0.05 0.07 0.12 0.10 0.16 0.26 0.30 0.32 0.33 0.28
0.00 0.00 0.00 0.00 0.00 0.00 0.00 0.00 0.00 0.00 0.00 0.00 0.00 0.00 0.00 0.00 0.00 0.00 0.00 0.00 0.00 0.00 0.00 0.00 0.00 0.00 0.00 0.00 0.00 0.00 0.00 0.01 0.02 0.03 0.04 0.07 0.13 0.13 0.17 0.23 0.25 0.30 0.38
0.00 0.00 0.00 0.00 0.00 0.00 0.00 0.00 0.00 0.00 0.00 0.00 0.00 0.00 0.00 0.00 0.00 0.00 0.00 0.00 0.01 0.01 0.00 0.00 0.00 0.00 0.00 0.01 0.00 0.01 0.02 0.03 0.03 0.03 0.04 0.06 0.17 0.17 0.18 0.16 0.20 0.33 0.37
0.00 0.00 0.00 0.00 0.00 0.00 0.00 0.00 0.00 0.00 0.00 0.01 0.01 0.01 0.01 0.00 0.00 0.00 0.00 0.00 0.01 0.01 0.02 0.02 0.02 0.01 0.01 0.01 0.01 0.01 0.03 0.04 0.04 0.03 0.06 0.12 0.19 0.18 0.22 0.26 0.28 0.28 0.24
0.00 0.00 0.00 0.00 0.00 0.00 0.00 0.00 0.00 0.00 0.00 0.00 0.01 0.00 0.01 0.02 0.00 0.01 0.01 0.02 0.02 0.03 0.04 0.04 0.04 0.03 0.02 0.02 0.02 0.03 0.04 0.05 0.06 0.07 0.10 0.14 0.19 0.26 0.28 0.34 0.36 0.32 0.22
0.00 0.00 0.00 0.00 0.00 0.00 0.00 0.00 0.00 0.00 0.00 0.00 0.01 0.02 0.02 0.02 0.01 0.01 0.02 0.05 0.05 0.06 0.07 0.07 0.10 0.11 0.10 0.05 0.09 0.11 0.11 0.09 0.10 0.14 0.10 0.21 0.22 0.18 0.22 0.24 0.25 0.22 0.31
0.00 0.00 0.00 0.00 0.00 0.00 0.00 0.00 0.00 0.00 0.00 0.01 0.01 0.04 0.03 0.01 0.01 0.02 0.03 0.07 0.07 0.08 0.07 0.09 0.10 0.10 0.14 0.14 0.20 0.24 0.26 0.25 0.30 0.29 0.18 0.14 0.15 0.17 0.13 0.10 0.18 0.25 0.36

GFSMW_prec_precacc24_132.txt.gz
Total_Precipitation_Accumulation
0.00 0.00 0.01 0.02 0.04 0.03 0.03 0.03 0.20 0.75 0.84 0.56 0.51 0.41 0.24 0.16 0.06 0.03 0.02 0.02 0.16 0.20 0.18 0.23 0.28 0.31 0.34 0.34 0.29 0.29 0.34 0.36 0.32 0.35 0.26 0.12 0.06 0.03 0.01 0.00 0.00 0.00 0.00
0.00 0.00 0.02 0.03 0.05 0.10 0.13 0.11 0.14 0.21 0.71 0.90 0.40 0.42 0.29 0.24 0.20 0.11 0.05 0.04 0.03 0.12 0.21 0.12 0.12 0.15 0.13 0.15 0.24 0.26 0.21 0.16 0.16 0.16 0.15 0.10 0.03 0.02 0.01 0.00 0.00 0.00 0.00
0.01 0.02 0.03 0.05 0.05 0.14 0.33 0.36 0.49 0.22 0.28 0.90 0.80 0.40 0.48 0.51 0.43 0.33 0.21 0.11 0.07 0.07 0.09 0.16 0.09 0.07 0.11 0.15 0.11 0.16 0.21 0.19 0.20 0.25 0.24 0.11 0.05 0.01 0.00 0.00 0.00 0.00 0.00
0.06 0.05 0.06 0.06 0.07 0.11 0.19 0.26 0.53 0.57 0.34 0.47 0.99 0.76 0.45 0.53 0.58 0.53 0.40 0.33 0.37 0.34 0.30 0.44 0.48 0.38 0.31 0.33 0.33 0.42 0.47 0.38 0.29 0.31 0.28 0.18 0.12 0.08 0.04 0.01 0.01 0.00 0.00
0.14 0.16 0.16 0.22 0.16 0.12 0.11 0.20 0.33 0.51 0.36 0.34 0.60 1.17 0.87 0.62 0.38 0.34 0.42 0.48 0.48 0.58 0.67 0.61 0.61 0.58 0.53 0.36 0.37 0.40 0.42 0.41 0.40 0.33 0.36 0.42 0.44 0.32 0.17 0.07 0.02 0.01 0.02
0.30 0.41 0.50 0.46 0.30 0.12 0.16 0.31 0.40 0.57 0.38 0.43 0.36 0.70 1.09 0.94 0.59 0.39 0.34 0.40 0.58 0.61 0.84 0.99 0.86 0.84 0.71 0.62 0.54 0.52 0.47 0.41 0.40 0.38 0.36 0.37 0.32 0.23 0.22 0.14 0.08 0.11 0.07
0.80 0.96 0.80 0.64 0.51 0.30 0.54 0.71 0.63 0.74 0.54 0.67 0.59 0.52 0.74 1.15 1.20 1.01 0.80 0.71 0.68 0.75 0.72 0.95 1.13 1.04 1.00 0.85 0.74 0.71 0.65 0.66 0.66 0.70 0.68 0.64 0.61 0.51 0.55 0.58 0.38 0.25 0.16
1.26 1.49 1.82 1.43 1.07 0.81 0.93 0.81 0.61 0.96 0.98 0.93 0.79 0.81 0.84 0.81 0.85 0.84 0.89 0.86 0.77 0.69 0.65 0.83 1.00 1.17 1.18 1.16 0.90 0.74 0.66 0.62 0.55 0.51 0.56 0.60 0.54 0.47 0.47 0.50 0.58 0.56 0.35
1.00 1.27 1.43 1.09 0.83 1.26 1.48 1.07 0.85 1.05 0.93 0.83 0.70 0.88 0.99 0.77 0.57 0.59 0.53 0.52 0.58 0.57 0.62 0.55 0.56 0.67 0.78 1.03 1.08 1.02 0.84 0.73 0.65 0.56 0.44 0.37 0.32 0.34 0.39 0.44 0.52 0.60 0.57
1.04 0.78 0.54 0.37 0.48 0.62 0.62 0.86 0.75 0.50 0.47 0.56 0.37 0.59 0.63 0.72 0.63 0.61 0.53 0.43 0.45 0.45 0.49 0.54 0.58 0.62 0.70 0.73 0.77 0.82 0.74 0.86 0.88 0.78 0.69 0.58 0.42 0.34 0.32 0.32 0.35 0.42 0.54
0.17 0.08 0.03 0.03 0.04 0.05 0.09 0.19 0.28 0.26 0.30 0.32 0.26 0.34 0.47 0.35 0.34 0.41 0.43 0.45 0.37 0.39 0.35 0.31 0.30 0.28 0.27 0.30 0.37 0.37 0.33 0.36 0.33 0.39 0.52 0.53 0.44 0.44 0.43 0.40 0.41 0.46 0.57
0.00 0.01 0.01 0.01 0.01 0.01 0.02 0.02 0.03 0.01 0.01 0.03 0.08 0.14 0.21 0.22 0.16 0.16 0.19 0.13 0.10 0.14 0.24 0.23 0.19 0.18 0.19 0.21 0.26 0.29 0.31 0.36 0.34 0.30 0.37 0.41 0.38 0.49 0.49 0.51 0.47 0.41 0.40
0.00 0.00 0.00 0.00 0.00 0.00 0.00 0.00 0.00 0.00 0.00 0.01 0.04 0.05 0.03 0.04 0.01 0.03 0.03 0.02 0.03 0.02 0.02 0.01 0.01 0.03 0.05 0.06 0.12 0.20 0.26 0.32 0.33 0.33 0.35 0.31 0.37 0.44 0.40 0.45 0.52 0.56 0.57
0.00 0.00 0.00 0.00 0.00 0.00 0.00 0.00 0.00 0.00 0.00 0.00 0.00 0.00 0.00 0.00 0.00 0.00 0.00 0.00 0.00 0.00 0.00 0.00 0.00 0.00 0.00 0.01 0.03 0.04 0.06 0.07 0.11 0.17 0.25 0.30 0.36 0.35 0.36 0.52 0.62 0.68 0.77
0.00 0.00 0.00 0.00 0.00 0.00 0.00 0.00 0.00 0.00 0.00 0.00 0.00 0.00 0.00 0.00 0.00 0.00 0.00 0.00 0.00 0.00 0.00 0.00 0.00 0.00 0.00 0.02 0.04 0.04 0.06 0.06 0.06 0.05 0.05 0.04 0.12 0.19 0.19 0.22 0.26 0.43 0.63
0.00 0.00 0.00 0.00 0.00 0.00 0.00 0.00 0.00 0.00 0.00 0.00 0.00 0.00 0.00 0.00 0.00 0.00 0.00 0.00 0.00 0.00 0.00 0.00 0.00 0.00 0.00 0.04 0.06 0.05 0.03 0.03 0.04 0.04 0.04 0.05 0.09 0.07 0.11 0.14 0.17 0.19 0.28
0.00 0.00 0.00 0.00 0.00 0.00 0.00 0.00 0.00 0.00 0.00 0.00 0.00 0.00 0.00 0.00 0.00 0.00 0.00 0.00 0.00 0.00 0.00 0.00 0.00 0.00 0.00 0.02 0.04 0.07 0.08 0.09 0.06 0.05 0.05 0.06 0.08 0.14 0.10 0.15 0.17 0.15 0.17
0.00 0.00 0.00 0.00 0.00 0.00 0.00 0.00 0.00 0.00 0.00 0.00 0.00 0.00 0.00 0.00 0.00 0.00 0.00 0.00 0.00 0.00 0.00 0.00 0.00 0.00 0.00 0.01 0.02 0.04 0.03 0.08 0.15 0.15 0.13 0.13 0.11 0.12 0.14 0.15 0.18 0.16 0.21
0.00 0.00 0.00 0.00 0.00 0.00 0.00 0.00 0.00 0.00 0.00 0.00 0.00 0.00 0.00 0.00 0.00 0.00 0.00 0.00 0.00 0.00 0.00 0.00 0.00 0.00 0.00 0.00 0.01 0.02 0.01 0.04 0.05 0.09 0.12 0.15 0.17 0.25 0.30 0.24 0.21 0.25 0.31
0.00 0.00 0.00 0.00 0.00 0.00 0.00 0.00 0.00 0.00 0.00 0.00 0.00 0.00 0.00 0.00 0.00 0.00 0.00 0.00 0.00 0.00 0.00 0.00 0.00 0.00 0.00 0.00 0.00 0.01 0.01 0.03 0.04 0.05 0.07 0.12 0.10 0.16 0.26 0.30 0.32 0.33 0.28
0.00 0.00 0.00 0.00 0.00 0.00 0.00 0.00 0.00 0.00 0.00 0.00 0.00 0.00 0.00 0.00 0.00 0.00 0.00 0.00 0.00 0.00 0.00 0.00 0.00 0.00 0.00 0.00 0.00 0.00 0.00 0.01 0.02 0.03 0.04 0.07 0.13 0.13 0.17 0.24 0.26 0.30 0.39
0.00 0.00 0.00 0.00 0.00 0.00 0.00 0.00 0.00 0.00 0.00 0.00 0.00 0.00 0.00 0.00 0.00 0.00 0.00 0.00 0.01 0.01 0.00 0.00 0.00 0.00 0.00 0.01 0.00 0.01 0.02 0.03 0.03 0.03 0.04 0.06 0.18 0.18 0.19 0.16 0.20 0.34 0.38
0.00 0.00 0.00 0.00 0.00 0.00 0.00 0.00 0.00 0.00 0.00 0.00 0.00 0.00 0.00 0.00 0.00 0.00 0.00 0.00 0.00 0.01 0.02 0.02 0.02 0.01 0.01 0.01 0.01 0.01 0.03 0.05 0.05 0.04 0.06 0.12 0.19 0.18 0.22 0.26 0.28 0.30 0.25
0.00 0.00 0.00 0.00 0.00 0.00 0.00 0.00 0.00 0.00 0.00 0.00 0.00 0.00 0.00 0.01 0.00 0.00 0.00 0.01 0.01 0.02 0.03 0.04 0.04 0.03 0.02 0.02 0.02 0.03 0.04 0.05 0.06 0.07 0.10 0.14 0.19 0.26 0.28 0.34 0.37 0.32 0.22
0.00 0.00 0.00 0.00 0.00 0.00 0.00 0.00 0.00 0.00 0.00 0.00 0.00 0.00 0.01 0.01 0.01 0.01 0.01 0.03 0.03 0.04 0.05 0.06 0.09 0.11 0.10 0.05 0.08 0.10 0.11 0.09 0.10 0.14 0.10 0.21 0.22 0.18 0.22 0.24 0.25 0.22 0.31
0.00 0.00 0.00 0.00 0.00 0.00 0.00 0.00 0.00 0.00 0.00 0.00 0.00 0.01 0.00 0.00 0.00 0.01 0.01 0.02 0.04 0.04 0.05 0.07 0.09 0.10 0.13 0.13 0.16 0.17 0.20 0.21 0.28 0.29 0.18 0.14 0.16 0.17 0.13 0.11 0.18 0.25 0.36

GFSMW_prec_precacc24_135.txt.gz
Total_Precipitation_Accumulation
0.00 0.00 0.00 0.00 0.00 0.00 0.00 0.00 0.02 0.11 0.31 0.10 0.08 0.10 0.09 0.09 0.06 0.07 0.06 0.04 0.16 0.20 0.18 0.23 0.28 0.31 0.34 0.34 0.29 0.29 0.34 0.36 0.32 0.37 0.26 0.13 0.07 0.05 0.01 0.00 0.00 0.00 0.00
0.00 0.00 0.00 0.00 0.00 0.00 0.00 0.01 0.03 0.05 0.28 0.61 0.20 0.19 0.13 0.13 0.11 0.11 0.11 0.10 0.11 0.16 0.22 0.12 0.12 0.15 0.13 0.15 0.24 0.26 0.21 0.16 0.16 0.16 0.15 0.10 0.04 0.02 0.01 0.01 0.00 0.00 0.00
0.00 0.00 0.01 0.00 0.01 0.01 0.02 0.04 0.10 0.10 0.10 0.73 0.69 0.27 0.29 0.33 0.33 0.29 0.19 0.13 0.11 0.12 0.13 0.17 0.07 0.05 0.09 0.11 0.09 0.16 0.19 0.17 0.18 0.18 0.17 0.10 0.05 0.01 0.00 0.00 0.00 0.00 0.00
0.01 0.02 0.02 0.01 0.01 0.02 0.02 0.02 0.08 0.22 0.22 0.32 0.86 0.67 0.37 0.39 0.35 0.35 0.38 0.33 0.30 0.31 0.21 0.25 0.26 0.15 0.12 0.17 0.21 0.30 0.34 0.30 0.22 0.19 0.15 0.10 0.09 0.08 0.04 0.01 0.01 0.00 0.00
0.07 0.08 0.07 0.14 0.10 0.05 0.03 0.05 0.09 0.17 0.24 0.23 0.52 1.10 0.81 0.54 0.31 0.28 0.40 0.54 0.52 0.58 0.64 0.53 0.51 0.46 0.38 0.30 0.34 0.38 0.42 0.42 0.39 0.32 0.27 0.28 0.29 0.24 0.18 0.07 0.02 0.01 0.02
0.19 0.31 0.44 0.37 0.24 0.08 0.07 0.03 0.12 0.20 0.22 0.27 0.30 0.65 1.04 0.85 0.53 0.39 0.34 0.43 0.54 0.61 0.81 0.96 0.85 0.81 0.65 0.59 0.54 0.52 0.48 0.42 0.41 0.38 0.35 0.29 0.23 0.19 0.23 0.15 0.08 0.12 0.08
0.59 0.86 0.70 0.55 0.42 0.24 0.43 0.34 0.28 0.41 0.38 0.52 0.50 0.49 0.68 1.06 1.13 1.01 0.87 0.78 0.68 0.60 0.62 0.86 1.06 1.00 0.98 0.83 0.73 0.71 0.65 0.66 0.66 0.70 0.70 0.66 0.60 0.51 0.59 0.64 0.44 0.35 0.23
1.10 1.29 1.64 1.36 1.04 0.77 0.83 0.69 0.51 0.82 0.85 0.89 0.78 0.81 0.84 0.75 0.79 0.84 0.96 0.95 0.78 0.65 0.56 0.73 0.96 1.15 1.17 1.14 0.89 0.73 0.64 0.61 0.61 0.61 0.70 0.79 0.72 0.68 0.73 0.80 0.80 0.71 0.42
0.88 1.16 1.38 1.08 0.83 1.26 1.47 1.06 0.83 1.03 0.92 0.81 0.68 0.86 0.97 0.75 0.56 0.57 0.50 0.49 0.52 0.55 0.58 0.51 0.52 0.63 0.74 0.97 1.02 0.95 0.78 0.70 0.68 0.64 0.62 0.61 0.60 0.59 0.59 0.59 0.67 0.74 0.65
1.01 0.77 0.54 0.37 0.48 0.62 0.62 0.86 0.75 0.50 0.48 0.56 0.36 0.57 0.59 0.62 0.48 0.46 0.45 0.36 0.36 0.39 0.43 0.47 0.51 0.56 0.61 0.64 0.69 0.77 0.76 0.90 0.93 0.83 0.76 0.63 0.44 0.37 0.36 0.34 0.37 0.44 0.56
0.17 0.08 0.03 0.03 0.04 0.05 0.09 0.20 0.29 0.26 0.30 0.33 0.26 0.34 0.47 0.35 0.29 0.32 0.36 0.37 0.30 0.25 0.22 0.22 0.23 0.25 0.25 0.28 0.34 0.35 0.31 0.35 0.33 0.39 0.53 0.55 0.44 0.45 0.43 0.41 0.41 0.47 0.60
0.00 0.01 0.01 0.01 0.01 0.01 0.02 0.02 0.03 0.02 0.03 0.04 0.09 0.14 0.21 0.22 0.16 0.16 0.19 0.12 0.09 0.12 0.24 0.26 0.19 0.18 0.19 0.21 0.25 0.29 0.30 0.34 0.34 0.30 0.37 0.41 0.38 0.49 0.49 0.51 0.48 0.41 0.41
0.00 0.00 0.00 0.00 0.00 0.00 0.00 0.00 0.00 0.00 0.00 0.01 0.05 0.05 0.03 0.04 0.01 0.03 0.03 0.03 0.03 0.03 0.03 0.02 0.01 0.02 0.04 0.06 0.11 0.19 0.25 0.31 0.33 0.33 0.35 0.31 0.37 0.44 0.40 0.45 0.52 0.56 0.57
0.00 0.00 0.00 0.00 0.00 0.00 0.00 0.00 0.00 0.00 0.00 0.00 0.00 0.00 0.00 0.00 0.00 0.00 0.00 0.00 0.00 0.00 0.00 0.00 0.00 0.00 0.00 0.00 0.01 0.02 0.04 0.05 0.10 0.17 0.25 0.30 0.36 0.35 0.36 0.52 0.62 0.68 0.77
0.00 0.00 0.00 0.00 0.00 0.00 0.00 0.00 0.00 0.00 0.00 0.00 0.00 0.00 0.00 0.00 0.00 0.00 0.00 0.00 0.00 0.00 0.00 0.00 0.00 0.00 0.00 0.00 0.00 0.01 0.03 0.04 0.05 0.05 0.05 0.04 0.12 0.19 0.19 0.22 0.26 0.43 0.63
0.00 0.00 0.00 0.00 0.00 0.00 0.00 0.00 0.00 0.00 0.00 0.00 0.00 0.00 0.00 0.00 0.00 0.00 0.00 0.00 0.00 0.00 0.00 0.00 0.00 0.00 0.00 0.01 0.01 0.01 0.01 0.02 0.04 0.04 0.04 0.05 0.09 0.07 0.11 0.14 0.17 0.19 0.28
0.00 0.00 0.00 0.00 0.00 0.00 0.00 0.00 0.00 0.00 0.00 0.00 0.00 0.00 0.00 0.00 0.00 0.00 0.00 0.00 0.00 0.00 0.00 0.00 0.00 0.00 0.00 0.01 0.00 0.01 0.01 0.02 0.04 0.05 0.05 0.06 0.08 0.14 0.10 0.15 0.17 0.15 0.17
0.00 0.00 0.00 0.00 0.00 0.00 0.00 0.00 0.00 0.00 0.00 0.00 0.00 0.00 0.00 0.00 0.00 0.00 0.00 0.00 0.00 0.00 0.00 0.00 0.00 0.00 0.00 0.00 0.00 0.03 0.01 0.03 0.08 0.14 0.13 0.13 0.11 0.12 0.14 0.15 0.18 0.16 0.21
0.00 0.00 0.00 0.00 0.00 0.00 0.00 0.00 0.00 0.00 0.00 0.00 0.00 0.00 0.00 0.00 0.00 0.00 0.00 0.00 0.00 0.00 0.00 0.00 0.00 0.00 0.00 0.00 0.00 0.01 0.01 0.04 0.05 0.09 0.12 0.15 0.17 0.25 0.31 0.24 0.21 0.25 0.31
0.00 0.00 0.00 0.00 0.00 0.00 0.00 0.00 0.00 0.00 0.00 0.00 0.00 0.00 0.00 0.00 0.00 0.00 0.00 0.00 0.00 0.00 0.00 0.00 0.00 0.00 0.00 0.00 0.00 0.00 0.00 0.03 0.04 0.05 0.07 0.12 0.10 0.16 0.26 0.31 0.32 0.33 0.28
0.00 0.00 0.00 0.00 0.00 0.00 0.00 0.00 0.00 0.00 0.00 0.00 0.00 0.00 0.00 0.00 0.00 0.00 0.00 0.00 0.00 0.00 0.00 0.00 0.00 0.00 0.00 0.00 0.00 0.00 0.00 0.01 0.02 0.03 0.04 0.07 0.13 0.14 0.18 0.24 0.26 0.31 0.40
0.00 0.00 0.00 0.00 0.00 0.00 0.00 0.00 0.00 0.00 0.00 0.00 0.00 0.00 0.00 0.00 0.00 0.00 0.00 0.00 0.00 0.00 0.00 0.00 0.00 0.00 0.00 0.01 0.00 0.01 0.02 0.03 0.03 0.03 0.04 0.06 0.18 0.18 0.19 0.17 0.21 0.34 0.40
0.00 0.00 0.00 0.00 0.00 0.00 0.00 0.00 0.00 0.00 0.00 0.00 0.00 0.00 0.00 0.00 0.00 0.00 0.00 0.00 0.00 0.00 0.00 0.01 0.01 0.01 0.01 0.01 0.01 0.00 0.02 0.04 0.05 0.04 0.07 0.13 0.19 0.19 0.22 0.26 0.29 0.31 0.25
0.00 0.00 0.00 0.00 0.00 0.00 0.00 0.00 0.00 0.00 0.00 0.00 0.00 0.00 0.00 0.00 0.00 0.00 0.00 0.00 0.00 0.00 0.00 0.01 0.02 0.02 0.02 0.01 0.01 0.02 0.03 0.05 0.05 0.07 0.10 0.14 0.19 0.26 0.28 0.34 0.37 0.33 0.23
0.00 0.00 0.00 0.00 0.00 0.00 0.00 0.00 0.00 0.00 0.00 0.00 0.00 0.00 0.00 0.00 0.00 0.00 0.00 0.01 0.00 0.01 0.02 0.04 0.07 0.09 0.09 0.04 0.07 0.09 0.09 0.07 0.09 0.14 0.10 0.20 0.22 0.18 0.22 0.24 0.25 0.22 0.31
0.00 0.00 0.00 0.00 0.00 0.00 0.00 0.00 0.00 0.00 0.00 0.00 0.00 0.00 0.00 0.00 0.00 0.00 0.00 0.01 0.02 0.02 0.02 0.03 0.06 0.07 0.09 0.10 0.11 0.11 0.11 0.12 0.21 0.25 0.17 0.14 0.16 0.18 0.13 0.11 0.19 0.25 0.37

GFSMW_prec_precacc24_138.txt.gz
Total_Precipitation_Accumulation
0.00 0.00 0.00 0.00 0.00 0.00 0.00 0.00 0.00 0.00 0.00 0.00 0.01 0.01 0.00 0.02 0.04 0.07 0.06 0.04 0.18 0.22 0.21 0.24 0.30 0.35 0.40 0.36 0.29 0.29 0.34 0.36 0.32 0.37 0.26 0.13 0.07 0.06 0.01 0.00 0.00 0.00 0.00
0.00 0.00 0.00 0.00 0.00 0.00 0.00 0.00 0.00 0.00 0.00 0.00 0.02 0.03 0.02 0.04 0.03 0.07 0.11 0.13 0.14 0.23 0.29 0.17 0.14 0.15 0.13 0.15 0.24 0.26 0.21 0.16 0.16 0.16 0.15 0.10 0.04 0.02 0.01 0.01 0.00 0.00 0.00
0.00 0.00 0.00 0.00 0.00 0.00 0.00 0.00 0.00 0.00 0.00 0.00 0.08 0.04 0.04 0.08 0.15 0.13 0.12 0.14 0.16 0.19 0.27 0.34 0.21 0.15 0.13 0.10 0.07 0.11 0.15 0.17 0.17 0.17 0.17 0.10 0.05 0.01 0.00 0.00 0.00 0.00 0.00
0.01 0.00 0.01 0.01 0.00 0.00 0.01 0.00 0.00 0.00 0.00 0.00 0.20 0.30 0.12 0.13 0.15 0.16 0.19 0.19 0.26 0.30 0.26 0.30 0.32 0.19 0.11 0.09 0.08 0.09 0.11 0.14 0.14 0.14 0.13 0.08 0.05 0.05 0.03 0.01 0.00 0.00 0.00
0.06 0.04 0.02 0.08 0.09 0.05 0.03 0.02 0.02 0.01 0.00 0.01 0.22 0.74 0.57 0.31 0.19 0.18 0.25 0.39 0.42 0.54 0.62 0.45 0.45 0.37 0.25 0.16 0.14 0.16 0.22 0.26 0.27 0.25 0.24 0.24 0.25 0.20 0.15 0.07 0.01 0.01 0.02
0.16 0.20 0.34 0.31 0.20 0.06 0.03 0.01 0.01 0.03 0.04 0.04 0.15 0.50 0.81 0.68 0.45 0.37 0.32 0.40 0.58 0.59 0.76 0.90 0.80 0.69 0.48 0.38 0.37 0.43 0.45 0.41 0.39 0.37 0.35 0.30 0.24 0.17 0.22 0.16 0.09 0.12 0.08
0.33 0.49 0.57 0.41 0.27 0.17 0.25 0.16 0.04 0.05 0.05 0.18 0.23 0.27 0.54 0.96 1.04 0.96 0.83 0.78 0.71 0.62 0.64 0.69 0.90 0.91 0.85 0.71 0.66 0.67 0.65 0.66 0.67 0.73 0.72 0.69 0.63 0.52 0.56 0.62 0.45 0.38 0.24
0.53 0.89 1.36 1.02 0.72 0.57 0.61 0.41 0.12 0.32 0.24 0.38 0.46 0.51 0.64 0.65 0.72 0.78 0.89 0.91 0.94 0.79 0.54 0.52 0.71 0.96 1.03 1.03 0.83 0.71 0.63 0.60 0.61 0.61 0.71 0.83 0.87 0.88 0.95 1.01 0.96 0.89 0.53
0.65 0.84 1.13 1.00 0.79 1.23 1.40 0.95 0.68 0.79 0.71 0.65 0.52 0.73 0.81 0.65 0.47 0.47 0.41 0.43 0.58 0.81 0.71 0.48 0.46 0.55 0.66 0.90 0.95 0.89 0.73 0.65 0.63 0.61 0.61 0.62 0.61 0.63 0.75 0.87 0.99 1.07 0.87
0.87 0.69 0.50 0.35 0.47 0.62 0.62 0.86 0.74 0.48 0.45 0.52 0.32 0.50 0.54 0.58 0.43 0.41 0.41 0.31 0.32 0.36 0.40 0.42 0.46 0.51 0.55 0.60 0.64 0.71 0.64 0.73 0.77 0.74 0.74 0.72 0.57 0.49 0.50 0.50 0.49 0.54 0.66
0.14 0.06 0.03 0.03 0.04 0.05 0.09 0.20 0.29 0.26 0.30 0.33 0.27 0.34 0.45 0.32 0.26 0.24 0.27 0.29 0.24 0.18 0.15 0.15 0.16 0.16 0.15 0.18 0.27 0.31 0.30 0.33 0.28 0.29 0.47 0.57 0.47 0.48 0.47 0.44 0.42 0.47 0.60
0.00 0.01 0.01 0.01 0.01 0.01 0.02 0.02 0.03 0.02 0.03 0.04 0.09 0.14 0.21 0.22 0.16 0.16 0.19 0.11 0.08 0.08 0.19 0.18 0.13 0.13 0.13 0.14 0.19 0.24 0.28 0.32 0.30 0.26 0.32 0.36 0.34 0.47 0.47 0.51 0.48 0.41 0.41
0.00 0.00 0.00 0.00 0.00 0.00 0.00 0.00 0.00 0.00 0.00 0.01 0.05 0.05 0.03 0.04 0.01 0.03 0.03 0.03 0.03 0.03 0.03 0.01 0.01 0.02 0.03 0.05 0.11 0.18 0.24 0.30 0.32 0.31 0.31 0.27 0.34 0.43 0.40 0.45 0.52 0.56 0.57
0.00 0.00 0.00 0.00 0.00 0.00 0.00 0.00 0.00 0.00 0.00 0.00 0.00 0.00 0.00 0.00 0.00 0.00 0.00 0.00 0.00 0.00 0.00 0.00 0.00 0.00 0.00 0.00 0.01 0.01 0.02 0.03 0.07 0.14 0.22 0.27 0.35 0.35 0.36 0.52 0.62 0.68 0.77
0.00 0.00 0.00 0.00 0.00 0.00 0.00 0.00 0.00 0.00 0.00 0.00 0.00 0.00 0.00 0.00 0.00 0.00 0.00 0.00 0.00 0.00 0.00 0.00 0.00 0.00 0.00 0.00 0.00 0.01 0.01 0.01 0.01 0.02 0.03 0.03 0.11 0.19 0.19 0.22 0.26 0.43 0.63
0.00 0.00 0.00 0.00 0.00 0.00 0.00 0.00 0.00 0.00 0.00 0.00 0.00 0.00 0.00 0.00 0.00 0.00 0.00 0.00 0.00 0.00 0.00 0.00 0.00 0.00 0.00 0.00 0.00 0.00 0.01 0.01 0.02 0.02 0.03 0.04 0.08 0.07 0.11 0.14 0.17 0.19 0.28
0.00 0.00 0.00 0.00 0.00 0.00 0.00 0.00 0.00 0.00 0.00 0.00 0.00 0.00 0.00 0.00 0.00 0.00 0.00 0.00 0.00 0.00 0.00 0.00 0.00 0.00 0.00 0.00 0.00 0.00 0.00 0.00 0.01 0.02 0.03 0.06 0.08 0.14 0.10 0.15 0.17 0.15 0.17
0.00 0.00 0.00 0.00 0.00 0.00 0.00 0.00 0.00 0.00 0.00 0.00 0.00 0.00 0.00 0.00 0.00 0.00 0.00 0.00 0.00 0.00 0.00 0.00 0.00 0.00 0.00 0.00 0.00 0.00 0.00 0.00 0.01 0.02 0.04 0.07 0.08 0.11 0.13 0.15 0.18 0.16 0.21
0.00 0.00 0.00 0.00 0.00 0.00 0.00 0.00 0.00 0.00 0.00 0.00 0.00 0.00 0.00 0.00 0.00 0.00 0.00 0.00 0.00 0.00 0.00 0.00 0.00 0.00 0.00 0.00 0.00 0.00 0.00 0.00 0.00 0.02 0.04 0.08 0.10 0.18 0.27 0.24 0.21 0.26 0.31
0.00 0.00 0.00 0.00 0.00 0.00 0.00 0.00 0.00 0.00 0.00 0.00 0.00 0.00 0.00 0.00 0.00 0.00 0.00 0.00 0.00 0.00 0.00 0.00 0.00 0.00 0.00 0.00 0.00 0.00 0.00 0.00 0.00 0.01 0.02 0.08 0.08 0.14 0.24 0.31 0.33 0.33 0.28
0.00 0.00 0.00 0.00 0.00 0.00 0.00 0.00 0.00 0.00 0.00 0.00 0.00 0.00 0.00 0.00 0.00 0.00 0.00 0.00 0.00 0.00 0.00 0.00 0.00 0.00 0.00 0.00 0.00 0.00 0.00 0.00 0.01 0.01 0.01 0.03 0.08 0.12 0.16 0.23 0.26 0.31 0.41
0.00 0.00 0.00 0.00 0.00 0.00 0.00 0.00 0.00 0.00 0.00 0.00 0.00 0.00 0.00 0.00 0.00 0.00 0.00 0.00 0.00 0.00 0.00 0.00 0.00 0.00 0.00 0.01 0.00 0.01 0.01 0.03 0.02 0.01 0.01 0.03 0.11 0.12 0.16 0.16 0.21 0.36 0.41
0.00 0.00 0.00 0.00 0.00 0.00 0.00 0.00 0.00 0.00 0.00 0.00 0.00 0.00 0.00 0.00 0.00 0.00 0.00 0.00 0.00 0.00 0.00 0.00 0.01 0.00 0.01 0.01 0.00 0.00 0.02 0.03 0.04 0.03 0.05 0.08 0.10 0.11 0.14 0.21 0.28 0.31 0.25
0.00 0.00 0.00 0.00 0.00 0.00 0.00 0.00 0.00 0.00 0.00 0.00 0.00 0.00 0.00 0.00 0.00 0.00 0.00 0.00 0.00 0.00 0.00 0.01 0.01 0.01 0.01 0.01 0.01 0.02 0.02 0.04 0.04 0.05 0.07 0.09 0.11 0.18 0.23 0.31 0.34 0.33 0.23
0.00 0.00 0.00 0.00 0.00 0.00 0.00 0.00 0.00 0.00 0.00 0.00 0.00 0.00 0.00 0.00 0.00 0.00 0.00 0.00 0.00 0.00 0.01 0.03 0.06 0.07 0.06 0.03 0.06 0.07 0.06 0.05 0.07 0.11 0.07 0.08 0.11 0.15 0.20 0.22 0.22 0.22 0.31
0.00 0.00 0.00 0.00 0.00 0.00 0.00 0.00 0.00 0.00 0.00 0.00 0.00 0.00 0.00 0.00 0.00 0.00 0.00 0.00 0.00 0.00 0.00 0.01 0.03 0.04 0.06 0.08 0.11 0.09 0.07 0.08 0.13 0.17 0.09 0.08 0.09 0.14 0.13 0.09 0.16 0.24 0.38

GFSMW_prec_precacc24_141.txt.gz
Total_Precipitation_Accumulation
0.00 0.00 0.00 0.00 0.00 0.00 0.00 0.00 0.00 0.00 0.00 0.00 0.00 0.00 0.00 0.01 0.03 0.05 0.05 0.03 0.02 0.04 0.13 0.26 0.36 0.43 0.49 0.50 0.43 0.35 0.37 0.42 0.37 0.37 0.26 0.13 0.07 0.06 0.01 0.00 0.00 0.00 0.00
0.00 0.00 0.00 0.00 0.00 0.00 0.00 0.00 0.00 0.00 0.00 0.00 0.00 0.00 0.01 0.03 0.03 0.06 0.10 0.11 0.12 0.12 0.12 0.17 0.17 0.20 0.19 0.23 0.30 0.28 0.24 0.19 0.17 0.17 0.15 0.10 0.04 0.02 0.01 0.01 0.00 0.00 0.00
0.00 0.00 0.00 0.00 0.00 0.00 0.00 0.00 0.00 0.00 0.00 0.00 0.00 0.00 0.02 0.05 0.10 0.07 0.08 0.11 0.12 0.15 0.24 0.34 0.28 0.24 0.23 0.19 0.17 0.18 0.19 0.20 0.18 0.17 0.17 0.10 0.05 0.01 0.00 0.00 0.00 0.00 0.00
0.01 0.00 0.00 0.00 0.00 0.00 0.00 0.00 0.00 0.00 0.00 0.00 0.00 0.01 0.04 0.08 0.11 0.11 0.12 0.12 0.17 0.24 0.24 0.31 0.40 0.32 0.23 0.17 0.15 0.14 0.12 0.14 0.12 0.11 0.12 0.08 0.05 0.06 0.03 0.01 0.00 0.00 0.00
0.06 0.03 0.02 0.06 0.09 0.05 0.03 0.02 0.01 0.01 0.00 0.00 0.01 0.03 0.05 0.10 0.11 0.13 0.17 0.28 0.29 0.42 0.53 0.46 0.53 0.51 0.40 0.27 0.17 0.12 0.12 0.13 0.14 0.10 0.11 0.12 0.18 0.17 0.16 0.07 0.01 0.01 0.02
0.15 0.18 0.26 0.21 0.12 0.06 0.02 0.00 0.01 0.02 0.04 0.02 0.03 0.05 0.16 0.33 0.18 0.17 0.20 0.32 0.49 0.47 0.59 0.72 0.70 0.61 0.46 0.36 0.31 0.31 0.31 0.27 0.27 0.28 0.25 0.21 0.20 0.16 0.21 0.17 0.09 0.12 0.08
0.29 0.35 0.37 0.27 0.19 0.12 0.10 0.04 0.01 0.01 0.04 0.12 0.13 0.11 0.16 0.56 0.70 0.69 0.62 0.70 0.65 0.57 0.71 0.76 0.76 0.76 0.68 0.53 0.52 0.55 0.56 0.58 0.60 0.65 0.65 0.64 0.62 0.54 0.58 0.66 0.49 0.42 0.26
0.31 0.33 0.87 0.73 0.38 0.31 0.31 0.17 0.06 0.12 0.06 0.16 0.23 0.23 0.33 0.39 0.48 0.57 0.70 0.74 0.84 0.69 0.53 0.81 1.01 0.99 0.90 0.84 0.66 0.58 0.54 0.54 0.56 0.57 0.68 0.81 0.85 0.87 0.95 1.05 1.05 0.95 0.58
0.31 0.56 0.90 0.77 0.58 0.97 1.13 0.73 0.40 0.36 0.24 0.26 0.24 0.47 0.47 0.42 0.26 0.28 0.24 0.29 0.45 0.70 0.65 0.47 0.47 0.60 0.61 0.72 0.76 0.70 0.59 0.55 0.55 0.56 0.57 0.59 0.60 0.64 0.77 0.92 1.06 1.13 0.94
0.62 0.53 0.39 0.28 0.45 0.59 0.58 0.80 0.65 0.38 0.30 0.35 0.23 0.34 0.39 0.40 0.29 0.29 0.29 0.22 0.21 0.26 0.35 0.40 0.44 0.48 0.51 0.53 0.53 0.57 0.54 0.65 0.71 0.70 0.68 0.63 0.51 0.44 0.47 0.51 0.58 0.66 0.75
0.09 0.04 0.02 0.03 0.04 0.05 0.09 0.20 0.29 0.26 0.30 0.33 0.26 0.31 0.37 0.26 0.22 0.21 0.21 0.24 0.20 0.15 0.13 0.12 0.13 0.13 0.12 0.14 0.19 0.23 0.23 0.28 0.25 0.26 0.34 0.37 0.32 0.36 0.36 0.36 0.44 0.50 0.61
0.00 0.01 0.01 0.01 0.01 0.01 0.02 0.02 0.03 0.02 0.03 0.04 0.09 0.14 0.21 0.22 0.16 0.16 0.19 0.11 0.08 0.07 0.17 0.16 0.10 0.11 0.11 0.11 0.12 0.13 0.14 0.19 0.24 0.22 0.27 0.29 0.24 0.32 0.32 0.41 0.43 0.38 0.38
0.00 0.00 0.00 0.00 0.00 0.00 0.00 0.00 0.00 0.00 0.00 0.01 0.05 0.05 0.03 0.04 0.01 0.03 0.03 0.03 0.03 0.03 0.02 0.01 0.00 0.01 0.03 0.05 0.09 0.16 0.20 0.25 0.27 0.27 0.29 0.25 0.29 0.33 0.28 0.36 0.46 0.47 0.50
0.00 0.00 0.00 0.00 0.00 0.00 0.00 0.00 0.00 0.00 0.00 0.00 0.00 0.00 0.00 0.00 0.00 0.00 0.00 0.00 0.00 0.00 0.00 0.00 0.00 0.00 0.00 0.00 0.00 0.00 0.01 0.02 0.06 0.12 0.20 0.25 0.31 0.30 0.29 0.38 0.43 0.54 0.74
0.00 0.00 0.00 0.00 0.00 0.00 0.00 0.00 0.00 0.00 0.00 0.00 0.00 0.00 0.00 0.00 0.00 0.00 0.00 0.00 0.00 0.00 0.00 0.00 0.00 0.00 0.00 0.00 0.00 0.00 0.00 0.00 0.00 0.00 0.01 0.01 0.08 0.14 0.15 0.19 0.20 0.33 0.58
0.00 0.00 0.00 0.00 0.00 0.00 0.00 0.00 0.00 0.00 0.00 0.00 0.00 0.00 0.00 0.00 0.00 0.00 0.00 0.00 0.00 0.00 0.00 0.00 0.00 0.00 0.00 0.00 0.00 0.00 0.00 0.00 0.01 0.00 0.00 0.01 0.03 0.03 0.07 0.12 0.16 0.17 0.28
0.00 0.00 0.00 0.00 0.00 0.00 0.00 0.00 0.00 0.00 0.00 0.00 0.00 0.00 0.00 0.00 0.00 0.00 0.00 0.00 0.00 0.00 0.00 0.00 0.00 0.00 0.00 0.00 0.00 0.00 0.00 0.00 0.00 0.00 0.00 0.00 0.02 0.05 0.04 0.10 0.14 0.15 0.17
0.00 0.00 0.00 0.00 0.00 0.00 0.00 0.00 0.00 0.00 0.00 0.00 0.00 0.00 0.00 0.00 0.00 0.00 0.00 0.00 0.00 0.00 0.00 0.00 0.00 0.00 0.00 0.00 0.00 0.00 0.00 0.00 0.00 0.00 0.00 0.00 0.01 0.03 0.07 0.10 0.15 0.15 0.21
0.00 0.00 0.00 0.00 0.00 0.00 0.00 0.00 0.00 0.00 0.00 0.00 0.00 0.00 0.00 0.00 0.00 0.00 0.00 0.00 0.00 0.00 0.00 0.00 0.00 0.00 0.00 0.00 0.00 0.00 0.00 0.00 0.00 0.00 0.00 0.01 0.01 0.03 0.09 0.12 0.14 0.21 0.28
0.00 0.00 0.00 0.00 0.00 0.00 0.00 0.00 0.00 0.00 0.00 0.00 0.00 0.00 0.00 0.00 0.00 0.00 0.00 0.00 0.00 0.00 0.00 0.00 0.00 0.00 0.00 0.00 0.00 0.00 0.00 0.00 0.00 0.00 0.00 0.02 0.02 0.05 0.08 0.08 0.12 0.20 0.18
0.00 0.00 0.00 0.00 0.00 0.00 0.00 0.00 0.00 0.00 0.00 0.00 0.00 0.00 0.00 0.00 0.00 0.00 0.00 0.00 0.00 0.00 0.00 0.00 0.00 0.00 0.00 0.00 0.00 0.00 0.00 0.00 0.01 0.01 0.01 0.01 0.04 0.05 0.08 0.10 0.09 0.16 0.27
0.00 0.00 0.00 0.00 0.00 0.00 0.00 0.00 0.00 0.00 0.00 0.00 0.00 0.00 0.00 0.00 0.00 0.00 0.00 0.00 0.00 0.00 0.00 0.00 0.00 0.00 0.00 0.00 0.00 0.01 0.01 0.03 0.02 0.01 0.01 0.02 0.06 0.05 0.07 0.08 0.09 0.17 0.26
0.00 0.00 0.00 0.00 0.00 0.00 0.00 0.00 0.00 0.00 0.00 0.00 0.00 0.00 0.00 0.00 0.00 0.00 0.00 0.00 0.00 0.00 0.00 0.00 0.00 0.00 0.00 0.00 0.00 0.00 0.02 0.03 0.03 0.03 0.05 0.07 0.06 0.06 0.08 0.10 0.14 0.19 0.14
0.00 0.00 0.00 0.00 0.00 0.00 0.00 0.00 0.00 0.00 0.00 0.00 0.00 0.00 0.00 0.00 0.00 0.00 0.00 0.00 0.00 0.00 0.00 0.01 0.01 0.00 0.00 0.00 0.00 0.01 0.02 0.04 0.03 0.04 0.06 0.07 0.05 0.06 0.09 0.18 0.19 0.15 0.15
0.00 0.00 0.00 0.00 0.00 0.00 0.00 0.00 0.00 0.00 0.00 0.00 0.00 0.00 0.00 0.00 0.00 0.00 0.00 0.00 0.00 0.00 0.01 0.01 0.04 0.06 0.05 0.02 0.04 0.05 0.04 0.04 0.06 0.09 0.06 0.05 0.06 0.05 0.07 0.08 0.10 0.12 0.22
0.00 0.00 0.00 0.00 0.00 0.00 0.00 0.00 0.00 0.00 0.00 0.00 0.00 0.00 0.00 0.00 0.00 0.00 0.00 0.00 0.00 0.00 0.00 0.00 0.01 0.02 0.04 0.05 0.07 0.07 0.05 0.05 0.07 0.10 0.07 0.05 0.06 0.07 0.06 0.06 0.10 0.14 0.27

GFSMW_prec_precacc24_144.txt.gz
Total_Precipitation_Accumulation
0.00 0.00 0.00 0.00 0.00 0.00 0.00 0.00 0.00 0.00 0.00 0.00 0.00 0.00 0.00 0.01 0.03 0.05 0.05 0.03 0.02 0.03 0.03 0.04 0.11 0.29 0.48 0.57 0.54 0.52 0.50 0.53 0.47 0.43 0.28 0.13 0.07 0.06 0.01 0.00 0.00 0.00 0.00
0.00 0.00 0.00 0.00 0.00 0.00 0.00 0.00 0.00 0.00 0.00 0.00 0.00 0.00 0.01 0.03 0.03 0.06 0.10 0.11 0.12 0.11 0.09 0.09 0.07 0.09 0.20 0.30 0.41 0.42 0.34 0.29 0.25 0.21 0.16 0.10 0.04 0.02 0.01 0.01 0.00 0.00 0.00
0.00 0.00 0.00 0.00 0.00 0.00 0.00 0.00 0.00 0.00 0.00 0.00 0.00 0.00 0.01 0.04 0.09 0.06 0.05 0.08 0.11 0.13 0.20 0.23 0.23 0.23 0.22 0.24 0.26 0.34 0.34 0.26 0.25 0.23 0.20 0.10 0.05 0.01 0.00 0.00 0.00 0.00 0.00
0.01 0.00 0.00 0.00 0.00 0.00 0.00 0.00 0.00 0.00 0.00 0.00 0.00 0.01 0.04 0.07 0.09 0.11 0.11 0.09 0.09 0.15 0.18 0.19 0.24 0.27 0.25 0.25 0.25 0.22 0.20 0.25 0.24 0.17 0.14 0.08 0.05 0.06 0.04 0.01 0.00 0.00 0.00
0.04 0.03 0.02 0.03 0.03 0.02 0.01 0.01 0.01 0.01 0.00 0.00 0.01 0.03 0.04 0.08 0.11 0.14 0.15 0.21 0.21 0.20 0.25 0.27 0.29 0.31 0.36 0.32 0.26 0.23 0.20 0.16 0.19 0.18 0.10 0.11 0.16 0.17 0.17 0.08 0.01 0.01 0.02
0.08 0.09 0.17 0.16 0.09 0.04 0.01 0.00 0.01 0.02 0.04 0.02 0.03 0.06 0.10 0.11 0.11 0.14 0.16 0.21 0.32 0.29 0.26 0.27 0.36 0.33 0.32 0.33 0.32 0.36 0.35 0.27 0.20 0.20 0.19 0.17 0.15 0.12 0.19 0.16 0.09 0.12 0.07
0.22 0.29 0.30 0.20 0.15 0.09 0.08 0.04 0.01 0.01 0.04 0.11 0.13 0.10 0.10 0.16 0.16 0.30 0.38 0.41 0.40 0.34 0.53 0.52 0.48 0.48 0.44 0.36 0.38 0.41 0.43 0.49 0.51 0.54 0.56 0.54 0.53 0.49 0.55 0.63 0.48 0.43 0.27
0.29 0.25 0.52 0.45 0.29 0.21 0.15 0.06 0.04 0.06 0.04 0.09 0.16 0.17 0.18 0.21 0.21 0.26 0.43 0.47 0.53 0.46 0.39 0.74 0.88 0.83 0.73 0.68 0.52 0.47 0.46 0.44 0.48 0.51 0.63 0.77 0.81 0.84 0.92 1.03 1.02 0.93 0.58
0.16 0.31 0.53 0.53 0.42 0.60 0.55 0.35 0.19 0.13 0.11 0.07 0.04 0.14 0.23 0.26 0.18 0.18 0.16 0.17 0.27 0.46 0.40 0.31 0.36 0.47 0.47 0.57 0.60 0.53 0.44 0.41 0.43 0.46 0.51 0.56 0.58 0.62 0.74 0.89 1.03 1.13 0.94
0.29 0.22 0.16 0.18 0.29 0.22 0.23 0.52 0.48 0.19 0.14 0.27 0.16 0.20 0.24 0.26 0.21 0.22 0.17 0.10 0.10 0.13 0.19 0.27 0.32 0.36 0.40 0.44 0.42 0.45 0.39 0.40 0.42 0.47 0.50 0.50 0.44 0.41 0.45 0.48 0.54 0.62 0.68
0.03 0.02 0.02 0.03 0.03 0.04 0.09 0.19 0.28 0.22 0.27 0.32 0.25 0.28 0.32 0.22 0.16 0.18 0.16 0.16 0.13 0.11 0.08 0.07 0.10 0.11 0.08 0.11 0.15 0.16 0.16 0.18 0.16 0.16 0.21 0.23 0.22 0.26 0.28 0.27 0.30 0.35 0.43
0.00 0.01 0.01 0.01 0.01 0.01 0.02 0.02 0.03 0.02 0.03 0.04 0.09 0.14 0.21 0.22 0.16 0.16 0.19 0.11 0.07 0.06 0.14 0.08 0.03 0.04 0.06 0.07 0.07 0.08 0.09 0.10 0.10 0.08 0.09 0.10 0.09 0.16 0.20 0.23 0.26 0.27 0.28
0.00 0.00 0.00 0.00 0.00 0.00 0.00 0.00 0.00 0.00 0.00 0.01 0.05 0.05 0.03 0.04 0.01 0.03 0.03 0.03 0.03 0.03 0.02 0.01 0.00 0.00 0.01 0.02 0.03 0.06 0.09 0.13 0.17 0.18 0.17 0.14 0.16 0.18 0.18 0.24 0.32 0.34 0.34
0.00 0.00 0.00 0.00 0.00 0.00 0.00 0.00 0.00 0.00 0.00 0.00 0.00 0.00 0.00 0.00 0.00 0.00 0.00 0.00 0.00 0.00 0.00 0.00 0.00 0.00 0.00 0.00 0.00 0.00 0.00 0.00 0.01 0.03 0.07 0.13 0.20 0.24 0.25 0.30 0.34 0.39 0.48
0.00 0.00 0.00 0.00 0.00 0.00 0.00 0.00 0.00 0.00 0.00 0.00 0.00 0.00 0.00 0.00 0.00 0.00 0.00 0.00 0.00 0.00 0.00 0.00 0.00 0.00 0.00 0.00 0.00 0.00 0.00 0.00 0.00 0.00 0.00 0.00 0.01 0.03 0.07 0.14 0.16 0.23 0.36
0.00 0.00 0.00 0.00 0.00 0.00 0.00 0.00 0.00 0.00 0.00 0.00 0.00 0.00 0.00 0.00 0.00 0.00 0.00 0.00 0.00 0.00 0.00 0.00 0.00 0.00 0.00 0.00 0.00 0.00 0.00 0.00 0.00 0.00 0.00 0.00 0.00 0.00 0.00 0.02 0.06 0.09 0.16
0.00 0.00 0.00 0.00 0.00 0.00 0.00 0.00 0.00 0.00 0.00 0.00 0.00 0.00 0.00 0.00 0.00 0.00 0.00 0.00 0.00 0.00 0.00 0.00 0.00 0.00 0.00 0.00 0.00 0.00 0.00 0.00 0.00 0.00 0.00 0.00 0.00 0.00 0.00 0.00 0.01 0.03 0.06
0.00 0.00 0.00 0.00 0.00 0.00 0.00 0.00 0.00 0.00 0.00 0.00 0.00 0.00 0.00 0.00 0.00 0.00 0.00 0.00 0.00 0.00 0.00 0.00 0.00 0.00 0.00 0.00 0.00 0.00 0.00 0.00 0.00 0.00 0.00 0.00 0.00 0.00 0.01 0.00 0.01 0.01 0.02
0.00 0.00 0.00 0.00 0.00 0.00 0.00 0.00 0.00 0.00 0.00 0.00 0.00 0.00 0.00 0.00 0.00 0.00 0.00 0.00 0.00 0.00 0.00 0.00 0.00 0.00 0.00 0.00 0.00 0.00 0.00 0.00 0.00 0.00 0.00 0.00 0.00 0.01 0.03 0.03 0.02 0.02 0.03
0.00 0.00 0.00 0.00 0.00 0.00 0.00 0.00 0.00 0.00 0.00 0.00 0.00 0.00 0.00 0.00 0.00 0.00 0.00 0.00 0.00 0.00 0.00 0.00 0.00 0.00 0.00 0.00 0.00 0.00 0.00 0.00 0.00 0.00 0.00 0.01 0.01 0.02 0.05 0.05 0.04 0.06 0.03
0.00 0.00 0.00 0.00 0.00 0.00 0.00 0.00 0.00 0.00 0.00 0.00 0.00 0.00 0.00 0.00 0.00 0.00 0.00 0.00 0.00 0.00 0.00 0.00 0.00 0.00 0.00 0.00 0.00 0.00 0.00 0.00 0.00 0.01 0.01 0.00 0.03 0.03 0.05 0.06 0.06 0.08 0.10
0.00 0.00 0.00 0.00 0.00 0.00 0.00 0.00 0.00 0.00 0.00 0.00 0.00 0.00 0.00 0.00 0.00 0.00 0.00 0.00 0.00 0.00 0.00 0.00 0.00 0.00 0.00 0.00 0.00 0.00 0.01 0.02 0.01 0.01 0.01 0.01 0.05 0.04 0.04 0.03 0.06 0.14 0.17
0.00 0.00 0.00 0.00 0.00 0.00 0.00 0.00 0.00 0.00 0.00 0.00 0.00 0.00 0.00 0.00 0.00 0.00 0.00 0.00 0.00 0.00 0.00 0.00 0.00 0.00 0.00 0.00 0.00 0.00 0.02 0.03 0.02 0.02 0.03 0.06 0.06 0.04 0.03 0.03 0.06 0.14 0.12
0.00 0.00 0.00 0.00 0.00 0.00 0.00 0.00 0.00 0.00 0.00 0.00 0.00 0.00 0.00 0.00 0.00 0.00 0.00 0.00 0.00 0.00 0.00 0.00 0.00 0.00 0.00 0.00 0.00 0.01 0.01 0.02 0.02 0.02 0.03 0.05 0.04 0.04 0.03 0.03 0.06 0.09 0.10
0.00 0.00 0.00 0.00 0.00 0.00 0.00 0.00 0.00 0.00 0.00 0.00 0.00 0.00 0.00 0.00 0.00 0.00 0.00 0.00 0.00 0.00 0.00 0.00 0.01 0.02 0.02 0.01 0.03 0.04 0.04 0.03 0.03 0.04 0.01 0.02 0.03 0.02 0.01 0.02 0.03 0.07 0.12
0.00 0.00 0.00 0.00 0.00 0.00 0.00 0.00 0.00 0.00 0.00 0.00 0.00 0.00 0.00 0.00 0.00 0.00 0.00 0.00 0.00 0.00 0.00 0.00 0.00 0.00 0.01 0.03 0.04 0.04 0.04 0.04 0.04 0.03 0.01 0.01 0.03 0.03 0.02 0.03 0.04 0.07 0.20

GFSMW_prec_precacc24_147.txt.gz
Total_Precipitation_Accumulation
0.00 0.00 0.00 0.00 0.00 0.00 0.00 0.00 0.00 0.00 0.00 0.00 0.00 0.00 0.00 0.01 0.03 0.05 0.05 0.03 0.02 0.03 0.03 0.04 0.09 0.17 0.21 0.29 0.33 0.39 0.54 0.62 0.57 0.49 0.31 0.15 0.09 0.06 0.01 0.00 0.00 0.00 0.00
0.00 0.00 0.00 0.00 0.00 0.00 0.00 0.00 0.00 0.00 0.00 0.00 0.00 0.00 0.01 0.03 0.03 0.06 0.10 0.11 0.12 0.11 0.08 0.08 0.06 0.07 0.12 0.18 0.21 0.29 0.36 0.32 0.31 0.26 0.17 0.10 0.04 0.02 0.01 0.01 0.00 0.00 0.00
0.00 0.00 0.00 0.00 0.00 0.00 0.00 0.00 0.00 0.00 0.00 0.00 0.00 0.00 0.01 0.04 0.09 0.06 0.05 0.08 0.11 0.13 0.20 0.22 0.22 0.21 0.18 0.19 0.23 0.30 0.49 0.54 0.46 0.39 0.25 0.10 0.05 0.01 0.00 0.00 0.00 0.00 0.00
0.01 0.00 0.00 0.00 0.00 0.00 0.00 0.00 0.00 0.00 0.00 0.00 0.00 0.01 0.03 0.06 0.09 0.11 0.12 0.09 0.11 0.20 0.22 0.19 0.22 0.24 0.23 0.24 0.22 0.20 0.23 0.49 0.70 0.72 0.54 0.23 0.07 0.07 0.04 0.01 0.00 0.00 0.00
0.01 0.01 0.01 0.02 0.01 0.00 0.00 0.00 0.01 0.01 0.00 0.00 0.01 0.03 0.04 0.08 0.11 0.14 0.16 0.23 0.26 0.27 0.27 0.25 0.26 0.28 0.31 0.29 0.25 0.23 0.21 0.17 0.36 0.57 0.48 0.32 0.23 0.19 0.18 0.08 0.01 0.01 0.00
0.04 0.03 0.04 0.05 0.04 0.03 0.01 0.00 0.01 0.02 0.04 0.02 0.03 0.06 0.10 0.11 0.11 0.14 0.16 0.25 0.35 0.33 0.28 0.23 0.26 0.20 0.24 0.25 0.24 0.29 0.30 0.26 0.23 0.22 0.23 0.22 0.19 0.12 0.16 0.15 0.07 0.09 0.04
0.16 0.19 0.23 0.16 0.13 0.08 0.08 0.04 0.01 0.01 0.04 0.11 0.13 0.10 0.10 0.16 0.16 0.19 0.26 0.29 0.29 0.19 0.42 0.36 0.15 0.14 0.13 0.14 0.21 0.26 0.28 0.35 0.41 0.47 0.49 0.43 0.40 0.37 0.42 0.51 0.40 0.35 0.21
0.19 0.19 0.33 0.29 0.24 0.15 0.09 0.04 0.02 0.03 0.02 0.08 0.16 0.16 0.17 0.20 0.18 0.15 0.22 0.24 0.32 0.23 0.12 0.40 0.51 0.34 0.26 0.30 0.29 0.32 0.34 0.32 0.35 0.39 0.51 0.66 0.71 0.71 0.80 0.92 0.92 0.82 0.49
0.05 0.07 0.12 0.26 0.20 0.20 0.18 0.10 0.05 0.06 0.06 0.03 0.02 0.06 0.10 0.12 0.12 0.12 0.12 0.11 0.21 0.36 0.24 0.11 0.15 0.29 0.28 0.32 0.31 0.28 0.28 0.25 0.31 0.36 0.40 0.46 0.50 0.53 0.64 0.78 0.91 1.01 0.83
0.02 0.01 0.03 0.06 0.14 0.07 0.10 0.19 0.16 0.06 0.09 0.12 0.06 0.06 0.08 0.12 0.18 0.17 0.13 0.08 0.05 0.07 0.09 0.09 0.10 0.13 0.18 0.22 0.20 0.23 0.19 0.19 0.21 0.25 0.28 0.29 0.25 0.24 0.29 0.34 0.41 0.48 0.51
0.01 0.01 0.01 0.02 0.02 0.04 0.08 0.15 0.16 0.12 0.21 0.29 0.16 0.21 0.26 0.16 0.14 0.16 0.15 0.16 0.11 0.07 0.06 0.04 0.05 0.06 0.05 0.06 0.06 0.08 0.10 0.12 0.09 0.08 0.10 0.11 0.11 0.12 0.12 0.14 0.19 0.24 0.31
0.00 0.01 0.00 0.01 0.01 0.01 0.02 0.02 0.03 0.02 0.03 0.04 0.09 0.14 0.20 0.22 0.16 0.16 0.19 0.11 0.07 0.06 0.14 0.08 0.01 0.01 0.00 0.00 0.01 0.03 0.04 0.05 0.07 0.06 0.06 0.06 0.04 0.05 0.07 0.09 0.12 0.15 0.16
0.00 0.00 0.00 0.00 0.00 0.00 0.00 0.00 0.00 0.00 0.00 0.01 0.05 0.05 0.03 0.04 0.01 0.03 0.03 0.03 0.03 0.03 0.02 0.01 0.00 0.00 0.00 0.00 0.00 0.01 0.02 0.03 0.03 0.03 0.03 0.03 0.07 0.11 0.12 0.13 0.14 0.16 0.16
0.00 0.00 0.00 0.00 0.00 0.00 0.00 0.00 0.00 0.00 0.00 0.00 0.00 0.00 0.00 0.00 0.00 0.00 0.00 0.00 0.00 0.00 0.00 0.00 0.00 0.00 0.00 0.00 0.00 0.00 0.00 0.00 0.00 0.00 0.01 0.01 0.02 0.04 0.08 0.14 0.17 0.22 0.31
0.00 0.00 0.00 0.00 0.00 0.00 0.00 0.00 0.00 0.00 0.00 0.00 0.00 0.00 0.00 0.00 0.00 0.00 0.00 0.00 0.00 0.00 0.00 0.00 0.00 0.00 0.00 0.00 0.00 0.00 0.00 0.00 0.00 0.00 0.00 0.00 0.00 0.00 0.00 0.02 0.05 0.11 0.23
0.00 0.00 0.00 0.00 0.00 0.00 0.00 0.00 0.00 0.00 0.00 0.00 0.00 0.00 0.00 0.00 0.00 0.00 0.00 0.00 0.00 0.00 0.00 0.00 0.00 0.00 0.00 0.00 0.00 0.00 0.00 0.00 0.00 0.00 0.00 0.00 0.00 0.00 0.00 0.00 0.00 0.01 0.05
0.00 0.00 0.00 0.00 0.00 0.00 0.00 0.00 0.00 0.00 0.00 0.00 0.00 0.00 0.00 0.00 0.00 0.00 0.00 0.00 0.00 0.00 0.00 0.00 0.00 0.00 0.00 0.00 0.00 0.00 0.00 0.00 0.00 0.00 0.00 0.00 0.00 0.00 0.00 0.00 0.01 0.01 0.01
0.00 0.00 0.00 0.00 0.00 0.00 0.00 0.00 0.00 0.00 0.00 0.00 0.00 0.00 0.00 0.00 0.00 0.00 0.00 0.00 0.00 0.00 0.00 0.00 0.00 0.00 0.00 0.00 0.00 0.00 0.00 0.00 0.00 0.00 0.00 0.00 0.00 0.00 0.00 0.00 0.01 0.01 0.01
0.00 0.00 0.00 0.00 0.00 0.00 0.00 0.00 0.00 0.00 0.00 0.00 0.00 0.00 0.00 0.00 0.00 0.00 0.00 0.00 0.00 0.00 0.00 0.00 0.00 0.00 0.00 0.00 0.00 0.00 0.00 0.00 0.00 0.00 0.00 0.00 0.00 0.00 0.02 0.02 0.01 0.01 0.00
0.00 0.00 0.00 0.00 0.00 0.00 0.00 0.00 0.00 0.00 0.00 0.00 0.00 0.00 0.00 0.00 0.00 0.00 0.00 0.00 0.00 0.00 0.00 0.00 0.00 0.00 0.00 0.00 0.00 0.00 0.00 0.00 0.00 0.00 0.00 0.00 0.01 0.01 0.03 0.03 0.02 0.02 0.00
0.00 0.00 0.00 0.00 0.00 0.00 0.00 0.00 0.00 0.00 0.00 0.00 0.00 0.00 0.00 0.00 0.00 0.00 0.00 0.00 0.00 0.00 0.00 0.00 0.00 0.00 0.00 0.00 0.00 0.00 0.00 0.00 0.00 0.00 0.00 0.00 0.00 0.02 0.04 0.04 0.03 0.04 0.05
0.00 0.00 0.00 0.00 0.00 0.00 0.00 0.00 0.00 0.00 0.00 0.00 0.00 0.00 0.00 0.00 0.00 0.00 0.00 0.00 0.00 0.00 0.00 0.00 0.00 0.00 0.00 0.00 0.00 0.00 0.01 0.02 0.01 0.01 0.00 0.00 0.02 0.02 0.03 0.02 0.03 0.06 0.08
0.00 0.00 0.00 0.00 0.00 0.00 0.00 0.00 0.00 0.00 0.00 0.00 0.00 0.00 0.00 0.00 0.00 0.00 0.00 0.00 0.00 0.00 0.00 0.00 0.00 0.00 0.00 0.00 0.00 0.00 0.02 0.03 0.02 0.01 0.02 0.04 0.03 0.02 0.02 0.02 0.02 0.04 0.03
0.00 0.00 0.00 0.00 0.00 0.00 0.00 0.00 0.00 0.00 0.00 0.00 0.00 0.00 0.00 0.00 0.00 0.00 0.00 0.00 0.00 0.00 0.00 0.00 0.00 0.00 0.00 0.00 0.00 0.00 0.01 0.02 0.01 0.01 0.02 0.02 0.01 0.02 0.01 0.02 0.02 0.01 0.04
0.00 0.00 0.00 0.00 0.00 0.00 0.00 0.00 0.00 0.00 0.00 0.00 0.00 0.00 0.00 0.00 0.00 0.00 0.00 0.00 0.00 0.00 0.00 0.00 0.00 0.01 0.01 0.00 0.02 0.03 0.02 0.02 0.02 0.02 0.01 0.00 0.00 0.00 0.00 0.01 0.01 0.01 0.03
0.00 0.00 0.00 0.00 0.00 0.00 0.00 0.00 0.00 0.00 0.00 0.00 0.00 0.00 0.00 0.00 0.00 0.00 0.00 0.00 0.00 0.00 0.00 0.00 0.00 0.00 0.01 0.02 0.02 0.03 0.03 0.02 0.02 0.01 0.00 0.01 0.01 0.02 0.01 0.02 0.01 0.01 0.06

GFSMW_prec_precacc24_150.txt.gz
Total_Precipitation_Accumulation
0.00 0.00 0.00 0.00 0.00 0.00 0.00 0.00 0.00 0.00 0.00 0.00 0.00 0.00 0.00 0.01 0.03 0.05 0.05 0.03 0.02 0.03 0.03 0.04 0.09 0.16 0.20 0.29 0.34 0.35 0.33 0.41 0.62 0.98 0.88 0.47 0.27 0.16 0.02 0.01 0.00 0.00 0.00
0.00 0.00 0.00 0.00 0.00 0.00 0.00 0.00 0.00 0.00 0.00 0.00 0.00 0.00 0.01 0.03 0.03 0.06 0.10 0.11 0.12 0.11 0.08 0.08 0.06 0.06 0.11 0.18 0.21 0.24 0.25 0.27 0.33 0.40 0.50 0.44 0.27 0.13 0.02 0.01 0.00 0.00 0.00
0.00 0.00 0.00 0.00 0.00 0.00 0.00 0.00 0.00 0.00 0.00 0.00 0.00 0.00 0.01 0.04 0.08 0.06 0.05 0.08 0.11 0.13 0.20 0.23 0.27 0.23 0.17 0.19 0.23 0.30 0.44 0.45 0.36 0.50 0.59 0.49 0.29 0.11 0.03 0.01 0.00 0.00 0.00
0.01 0.00 0.00 0.00 0.00 0.00 0.00 0.00 0.00 0.00 0.00 0.00 0.00 0.01 0.03 0.06 0.09 0.11 0.12 0.09 0.12 0.24 0.26 0.23 0.24 0.24 0.24 0.24 0.22 0.20 0.23 0.49 0.71 0.82 0.80 0.59 0.36 0.24 0.12 0.03 0.00 0.00 0.00
0.01 0.01 0.00 0.01 0.00 0.00 0.00 0.00 0.01 0.01 0.00 0.00 0.00 0.02 0.04 0.08 0.11 0.14 0.16 0.23 0.27 0.29 0.33 0.30 0.35 0.34 0.35 0.31 0.27 0.22 0.19 0.16 0.35 0.57 0.52 0.46 0.43 0.38 0.37 0.23 0.09 0.03 0.00
0.02 0.02 0.02 0.01 0.01 0.01 0.01 0.00 0.01 0.02 0.04 0.01 0.02 0.05 0.10 0.11 0.10 0.14 0.16 0.25 0.35 0.33 0.29 0.28 0.32 0.25 0.29 0.29 0.26 0.21 0.19 0.20 0.21 0.20 0.22 0.22 0.19 0.14 0.17 0.19 0.15 0.15 0.08
0.06 0.06 0.10 0.11 0.09 0.07 0.08 0.04 0.01 0.01 0.04 0.11 0.12 0.10 0.10 0.16 0.14 0.18 0.25 0.27 0.26 0.17 0.42 0.38 0.17 0.16 0.14 0.12 0.15 0.17 0.19 0.23 0.30 0.39 0.41 0.37 0.32 0.28 0.31 0.36 0.29 0.27 0.14
0.02 0.06 0.10 0.13 0.14 0.08 0.08 0.04 0.02 0.03 0.02 0.08 0.15 0.15 0.15 0.17 0.15 0.11 0.17 0.20 0.31 0.21 0.12 0.39 0.43 0.19 0.10 0.11 0.10 0.16 0.20 0.22 0.25 0.28 0.40 0.53 0.58 0.59 0.66 0.76 0.74 0.67 0.39
0.00 0.01 0.01 0.06 0.09 0.03 0.06 0.04 0.03 0.05 0.05 0.02 0.01 0.04 0.08 0.09 0.08 0.08 0.08 0.08 0.19 0.35 0.21 0.07 0.08 0.14 0.08 0.02 0.02 0.09 0.13 0.14 0.22 0.29 0.33 0.36 0.40 0.45 0.56 0.69 0.79 0.87 0.65
0.00 0.00 0.00 0.03 0.07 0.02 0.04 0.04 0.02 0.03 0.04 0.04 0.02 0.01 0.01 0.02 0.02 0.07 0.10 0.08 0.05 0.05 0.06 0.04 0.02 0.02 0.03 0.04 0.06 0.12 0.12 0.12 0.15 0.18 0.19 0.21 0.21 0.20 0.25 0.30 0.34 0.39 0.39
0.00 0.00 0.00 0.01 0.01 0.03 0.05 0.10 0.08 0.04 0.04 0.04 0.03 0.03 0.04 0.05 0.07 0.14 0.14 0.15 0.10 0.06 0.05 0.03 0.04 0.03 0.02 0.01 0.01 0.01 0.03 0.05 0.05 0.06 0.09 0.10 0.10 0.10 0.10 0.10 0.11 0.13 0.16
0.00 0.00 0.00 0.00 0.01 0.01 0.01 0.02 0.03 0.02 0.02 0.04 0.06 0.08 0.15 0.20 0.15 0.15 0.19 0.11 0.07 0.06 0.14 0.08 0.01 0.01 0.00 0.00 0.00 0.01 0.01 0.01 0.01 0.00 0.01 0.02 0.02 0.03 0.05 0.07 0.09 0.11 0.12
0.00 0.00 0.00 0.00 0.00 0.00 0.00 0.00 0.00 0.00 0.00 0.01 0.05 0.05 0.03 0.04 0.01 0.03 0.03 0.03 0.03 0.03 0.02 0.01 0.00 0.00 0.00 0.00 0.00 0.00 0.00 0.00 0.00 0.00 0.00 0.00 0.00 0.01 0.02 0.04 0.06 0.11 0.14
0.00 0.00 0.00 0.00 0.00 0.00 0.00 0.00 0.00 0.00 0.00 0.00 0.00 0.00 0.00 0.00 0.00 0.00 0.00 0.00 0.00 0.00 0.00 0.00 0.00 0.00 0.00 0.00 0.00 0.00 0.00 0.00 0.00 0.00 0.00 0.00 0.00 0.00 0.00 0.01 0.02 0.04 0.07
0.00 0.00 0.00 0.00 0.00 0.00 0.00 0.00 0.00 0.00 0.00 0.00 0.00 0.00 0.00 0.00 0.00 0.00 0.00 0.00 0.00 0.00 0.00 0.00 0.00 0.00 0.00 0.00 0.00 0.00 0.00 0.00 0.00 0.00 0.00 0.00 0.00 0.00 0.00 0.00 0.00 0.00 0.02
0.00 0.00 0.00 0.00 0.00 0.00 0.00 0.00 0.00 0.00 0.00 0.00 0.00 0.00 0.00 0.00 0.00 0.00 0.00 0.00 0.00 0.00 0.00 0.00 0.00 0.00 0.00 0.00 0.00 0.00 0.00 0.00 0.00 0.00 0.00 0.00 0.00 0.00 0.00 0.00 0.00 0.00 0.01
0.00 0.00 0.00 0.00 0.00 0.00 0.00 0.00 0.00 0.00 0.00 0.00 0.00 0.00 0.00 0.00 0.00 0.00 0.00 0.00 0.00 0.00 0.00 0.00 0.00 0.00 0.00 0.00 0.00 0.00 0.00 0.00 0.00 0.00 0.00 0.00 0.00 0.00 0.00 0.00 0.00 0.00 0.00
0.00 0.00 0.00 0.00 0.00 0.00 0.00 0.00 0.00 0.00 0.00 0.00 0.00 0.00 0.00 0.00 0.00 0.00 0.00 0.00 0.00 0.00 0.00 0.00 0.00 0.00 0.00 0.00 0.00 0.00 0.00 0.00 0.00 0.00 0.00 0.00 0.00 0.00 0.00 0.00 0.00 0.00 0.00
0.00 0.00 0.00 0.00 0.00 0.00 0.00 0.00 0.00 0.00 0.00 0.00 0.00 0.00 0.00 0.00 0.00 0.00 0.00 0.00 0.00 0.00 0.00 0.00 0.00 0.00 0.00 0.00 0.00 0.00 0.00 0.00 0.00 0.00 0.00 0.00 0.00 0.00 0.01 0.01 0.01 0.00 0.00
0.00 0.00 0.00 0.00 0.00 0.00 0.00 0.00 0.00 0.00 0.00 0.00 0.00 0.00 0.00 0.00 0.00 0.00 0.00 0.00 0.00 0.00 0.00 0.00 0.00 0.00 0.00 0.00 0.00 0.00 0.00 0.00 0.00 0.00 0.00 0.00 0.00 0.01 0.03 0.02 0.01 0.01 0.00
0.00 0.00 0.00 0.00 0.00 0.00 0.00 0.00 0.00 0.00 0.00 0.00 0.00 0.00 0.00 0.00 0.00 0.00 0.00 0.00 0.00 0.00 0.00 0.00 0.00 0.00 0.00 0.00 0.00 0.00 0.00 0.00 0.00 0.00 0.00 0.00 0.00 0.02 0.03 0.03 0.01 0.02 0.03
0.00 0.00 0.00 0.00 0.00 0.00 0.00 0.00 0.00 0.00 0.00 0.00 0.00 0.00 0.00 0.00 0.00 0.00 0.00 0.00 0.00 0.00 0.00 0.00 0.00 0.00 0.00 0.00 0.00 0.00 0.01 0.02 0.01 0.00 0.00 0.00 0.01 0.01 0.02 0.01 0.02 0.04 0.05
0.00 0.00 0.00 0.00 0.00 0.00 0.00 0.00 0.00 0.00 0.00 0.00 0.00 0.00 0.00 0.00 0.00 0.00 0.00 0.00 0.00 0.00 0.00 0.00 0.00 0.00 0.00 0.00 0.00 0.00 0.01 0.02 0.01 0.01 0.01 0.03 0.02 0.01 0.01 0.01 0.02 0.03 0.02
0.00 0.00 0.00 0.00 0.00 0.00 0.00 0.00 0.00 0.00 0.00 0.00 0.00 0.00 0.00 0.00 0.00 0.00 0.00 0.00 0.00 0.00 0.00 0.00 0.00 0.00 0.00 0.00 0.00 0.00 0.00 0.01 0.01 0.01 0.01 0.01 0.01 0.01 0.01 0.01 0.01 0.01 0.01
0.00 0.00 0.00 0.00 0.00 0.00 0.00 0.00 0.00 0.00 0.00 0.00 0.00 0.00 0.00 0.00 0.00 0.00 0.00 0.00 0.00 0.00 0.00 0.00 0.00 0.00 0.00 0.00 0.01 0.01 0.01 0.01 0.01 0.01 0.00 0.00 0.00 0.00 0.00 0.00 0.00 0.00 0.01
0.00 0.00 0.00 0.00 0.00 0.00 0.00 0.00 0.00 0.00 0.00 0.00 0.00 0.00 0.00 0.00 0.00 0.00 0.00 0.00 0.00 0.00 0.00 0.00 0.00 0.00 0.00 0.01 0.01 0.02 0.02 0.02 0.01 0.00 0.00 0.00 0.01 0.01 0.01 0.01 0.01 0.00 0.03

GFSMW_prec_precacc24_153.txt.gz
Total_Precipitation_Accumulation
0.00 0.00 0.00 0.00 0.00 0.00 0.00 0.00 0.00 0.00 0.00 0.00 0.00 0.00 0.00 0.01 0.03 0.05 0.05 0.03 0.02 0.03 0.03 0.04 0.09 0.16 0.20 0.29 0.33 0.34 0.33 0.40 0.54 0.79 0.91 0.99 1.09 0.91 0.62 0.51 0.64 0.57 0.39
0.00 0.00 0.00 0.00 0.00 0.00 0.00 0.00 0.00 0.00 0.00 0.00 0.00 0.00 0.01 0.03 0.03 0.06 0.10 0.11 0.12 0.11 0.08 0.08 0.06 0.08 0.12 0.17 0.21 0.23 0.26 0.29 0.38 0.43 0.56 0.71 0.69 0.62 0.56 0.67 0.95 0.78 0.59
0.00 0.00 0.00 0.00 0.00 0.00 0.00 0.00 0.00 0.00 0.00 0.00 0.00 0.00 0.00 0.03 0.08 0.06 0.05 0.08 0.11 0.14 0.21 0.25 0.30 0.24 0.17 0.18 0.23 0.31 0.46 0.47 0.42 0.58 0.64 0.62 0.60 0.50 0.49 0.44 0.22 0.26 0.24
0.00 0.00 0.00 0.00 0.00 0.00 0.00 0.00 0.00 0.00 0.00 0.00 0.00 0.00 0.02 0.05 0.09 0.11 0.12 0.09 0.13 0.25 0.26 0.23 0.26 0.26 0.26 0.27 0.26 0.24 0.29 0.54 0.73 0.81 0.84 0.64 0.48 0.43 0.35 0.31 0.24 0.18 0.13
0.00 0.00 0.00 0.00 0.00 0.00 0.00 0.00 0.00 0.01 0.00 0.00 0.00 0.01 0.02 0.07 0.11 0.14 0.16 0.23 0.28 0.29 0.33 0.31 0.37 0.38 0.48 0.47 0.47 0.36 0.30 0.21 0.39 0.60 0.52 0.46 0.46 0.44 0.42 0.33 0.20 0.12 0.07
0.00 0.00 0.00 0.00 0.00 0.00 0.00 0.00 0.00 0.02 0.03 0.01 0.02 0.05 0.07 0.10 0.10 0.14 0.16 0.25 0.35 0.33 0.28 0.28 0.34 0.26 0.33 0.33 0.34 0.28 0.22 0.19 0.20 0.22 0.27 0.25 0.18 0.13 0.17 0.19 0.18 0.19 0.12
0.00 0.00 0.00 0.01 0.02 0.05 0.08 0.03 0.01 0.00 0.03 0.08 0.10 0.07 0.07 0.15 0.14 0.17 0.24 0.27 0.25 0.16 0.42 0.38 0.17 0.15 0.14 0.14 0.15 0.18 0.15 0.11 0.09 0.11 0.12 0.14 0.19 0.24 0.27 0.31 0.27 0.26 0.13
0.00 0.00 0.00 0.00 0.02 0.03 0.07 0.03 0.01 0.02 0.00 0.06 0.11 0.11 0.10 0.13 0.12 0.11 0.16 0.20 0.29 0.20 0.11 0.39 0.43 0.19 0.06 0.04 0.06 0.12 0.15 0.16 0.20 0.23 0.33 0.45 0.51 0.54 0.63 0.73 0.70 0.59 0.32
0.00 0.00 0.00 0.01 0.00 0.01 0.03 0.02 0.02 0.04 0.03 0.01 0.01 0.04 0.07 0.07 0.07 0.08 0.07 0.06 0.14 0.31 0.20 0.07 0.08 0.13 0.07 0.02 0.02 0.03 0.03 0.06 0.16 0.24 0.29 0.34 0.38 0.41 0.51 0.63 0.72 0.73 0.49
0.00 0.00 0.00 0.01 0.00 0.00 0.01 0.01 0.00 0.02 0.03 0.03 0.01 0.01 0.01 0.01 0.01 0.02 0.05 0.04 0.02 0.04 0.06 0.03 0.02 0.01 0.02 0.02 0.02 0.06 0.07 0.09 0.12 0.14 0.15 0.17 0.17 0.18 0.22 0.25 0.28 0.29 0.28
0.00 0.00 0.00 0.00 0.01 0.03 0.03 0.05 0.03 0.00 0.01 0.02 0.02 0.01 0.01 0.01 0.00 0.01 0.01 0.02 0.03 0.05 0.04 0.02 0.04 0.03 0.02 0.01 0.01 0.00 0.00 0.01 0.02 0.03 0.05 0.07 0.07 0.07 0.08 0.08 0.10 0.11 0.13
0.00 0.00 0.00 0.00 0.00 0.00 0.01 0.01 0.02 0.01 0.02 0.02 0.02 0.01 0.01 0.01 0.01 0.02 0.10 0.07 0.06 0.06 0.14 0.08 0.01 0.01 0.00 0.00 0.00 0.01 0.01 0.01 0.01 0.00 0.00 0.00 0.00 0.01 0.02 0.02 0.03 0.04 0.05
0.00 0.00 0.00 0.00 0.00 0.00 0.00 0.00 0.00 0.00 0.00 0.01 0.04 0.04 0.02 0.03 0.01 0.02 0.03 0.03 0.03 0.03 0.02 0.01 0.00 0.00 0.00 0.00 0.00 0.00 0.00 0.00 0.00 0.00 0.00 0.00 0.00 0.00 0.00 0.01 0.01 0.01 0.01
0.00 0.00 0.00 0.00 0.00 0.00 0.00 0.00 0.00 0.00 0.00 0.00 0.00 0.00 0.00 0.00 0.00 0.00 0.00 0.00 0.00 0.00 0.00 0.00 0.00 0.00 0.00 0.00 0.00 0.00 0.00 0.00 0.00 0.00 0.00 0.00 0.00 0.00 0.00 0.00 0.00 0.00 0.00
0.00 0.00 0.00 0.00 0.00 0.00 0.00 0.00 0.00 0.00 0.00 0.00 0.00 0.00 0.00 0.00 0.00 0.00 0.00 0.00 0.00 0.00 0.00 0.00 0.00 0.00 0.00 0.00 0.00 0.00 0.00 0.00 0.00 0.00 0.00 0.00 0.00 0.00 0.00 0.00 0.00 0.00 0.00
0.00 0.00 0.00 0.00 0.00 0.00 0.00 0.00 0.00 0.00 0.00 0.00 0.00 0.00 0.00 0.00 0.00 0.00 0.00 0.00 0.00 0.00 0.00 0.00 0.00 0.00 0.00 0.00 0.00 0.00 0.00 0.00 0.00 0.00 0.00 0.00 0.00 0.00 0.00 0.00 0.00 0.00 0.00
0.00 0.00 0.00 0.00 0.00 0.00 0.00 0.00 0.00 0.00 0.00 0.00 0.00 0.00 0.00 0.00 0.00 0.00 0.00 0.00 0.00 0.00 0.00 0.00 0.00 0.00 0.00 0.00 0.00 0.00 0.00 0.00 0.00 0.00 0.00 0.00 0.00 0.00 0.00 0.00 0.00 0.00 0.00
0.00 0.00 0.00 0.00 0.00 0.00 0.00 0.00 0.00 0.00 0.00 0.00 0.00 0.00 0.00 0.00 0.00 0.00 0.00 0.00 0.00 0.00 0.00 0.00 0.00 0.00 0.00 0.00 0.00 0.00 0.00 0.00 0.00 0.00 0.00 0.00 0.00 0.00 0.00 0.00 0.00 0.00 0.00
0.00 0.00 0.00 0.00 0.00 0.00 0.00 0.00 0.00 0.00 0.00 0.00 0.00 0.00 0.00 0.00 0.00 0.00 0.00 0.00 0.00 0.00 0.00 0.00 0.00 0.00 0.00 0.00 0.00 0.00 0.00 0.00 0.00 0.00 0.00 0.00 0.00 0.00 0.01 0.01 0.00 0.00 0.00
0.00 0.00 0.00 0.00 0.00 0.00 0.00 0.00 0.00 0.00 0.00 0.00 0.00 0.00 0.00 0.00 0.00 0.00 0.00 0.00 0.00 0.00 0.00 0.00 0.00 0.00 0.00 0.00 0.00 0.00 0.00 0.00 0.00 0.00 0.00 0.00 0.00 0.01 0.03 0.02 0.01 0.01 0.00
0.00 0.00 0.00 0.00 0.00 0.00 0.00 0.00 0.00 0.00 0.00 0.00 0.00 0.00 0.00 0.00 0.00 0.00 0.00 0.00 0.00 0.00 0.00 0.00 0.00 0.00 0.00 0.00 0.00 0.00 0.00 0.00 0.00 0.00 0.00 0.00 0.00 0.01 0.03 0.02 0.01 0.02 0.03
0.00 0.00 0.00 0.00 0.00 0.00 0.00 0.00 0.00 0.00 0.00 0.00 0.00 0.00 0.00 0.00 0.00 0.00 0.00 0.00 0.00 0.00 0.00 0.00 0.00 0.00 0.00 0.00 0.00 0.00 0.00 0.01 0.00 0.00 0.00 0.00 0.01 0.01 0.01 0.01 0.02 0.04 0.04
0.00 0.00 0.00 0.00 0.00 0.00 0.00 0.00 0.00 0.00 0.00 0.00 0.00 0.00 0.00 0.00 0.00 0.00 0.00 0.00 0.00 0.00 0.00 0.00 0.00 0.00 0.00 0.00 0.00 0.00 0.01 0.02 0.01 0.00 0.01 0.02 0.01 0.00 0.00 0.01 0.01 0.03 0.01
0.00 0.00 0.00 0.00 0.00 0.00 0.00 0.00 0.00 0.00 0.00 0.00 0.00 0.00 0.00 0.00 0.00 0.00 0.00 0.00 0.00 0.00 0.00 0.00 0.00 0.00 0.00 0.00 0.00 0.00 0.00 0.01 0.00 0.00 0.01 0.01 0.00 0.00 0.00 0.00 0.01 0.01 0.01
0.00 0.00 0.00 0.00 0.00 0.00 0.00 0.00 0.00 0.00 0.00 0.00 0.00 0.00 0.00 0.00 0.00 0.00 0.00 0.00 0.00 0.00 0.00 0.00 0.00 0.00 0.00 0.00 0.01 0.01 0.01 0.01 0.01 0.00 0.00 0.00 0.00 0.00 0.00 0.00 0.00 0.00 0.00
0.00 0.00 0.00 0.00 0.00 0.00 0.00 0.00 0.00 0.00 0.00 0.00 0.00 0.00 0.00 0.00 0.00 0.00 0.00 0.00 0.00 0.00 0.00 0.00 0.00 0.00 0.00 0.01 0.01 0.02 0.02 0.02 0.01 0.00 0.00 0.00 0.00 0.01 0.01 0.01 0.01 0.00 0.02

GFSMW_prec_precacc24_156.txt.gz
Total_Precipitation_Accumulation
0.00 0.00 0.00 0.00 0.00 0.00 0.00 0.00 0.00 0.00 0.00 0.00 0.00 0.00 0.00 0.00 0.02 0.05 0.05 0.03 0.02 0.03 0.03 0.04 0.09 0.16 0.21 0.29 0.33 0.34 0.31 0.39 0.55 0.80 0.93 1.04 1.23 1.12 0.89 0.85 0.92 0.84 0.64
0.00 0.00 0.00 0.00 0.00 0.00 0.00 0.00 0.00 0.00 0.00 0.00 0.00 0.00 0.00 0.00 0.01 0.05 0.10 0.11 0.12 0.11 0.08 0.08 0.06 0.08 0.12 0.17 0.21 0.23 0.28 0.31 0.42 0.48 0.61 0.76 0.76 0.74 0.77 1.07 1.47 1.66 1.73
0.00 0.00 0.00 0.00 0.00 0.00 0.00 0.00 0.00 0.00 0.00 0.00 0.00 0.00 0.00 0.00 0.02 0.04 0.05 0.08 0.11 0.14 0.21 0.25 0.30 0.25 0.19 0.19 0.23 0.37 0.63 0.57 0.48 0.68 0.76 0.72 0.65 0.53 0.58 0.72 0.60 0.86 0.87
0.00 0.00 0.00 0.00 0.00 0.00 0.00 0.00 0.00 0.00 0.00 0.00 0.00 0.00 0.00 0.00 0.00 0.04 0.08 0.09 0.13 0.25 0.26 0.23 0.26 0.27 0.28 0.29 0.29 0.25 0.34 0.61 0.80 0.87 0.89 0.69 0.58 0.45 0.37 0.38 0.46 0.44 0.38
0.00 0.00 0.00 0.00 0.00 0.00 0.00 0.00 0.00 0.00 0.00 0.00 0.00 0.00 0.00 0.01 0.03 0.07 0.12 0.22 0.27 0.28 0.33 0.31 0.37 0.38 0.48 0.49 0.51 0.47 0.40 0.34 0.50 0.69 0.56 0.45 0.44 0.40 0.37 0.32 0.21 0.14 0.11
0.00 0.00 0.00 0.00 0.00 0.00 0.00 0.00 0.00 0.00 0.00 0.00 0.02 0.04 0.04 0.04 0.05 0.09 0.11 0.22 0.31 0.32 0.28 0.28 0.34 0.26 0.33 0.33 0.36 0.35 0.29 0.29 0.28 0.31 0.36 0.27 0.18 0.12 0.14 0.17 0.16 0.17 0.11
0.00 0.00 0.00 0.00 0.00 0.00 0.00 0.00 0.00 0.00 0.00 0.01 0.05 0.03 0.02 0.06 0.06 0.11 0.20 0.23 0.23 0.16 0.42 0.38 0.17 0.15 0.14 0.13 0.15 0.18 0.16 0.13 0.11 0.12 0.14 0.10 0.09 0.10 0.14 0.18 0.16 0.20 0.12
0.00 0.00 0.00 0.00 0.00 0.00 0.00 0.00 0.00 0.00 0.00 0.01 0.05 0.05 0.03 0.03 0.03 0.06 0.12 0.17 0.28 0.20 0.11 0.39 0.43 0.19 0.06 0.03 0.01 0.04 0.07 0.08 0.13 0.15 0.20 0.27 0.35 0.41 0.50 0.62 0.60 0.49 0.27
0.00 0.00 0.00 0.00 0.00 0.00 0.00 0.00 0.00 0.00 0.01 0.00 0.00 0.02 0.02 0.02 0.04 0.06 0.07 0.06 0.13 0.31 0.20 0.07 0.08 0.13 0.07 0.01 0.00 0.00 0.02 0.03 0.07 0.11 0.20 0.27 0.31 0.33 0.40 0.49 0.56 0.61 0.45
0.00 0.00 0.00 0.00 0.00 0.00 0.00 0.00 0.00 0.01 0.01 0.01 0.00 0.00 0.00 0.01 0.01 0.02 0.05 0.04 0.02 0.03 0.05 0.02 0.01 0.00 0.01 0.01 0.00 0.01 0.05 0.07 0.10 0.12 0.14 0.16 0.16 0.17 0.21 0.24 0.26 0.27 0.26
0.00 0.00 0.00 0.00 0.00 0.00 0.00 0.01 0.01 0.00 0.00 0.01 0.01 0.00 0.00 0.00 0.00 0.01 0.01 0.01 0.00 0.00 0.00 0.00 0.00 0.01 0.01 0.00 0.00 0.00 0.00 0.01 0.02 0.03 0.05 0.06 0.06 0.06 0.06 0.06 0.07 0.08 0.09
0.00 0.00 0.00 0.00 0.00 0.00 0.00 0.00 0.00 0.01 0.02 0.01 0.01 0.00 0.00 0.00 0.00 0.00 0.00 0.00 0.00 0.00 0.01 0.05 0.01 0.01 0.00 0.00 0.00 0.01 0.01 0.01 0.01 0.00 0.00 0.00 0.00 0.00 0.00 0.00 0.00 0.00 0.01
0.00 0.00 0.00 0.00 0.00 0.00 0.00 0.00 0.00 0.00 0.00 0.00 0.01 0.00 0.00 0.00 0.00 0.00 0.00 0.00 0.00 0.00 0.01 0.01 0.00 0.00 0.00 0.00 0.00 0.00 0.00 0.00 0.00 0.00 0.00 0.00 0.00 0.00 0.00 0.00 0.00 0.00 0.00
0.00 0.00 0.00 0.00 0.00 0.00 0.00 0.00 0.00 0.00 0.00 0.00 0.00 0.00 0.00 0.00 0.00 0.00 0.00 0.00 0.00 0.00 0.00 0.00 0.00 0.00 0.00 0.00 0.00 0.00 0.00 0.00 0.00 0.00 0.00 0.00 0.00 0.00 0.00 0.00 0.00 0.00 0.00
0.00 0.00 0.00 0.00 0.00 0.00 0.00 0.00 0.00 0.00 0.00 0.00 0.00 0.00 0.00 0.00 0.00 0.00 0.00 0.00 0.00 0.00 0.00 0.00 0.00 0.00 0.00 0.00 0.00 0.00 0.00 0.00 0.00 0.00 0.00 0.00 0.00 0.00 0.00 0.00 0.00 0.00 0.00
0.00 0.00 0.00 0.00 0.00 0.00 0.00 0.00 0.00 0.00 0.00 0.00 0.00 0.00 0.00 0.00 0.00 0.00 0.00 0.00 0.00 0.00 0.00 0.00 0.00 0.00 0.00 0.00 0.00 0.00 0.00 0.00 0.00 0.00 0.00 0.00 0.00 0.00 0.00 0.00 0.00 0.00 0.00
0.00 0.00 0.00 0.00 0.00 0.00 0.00 0.00 0.00 0.00 0.00 0.00 0.00 0.00 0.00 0.00 0.00 0.00 0.00 0.00 0.00 0.00 0.00 0.00 0.00 0.00 0.00 0.00 0.00 0.00 0.00 0.00 0.00 0.00 0.00 0.00 0.00 0.00 0.00 0.00 0.00 0.00 0.00
0.00 0.00 0.00 0.00 0.00 0.00 0.00 0.00 0.00 0.00 0.00 0.00 0.00 0.00 0.00 0.00 0.00 0.00 0.00 0.00 0.00 0.00 0.00 0.00 0.00 0.00 0.00 0.00 0.00 0.00 0.00 0.00 0.00 0.00 0.00 0.00 0.00 0.00 0.00 0.00 0.00 0.00 0.00
0.00 0.00 0.00 0.00 0.00 0.00 0.00 0.00 0.00 0.00 0.00 0.00 0.00 0.00 0.00 0.00 0.00 0.00 0.00 0.00 0.00 0.00 0.00 0.00 0.00 0.00 0.00 0.00 0.00 0.00 0.00 0.00 0.00 0.00 0.00 0.00 0.00 0.00 0.01 0.01 0.00 0.00 0.00
0.00 0.00 0.00 0.00 0.00 0.00 0.00 0.00 0.00 0.00 0.00 0.00 0.00 0.00 0.00 0.00 0.00 0.00 0.00 0.00 0.00 0.00 0.00 0.00 0.00 0.00 0.00 0.00 0.00 0.00 0.00 0.00 0.00 0.00 0.00 0.00 0.00 0.01 0.02 0.01 0.01 0.01 0.00
0.00 0.00 0.00 0.00 0.00 0.00 0.00 0.00 0.00 0.00 0.00 0.00 0.00 0.00 0.00 0.00 0.00 0.00 0.00 0.00 0.00 0.00 0.00 0.00 0.00 0.00 0.00 0.00 0.00 0.00 0.00 0.00 0.00 0.00 0.00 0.00 0.00 0.01 0.02 0.02 0.01 0.01 0.03
0.00 0.00 0.00 0.00 0.00 0.00 0.00 0.00 0.00 0.00 0.00 0.00 0.00 0.00 0.00 0.00 0.00 0.00 0.00 0.00 0.00 0.00 0.00 0.00 0.00 0.00 0.00 0.00 0.00 0.00 0.00 0.01 0.00 0.00 0.00 0.00 0.01 0.01 0.01 0.01 0.01 0.03 0.03
0.00 0.00 0.00 0.00 0.00 0.00 0.00 0.00 0.00 0.00 0.00 0.00 0.00 0.00 0.00 0.00 0.00 0.00 0.00 0.00 0.00 0.00 0.00 0.00 0.00 0.00 0.00 0.00 0.00 0.00 0.01 0.01 0.01 0.00 0.01 0.02 0.01 0.00 0.00 0.00 0.01 0.01 0.01
0.00 0.00 0.00 0.00 0.00 0.00 0.00 0.00 0.00 0.00 0.00 0.00 0.00 0.00 0.00 0.00 0.00 0.00 0.00 0.00 0.00 0.00 0.00 0.00 0.00 0.00 0.00 0.00 0.00 0.00 0.00 0.01 0.00 0.00 0.00 0.00 0.00 0.00 0.00 0.00 0.00 0.00 0.01
0.00 0.00 0.00 0.00 0.00 0.00 0.00 0.00 0.00 0.00 0.00 0.00 0.00 0.00 0.00 0.00 0.00 0.00 0.00 0.00 0.00 0.00 0.00 0.00 0.00 0.00 0.01 0.01 0.02 0.02 0.01 0.01 0.01 0.01 0.00 0.00 0.00 0.00 0.00 0.00 0.00 0.00 0.00
0.00 0.00 0.00 0.00 0.00 0.00 0.00 0.00 0.00 0.00 0.00 0.00 0.00 0.00 0.00 0.00 0.00 0.00 0.00 0.00 0.00 0.00 0.00 0.00 0.00 0.00 0.01 0.02 0.02 0.02 0.03 0.03 0.02 0.01 0.00 0.01 0.01 0.01 0.01 0.00 0.00 0.00 0.01